<?xml version="1.0" encoding="UTF-8" standalone="no" ?>
<gpx xmlns="http://www.topografix.com/GPX/1/1" xmlns:xsi="http://www.w3.org/2001/XMLSchema-instance" xsi:schemaLocation="http://www.topografix.com/GPX/1/1 http://www.topografix.com/GPX/1/1/gpx.xsd" version="1.1" creator="VisuGPX - https://www.visugpx.com">
  <metadata>
    <name>GTJ Labergement &amp;gt; Bellegarde</name>
  </metadata>
  <trk>
    <name><![CDATA[GR 5 Mouthe-Chapelle des Bois]]></name>
    <trkseg>
      <trkpt lat="46.70655" lon="6.20926">
        <ele>915.833</ele>
        <time>2014-06-13T06:31:31Z</time>
      </trkpt>
      <trkpt lat="46.70655" lon="6.20926">
        <ele>915.833</ele>
        <time>2014-06-13T06:31:31Z</time>
      </trkpt>
      <trkpt lat="46.70655" lon="6.20926">
        <ele>915.833</ele>
        <time>2014-06-13T06:31:31Z</time>
      </trkpt>
      <trkpt lat="46.70661" lon="6.20866">
        <ele>914.823</ele>
        <time>2014-06-13T06:31:56Z</time>
      </trkpt>
      <trkpt lat="46.70681" lon="6.2087">
        <ele>921.615</ele>
        <time>2014-06-13T06:33:08Z</time>
      </trkpt>
      <trkpt lat="46.70669" lon="6.20878">
        <ele>947.507</ele>
        <time>2014-06-13T06:37:35Z</time>
      </trkpt>
      <trkpt lat="46.70641" lon="6.20859">
        <ele>947.03</ele>
        <time>2014-06-13T06:38:28Z</time>
      </trkpt>
      <trkpt lat="46.70586" lon="6.20769">
        <ele>945.154</ele>
        <time>2014-06-13T06:39:58Z</time>
      </trkpt>
      <trkpt lat="46.70638" lon="6.20735">
        <ele>944.679</ele>
        <time>2014-06-13T06:40:59Z</time>
      </trkpt>
      <trkpt lat="46.70685" lon="6.20751">
        <ele>942.246</ele>
        <time>2014-06-13T06:41:29Z</time>
      </trkpt>
      <trkpt lat="46.70696" lon="6.20742">
        <ele>946.671</ele>
        <time>2014-06-13T06:41:37Z</time>
      </trkpt>
      <trkpt lat="46.70794" lon="6.20587">
        <ele>944.67</ele>
        <time>2014-06-13T06:43:23Z</time>
      </trkpt>
      <trkpt lat="46.70813" lon="6.2046">
        <ele>942.752</ele>
        <time>2014-06-13T06:44:27Z</time>
      </trkpt>
      <trkpt lat="46.70812" lon="6.20269">
        <ele>941.838</ele>
        <time>2014-06-13T06:45:59Z</time>
      </trkpt>
      <trkpt lat="46.70846" lon="6.20111">
        <ele>942.27</ele>
        <time>2014-06-13T06:47:25Z</time>
      </trkpt>
      <trkpt lat="46.70972" lon="6.19949">
        <ele>946.617</ele>
        <time>2014-06-13T06:49:30Z</time>
      </trkpt>
      <trkpt lat="46.70999" lon="6.19947">
        <ele>948.507</ele>
        <time>2014-06-13T06:49:52Z</time>
      </trkpt>
      <trkpt lat="46.71023" lon="6.19919">
        <ele>949.05</ele>
        <time>2014-06-13T06:50:15Z</time>
      </trkpt>
      <trkpt lat="46.71079" lon="6.19899">
        <ele>949.944</ele>
        <time>2014-06-13T06:51:01Z</time>
      </trkpt>
      <trkpt lat="46.71004" lon="6.19731">
        <ele>947.069</ele>
        <time>2014-06-13T06:52:42Z</time>
      </trkpt>
      <trkpt lat="46.70993" lon="6.1962">
        <ele>946.186</ele>
        <time>2014-06-13T06:53:35Z</time>
      </trkpt>
      <trkpt lat="46.70999" lon="6.19552">
        <ele>944.631</ele>
        <time>2014-06-13T06:54:10Z</time>
      </trkpt>
      <trkpt lat="46.71074" lon="6.19436">
        <ele>946.67</ele>
        <time>2014-06-13T06:55:32Z</time>
      </trkpt>
      <trkpt lat="46.71049" lon="6.19299">
        <ele>943.232</ele>
        <time>2014-06-13T06:56:43Z</time>
      </trkpt>
      <trkpt lat="46.71032" lon="6.19275">
        <ele>943.237</ele>
        <time>2014-06-13T06:57:04Z</time>
      </trkpt>
      <trkpt lat="46.7105" lon="6.19254">
        <ele>943.249</ele>
        <time>2014-06-13T06:57:24Z</time>
      </trkpt>
      <trkpt lat="46.71062" lon="6.19264">
        <ele>943.213</ele>
        <time>2014-06-13T07:01:20Z</time>
      </trkpt>
      <trkpt lat="46.71066" lon="6.19249">
        <ele>943.707</ele>
        <time>2014-06-13T07:04:35Z</time>
      </trkpt>
      <trkpt lat="46.71061" lon="6.19291">
        <ele>943.76</ele>
        <time>2014-06-13T07:05:47Z</time>
      </trkpt>
      <trkpt lat="46.7103" lon="6.19227">
        <ele>943.784</ele>
        <time>2014-06-13T07:07:09Z</time>
      </trkpt>
      <trkpt lat="46.70948" lon="6.19169">
        <ele>943.739</ele>
        <time>2014-06-13T07:08:28Z</time>
      </trkpt>
      <trkpt lat="46.70767" lon="6.18995">
        <ele>944.666</ele>
        <time>2014-06-13T07:11:36Z</time>
      </trkpt>
      <trkpt lat="46.70493" lon="6.18864">
        <ele>946.151</ele>
        <time>2014-06-13T07:15:17Z</time>
      </trkpt>
      <trkpt lat="46.70096" lon="6.19444">
        <ele>953.86</ele>
        <time>2014-06-13T07:26:48Z</time>
      </trkpt>
      <trkpt lat="46.7011" lon="6.19416">
        <ele>950.492</ele>
        <time>2014-06-13T07:27:16Z</time>
      </trkpt>
      <trkpt lat="46.70079" lon="6.19355">
        <ele>950.435</ele>
        <time>2014-06-13T07:28:14Z</time>
      </trkpt>
      <trkpt lat="46.70068" lon="6.19281">
        <ele>949.986</ele>
        <time>2014-06-13T07:28:56Z</time>
      </trkpt>
      <trkpt lat="46.69919" lon="6.18946">
        <ele>951.414</ele>
        <time>2014-06-13T07:32:34Z</time>
      </trkpt>
      <trkpt lat="46.69746" lon="6.18763">
        <ele>954.707</ele>
        <time>2014-06-13T07:35:31Z</time>
      </trkpt>
      <trkpt lat="46.69639" lon="6.18615">
        <ele>956.24</ele>
        <time>2014-06-13T07:37:40Z</time>
      </trkpt>
      <trkpt lat="46.69455" lon="6.18524">
        <ele>955.794</ele>
        <time>2014-06-13T07:40:20Z</time>
      </trkpt>
      <trkpt lat="46.69462" lon="6.18476">
        <ele>957.649</ele>
        <time>2014-06-13T07:40:53Z</time>
      </trkpt>
      <trkpt lat="46.69538" lon="6.18406">
        <ele>960.096</ele>
        <time>2014-06-13T07:42:11Z</time>
      </trkpt>
      <trkpt lat="46.69558" lon="6.1837">
        <ele>960.081</ele>
        <time>2014-06-13T07:42:36Z</time>
      </trkpt>
      <trkpt lat="46.69553" lon="6.18322">
        <ele>961.57</ele>
        <time>2014-06-13T07:43:13Z</time>
      </trkpt>
      <trkpt lat="46.69529" lon="6.18272">
        <ele>962.492</ele>
        <time>2014-06-13T07:43:50Z</time>
      </trkpt>
      <trkpt lat="46.69532" lon="6.18208">
        <ele>962.466</ele>
        <time>2014-06-13T07:44:31Z</time>
      </trkpt>
      <trkpt lat="46.69517" lon="6.1814">
        <ele>961.929</ele>
        <time>2014-06-13T07:45:07Z</time>
      </trkpt>
      <trkpt lat="46.69448" lon="6.18085">
        <ele>965.821</ele>
        <time>2014-06-13T07:46:30Z</time>
      </trkpt>
      <trkpt lat="46.6938" lon="6.18056">
        <ele>974.407</ele>
        <time>2014-06-13T07:47:53Z</time>
      </trkpt>
      <trkpt lat="46.69252" lon="6.17881">
        <ele>977.393</ele>
        <time>2014-06-13T07:50:32Z</time>
      </trkpt>
      <trkpt lat="46.69267" lon="6.1783">
        <ele>975.987</ele>
        <time>2014-06-13T07:51:01Z</time>
      </trkpt>
      <trkpt lat="46.69313" lon="6.17786">
        <ele>977.812</ele>
        <time>2014-06-13T07:51:48Z</time>
      </trkpt>
      <trkpt lat="46.6932" lon="6.17705">
        <ele>980.759</ele>
        <time>2014-06-13T07:52:42Z</time>
      </trkpt>
      <trkpt lat="46.69395" lon="6.17704">
        <ele>983.114</ele>
        <time>2014-06-13T07:53:45Z</time>
      </trkpt>
      <trkpt lat="46.69434" lon="6.17722">
        <ele>985.593</ele>
        <time>2014-06-13T07:54:25Z</time>
      </trkpt>
      <trkpt lat="46.69478" lon="6.17687">
        <ele>984.115</ele>
        <time>2014-06-13T07:55:05Z</time>
      </trkpt>
      <trkpt lat="46.69479" lon="6.1762">
        <ele>983.128</ele>
        <time>2014-06-13T07:55:42Z</time>
      </trkpt>
      <trkpt lat="46.69462" lon="6.1758">
        <ele>982.189</ele>
        <time>2014-06-13T07:56:18Z</time>
      </trkpt>
      <trkpt lat="46.6948" lon="6.17533">
        <ele>980.217</ele>
        <time>2014-06-13T07:56:56Z</time>
      </trkpt>
      <trkpt lat="46.69474" lon="6.17443">
        <ele>977.807</ele>
        <time>2014-06-13T07:57:45Z</time>
      </trkpt>
      <trkpt lat="46.69424" lon="6.17348">
        <ele>974.479</ele>
        <time>2014-06-13T07:58:50Z</time>
      </trkpt>
      <trkpt lat="46.69415" lon="6.17298">
        <ele>973.083</ele>
        <time>2014-06-13T07:59:34Z</time>
      </trkpt>
      <trkpt lat="46.69492" lon="6.17217">
        <ele>974.038</ele>
        <time>2014-06-13T08:01:10Z</time>
      </trkpt>
      <trkpt lat="46.6947" lon="6.17121">
        <ele>978.845</ele>
        <time>2014-06-13T08:02:12Z</time>
      </trkpt>
      <trkpt lat="46.695" lon="6.17077">
        <ele>980.23</ele>
        <time>2014-06-13T08:02:54Z</time>
      </trkpt>
      <trkpt lat="46.69496" lon="6.17054">
        <ele>981.639</ele>
        <time>2014-06-13T08:03:09Z</time>
      </trkpt>
      <trkpt lat="46.69356" lon="6.1662">
        <ele>986.991</ele>
        <time>2014-06-13T08:07:34Z</time>
      </trkpt>
      <trkpt lat="46.69239" lon="6.16336">
        <ele>986.935</ele>
        <time>2014-06-13T08:10:28Z</time>
      </trkpt>
      <trkpt lat="46.69213" lon="6.16242">
        <ele>988.986</ele>
        <time>2014-06-13T08:11:23Z</time>
      </trkpt>
      <trkpt lat="46.69143" lon="6.16096">
        <ele>988.914</ele>
        <time>2014-06-13T08:13:01Z</time>
      </trkpt>
      <trkpt lat="46.69019" lon="6.15708">
        <ele>992.207</ele>
        <time>2014-06-13T08:16:40Z</time>
      </trkpt>
      <trkpt lat="46.68996" lon="6.157">
        <ele>990.83</ele>
        <time>2014-06-13T08:16:59Z</time>
      </trkpt>
      <trkpt lat="46.68845" lon="6.15856">
        <ele>993.294</ele>
        <time>2014-06-13T08:19:35Z</time>
      </trkpt>
      <trkpt lat="46.68819" lon="6.15865">
        <ele>992.299</ele>
        <time>2014-06-13T08:19:56Z</time>
      </trkpt>
      <trkpt lat="46.68713" lon="6.15637">
        <ele>978.866</ele>
        <time>2014-06-13T08:22:33Z</time>
      </trkpt>
      <trkpt lat="46.68571" lon="6.15026">
        <ele>983.191</ele>
        <time>2014-06-13T08:28:31Z</time>
      </trkpt>
      <trkpt lat="46.68469" lon="6.14793">
        <ele>986.53</ele>
        <time>2014-06-13T08:31:25Z</time>
      </trkpt>
      <trkpt lat="46.68352" lon="6.14384">
        <ele>990.312</ele>
        <time>2014-06-13T08:35:30Z</time>
      </trkpt>
      <trkpt lat="46.68291" lon="6.13972">
        <ele>1007.669</ele>
        <time>2014-06-13T08:40:33Z</time>
      </trkpt>
      <trkpt lat="46.68226" lon="6.13774">
        <ele>1009.004</ele>
        <time>2014-06-13T08:42:34Z</time>
      </trkpt>
      <trkpt lat="46.68121" lon="6.13607">
        <ele>998.524</ele>
        <time>2014-06-13T08:44:41Z</time>
      </trkpt>
      <trkpt lat="46.68085" lon="6.13492">
        <ele>995.607</ele>
        <time>2014-06-13T08:45:55Z</time>
      </trkpt>
      <trkpt lat="46.68086" lon="6.13442">
        <ele>995.663</ele>
        <time>2014-06-13T08:46:25Z</time>
      </trkpt>
      <trkpt lat="46.68044" lon="6.13417">
        <ele>996.567</ele>
        <time>2014-06-13T08:47:03Z</time>
      </trkpt>
      <trkpt lat="46.67963" lon="6.13328">
        <ele>994.162</ele>
        <time>2014-06-13T08:48:23Z</time>
      </trkpt>
      <trkpt lat="46.67937" lon="6.13337">
        <ele>993.719</ele>
        <time>2014-06-13T08:48:53Z</time>
      </trkpt>
      <trkpt lat="46.67881" lon="6.13417">
        <ele>994.654</ele>
        <time>2014-06-13T08:49:58Z</time>
      </trkpt>
      <trkpt lat="46.67735" lon="6.13756">
        <ele>999.453</ele>
        <time>2014-06-13T08:53:42Z</time>
      </trkpt>
      <trkpt lat="46.67672" lon="6.13834">
        <ele>1001.465</ele>
        <time>2014-06-13T08:54:49Z</time>
      </trkpt>
      <trkpt lat="46.67641" lon="6.13841">
        <ele>1002.311</ele>
        <time>2014-06-13T08:55:10Z</time>
      </trkpt>
      <trkpt lat="46.67604" lon="6.13828">
        <ele>1003.321</ele>
        <time>2014-06-13T08:55:38Z</time>
      </trkpt>
      <trkpt lat="46.67507" lon="6.13757">
        <ele>1005.703</ele>
        <time>2014-06-13T08:57:02Z</time>
      </trkpt>
      <trkpt lat="46.6743" lon="6.13751">
        <ele>1009.007</ele>
        <time>2014-06-13T08:58:09Z</time>
      </trkpt>
      <trkpt lat="46.6737" lon="6.13511">
        <ele>1011.438</ele>
        <time>2014-06-13T09:00:41Z</time>
      </trkpt>
      <trkpt lat="46.67251" lon="6.13228">
        <ele>1017.752</ele>
        <time>2014-06-13T09:03:38Z</time>
      </trkpt>
      <trkpt lat="46.67156" lon="6.13168">
        <ele>1020.127</ele>
        <time>2014-06-13T09:04:58Z</time>
      </trkpt>
      <trkpt lat="46.67048" lon="6.13047">
        <ele>1022.524</ele>
        <time>2014-06-13T09:06:44Z</time>
      </trkpt>
      <trkpt lat="46.66965" lon="6.12987">
        <ele>1030.749</ele>
        <time>2014-06-13T09:08:04Z</time>
      </trkpt>
      <trkpt lat="46.6671" lon="6.12571">
        <ele>1057.638</ele>
        <time>2014-06-13T09:13:56Z</time>
      </trkpt>
      <trkpt lat="46.66531" lon="6.12113">
        <ele>1045.62</ele>
        <time>2014-06-13T09:18:33Z</time>
      </trkpt>
      <trkpt lat="46.66517" lon="6.11881">
        <ele>1046.592</ele>
        <time>2014-06-13T09:20:56Z</time>
      </trkpt>
      <trkpt lat="46.66471" lon="6.11797">
        <ele>1045.673</ele>
        <time>2014-06-13T09:21:47Z</time>
      </trkpt>
      <trkpt lat="46.664" lon="6.11699">
        <ele>1049.42</ele>
        <time>2014-06-13T09:23:05Z</time>
      </trkpt>
      <trkpt lat="46.6632" lon="6.1176">
        <ele>1058.607</ele>
        <time>2014-06-13T09:24:38Z</time>
      </trkpt>
      <trkpt lat="46.66261" lon="6.11755">
        <ele>1065.316</ele>
        <time>2014-06-13T09:25:35Z</time>
      </trkpt>
      <trkpt lat="46.66214" lon="6.11718">
        <ele>1065.85</ele>
        <time>2014-06-13T09:26:23Z</time>
      </trkpt>
      <trkpt lat="46.66201" lon="6.11616">
        <ele>1058.655</ele>
        <time>2014-06-13T09:27:35Z</time>
      </trkpt>
      <trkpt lat="46.66222" lon="6.11508">
        <ele>1049.452</ele>
        <time>2014-06-13T09:28:55Z</time>
      </trkpt>
      <trkpt lat="46.66172" lon="6.1134">
        <ele>1048.547</ele>
        <time>2014-06-13T09:31:07Z</time>
      </trkpt>
      <trkpt lat="46.66174" lon="6.11282">
        <ele>1052.816</ele>
        <time>2014-06-13T09:31:58Z</time>
      </trkpt>
      <trkpt lat="46.66152" lon="6.11217">
        <ele>1057.138</ele>
        <time>2014-06-13T09:32:52Z</time>
      </trkpt>
      <trkpt lat="46.66089" lon="6.11096">
        <ele>1065.865</ele>
        <time>2014-06-13T09:35:16Z</time>
      </trkpt>
      <trkpt lat="46.66066" lon="6.11003">
        <ele>1070.168</ele>
        <time>2014-06-13T09:36:18Z</time>
      </trkpt>
      <trkpt lat="46.66008" lon="6.1095">
        <ele>1071.514</ele>
        <time>2014-06-13T09:37:20Z</time>
      </trkpt>
      <trkpt lat="46.65931" lon="6.10823">
        <ele>1069.607</ele>
        <time>2014-06-13T09:39:13Z</time>
      </trkpt>
      <trkpt lat="46.65823" lon="6.10578">
        <ele>1073.593</ele>
        <time>2014-06-13T09:42:05Z</time>
      </trkpt>
      <trkpt lat="46.65688" lon="6.10696">
        <ele>1090.387</ele>
        <time>2014-06-13T09:45:09Z</time>
      </trkpt>
      <trkpt lat="46.65645" lon="6.10684">
        <ele>1094.122</ele>
        <time>2014-06-13T09:45:58Z</time>
      </trkpt>
      <trkpt lat="46.65585" lon="6.10643">
        <ele>1100.979</ele>
        <time>2014-06-13T09:47:27Z</time>
      </trkpt>
      <trkpt lat="46.65563" lon="6.10656">
        <ele>1104.764</ele>
        <time>2014-06-13T09:48:03Z</time>
      </trkpt>
      <trkpt lat="46.65578" lon="6.10716">
        <ele>1108.583</ele>
        <time>2014-06-13T09:49:00Z</time>
      </trkpt>
      <trkpt lat="46.65684" lon="6.10893">
        <ele>1122.065</ele>
        <time>2014-06-13T09:52:27Z</time>
      </trkpt>
      <trkpt lat="46.65701" lon="6.10953">
        <ele>1124.972</ele>
        <time>2014-06-13T09:53:17Z</time>
      </trkpt>
      <trkpt lat="46.65703" lon="6.11073">
        <ele>1131.613</ele>
        <time>2014-06-13T09:55:00Z</time>
      </trkpt>
      <trkpt lat="46.65685" lon="6.11119">
        <ele>1133.114</ele>
        <time>2014-06-13T09:55:31Z</time>
      </trkpt>
      <trkpt lat="46.65636" lon="6.11177">
        <ele>1136.407</ele>
        <time>2014-06-13T09:56:27Z</time>
      </trkpt>
      <trkpt lat="46.65592" lon="6.11179">
        <ele>1140.354</ele>
        <time>2014-06-13T09:57:11Z</time>
      </trkpt>
      <trkpt lat="46.65556" lon="6.11137">
        <ele>1144.158</ele>
        <time>2014-06-13T09:58:04Z</time>
      </trkpt>
      <trkpt lat="46.65505" lon="6.11109">
        <ele>1150.893</ele>
        <time>2014-06-13T09:59:11Z</time>
      </trkpt>
      <trkpt lat="46.65423" lon="6.11217">
        <ele>1163.37</ele>
        <time>2014-06-13T10:01:29Z</time>
      </trkpt>
      <trkpt lat="46.65388" lon="6.11236">
        <ele>1166.715</ele>
        <time>2014-06-13T10:02:18Z</time>
      </trkpt>
      <trkpt lat="46.65363" lon="6.11271">
        <ele>1167.724</ele>
        <time>2014-06-13T10:02:53Z</time>
      </trkpt>
      <trkpt lat="46.65343" lon="6.11277">
        <ele>1169.636</ele>
        <time>2014-06-13T10:03:10Z</time>
      </trkpt>
      <trkpt lat="46.65324" lon="6.11263">
        <ele>1171.011</ele>
        <time>2014-06-13T10:03:27Z</time>
      </trkpt>
      <trkpt lat="46.65282" lon="6.11206">
        <ele>1172.521</ele>
        <time>2014-06-13T10:04:15Z</time>
      </trkpt>
      <trkpt lat="46.65247" lon="6.11187">
        <ele>1174.903</ele>
        <time>2014-06-13T10:04:53Z</time>
      </trkpt>
      <trkpt lat="46.65157" lon="6.11251">
        <ele>1177.807</ele>
        <time>2014-06-13T10:06:28Z</time>
      </trkpt>
      <trkpt lat="46.6496" lon="6.11335">
        <ele>1194.628</ele>
        <time>2014-06-13T10:09:50Z</time>
      </trkpt>
      <trkpt lat="46.64942" lon="6.11365">
        <ele>1195.192</ele>
        <time>2014-06-13T10:10:14Z</time>
      </trkpt>
      <trkpt lat="46.64889" lon="6.11396">
        <ele>1193.157</ele>
        <time>2014-06-13T10:10:53Z</time>
      </trkpt>
      <trkpt lat="46.64861" lon="6.11346">
        <ele>1196.054</ele>
        <time>2014-06-13T10:11:28Z</time>
      </trkpt>
      <trkpt lat="46.64813" lon="6.11321">
        <ele>1195.149</ele>
        <time>2014-06-13T10:12:13Z</time>
      </trkpt>
      <trkpt lat="46.64564" lon="6.1142">
        <ele>1193.138</ele>
        <time>2014-06-13T10:15:36Z</time>
      </trkpt>
      <trkpt lat="46.64432" lon="6.11614">
        <ele>1191.27</ele>
        <time>2014-06-13T10:18:01Z</time>
      </trkpt>
      <trkpt lat="46.64394" lon="6.11637">
        <ele>1192.774</ele>
        <time>2014-06-13T10:18:48Z</time>
      </trkpt>
      <trkpt lat="46.6425" lon="6.11785">
        <ele>1205.256</ele>
        <time>2014-06-13T10:21:30Z</time>
      </trkpt>
      <trkpt lat="46.64107" lon="6.11868">
        <ele>1212.821</ele>
        <time>2014-06-13T10:23:45Z</time>
      </trkpt>
      <trkpt lat="46.64" lon="6.11834">
        <ele>1211.407</ele>
        <time>2014-06-13T10:25:14Z</time>
      </trkpt>
      <trkpt lat="46.63994" lon="6.11875">
        <ele>1211.424</ele>
        <time>2014-06-13T10:25:43Z</time>
      </trkpt>
      <trkpt lat="46.63957" lon="6.11878">
        <ele>1211.458</ele>
        <time>2014-06-13T10:26:17Z</time>
      </trkpt>
      <trkpt lat="46.63892" lon="6.11829">
        <ele>1210.433</ele>
        <time>2014-06-13T10:27:12Z</time>
      </trkpt>
      <trkpt lat="46.63831" lon="6.11733">
        <ele>1209.59</ele>
        <time>2014-06-13T10:28:24Z</time>
      </trkpt>
      <trkpt lat="46.63785" lon="6.11596">
        <ele>1208.055</ele>
        <time>2014-06-13T10:29:46Z</time>
      </trkpt>
      <trkpt lat="46.63752" lon="6.11395">
        <ele>1208.074</ele>
        <time>2014-06-13T10:31:33Z</time>
      </trkpt>
      <trkpt lat="46.63712" lon="6.11286">
        <ele>1208.026</ele>
        <time>2014-06-13T10:32:37Z</time>
      </trkpt>
      <trkpt lat="46.63675" lon="6.11225">
        <ele>1206.658</ele>
        <time>2014-06-13T10:33:17Z</time>
      </trkpt>
      <trkpt lat="46.63597" lon="6.11214">
        <ele>1207.652</ele>
        <time>2014-06-13T10:34:15Z</time>
      </trkpt>
      <trkpt lat="46.63559" lon="6.11155">
        <ele>1207.617</ele>
        <time>2014-06-13T10:34:52Z</time>
      </trkpt>
      <trkpt lat="46.63583" lon="6.10997">
        <ele>1207.607</ele>
        <time>2014-06-13T10:36:08Z</time>
      </trkpt>
      <trkpt lat="46.63554" lon="6.1095">
        <ele>1206.692</ele>
        <time>2014-06-13T10:36:44Z</time>
      </trkpt>
      <trkpt lat="46.63465" lon="6.10926">
        <ele>1205.696</ele>
        <time>2014-06-13T10:37:51Z</time>
      </trkpt>
      <trkpt lat="46.63423" lon="6.10937">
        <ele>1205.681</ele>
        <time>2014-06-13T10:38:31Z</time>
      </trkpt>
      <trkpt lat="46.6334" lon="6.11159">
        <ele>1206.648</ele>
        <time>2014-06-13T10:41:08Z</time>
      </trkpt>
      <trkpt lat="46.63228" lon="6.11287">
        <ele>1210.043</ele>
        <time>2014-06-13T10:42:47Z</time>
      </trkpt>
      <trkpt lat="46.63151" lon="6.11329">
        <ele>1215.732</ele>
        <time>2014-06-13T10:43:58Z</time>
      </trkpt>
      <trkpt lat="46.63112" lon="6.11295">
        <ele>1215.744</ele>
        <time>2014-06-13T10:44:33Z</time>
      </trkpt>
      <trkpt lat="46.63054" lon="6.11081">
        <ele>1202.874</ele>
        <time>2014-06-13T10:46:37Z</time>
      </trkpt>
      <trkpt lat="46.63028" lon="6.11037">
        <ele>1201.356</ele>
        <time>2014-06-13T10:47:09Z</time>
      </trkpt>
      <trkpt lat="46.62927" lon="6.10966">
        <ele>1199.421</ele>
        <time>2014-06-13T10:48:51Z</time>
      </trkpt>
      <trkpt lat="46.62892" lon="6.1092">
        <ele>1197.907</ele>
        <time>2014-06-13T10:49:33Z</time>
      </trkpt>
      <trkpt lat="46.62881" lon="6.10856">
        <ele>1194.164</ele>
        <time>2014-06-13T10:50:03Z</time>
      </trkpt>
      <trkpt lat="46.62835" lon="6.10885">
        <ele>1187.958</ele>
        <time>2014-06-13T10:50:51Z</time>
      </trkpt>
      <trkpt lat="46.62803" lon="6.10822">
        <ele>1184.023</ele>
        <time>2014-06-13T10:51:33Z</time>
      </trkpt>
      <trkpt lat="46.62738" lon="6.10921">
        <ele>1173.97</ele>
        <time>2014-06-13T10:53:04Z</time>
      </trkpt>
      <trkpt lat="46.62674" lon="6.10957">
        <ele>1169.645</ele>
        <time>2014-06-13T10:53:43Z</time>
      </trkpt>
      <trkpt lat="46.62648" lon="6.10951">
        <ele>1169.194</ele>
        <time>2014-06-13T10:54:02Z</time>
      </trkpt>
      <trkpt lat="46.62592" lon="6.109">
        <ele>1170.586</ele>
        <time>2014-06-13T10:54:56Z</time>
      </trkpt>
      <trkpt lat="46.62481" lon="6.10927">
        <ele>1164.378</ele>
        <time>2014-06-13T10:56:29Z</time>
      </trkpt>
      <trkpt lat="46.62429" lon="6.10916">
        <ele>1158.133</ele>
        <time>2014-06-13T10:58:02Z</time>
      </trkpt>
      <trkpt lat="46.62356" lon="6.10776">
        <ele>1150.826</ele>
        <time>2014-06-13T10:59:54Z</time>
      </trkpt>
      <trkpt lat="46.62258" lon="6.10477">
        <ele>1138.807</ele>
        <time>2014-06-13T11:02:56Z</time>
      </trkpt>
      <trkpt lat="46.6222" lon="6.10441">
        <ele>1137.964</ele>
        <time>2014-06-13T11:03:42Z</time>
      </trkpt>
      <trkpt lat="46.62192" lon="6.1045">
        <ele>1138.828</ele>
        <time>2014-06-13T11:04:09Z</time>
      </trkpt>
      <trkpt lat="46.62031" lon="6.1058">
        <ele>1122.583</ele>
        <time>2014-06-13T11:07:06Z</time>
      </trkpt>
      <trkpt lat="46.61941" lon="6.10547">
        <ele>1113.88</ele>
        <time>2014-06-13T11:08:29Z</time>
      </trkpt>
      <trkpt lat="46.61882" lon="6.10495">
        <ele>1106.185</ele>
        <time>2014-06-13T11:09:33Z</time>
      </trkpt>
      <trkpt lat="46.61806" lon="6.10518">
        <ele>1106.654</ele>
        <time>2014-06-13T11:10:58Z</time>
      </trkpt>
      <trkpt lat="46.61744" lon="6.10502">
        <ele>1102.386</ele>
        <time>2014-06-13T11:11:51Z</time>
      </trkpt>
      <trkpt lat="46.61707" lon="6.10523">
        <ele>1099.483</ele>
        <time>2014-06-13T11:12:21Z</time>
      </trkpt>
      <trkpt lat="46.6168" lon="6.10521">
        <ele>1098.425</ele>
        <time>2014-06-13T11:12:47Z</time>
      </trkpt>
      <trkpt lat="46.61639" lon="6.10559">
        <ele>1098.017</ele>
        <time>2014-06-13T11:13:28Z</time>
      </trkpt>
      <trkpt lat="46.61568" lon="6.10568">
        <ele>1095.607</ele>
        <time>2014-06-13T11:14:23Z</time>
      </trkpt>
      <trkpt lat="46.61446" lon="6.10645">
        <ele>1092.795</ele>
        <time>2014-06-13T11:16:14Z</time>
      </trkpt>
      <trkpt lat="46.61415" lon="6.1064">
        <ele>1093.619</ele>
        <time>2014-06-13T11:16:44Z</time>
      </trkpt>
      <trkpt lat="46.61372" lon="6.10582">
        <ele>1090.344</ele>
        <time>2014-06-13T11:17:36Z</time>
      </trkpt>
      <trkpt lat="46.61232" lon="6.10539">
        <ele>1093.251</ele>
        <time>2014-06-13T11:19:44Z</time>
      </trkpt>
      <trkpt lat="46.61197" lon="6.10414">
        <ele>1092.746</ele>
        <time>2014-06-13T11:20:55Z</time>
      </trkpt>
      <trkpt lat="46.61159" lon="6.10386">
        <ele>1091.255</ele>
        <time>2014-06-13T11:21:35Z</time>
      </trkpt>
      <trkpt lat="46.61099" lon="6.10403">
        <ele>1090.367</ele>
        <time>2014-06-13T11:22:36Z</time>
      </trkpt>
      <trkpt lat="46.60965" lon="6.10476">
        <ele>1086.929</ele>
        <time>2014-06-13T11:24:31Z</time>
      </trkpt>
      <trkpt lat="46.608" lon="6.1061">
        <ele>1085</ele>
        <time>2014-06-13T11:27:18Z</time>
      </trkpt>
      <trkpt lat="46.60692" lon="6.10676">
        <ele>1084.02</ele>
        <time>2014-06-13T11:29:02Z</time>
      </trkpt>
      <trkpt lat="46.60271" lon="6.10672">
        <ele>1079.207</ele>
        <time>2014-06-13T11:34:51Z</time>
      </trkpt>
      <trkpt lat="46.60127" lon="6.10712">
        <ele>1077.879</ele>
        <time>2014-06-13T11:36:58Z</time>
      </trkpt>
      <trkpt lat="46.60075" lon="6.10711">
        <ele>1077.323</ele>
        <time>2014-06-13T11:37:54Z</time>
      </trkpt>
      <trkpt lat="46.6006" lon="6.10864">
        <ele>1078.388</ele>
        <time>2014-06-13T11:40:08Z</time>
      </trkpt>
      <trkpt lat="46.59942" lon="6.1133">
        <ele>1094.145</ele>
        <time>2014-06-13T11:45:37Z</time>
      </trkpt>
      <trkpt lat="46.59882" lon="6.11402">
        <ele>1089.88</ele>
        <time>2014-06-13T11:46:59Z</time>
      </trkpt>
      <trkpt lat="46.59802" lon="6.11411">
        <ele>1093.279</ele>
        <time>2014-06-13T11:48:54Z</time>
      </trkpt>
      <trkpt lat="46.59826" lon="6.11404">
        <ele>1093.621</ele>
        <time>2014-06-13T11:49:49Z</time>
      </trkpt>
      <trkpt lat="46.59822" lon="6.11391">
        <ele>1094.166</ele>
        <time>2014-06-13T11:50:09Z</time>
      </trkpt>
      <trkpt lat="46.59844" lon="6.11363">
        <ele>1093.629</ele>
        <time>2014-06-13T11:50:43Z</time>
      </trkpt>
      <trkpt lat="46.59794" lon="6.11417">
        <ele>1093.621</ele>
        <time>2014-06-13T11:51:10Z</time>
      </trkpt>
      <trkpt lat="46.59812" lon="6.11379">
        <ele>1097.007</ele>
        <time>2014-06-13T11:53:43Z</time>
      </trkpt>
    </trkseg>
  </trk>
  <trk>
    <name><![CDATA[GTJ Labergement &gt; Bellegarde_2]]></name>
    <trkseg>
      <trkpt lat="46.77414" lon="6.28043">
        <ele>858.2</ele>
      </trkpt>
      <trkpt lat="46.77414" lon="6.28043">
        <ele>858.2</ele>
      </trkpt>
      <trkpt lat="46.77316" lon="6.2806">
        <ele>857.8</ele>
      </trkpt>
      <trkpt lat="46.77244" lon="6.27969">
        <ele>854.3</ele>
      </trkpt>
      <trkpt lat="46.77092" lon="6.27937">
        <ele>856.1</ele>
      </trkpt>
      <trkpt lat="46.77159" lon="6.27764">
        <ele>855.8</ele>
      </trkpt>
      <trkpt lat="46.77156" lon="6.27543">
        <ele>853</ele>
      </trkpt>
      <trkpt lat="46.77047" lon="6.2698">
        <ele>846.2</ele>
      </trkpt>
      <trkpt lat="46.76826" lon="6.27075">
        <ele>847</ele>
      </trkpt>
      <trkpt lat="46.76734" lon="6.27">
        <ele>849.8</ele>
      </trkpt>
      <trkpt lat="46.76503" lon="6.27059">
        <ele>874.2</ele>
      </trkpt>
      <trkpt lat="46.76282" lon="6.27228">
        <ele>890</ele>
      </trkpt>
      <trkpt lat="46.76344" lon="6.2745">
        <ele>881.8</ele>
      </trkpt>
      <trkpt lat="46.75949" lon="6.27408">
        <ele>915</ele>
      </trkpt>
      <trkpt lat="46.75712" lon="6.27393">
        <ele>955.6</ele>
      </trkpt>
      <trkpt lat="46.7508" lon="6.26787">
        <ele>988.1</ele>
      </trkpt>
      <trkpt lat="46.74746" lon="6.27958">
        <ele>974.6</ele>
      </trkpt>
      <trkpt lat="46.74955" lon="6.28394">
        <ele>969.1</ele>
      </trkpt>
      <trkpt lat="46.74791" lon="6.28283">
        <ele>954.1</ele>
      </trkpt>
      <trkpt lat="46.74559" lon="6.28517">
        <ele>932.5</ele>
      </trkpt>
      <trkpt lat="46.74496" lon="6.28869">
        <ele>925.6</ele>
      </trkpt>
      <trkpt lat="46.74639" lon="6.2963">
        <ele>912.3</ele>
      </trkpt>
      <trkpt lat="46.75461" lon="6.31751">
        <ele>922</ele>
      </trkpt>
    </trkseg>
  </trk>
  <trk>
    <name><![CDATA[GTJ Labergement &gt; Bellegarde_3]]></name>
    <trkseg>
      <trkpt lat="46.75461" lon="6.31751">
        <ele>922</ele>
      </trkpt>
      <trkpt lat="46.75461" lon="6.31751">
        <ele>922</ele>
      </trkpt>
      <trkpt lat="46.75078" lon="6.30994">
        <ele>918.9</ele>
      </trkpt>
      <trkpt lat="46.74596" lon="6.31408">
        <ele>999.3</ele>
      </trkpt>
      <trkpt lat="46.74486" lon="6.31988">
        <ele>1063.5</ele>
      </trkpt>
      <trkpt lat="46.74237" lon="6.31983">
        <ele>1093.5</ele>
      </trkpt>
      <trkpt lat="46.73992" lon="6.3163">
        <ele>1120.6</ele>
      </trkpt>
      <trkpt lat="46.73354" lon="6.34689">
        <ele>1349.3</ele>
      </trkpt>
      <trkpt lat="46.73308" lon="6.34726">
        <ele>1352.754</ele>
      </trkpt>
      <trkpt lat="46.73308" lon="6.34726">
        <ele>1352.754</ele>
      </trkpt>
      <trkpt lat="46.73295" lon="6.34701">
        <ele>1347.305</ele>
      </trkpt>
      <trkpt lat="46.73279" lon="6.34667">
        <ele>1342.138</ele>
      </trkpt>
      <trkpt lat="46.73264" lon="6.34631">
        <ele>1335.901</ele>
      </trkpt>
      <trkpt lat="46.73254" lon="6.34613">
        <ele>1332.523</ele>
      </trkpt>
      <trkpt lat="46.73243" lon="6.34586">
        <ele>1326.886</ele>
      </trkpt>
      <trkpt lat="46.73233" lon="6.34554">
        <ele>1320.86</ele>
      </trkpt>
      <trkpt lat="46.73223" lon="6.34522">
        <ele>1315.384</ele>
      </trkpt>
      <trkpt lat="46.73214" lon="6.34503">
        <ele>1314.446</ele>
      </trkpt>
      <trkpt lat="46.73209" lon="6.3448">
        <ele>1313.698</ele>
      </trkpt>
      <trkpt lat="46.73197" lon="6.34443">
        <ele>1314.232</ele>
      </trkpt>
      <trkpt lat="46.73186" lon="6.34409">
        <ele>1314.473</ele>
      </trkpt>
      <trkpt lat="46.73177" lon="6.34379">
        <ele>1312.914</ele>
      </trkpt>
      <trkpt lat="46.73164" lon="6.34337">
        <ele>1309.028</ele>
      </trkpt>
      <trkpt lat="46.73151" lon="6.34302">
        <ele>1307.342</ele>
      </trkpt>
      <trkpt lat="46.73143" lon="6.34277">
        <ele>1306.335</ele>
      </trkpt>
      <trkpt lat="46.73131" lon="6.34238">
        <ele>1306.001</ele>
      </trkpt>
      <trkpt lat="46.73114" lon="6.34183">
        <ele>1303.917</ele>
      </trkpt>
      <trkpt lat="46.73103" lon="6.34153">
        <ele>1304.079</ele>
      </trkpt>
      <trkpt lat="46.7309" lon="6.34116">
        <ele>1306.824</ele>
      </trkpt>
      <trkpt lat="46.73079" lon="6.34082">
        <ele>1310</ele>
      </trkpt>
      <trkpt lat="46.73071" lon="6.34057">
        <ele>1310</ele>
      </trkpt>
      <trkpt lat="46.73063" lon="6.34037">
        <ele>1308.818</ele>
      </trkpt>
      <trkpt lat="46.73051" lon="6.3401">
        <ele>1306.098</ele>
      </trkpt>
      <trkpt lat="46.7304" lon="6.33978">
        <ele>1302.946</ele>
      </trkpt>
      <trkpt lat="46.73025" lon="6.33936">
        <ele>1297.106</ele>
      </trkpt>
      <trkpt lat="46.73015" lon="6.33902">
        <ele>1291.201</ele>
      </trkpt>
      <trkpt lat="46.73" lon="6.33865">
        <ele>1286.424</ele>
      </trkpt>
      <trkpt lat="46.72993" lon="6.3384">
        <ele>1283.715</ele>
      </trkpt>
      <trkpt lat="46.72983" lon="6.33818">
        <ele>1281.331</ele>
      </trkpt>
      <trkpt lat="46.7298" lon="6.33795">
        <ele>1279.223</ele>
      </trkpt>
      <trkpt lat="46.72979" lon="6.3377">
        <ele>1277.511</ele>
      </trkpt>
      <trkpt lat="46.72979" lon="6.33747">
        <ele>1276.158</ele>
      </trkpt>
      <trkpt lat="46.72977" lon="6.33731">
        <ele>1275.461</ele>
      </trkpt>
      <trkpt lat="46.72975" lon="6.33711">
        <ele>1275.06</ele>
      </trkpt>
      <trkpt lat="46.72968" lon="6.33692">
        <ele>1275</ele>
      </trkpt>
      <trkpt lat="46.7295" lon="6.3366">
        <ele>1274.803</ele>
      </trkpt>
      <trkpt lat="46.72935" lon="6.33628">
        <ele>1273.462</ele>
      </trkpt>
      <trkpt lat="46.72919" lon="6.33599">
        <ele>1271.241</ele>
      </trkpt>
      <trkpt lat="46.72911" lon="6.3358">
        <ele>1269.906</ele>
      </trkpt>
      <trkpt lat="46.72905" lon="6.33557">
        <ele>1269.444</ele>
      </trkpt>
      <trkpt lat="46.72901" lon="6.33532">
        <ele>1269.168</ele>
      </trkpt>
      <trkpt lat="46.72899" lon="6.33507">
        <ele>1269.016</ele>
      </trkpt>
      <trkpt lat="46.72902" lon="6.33457">
        <ele>1268.916</ele>
      </trkpt>
      <trkpt lat="46.729" lon="6.33404">
        <ele>1271.419</ele>
      </trkpt>
      <trkpt lat="46.72899" lon="6.3337">
        <ele>1273.653</ele>
      </trkpt>
      <trkpt lat="46.72898" lon="6.33343">
        <ele>1275.642</ele>
      </trkpt>
      <trkpt lat="46.72896" lon="6.33302">
        <ele>1277.719</ele>
      </trkpt>
      <trkpt lat="46.72895" lon="6.33271">
        <ele>1276.981</ele>
      </trkpt>
      <trkpt lat="46.72894" lon="6.33235">
        <ele>1274.434</ele>
      </trkpt>
      <trkpt lat="46.7289" lon="6.33218">
        <ele>1272.671</ele>
      </trkpt>
      <trkpt lat="46.7289" lon="6.33192">
        <ele>1269.926</ele>
      </trkpt>
      <trkpt lat="46.7289" lon="6.33186">
        <ele>1269.488</ele>
      </trkpt>
      <trkpt lat="46.72888" lon="6.33169">
        <ele>1268.011</ele>
      </trkpt>
      <trkpt lat="46.72884" lon="6.33142">
        <ele>1264.206</ele>
      </trkpt>
      <trkpt lat="46.72883" lon="6.3312">
        <ele>1262.357</ele>
      </trkpt>
      <trkpt lat="46.72883" lon="6.33106">
        <ele>1261.133</ele>
      </trkpt>
      <trkpt lat="46.72878" lon="6.33075">
        <ele>1257.113</ele>
      </trkpt>
      <trkpt lat="46.72878" lon="6.33045">
        <ele>1254.278</ele>
      </trkpt>
      <trkpt lat="46.72875" lon="6.32998">
        <ele>1250.291</ele>
      </trkpt>
      <trkpt lat="46.72874" lon="6.32957">
        <ele>1246.5</ele>
      </trkpt>
      <trkpt lat="46.72874" lon="6.32929">
        <ele>1244.31</ele>
      </trkpt>
      <trkpt lat="46.7287" lon="6.32897">
        <ele>1241.913</ele>
      </trkpt>
      <trkpt lat="46.72867" lon="6.32866">
        <ele>1240.219</ele>
      </trkpt>
      <trkpt lat="46.72867" lon="6.3285">
        <ele>1239.506</ele>
      </trkpt>
      <trkpt lat="46.72856" lon="6.32803">
        <ele>1236.819</ele>
      </trkpt>
      <trkpt lat="46.72854" lon="6.32765">
        <ele>1234.096</ele>
      </trkpt>
      <trkpt lat="46.72849" lon="6.32745">
        <ele>1232.655</ele>
      </trkpt>
      <trkpt lat="46.72843" lon="6.32714">
        <ele>1230.187</ele>
      </trkpt>
      <trkpt lat="46.72834" lon="6.32684">
        <ele>1227.244</ele>
      </trkpt>
      <trkpt lat="46.72831" lon="6.3266">
        <ele>1226.079</ele>
      </trkpt>
      <trkpt lat="46.72828" lon="6.32639">
        <ele>1225.589</ele>
      </trkpt>
      <trkpt lat="46.72828" lon="6.32609">
        <ele>1224.188</ele>
      </trkpt>
      <trkpt lat="46.72827" lon="6.3258">
        <ele>1224</ele>
      </trkpt>
      <trkpt lat="46.72827" lon="6.32562">
        <ele>1224</ele>
      </trkpt>
      <trkpt lat="46.72837" lon="6.32533">
        <ele>1223.888</ele>
      </trkpt>
      <trkpt lat="46.72849" lon="6.325">
        <ele>1223.933</ele>
      </trkpt>
      <trkpt lat="46.72857" lon="6.32446">
        <ele>1224.567</ele>
      </trkpt>
      <trkpt lat="46.72863" lon="6.32417">
        <ele>1223.836</ele>
      </trkpt>
      <trkpt lat="46.72867" lon="6.32383">
        <ele>1224.389</ele>
      </trkpt>
      <trkpt lat="46.72874" lon="6.32344">
        <ele>1224.345</ele>
      </trkpt>
      <trkpt lat="46.72875" lon="6.3231">
        <ele>1223.667</ele>
      </trkpt>
      <trkpt lat="46.72876" lon="6.32281">
        <ele>1223.146</ele>
      </trkpt>
      <trkpt lat="46.7288" lon="6.32233">
        <ele>1223.073</ele>
      </trkpt>
      <trkpt lat="46.72882" lon="6.32193">
        <ele>1224.245</ele>
      </trkpt>
      <trkpt lat="46.72882" lon="6.32163">
        <ele>1224.512</ele>
      </trkpt>
      <trkpt lat="46.72878" lon="6.32143">
        <ele>1224.541</ele>
      </trkpt>
      <trkpt lat="46.72868" lon="6.32137">
        <ele>1224.296</ele>
      </trkpt>
      <trkpt lat="46.72861" lon="6.32132">
        <ele>1224.254</ele>
      </trkpt>
      <trkpt lat="46.72856" lon="6.32112">
        <ele>1225.137</ele>
      </trkpt>
      <trkpt lat="46.72846" lon="6.3209">
        <ele>1227.071</ele>
      </trkpt>
      <trkpt lat="46.72837" lon="6.32061">
        <ele>1228.762</ele>
      </trkpt>
      <trkpt lat="46.72825" lon="6.32031">
        <ele>1229.914</ele>
      </trkpt>
      <trkpt lat="46.72809" lon="6.31987">
        <ele>1230.4</ele>
      </trkpt>
      <trkpt lat="46.72795" lon="6.3194">
        <ele>1231.155</ele>
      </trkpt>
      <trkpt lat="46.72777" lon="6.31897">
        <ele>1230.304</ele>
      </trkpt>
      <trkpt lat="46.72761" lon="6.31854">
        <ele>1227.837</ele>
      </trkpt>
      <trkpt lat="46.72748" lon="6.31819">
        <ele>1224.605</ele>
      </trkpt>
      <trkpt lat="46.72736" lon="6.31787">
        <ele>1223.505</ele>
      </trkpt>
      <trkpt lat="46.7273" lon="6.31759">
        <ele>1222.608</ele>
      </trkpt>
      <trkpt lat="46.72727" lon="6.31732">
        <ele>1222.049</ele>
      </trkpt>
      <trkpt lat="46.72726" lon="6.317">
        <ele>1221.043</ele>
      </trkpt>
      <trkpt lat="46.72722" lon="6.3165">
        <ele>1218.822</ele>
      </trkpt>
      <trkpt lat="46.72717" lon="6.31596">
        <ele>1215.09</ele>
      </trkpt>
      <trkpt lat="46.72712" lon="6.31545">
        <ele>1211.36</ele>
      </trkpt>
      <trkpt lat="46.72707" lon="6.31512">
        <ele>1210.538</ele>
      </trkpt>
      <trkpt lat="46.72703" lon="6.31465">
        <ele>1210.118</ele>
      </trkpt>
      <trkpt lat="46.72701" lon="6.31439">
        <ele>1209.194</ele>
      </trkpt>
      <trkpt lat="46.72693" lon="6.31384">
        <ele>1206.96</ele>
      </trkpt>
      <trkpt lat="46.72685" lon="6.31341">
        <ele>1205.147</ele>
      </trkpt>
      <trkpt lat="46.72673" lon="6.31296">
        <ele>1204.703</ele>
      </trkpt>
      <trkpt lat="46.72663" lon="6.31256">
        <ele>1202.562</ele>
      </trkpt>
      <trkpt lat="46.72657" lon="6.31238">
        <ele>1201.008</ele>
      </trkpt>
      <trkpt lat="46.72648" lon="6.31212">
        <ele>1199.322</ele>
      </trkpt>
      <trkpt lat="46.72632" lon="6.31183">
        <ele>1198.453</ele>
      </trkpt>
      <trkpt lat="46.72616" lon="6.31156">
        <ele>1197.617</ele>
      </trkpt>
      <trkpt lat="46.72603" lon="6.31131">
        <ele>1196.616</ele>
      </trkpt>
      <trkpt lat="46.72592" lon="6.31107">
        <ele>1195.151</ele>
      </trkpt>
      <trkpt lat="46.72578" lon="6.31081">
        <ele>1193.643</ele>
      </trkpt>
      <trkpt lat="46.72567" lon="6.31053">
        <ele>1190.542</ele>
      </trkpt>
      <trkpt lat="46.72559" lon="6.31026">
        <ele>1187.897</ele>
      </trkpt>
      <trkpt lat="46.72552" lon="6.31001">
        <ele>1185.205</ele>
      </trkpt>
      <trkpt lat="46.72547" lon="6.30953">
        <ele>1182.246</ele>
      </trkpt>
      <trkpt lat="46.72541" lon="6.30918">
        <ele>1180.141</ele>
      </trkpt>
      <trkpt lat="46.72539" lon="6.30883">
        <ele>1176.972</ele>
      </trkpt>
      <trkpt lat="46.72539" lon="6.30857">
        <ele>1173.885</ele>
      </trkpt>
      <trkpt lat="46.72535" lon="6.30829">
        <ele>1170.113</ele>
      </trkpt>
      <trkpt lat="46.72531" lon="6.30799">
        <ele>1166.868</ele>
      </trkpt>
      <trkpt lat="46.72524" lon="6.30783">
        <ele>1165.297</ele>
      </trkpt>
      <trkpt lat="46.72513" lon="6.30774">
        <ele>1165</ele>
      </trkpt>
      <trkpt lat="46.72491" lon="6.30772">
        <ele>1165</ele>
      </trkpt>
      <trkpt lat="46.72471" lon="6.30761">
        <ele>1165.058</ele>
      </trkpt>
      <trkpt lat="46.72451" lon="6.30746">
        <ele>1165.645</ele>
      </trkpt>
      <trkpt lat="46.72446" lon="6.30741">
        <ele>1165.631</ele>
      </trkpt>
      <trkpt lat="46.72426" lon="6.30723">
        <ele>1164.397</ele>
      </trkpt>
      <trkpt lat="46.7241" lon="6.30705">
        <ele>1162.391</ele>
      </trkpt>
      <trkpt lat="46.72402" lon="6.30697">
        <ele>1161.16</ele>
      </trkpt>
      <trkpt lat="46.72397" lon="6.3069">
        <ele>1160.109</ele>
      </trkpt>
      <trkpt lat="46.72388" lon="6.30676">
        <ele>1158.012</ele>
      </trkpt>
      <trkpt lat="46.72402" lon="6.30634">
        <ele>1155.804</ele>
      </trkpt>
      <trkpt lat="46.72411" lon="6.30604">
        <ele>1154.479</ele>
      </trkpt>
      <trkpt lat="46.72417" lon="6.30549">
        <ele>1150.755</ele>
      </trkpt>
      <trkpt lat="46.72424" lon="6.30503">
        <ele>1150.536</ele>
      </trkpt>
      <trkpt lat="46.72429" lon="6.30461">
        <ele>1150.256</ele>
      </trkpt>
      <trkpt lat="46.72433" lon="6.30422">
        <ele>1149.196</ele>
      </trkpt>
      <trkpt lat="46.72441" lon="6.30365">
        <ele>1149</ele>
      </trkpt>
      <trkpt lat="46.72446" lon="6.3033">
        <ele>1149</ele>
      </trkpt>
      <trkpt lat="46.72447" lon="6.30307">
        <ele>1149</ele>
      </trkpt>
      <trkpt lat="46.72453" lon="6.30288">
        <ele>1148.811</ele>
      </trkpt>
      <trkpt lat="46.7246" lon="6.30262">
        <ele>1148.432</ele>
      </trkpt>
      <trkpt lat="46.72469" lon="6.3023">
        <ele>1148.108</ele>
      </trkpt>
      <trkpt lat="46.72477" lon="6.30195">
        <ele>1148</ele>
      </trkpt>
      <trkpt lat="46.72487" lon="6.30164">
        <ele>1147</ele>
      </trkpt>
      <trkpt lat="46.72494" lon="6.30147">
        <ele>1147</ele>
      </trkpt>
      <trkpt lat="46.72494" lon="6.30129">
        <ele>1147</ele>
      </trkpt>
      <trkpt lat="46.7249" lon="6.30105">
        <ele>1147</ele>
      </trkpt>
      <trkpt lat="46.72482" lon="6.30079">
        <ele>1147</ele>
      </trkpt>
      <trkpt lat="46.72478" lon="6.30049">
        <ele>1147</ele>
      </trkpt>
      <trkpt lat="46.72476" lon="6.30016">
        <ele>1146.622</ele>
      </trkpt>
      <trkpt lat="46.72475" lon="6.29978">
        <ele>1146.152</ele>
      </trkpt>
      <trkpt lat="46.72475" lon="6.29939">
        <ele>1146.187</ele>
      </trkpt>
      <trkpt lat="46.72477" lon="6.29911">
        <ele>1146.371</ele>
      </trkpt>
      <trkpt lat="46.72477" lon="6.29901">
        <ele>1146.462</ele>
      </trkpt>
      <trkpt lat="46.72472" lon="6.29888">
        <ele>1146.014</ele>
      </trkpt>
      <trkpt lat="46.72467" lon="6.29878">
        <ele>1146.584</ele>
      </trkpt>
      <trkpt lat="46.72456" lon="6.2987">
        <ele>1147.773</ele>
      </trkpt>
      <trkpt lat="46.72439" lon="6.29869">
        <ele>1149</ele>
      </trkpt>
      <trkpt lat="46.72424" lon="6.29879">
        <ele>1149</ele>
      </trkpt>
      <trkpt lat="46.72405" lon="6.2989">
        <ele>1149</ele>
      </trkpt>
      <trkpt lat="46.72391" lon="6.2989">
        <ele>1149</ele>
      </trkpt>
      <trkpt lat="46.72371" lon="6.29895">
        <ele>1149</ele>
      </trkpt>
      <trkpt lat="46.72345" lon="6.29906">
        <ele>1149</ele>
      </trkpt>
      <trkpt lat="46.72334" lon="6.29914">
        <ele>1149</ele>
      </trkpt>
      <trkpt lat="46.72321" lon="6.29916">
        <ele>1149</ele>
      </trkpt>
      <trkpt lat="46.72309" lon="6.29919">
        <ele>1149</ele>
      </trkpt>
      <trkpt lat="46.72299" lon="6.29921">
        <ele>1149</ele>
      </trkpt>
      <trkpt lat="46.72288" lon="6.29919">
        <ele>1149</ele>
      </trkpt>
      <trkpt lat="46.72273" lon="6.29918">
        <ele>1149</ele>
      </trkpt>
      <trkpt lat="46.72263" lon="6.29914">
        <ele>1149.062</ele>
      </trkpt>
      <trkpt lat="46.72252" lon="6.29926">
        <ele>1149</ele>
      </trkpt>
      <trkpt lat="46.72242" lon="6.29932">
        <ele>1149</ele>
      </trkpt>
      <trkpt lat="46.72222" lon="6.29937">
        <ele>1149.031</ele>
      </trkpt>
      <trkpt lat="46.72201" lon="6.29937">
        <ele>1149.962</ele>
      </trkpt>
      <trkpt lat="46.72174" lon="6.29933">
        <ele>1152.144</ele>
      </trkpt>
      <trkpt lat="46.72156" lon="6.29938">
        <ele>1152.814</ele>
      </trkpt>
      <trkpt lat="46.72138" lon="6.2994">
        <ele>1153.324</ele>
      </trkpt>
      <trkpt lat="46.72116" lon="6.29934">
        <ele>1154.598</ele>
      </trkpt>
      <trkpt lat="46.72092" lon="6.29935">
        <ele>1155.341</ele>
      </trkpt>
      <trkpt lat="46.72086" lon="6.29937">
        <ele>1155.457</ele>
      </trkpt>
      <trkpt lat="46.72066" lon="6.2994">
        <ele>1156.467</ele>
      </trkpt>
      <trkpt lat="46.72054" lon="6.29933">
        <ele>1157.488</ele>
      </trkpt>
      <trkpt lat="46.72058" lon="6.29923">
        <ele>1157.682</ele>
      </trkpt>
      <trkpt lat="46.72041" lon="6.29915">
        <ele>1158.576</ele>
      </trkpt>
      <trkpt lat="46.72024" lon="6.29901">
        <ele>1159.967</ele>
      </trkpt>
      <trkpt lat="46.72011" lon="6.29882">
        <ele>1162.454</ele>
      </trkpt>
      <trkpt lat="46.71991" lon="6.29858">
        <ele>1166.443</ele>
      </trkpt>
      <trkpt lat="46.71972" lon="6.29836">
        <ele>1169.02</ele>
      </trkpt>
      <trkpt lat="46.71953" lon="6.29815">
        <ele>1169.887</ele>
      </trkpt>
      <trkpt lat="46.71939" lon="6.29801">
        <ele>1170</ele>
      </trkpt>
      <trkpt lat="46.71933" lon="6.29789">
        <ele>1170</ele>
      </trkpt>
      <trkpt lat="46.71927" lon="6.29769">
        <ele>1170.026</ele>
      </trkpt>
      <trkpt lat="46.71921" lon="6.29744">
        <ele>1170.095</ele>
      </trkpt>
      <trkpt lat="46.71912" lon="6.29717">
        <ele>1171.468</ele>
      </trkpt>
      <trkpt lat="46.71905" lon="6.29694">
        <ele>1172.306</ele>
      </trkpt>
      <trkpt lat="46.71893" lon="6.29669">
        <ele>1172.738</ele>
      </trkpt>
      <trkpt lat="46.71889" lon="6.29645">
        <ele>1173.63</ele>
      </trkpt>
      <trkpt lat="46.71879" lon="6.29618">
        <ele>1173.695</ele>
      </trkpt>
      <trkpt lat="46.71869" lon="6.29587">
        <ele>1174.161</ele>
      </trkpt>
      <trkpt lat="46.71859" lon="6.29568">
        <ele>1174.321</ele>
      </trkpt>
      <trkpt lat="46.71843" lon="6.29541">
        <ele>1173.609</ele>
      </trkpt>
      <trkpt lat="46.7183" lon="6.29517">
        <ele>1173.675</ele>
      </trkpt>
      <trkpt lat="46.71812" lon="6.29487">
        <ele>1174.116</ele>
      </trkpt>
      <trkpt lat="46.71791" lon="6.29457">
        <ele>1173.839</ele>
      </trkpt>
      <trkpt lat="46.71775" lon="6.29431">
        <ele>1174.105</ele>
      </trkpt>
      <trkpt lat="46.71757" lon="6.294">
        <ele>1174.828</ele>
      </trkpt>
      <trkpt lat="46.71737" lon="6.29369">
        <ele>1173.953</ele>
      </trkpt>
      <trkpt lat="46.71722" lon="6.29348">
        <ele>1172.802</ele>
      </trkpt>
      <trkpt lat="46.71708" lon="6.29329">
        <ele>1173.434</ele>
      </trkpt>
      <trkpt lat="46.71687" lon="6.293">
        <ele>1174.052</ele>
      </trkpt>
      <trkpt lat="46.71676" lon="6.29281">
        <ele>1174.699</ele>
      </trkpt>
      <trkpt lat="46.71673" lon="6.29269">
        <ele>1175.322</ele>
      </trkpt>
      <trkpt lat="46.71679" lon="6.29249">
        <ele>1177.939</ele>
      </trkpt>
      <trkpt lat="46.71688" lon="6.29218">
        <ele>1182.365</ele>
      </trkpt>
      <trkpt lat="46.7169" lon="6.29195">
        <ele>1184.281</ele>
      </trkpt>
      <trkpt lat="46.71681" lon="6.29183">
        <ele>1183.936</ele>
      </trkpt>
      <trkpt lat="46.71672" lon="6.29163">
        <ele>1183.283</ele>
      </trkpt>
      <trkpt lat="46.71668" lon="6.29146">
        <ele>1183.043</ele>
      </trkpt>
      <trkpt lat="46.71671" lon="6.29125">
        <ele>1185.059</ele>
      </trkpt>
      <trkpt lat="46.71663" lon="6.29089">
        <ele>1185.056</ele>
      </trkpt>
      <trkpt lat="46.71653" lon="6.29057">
        <ele>1184.009</ele>
      </trkpt>
      <trkpt lat="46.71647" lon="6.29028">
        <ele>1183.778</ele>
      </trkpt>
      <trkpt lat="46.71642" lon="6.29">
        <ele>1183.639</ele>
      </trkpt>
      <trkpt lat="46.71636" lon="6.28977">
        <ele>1183.225</ele>
      </trkpt>
      <trkpt lat="46.71635" lon="6.28951">
        <ele>1184.129</ele>
      </trkpt>
      <trkpt lat="46.71631" lon="6.28918">
        <ele>1184.231</ele>
      </trkpt>
      <trkpt lat="46.71627" lon="6.28894">
        <ele>1183.576</ele>
      </trkpt>
      <trkpt lat="46.71628" lon="6.28862">
        <ele>1184.306</ele>
      </trkpt>
      <trkpt lat="46.71629" lon="6.28839">
        <ele>1184.799</ele>
      </trkpt>
      <trkpt lat="46.71634" lon="6.28803">
        <ele>1186.055</ele>
      </trkpt>
      <trkpt lat="46.71638" lon="6.28769">
        <ele>1186.259</ele>
      </trkpt>
      <trkpt lat="46.71646" lon="6.28737">
        <ele>1186.944</ele>
      </trkpt>
      <trkpt lat="46.71652" lon="6.28708">
        <ele>1187.163</ele>
      </trkpt>
      <trkpt lat="46.71659" lon="6.28686">
        <ele>1187.772</ele>
      </trkpt>
      <trkpt lat="46.71669" lon="6.28667">
        <ele>1189.449</ele>
      </trkpt>
      <trkpt lat="46.71684" lon="6.28645">
        <ele>1191.494</ele>
      </trkpt>
      <trkpt lat="46.71697" lon="6.28628">
        <ele>1192.622</ele>
      </trkpt>
      <trkpt lat="46.71704" lon="6.2862">
        <ele>1193.278</ele>
      </trkpt>
      <trkpt lat="46.71709" lon="6.28616">
        <ele>1193.82</ele>
      </trkpt>
      <trkpt lat="46.71715" lon="6.28606">
        <ele>1194.659</ele>
      </trkpt>
      <trkpt lat="46.71715" lon="6.2859">
        <ele>1194.76</ele>
      </trkpt>
      <trkpt lat="46.71709" lon="6.28571">
        <ele>1193.889</ele>
      </trkpt>
      <trkpt lat="46.71702" lon="6.28545">
        <ele>1193.477</ele>
      </trkpt>
      <trkpt lat="46.71696" lon="6.28505">
        <ele>1194.108</ele>
      </trkpt>
      <trkpt lat="46.71691" lon="6.28472">
        <ele>1195.232</ele>
      </trkpt>
      <trkpt lat="46.71686" lon="6.2844">
        <ele>1195.922</ele>
      </trkpt>
      <trkpt lat="46.71686" lon="6.28411">
        <ele>1196.812</ele>
      </trkpt>
      <trkpt lat="46.71685" lon="6.28388">
        <ele>1196.994</ele>
      </trkpt>
      <trkpt lat="46.7169" lon="6.28355">
        <ele>1197.966</ele>
      </trkpt>
      <trkpt lat="46.71691" lon="6.28326">
        <ele>1198.485</ele>
      </trkpt>
      <trkpt lat="46.71694" lon="6.28305">
        <ele>1199.88</ele>
      </trkpt>
      <trkpt lat="46.71699" lon="6.28274">
        <ele>1202.158</ele>
      </trkpt>
      <trkpt lat="46.71701" lon="6.28253">
        <ele>1203.32</ele>
      </trkpt>
      <trkpt lat="46.71706" lon="6.2824">
        <ele>1204.847</ele>
      </trkpt>
      <trkpt lat="46.7171" lon="6.28228">
        <ele>1206.134</ele>
      </trkpt>
      <trkpt lat="46.7171" lon="6.28211">
        <ele>1207.012</ele>
      </trkpt>
      <trkpt lat="46.71706" lon="6.28191">
        <ele>1207.1</ele>
      </trkpt>
      <trkpt lat="46.71702" lon="6.28171">
        <ele>1207.131</ele>
      </trkpt>
      <trkpt lat="46.71698" lon="6.28153">
        <ele>1207.151</ele>
      </trkpt>
      <trkpt lat="46.71692" lon="6.2813">
        <ele>1206.956</ele>
      </trkpt>
      <trkpt lat="46.71689" lon="6.28102">
        <ele>1207.897</ele>
      </trkpt>
      <trkpt lat="46.71685" lon="6.28087">
        <ele>1208.181</ele>
      </trkpt>
      <trkpt lat="46.71684" lon="6.28065">
        <ele>1208.758</ele>
      </trkpt>
      <trkpt lat="46.71682" lon="6.28049">
        <ele>1209.187</ele>
      </trkpt>
      <trkpt lat="46.71676" lon="6.28029">
        <ele>1209.013</ele>
      </trkpt>
      <trkpt lat="46.71671" lon="6.28014">
        <ele>1208.463</ele>
      </trkpt>
      <trkpt lat="46.71662" lon="6.28003">
        <ele>1206.972</ele>
      </trkpt>
      <trkpt lat="46.71658" lon="6.27991">
        <ele>1206.604</ele>
      </trkpt>
      <trkpt lat="46.71655" lon="6.27978">
        <ele>1206.68</ele>
      </trkpt>
      <trkpt lat="46.71652" lon="6.2797">
        <ele>1206.561</ele>
      </trkpt>
      <trkpt lat="46.71646" lon="6.27963">
        <ele>1205.853</ele>
      </trkpt>
      <trkpt lat="46.71634" lon="6.2795">
        <ele>1205.22</ele>
      </trkpt>
      <trkpt lat="46.71621" lon="6.27941">
        <ele>1204.887</ele>
      </trkpt>
      <trkpt lat="46.71603" lon="6.27925">
        <ele>1205.395</ele>
      </trkpt>
      <trkpt lat="46.71594" lon="6.2792">
        <ele>1205.795</ele>
      </trkpt>
      <trkpt lat="46.71578" lon="6.279">
        <ele>1206.803</ele>
      </trkpt>
      <trkpt lat="46.71569" lon="6.27892">
        <ele>1206.811</ele>
      </trkpt>
      <trkpt lat="46.71559" lon="6.27868">
        <ele>1207.764</ele>
      </trkpt>
      <trkpt lat="46.71556" lon="6.27851">
        <ele>1208.764</ele>
      </trkpt>
      <trkpt lat="46.71557" lon="6.27832">
        <ele>1210.387</ele>
      </trkpt>
      <trkpt lat="46.71558" lon="6.27809">
        <ele>1213.828</ele>
      </trkpt>
      <trkpt lat="46.71558" lon="6.27789">
        <ele>1216.226</ele>
      </trkpt>
      <trkpt lat="46.71557" lon="6.27761">
        <ele>1219.677</ele>
      </trkpt>
      <trkpt lat="46.71556" lon="6.27737">
        <ele>1222.463</ele>
      </trkpt>
      <trkpt lat="46.71557" lon="6.27688">
        <ele>1225.795</ele>
      </trkpt>
      <trkpt lat="46.71557" lon="6.2766">
        <ele>1223.631</ele>
      </trkpt>
      <trkpt lat="46.71558" lon="6.27614">
        <ele>1218.969</ele>
      </trkpt>
      <trkpt lat="46.7156" lon="6.27588">
        <ele>1220.036</ele>
      </trkpt>
      <trkpt lat="46.71562" lon="6.27565">
        <ele>1221.241</ele>
      </trkpt>
      <trkpt lat="46.71563" lon="6.27536">
        <ele>1222.12</ele>
      </trkpt>
      <trkpt lat="46.71565" lon="6.27498">
        <ele>1222.698</ele>
      </trkpt>
      <trkpt lat="46.71573" lon="6.27473">
        <ele>1224.073</ele>
      </trkpt>
      <trkpt lat="46.7158" lon="6.27445">
        <ele>1226.53</ele>
      </trkpt>
      <trkpt lat="46.71594" lon="6.27423">
        <ele>1229.057</ele>
      </trkpt>
      <trkpt lat="46.71603" lon="6.27409">
        <ele>1229.784</ele>
      </trkpt>
      <trkpt lat="46.71618" lon="6.27391">
        <ele>1230</ele>
      </trkpt>
      <trkpt lat="46.71627" lon="6.27378">
        <ele>1230</ele>
      </trkpt>
      <trkpt lat="46.71634" lon="6.27367">
        <ele>1230</ele>
      </trkpt>
      <trkpt lat="46.71653" lon="6.27356">
        <ele>1229.284</ele>
      </trkpt>
      <trkpt lat="46.71664" lon="6.27343">
        <ele>1227.96</ele>
      </trkpt>
      <trkpt lat="46.71678" lon="6.27335">
        <ele>1223.565</ele>
      </trkpt>
      <trkpt lat="46.71685" lon="6.27325">
        <ele>1219.133</ele>
      </trkpt>
      <trkpt lat="46.71695" lon="6.2732">
        <ele>1214.375</ele>
      </trkpt>
      <trkpt lat="46.71701" lon="6.27317">
        <ele>1212.43</ele>
      </trkpt>
      <trkpt lat="46.71711" lon="6.27281">
        <ele>1206.525</ele>
      </trkpt>
      <trkpt lat="46.71717" lon="6.27267">
        <ele>1204.711</ele>
      </trkpt>
      <trkpt lat="46.71723" lon="6.27253">
        <ele>1203.093</ele>
      </trkpt>
      <trkpt lat="46.71765" lon="6.2723">
        <ele>1196.609</ele>
      </trkpt>
      <trkpt lat="46.7178" lon="6.27218">
        <ele>1194.052</ele>
      </trkpt>
      <trkpt lat="46.71794" lon="6.27199">
        <ele>1188.946</ele>
      </trkpt>
      <trkpt lat="46.71809" lon="6.27185">
        <ele>1184.461</ele>
      </trkpt>
      <trkpt lat="46.7182" lon="6.27176">
        <ele>1181.719</ele>
      </trkpt>
      <trkpt lat="46.71832" lon="6.27171">
        <ele>1179.503</ele>
      </trkpt>
      <trkpt lat="46.7184" lon="6.2716">
        <ele>1177.34</ele>
      </trkpt>
      <trkpt lat="46.71845" lon="6.27149">
        <ele>1175.873</ele>
      </trkpt>
      <trkpt lat="46.71845" lon="6.27137">
        <ele>1175.142</ele>
      </trkpt>
      <trkpt lat="46.71846" lon="6.27131">
        <ele>1174.639</ele>
      </trkpt>
      <trkpt lat="46.71841" lon="6.27114">
        <ele>1174.161</ele>
      </trkpt>
      <trkpt lat="46.71835" lon="6.27102">
        <ele>1174.384</ele>
      </trkpt>
      <trkpt lat="46.71834" lon="6.27092">
        <ele>1174.3</ele>
      </trkpt>
      <trkpt lat="46.71832" lon="6.27081">
        <ele>1173.926</ele>
      </trkpt>
      <trkpt lat="46.71832" lon="6.27064">
        <ele>1172.709</ele>
      </trkpt>
      <trkpt lat="46.71836" lon="6.27051">
        <ele>1171.43</ele>
      </trkpt>
      <trkpt lat="46.71839" lon="6.27045">
        <ele>1170.76</ele>
      </trkpt>
      <trkpt lat="46.71852" lon="6.27025">
        <ele>1168.651</ele>
      </trkpt>
      <trkpt lat="46.71855" lon="6.27017">
        <ele>1168.342</ele>
      </trkpt>
      <trkpt lat="46.71855" lon="6.27014">
        <ele>1168.311</ele>
      </trkpt>
      <trkpt lat="46.71856" lon="6.27002">
        <ele>1168.209</ele>
      </trkpt>
      <trkpt lat="46.7185" lon="6.26982">
        <ele>1168.033</ele>
      </trkpt>
      <trkpt lat="46.7184" lon="6.26973">
        <ele>1168.541</ele>
      </trkpt>
      <trkpt lat="46.71828" lon="6.26956">
        <ele>1169.574</ele>
      </trkpt>
      <trkpt lat="46.71823" lon="6.26951">
        <ele>1170.162</ele>
      </trkpt>
      <trkpt lat="46.71812" lon="6.26937">
        <ele>1171.048</ele>
      </trkpt>
      <trkpt lat="46.71805" lon="6.26925">
        <ele>1171.303</ele>
      </trkpt>
      <trkpt lat="46.718" lon="6.26906">
        <ele>1171.552</ele>
      </trkpt>
      <trkpt lat="46.718" lon="6.26898">
        <ele>1171.643</ele>
      </trkpt>
      <trkpt lat="46.71811" lon="6.26884">
        <ele>1169.966</ele>
      </trkpt>
      <trkpt lat="46.71818" lon="6.26867">
        <ele>1168.125</ele>
      </trkpt>
      <trkpt lat="46.7182" lon="6.26851">
        <ele>1166.393</ele>
      </trkpt>
      <trkpt lat="46.71824" lon="6.26826">
        <ele>1164.42</ele>
      </trkpt>
      <trkpt lat="46.71825" lon="6.26815">
        <ele>1164.201</ele>
      </trkpt>
      <trkpt lat="46.71828" lon="6.26797">
        <ele>1164.4</ele>
      </trkpt>
      <trkpt lat="46.7183" lon="6.26779">
        <ele>1165.436</ele>
      </trkpt>
      <trkpt lat="46.71832" lon="6.26752">
        <ele>1167.074</ele>
      </trkpt>
      <trkpt lat="46.71835" lon="6.26732">
        <ele>1168.034</ele>
      </trkpt>
      <trkpt lat="46.71841" lon="6.26705">
        <ele>1167.663</ele>
      </trkpt>
      <trkpt lat="46.71847" lon="6.26687">
        <ele>1167.103</ele>
      </trkpt>
      <trkpt lat="46.71851" lon="6.26673">
        <ele>1166.693</ele>
      </trkpt>
      <trkpt lat="46.71861" lon="6.26647">
        <ele>1164.992</ele>
      </trkpt>
      <trkpt lat="46.71866" lon="6.26639">
        <ele>1164.305</ele>
      </trkpt>
      <trkpt lat="46.71867" lon="6.26617">
        <ele>1164.192</ele>
      </trkpt>
      <trkpt lat="46.7187" lon="6.26578">
        <ele>1164.534</ele>
      </trkpt>
      <trkpt lat="46.71868" lon="6.26554">
        <ele>1164.243</ele>
      </trkpt>
      <trkpt lat="46.71858" lon="6.26536">
        <ele>1164.698</ele>
      </trkpt>
      <trkpt lat="46.71849" lon="6.26509">
        <ele>1165.057</ele>
      </trkpt>
      <trkpt lat="46.71841" lon="6.26494">
        <ele>1165.786</ele>
      </trkpt>
      <trkpt lat="46.71835" lon="6.2647">
        <ele>1165.787</ele>
      </trkpt>
      <trkpt lat="46.71831" lon="6.26452">
        <ele>1165.641</ele>
      </trkpt>
      <trkpt lat="46.71829" lon="6.26442">
        <ele>1165.557</ele>
      </trkpt>
      <trkpt lat="46.71824" lon="6.26415">
        <ele>1165.265</ele>
      </trkpt>
      <trkpt lat="46.71831" lon="6.2639">
        <ele>1163.322</ele>
      </trkpt>
      <trkpt lat="46.71832" lon="6.26372">
        <ele>1162.488</ele>
      </trkpt>
      <trkpt lat="46.71831" lon="6.26355">
        <ele>1161.864</ele>
      </trkpt>
      <trkpt lat="46.71826" lon="6.26339">
        <ele>1161.205</ele>
      </trkpt>
      <trkpt lat="46.71823" lon="6.26327">
        <ele>1160.92</ele>
      </trkpt>
      <trkpt lat="46.71815" lon="6.26308">
        <ele>1161.035</ele>
      </trkpt>
      <trkpt lat="46.71815" lon="6.26284">
        <ele>1159.91</ele>
      </trkpt>
      <trkpt lat="46.71818" lon="6.26246">
        <ele>1157.004</ele>
      </trkpt>
      <trkpt lat="46.71817" lon="6.2622">
        <ele>1155.229</ele>
      </trkpt>
      <trkpt lat="46.71818" lon="6.26173">
        <ele>1152.661</ele>
      </trkpt>
      <trkpt lat="46.71814" lon="6.26143">
        <ele>1151.022</ele>
      </trkpt>
      <trkpt lat="46.71811" lon="6.26121">
        <ele>1150.645</ele>
      </trkpt>
      <trkpt lat="46.718" lon="6.26089">
        <ele>1149.997</ele>
      </trkpt>
      <trkpt lat="46.7179" lon="6.26053">
        <ele>1148.385</ele>
      </trkpt>
      <trkpt lat="46.71783" lon="6.26021">
        <ele>1146.634</ele>
      </trkpt>
      <trkpt lat="46.71774" lon="6.25999">
        <ele>1145.163</ele>
      </trkpt>
      <trkpt lat="46.71766" lon="6.25972">
        <ele>1142.853</ele>
      </trkpt>
      <trkpt lat="46.71759" lon="6.25949">
        <ele>1141.105</ele>
      </trkpt>
      <trkpt lat="46.71748" lon="6.25922">
        <ele>1138.737</ele>
      </trkpt>
      <trkpt lat="46.71742" lon="6.2589">
        <ele>1134.796</ele>
      </trkpt>
      <trkpt lat="46.71734" lon="6.25865">
        <ele>1131.263</ele>
      </trkpt>
      <trkpt lat="46.7173" lon="6.25837">
        <ele>1128.122</ele>
      </trkpt>
      <trkpt lat="46.71729" lon="6.25816">
        <ele>1125.867</ele>
      </trkpt>
      <trkpt lat="46.7173" lon="6.25785">
        <ele>1122.273</ele>
      </trkpt>
      <trkpt lat="46.71729" lon="6.25755">
        <ele>1119.916</ele>
      </trkpt>
      <trkpt lat="46.71725" lon="6.25725">
        <ele>1118.026</ele>
      </trkpt>
      <trkpt lat="46.71717" lon="6.25687">
        <ele>1116.874</ele>
      </trkpt>
      <trkpt lat="46.71713" lon="6.25662">
        <ele>1115.883</ele>
      </trkpt>
      <trkpt lat="46.71704" lon="6.25622">
        <ele>1115.584</ele>
      </trkpt>
      <trkpt lat="46.71698" lon="6.25601">
        <ele>1115.685</ele>
      </trkpt>
      <trkpt lat="46.71692" lon="6.25577">
        <ele>1115.154</ele>
      </trkpt>
      <trkpt lat="46.71684" lon="6.25551">
        <ele>1115.285</ele>
      </trkpt>
      <trkpt lat="46.71677" lon="6.25522">
        <ele>1114.623</ele>
      </trkpt>
      <trkpt lat="46.71663" lon="6.25477">
        <ele>1113.919</ele>
      </trkpt>
      <trkpt lat="46.71653" lon="6.25442">
        <ele>1112.932</ele>
      </trkpt>
      <trkpt lat="46.71645" lon="6.25422">
        <ele>1113.241</ele>
      </trkpt>
      <trkpt lat="46.71632" lon="6.25386">
        <ele>1113.993</ele>
      </trkpt>
      <trkpt lat="46.71617" lon="6.25353">
        <ele>1116.165</ele>
      </trkpt>
      <trkpt lat="46.71598" lon="6.25309">
        <ele>1119.414</ele>
      </trkpt>
      <trkpt lat="46.71583" lon="6.25272">
        <ele>1121.032</ele>
      </trkpt>
      <trkpt lat="46.71566" lon="6.25246">
        <ele>1122.101</ele>
      </trkpt>
      <trkpt lat="46.71549" lon="6.25212">
        <ele>1122.092</ele>
      </trkpt>
      <trkpt lat="46.71541" lon="6.25198">
        <ele>1122.212</ele>
      </trkpt>
      <trkpt lat="46.71523" lon="6.2519">
        <ele>1123.361</ele>
      </trkpt>
      <trkpt lat="46.71515" lon="6.25167">
        <ele>1122.952</ele>
      </trkpt>
      <trkpt lat="46.71503" lon="6.25156">
        <ele>1123.433</ele>
      </trkpt>
      <trkpt lat="46.71492" lon="6.25147">
        <ele>1124.29</ele>
      </trkpt>
      <trkpt lat="46.71474" lon="6.25115">
        <ele>1124.106</ele>
      </trkpt>
      <trkpt lat="46.71468" lon="6.25091">
        <ele>1123.068</ele>
      </trkpt>
      <trkpt lat="46.7146" lon="6.25064">
        <ele>1122.014</ele>
      </trkpt>
      <trkpt lat="46.71451" lon="6.25056">
        <ele>1122.319</ele>
      </trkpt>
      <trkpt lat="46.71444" lon="6.25029">
        <ele>1121.127</ele>
      </trkpt>
      <trkpt lat="46.71441" lon="6.25008">
        <ele>1119.771</ele>
      </trkpt>
      <trkpt lat="46.71454" lon="6.24987">
        <ele>1117.012</ele>
      </trkpt>
      <trkpt lat="46.71469" lon="6.24967">
        <ele>1114.212</ele>
      </trkpt>
      <trkpt lat="46.71473" lon="6.24954">
        <ele>1113.263</ele>
      </trkpt>
      <trkpt lat="46.71475" lon="6.24938">
        <ele>1112.557</ele>
      </trkpt>
      <trkpt lat="46.71476" lon="6.24918">
        <ele>1111.803</ele>
      </trkpt>
      <trkpt lat="46.71476" lon="6.24904">
        <ele>1111.238</ele>
      </trkpt>
      <trkpt lat="46.71467" lon="6.2488">
        <ele>1110.87</ele>
      </trkpt>
      <trkpt lat="46.71447" lon="6.24852">
        <ele>1110.293</ele>
      </trkpt>
      <trkpt lat="46.71425" lon="6.24815">
        <ele>1107.663</ele>
      </trkpt>
      <trkpt lat="46.71404" lon="6.24784">
        <ele>1105.793</ele>
      </trkpt>
      <trkpt lat="46.71391" lon="6.24763">
        <ele>1104.872</ele>
      </trkpt>
      <trkpt lat="46.71383" lon="6.24748">
        <ele>1104.073</ele>
      </trkpt>
      <trkpt lat="46.71378" lon="6.2473">
        <ele>1102.93</ele>
      </trkpt>
      <trkpt lat="46.71377" lon="6.24708">
        <ele>1101.625</ele>
      </trkpt>
      <trkpt lat="46.71377" lon="6.24685">
        <ele>1100.394</ele>
      </trkpt>
      <trkpt lat="46.71374" lon="6.24664">
        <ele>1099.376</ele>
      </trkpt>
      <trkpt lat="46.71373" lon="6.24637">
        <ele>1098.077</ele>
      </trkpt>
      <trkpt lat="46.71372" lon="6.24618">
        <ele>1096.978</ele>
      </trkpt>
      <trkpt lat="46.71373" lon="6.24597">
        <ele>1095.52</ele>
      </trkpt>
      <trkpt lat="46.71372" lon="6.24569">
        <ele>1094.086</ele>
      </trkpt>
      <trkpt lat="46.71367" lon="6.24549">
        <ele>1093.294</ele>
      </trkpt>
      <trkpt lat="46.71354" lon="6.24517">
        <ele>1091.501</ele>
      </trkpt>
      <trkpt lat="46.71347" lon="6.245">
        <ele>1090.464</ele>
      </trkpt>
      <trkpt lat="46.71338" lon="6.24481">
        <ele>1088.103</ele>
      </trkpt>
      <trkpt lat="46.71322" lon="6.2447">
        <ele>1085.891</ele>
      </trkpt>
      <trkpt lat="46.71309" lon="6.24459">
        <ele>1083.394</ele>
      </trkpt>
      <trkpt lat="46.71295" lon="6.24452">
        <ele>1082.234</ele>
      </trkpt>
      <trkpt lat="46.71284" lon="6.24448">
        <ele>1082.069</ele>
      </trkpt>
      <trkpt lat="46.71274" lon="6.24439">
        <ele>1082.465</ele>
      </trkpt>
      <trkpt lat="46.7127" lon="6.24424">
        <ele>1083.082</ele>
      </trkpt>
      <trkpt lat="46.71269" lon="6.24409">
        <ele>1083.714</ele>
      </trkpt>
      <trkpt lat="46.71277" lon="6.24397">
        <ele>1083.495</ele>
      </trkpt>
      <trkpt lat="46.7128" lon="6.24388">
        <ele>1083.699</ele>
      </trkpt>
      <trkpt lat="46.71282" lon="6.24385">
        <ele>1083.451</ele>
      </trkpt>
      <trkpt lat="46.7128" lon="6.24377">
        <ele>1084.015</ele>
      </trkpt>
      <trkpt lat="46.71275" lon="6.2437">
        <ele>1085.049</ele>
      </trkpt>
      <trkpt lat="46.7127" lon="6.24363">
        <ele>1086.086</ele>
      </trkpt>
      <trkpt lat="46.71263" lon="6.24359">
        <ele>1087.197</ele>
      </trkpt>
      <trkpt lat="46.71253" lon="6.24354">
        <ele>1088.831</ele>
      </trkpt>
      <trkpt lat="46.71244" lon="6.24348">
        <ele>1089.674</ele>
      </trkpt>
      <trkpt lat="46.71234" lon="6.24344">
        <ele>1090.177</ele>
      </trkpt>
      <trkpt lat="46.7123" lon="6.24344">
        <ele>1090.351</ele>
      </trkpt>
      <trkpt lat="46.71227" lon="6.24326">
        <ele>1091.105</ele>
      </trkpt>
      <trkpt lat="46.71221" lon="6.24311">
        <ele>1091.876</ele>
      </trkpt>
      <trkpt lat="46.71215" lon="6.24292">
        <ele>1092.895</ele>
      </trkpt>
      <trkpt lat="46.71214" lon="6.24277">
        <ele>1093.6</ele>
      </trkpt>
      <trkpt lat="46.71214" lon="6.24256">
        <ele>1093.868</ele>
      </trkpt>
      <trkpt lat="46.71211" lon="6.24236">
        <ele>1094.43</ele>
      </trkpt>
      <trkpt lat="46.71205" lon="6.24211">
        <ele>1095.237</ele>
      </trkpt>
      <trkpt lat="46.71197" lon="6.24191">
        <ele>1095.634</ele>
      </trkpt>
      <trkpt lat="46.71187" lon="6.24157">
        <ele>1094.904</ele>
      </trkpt>
      <trkpt lat="46.71174" lon="6.24122">
        <ele>1093.853</ele>
      </trkpt>
      <trkpt lat="46.71166" lon="6.24099">
        <ele>1093.61</ele>
      </trkpt>
      <trkpt lat="46.71153" lon="6.24067">
        <ele>1093.122</ele>
      </trkpt>
      <trkpt lat="46.71143" lon="6.24035">
        <ele>1092.138</ele>
      </trkpt>
      <trkpt lat="46.7113" lon="6.24008">
        <ele>1091.448</ele>
      </trkpt>
      <trkpt lat="46.71119" lon="6.23986">
        <ele>1091.087</ele>
      </trkpt>
      <trkpt lat="46.71115" lon="6.23967">
        <ele>1090.339</ele>
      </trkpt>
      <trkpt lat="46.71115" lon="6.23951">
        <ele>1089.735</ele>
      </trkpt>
      <trkpt lat="46.7112" lon="6.23933">
        <ele>1088.079</ele>
      </trkpt>
      <trkpt lat="46.71128" lon="6.23906">
        <ele>1085.216</ele>
      </trkpt>
      <trkpt lat="46.71132" lon="6.23885">
        <ele>1083.783</ele>
      </trkpt>
      <trkpt lat="46.71132" lon="6.2387">
        <ele>1083.531</ele>
      </trkpt>
      <trkpt lat="46.71133" lon="6.23856">
        <ele>1083.144</ele>
      </trkpt>
      <trkpt lat="46.71133" lon="6.23841">
        <ele>1082.507</ele>
      </trkpt>
      <trkpt lat="46.71134" lon="6.2383">
        <ele>1082.038</ele>
      </trkpt>
      <trkpt lat="46.71134" lon="6.23813">
        <ele>1081.427</ele>
      </trkpt>
      <trkpt lat="46.71132" lon="6.23798">
        <ele>1081.579</ele>
      </trkpt>
      <trkpt lat="46.71134" lon="6.2378">
        <ele>1081.047</ele>
      </trkpt>
      <trkpt lat="46.71137" lon="6.23768">
        <ele>1080.08</ele>
      </trkpt>
      <trkpt lat="46.71147" lon="6.23742">
        <ele>1077.39</ele>
      </trkpt>
      <trkpt lat="46.71157" lon="6.23718">
        <ele>1075.317</ele>
      </trkpt>
      <trkpt lat="46.71162" lon="6.23694">
        <ele>1073.667</ele>
      </trkpt>
      <trkpt lat="46.71168" lon="6.23673">
        <ele>1071.102</ele>
      </trkpt>
      <trkpt lat="46.71169" lon="6.23652">
        <ele>1069.694</ele>
      </trkpt>
      <trkpt lat="46.71167" lon="6.23621">
        <ele>1067.395</ele>
      </trkpt>
      <trkpt lat="46.71157" lon="6.23597">
        <ele>1066.022</ele>
      </trkpt>
      <trkpt lat="46.71148" lon="6.23572">
        <ele>1065.678</ele>
      </trkpt>
      <trkpt lat="46.7114" lon="6.23548">
        <ele>1065.642</ele>
      </trkpt>
      <trkpt lat="46.71134" lon="6.23528">
        <ele>1064.556</ele>
      </trkpt>
      <trkpt lat="46.7113" lon="6.23504">
        <ele>1061.724</ele>
      </trkpt>
      <trkpt lat="46.71128" lon="6.23487">
        <ele>1059.443</ele>
      </trkpt>
      <trkpt lat="46.71125" lon="6.23464">
        <ele>1056.451</ele>
      </trkpt>
      <trkpt lat="46.7112" lon="6.23442">
        <ele>1053.723</ele>
      </trkpt>
      <trkpt lat="46.71113" lon="6.23424">
        <ele>1051.452</ele>
      </trkpt>
      <trkpt lat="46.71099" lon="6.23411">
        <ele>1052.274</ele>
      </trkpt>
      <trkpt lat="46.7109" lon="6.23401">
        <ele>1053.239</ele>
      </trkpt>
      <trkpt lat="46.71082" lon="6.23387">
        <ele>1053.26</ele>
      </trkpt>
      <trkpt lat="46.71082" lon="6.23367">
        <ele>1051.967</ele>
      </trkpt>
      <trkpt lat="46.71083" lon="6.23327">
        <ele>1048.569</ele>
      </trkpt>
      <trkpt lat="46.71082" lon="6.23292">
        <ele>1046.497</ele>
      </trkpt>
      <trkpt lat="46.71084" lon="6.23246">
        <ele>1043.668</ele>
      </trkpt>
      <trkpt lat="46.71086" lon="6.23222">
        <ele>1041.407</ele>
      </trkpt>
      <trkpt lat="46.71091" lon="6.23211">
        <ele>1039.376</ele>
      </trkpt>
      <trkpt lat="46.7109" lon="6.23198">
        <ele>1038.601</ele>
      </trkpt>
      <trkpt lat="46.71095" lon="6.2316">
        <ele>1034.742</ele>
      </trkpt>
      <trkpt lat="46.71098" lon="6.2313">
        <ele>1031.687</ele>
      </trkpt>
      <trkpt lat="46.71094" lon="6.23097">
        <ele>1030.164</ele>
      </trkpt>
      <trkpt lat="46.71091" lon="6.23059">
        <ele>1027.359</ele>
      </trkpt>
      <trkpt lat="46.71089" lon="6.23032">
        <ele>1025.972</ele>
      </trkpt>
      <trkpt lat="46.71088" lon="6.23013">
        <ele>1024.67</ele>
      </trkpt>
      <trkpt lat="46.71082" lon="6.22993">
        <ele>1024.394</ele>
      </trkpt>
      <trkpt lat="46.71076" lon="6.22971">
        <ele>1022.859</ele>
      </trkpt>
      <trkpt lat="46.71073" lon="6.22954">
        <ele>1021.036</ele>
      </trkpt>
      <trkpt lat="46.71069" lon="6.22931">
        <ele>1018.134</ele>
      </trkpt>
      <trkpt lat="46.71064" lon="6.22914">
        <ele>1016.174</ele>
      </trkpt>
      <trkpt lat="46.7106" lon="6.22893">
        <ele>1014.118</ele>
      </trkpt>
      <trkpt lat="46.7106" lon="6.2288">
        <ele>1012.675</ele>
      </trkpt>
      <trkpt lat="46.71064" lon="6.22865">
        <ele>1010.836</ele>
      </trkpt>
      <trkpt lat="46.71068" lon="6.22851">
        <ele>1009.203</ele>
      </trkpt>
      <trkpt lat="46.71066" lon="6.22836">
        <ele>1008.079</ele>
      </trkpt>
      <trkpt lat="46.71055" lon="6.22804">
        <ele>1005.99</ele>
      </trkpt>
      <trkpt lat="46.71046" lon="6.22772">
        <ele>1004.528</ele>
      </trkpt>
      <trkpt lat="46.7103" lon="6.2273">
        <ele>1003.142</ele>
      </trkpt>
      <trkpt lat="46.71009" lon="6.22676">
        <ele>1003.582</ele>
      </trkpt>
      <trkpt lat="46.70995" lon="6.22639">
        <ele>1004.782</ele>
      </trkpt>
      <trkpt lat="46.70978" lon="6.22612">
        <ele>1007.211</ele>
      </trkpt>
      <trkpt lat="46.70965" lon="6.22595">
        <ele>1009.697</ele>
      </trkpt>
      <trkpt lat="46.70959" lon="6.22584">
        <ele>1010.484</ele>
      </trkpt>
      <trkpt lat="46.70953" lon="6.22576">
        <ele>1011.656</ele>
      </trkpt>
      <trkpt lat="46.70954" lon="6.22561">
        <ele>1011.345</ele>
      </trkpt>
      <trkpt lat="46.70954" lon="6.2255">
        <ele>1011.381</ele>
      </trkpt>
      <trkpt lat="46.70955" lon="6.22532">
        <ele>1011.851</ele>
      </trkpt>
      <trkpt lat="46.7095" lon="6.2251">
        <ele>1013.399</ele>
      </trkpt>
      <trkpt lat="46.70946" lon="6.225">
        <ele>1014.588</ele>
      </trkpt>
      <trkpt lat="46.70945" lon="6.22492">
        <ele>1014.243</ele>
      </trkpt>
      <trkpt lat="46.70942" lon="6.22482">
        <ele>1014.359</ele>
      </trkpt>
      <trkpt lat="46.70942" lon="6.2246">
        <ele>1013.4</ele>
      </trkpt>
      <trkpt lat="46.70937" lon="6.22439">
        <ele>1013.972</ele>
      </trkpt>
      <trkpt lat="46.70925" lon="6.22413">
        <ele>1015.655</ele>
      </trkpt>
      <trkpt lat="46.7091" lon="6.22383">
        <ele>1017.527</ele>
      </trkpt>
      <trkpt lat="46.70902" lon="6.22361">
        <ele>1018.638</ele>
      </trkpt>
      <trkpt lat="46.70888" lon="6.22334">
        <ele>1020.185</ele>
      </trkpt>
      <trkpt lat="46.70876" lon="6.22302">
        <ele>1023.103</ele>
      </trkpt>
      <trkpt lat="46.7087" lon="6.22278">
        <ele>1024.435</ele>
      </trkpt>
      <trkpt lat="46.70863" lon="6.22252">
        <ele>1024.482</ele>
      </trkpt>
      <trkpt lat="46.70854" lon="6.22223">
        <ele>1024.422</ele>
      </trkpt>
      <trkpt lat="46.7085" lon="6.22202">
        <ele>1023.774</ele>
      </trkpt>
      <trkpt lat="46.7084" lon="6.22185">
        <ele>1025.155</ele>
      </trkpt>
      <trkpt lat="46.7083" lon="6.22154">
        <ele>1024.814</ele>
      </trkpt>
      <trkpt lat="46.70819" lon="6.22121">
        <ele>1024.118</ele>
      </trkpt>
      <trkpt lat="46.70812" lon="6.22086">
        <ele>1021.576</ele>
      </trkpt>
      <trkpt lat="46.70806" lon="6.22058">
        <ele>1020.237</ele>
      </trkpt>
      <trkpt lat="46.70799" lon="6.22023">
        <ele>1017.267</ele>
      </trkpt>
      <trkpt lat="46.7079" lon="6.21986">
        <ele>1015.286</ele>
      </trkpt>
      <trkpt lat="46.70789" lon="6.21962">
        <ele>1012.362</ele>
      </trkpt>
      <trkpt lat="46.70785" lon="6.21937">
        <ele>1009.914</ele>
      </trkpt>
      <trkpt lat="46.70787" lon="6.2192">
        <ele>1007.293</ele>
      </trkpt>
      <trkpt lat="46.70788" lon="6.21901">
        <ele>1004.641</ele>
      </trkpt>
      <trkpt lat="46.70787" lon="6.21878">
        <ele>1002.655</ele>
      </trkpt>
      <trkpt lat="46.70788" lon="6.21849">
        <ele>999.462</ele>
      </trkpt>
      <trkpt lat="46.70788" lon="6.21832">
        <ele>997.579</ele>
      </trkpt>
      <trkpt lat="46.70795" lon="6.21813">
        <ele>994.149</ele>
      </trkpt>
      <trkpt lat="46.70795" lon="6.218">
        <ele>992.693</ele>
      </trkpt>
      <trkpt lat="46.70791" lon="6.21782">
        <ele>991.481</ele>
      </trkpt>
      <trkpt lat="46.70787" lon="6.21767">
        <ele>990.43</ele>
      </trkpt>
      <trkpt lat="46.70782" lon="6.2176">
        <ele>990.457</ele>
      </trkpt>
      <trkpt lat="46.70788" lon="6.21754">
        <ele>988.955</ele>
      </trkpt>
      <trkpt lat="46.70791" lon="6.21726">
        <ele>985.515</ele>
      </trkpt>
      <trkpt lat="46.70787" lon="6.21706">
        <ele>984.303</ele>
      </trkpt>
      <trkpt lat="46.70781" lon="6.21673">
        <ele>982.015</ele>
      </trkpt>
      <trkpt lat="46.70776" lon="6.21645">
        <ele>980.146</ele>
      </trkpt>
      <trkpt lat="46.70772" lon="6.21617">
        <ele>978.662</ele>
      </trkpt>
      <trkpt lat="46.70771" lon="6.21592">
        <ele>976.639</ele>
      </trkpt>
      <trkpt lat="46.70767" lon="6.21559">
        <ele>974.886</ele>
      </trkpt>
      <trkpt lat="46.70766" lon="6.21529">
        <ele>973.073</ele>
      </trkpt>
      <trkpt lat="46.70763" lon="6.21498">
        <ele>971.229</ele>
      </trkpt>
      <trkpt lat="46.7076" lon="6.21475">
        <ele>970.312</ele>
      </trkpt>
      <trkpt lat="46.70757" lon="6.21452">
        <ele>969.396</ele>
      </trkpt>
      <trkpt lat="46.70755" lon="6.21427">
        <ele>967.722</ele>
      </trkpt>
      <trkpt lat="46.7075" lon="6.21399">
        <ele>966.669</ele>
      </trkpt>
      <trkpt lat="46.70745" lon="6.21369">
        <ele>966.167</ele>
      </trkpt>
      <trkpt lat="46.70741" lon="6.21346">
        <ele>965.386</ele>
      </trkpt>
      <trkpt lat="46.70735" lon="6.21316">
        <ele>964.531</ele>
      </trkpt>
      <trkpt lat="46.70729" lon="6.21285">
        <ele>963.502</ele>
      </trkpt>
      <trkpt lat="46.70724" lon="6.21255">
        <ele>962.11</ele>
      </trkpt>
      <trkpt lat="46.70719" lon="6.21233">
        <ele>961.717</ele>
      </trkpt>
      <trkpt lat="46.70714" lon="6.2121">
        <ele>960.764</ele>
      </trkpt>
      <trkpt lat="46.70708" lon="6.21188">
        <ele>959.816</ele>
      </trkpt>
      <trkpt lat="46.70706" lon="6.21175">
        <ele>958.55</ele>
      </trkpt>
      <trkpt lat="46.70704" lon="6.21165">
        <ele>957.652</ele>
      </trkpt>
      <trkpt lat="46.70693" lon="6.21156">
        <ele>958.773</ele>
      </trkpt>
      <trkpt lat="46.70679" lon="6.21145">
        <ele>960.807</ele>
      </trkpt>
      <trkpt lat="46.70666" lon="6.21141">
        <ele>963.602</ele>
      </trkpt>
      <trkpt lat="46.70652" lon="6.21137">
        <ele>966.848</ele>
      </trkpt>
      <trkpt lat="46.7064" lon="6.21134">
        <ele>970.028</ele>
      </trkpt>
      <trkpt lat="46.70631" lon="6.21111">
        <ele>968.754</ele>
      </trkpt>
      <trkpt lat="46.7062" lon="6.21088">
        <ele>969.74</ele>
      </trkpt>
      <trkpt lat="46.7061" lon="6.21065">
        <ele>971.002</ele>
      </trkpt>
      <trkpt lat="46.70603" lon="6.21041">
        <ele>970.335</ele>
      </trkpt>
      <trkpt lat="46.70595" lon="6.21026">
        <ele>970.312</ele>
      </trkpt>
      <trkpt lat="46.70587" lon="6.21004">
        <ele>970.442</ele>
      </trkpt>
      <trkpt lat="46.70579" lon="6.20997">
        <ele>970.855</ele>
      </trkpt>
      <trkpt lat="46.70565" lon="6.20985">
        <ele>969.382</ele>
      </trkpt>
      <trkpt lat="46.70552" lon="6.20984">
        <ele>969.306</ele>
      </trkpt>
      <trkpt lat="46.70545" lon="6.2097">
        <ele>965.75</ele>
      </trkpt>
      <trkpt lat="46.70544" lon="6.20952">
        <ele>961.146</ele>
      </trkpt>
      <trkpt lat="46.70537" lon="6.20939">
        <ele>956.869</ele>
      </trkpt>
      <trkpt lat="46.7053" lon="6.20928">
        <ele>952.705</ele>
      </trkpt>
      <trkpt lat="46.70525" lon="6.20916">
        <ele>948.568</ele>
      </trkpt>
      <trkpt lat="46.70537" lon="6.20896">
        <ele>946.461</ele>
      </trkpt>
      <trkpt lat="46.70548" lon="6.20884">
        <ele>946.08</ele>
      </trkpt>
      <trkpt lat="46.70559" lon="6.20876">
        <ele>945.444</ele>
      </trkpt>
      <trkpt lat="46.70568" lon="6.20861">
        <ele>941.373</ele>
      </trkpt>
      <trkpt lat="46.70578" lon="6.20853">
        <ele>940.714</ele>
      </trkpt>
      <trkpt lat="46.7059" lon="6.20839">
        <ele>938.735</ele>
      </trkpt>
      <trkpt lat="46.70604" lon="6.20824">
        <ele>937.571</ele>
      </trkpt>
      <trkpt lat="46.70609" lon="6.20811">
        <ele>937.141</ele>
      </trkpt>
      <trkpt lat="46.70601" lon="6.20799">
        <ele>936.146</ele>
      </trkpt>
      <trkpt lat="46.70599" lon="6.20787">
        <ele>935.245</ele>
      </trkpt>
      <trkpt lat="46.7061" lon="6.20782">
        <ele>935.245</ele>
      </trkpt>
      <trkpt lat="46.7062" lon="6.20769">
        <ele>934.997</ele>
      </trkpt>
      <trkpt lat="46.70633" lon="6.20762">
        <ele>935.233</ele>
      </trkpt>
      <trkpt lat="46.70645" lon="6.20758">
        <ele>935.076</ele>
      </trkpt>
      <trkpt lat="46.70659" lon="6.20759">
        <ele>934.588</ele>
      </trkpt>
      <trkpt lat="46.70676" lon="6.20757">
        <ele>934.596</ele>
      </trkpt>
      <trkpt lat="46.70687" lon="6.20751">
        <ele>934.759</ele>
      </trkpt>
      <trkpt lat="46.70702" lon="6.20741">
        <ele>935.612</ele>
      </trkpt>
      <trkpt lat="46.7071" lon="6.20725">
        <ele>935.838</ele>
      </trkpt>
      <trkpt lat="46.70718" lon="6.20713">
        <ele>935.977</ele>
      </trkpt>
      <trkpt lat="46.70732" lon="6.20696">
        <ele>936.543</ele>
      </trkpt>
      <trkpt lat="46.70747" lon="6.20675">
        <ele>936.606</ele>
      </trkpt>
      <trkpt lat="46.70757" lon="6.20663">
        <ele>936.244</ele>
      </trkpt>
      <trkpt lat="46.70771" lon="6.20648">
        <ele>936.148</ele>
      </trkpt>
      <trkpt lat="46.70782" lon="6.20634">
        <ele>936.098</ele>
      </trkpt>
      <trkpt lat="46.70794" lon="6.2062">
        <ele>936.442</ele>
      </trkpt>
      <trkpt lat="46.70802" lon="6.20607">
        <ele>936.59</ele>
      </trkpt>
      <trkpt lat="46.70809" lon="6.20593">
        <ele>936.726</ele>
      </trkpt>
      <trkpt lat="46.70815" lon="6.20577">
        <ele>936.899</ele>
      </trkpt>
      <trkpt lat="46.70816" lon="6.20567">
        <ele>936.712</ele>
      </trkpt>
      <trkpt lat="46.70819" lon="6.20545">
        <ele>936.692</ele>
      </trkpt>
      <trkpt lat="46.70821" lon="6.20514">
        <ele>936.643</ele>
      </trkpt>
      <trkpt lat="46.70822" lon="6.20499">
        <ele>936.781</ele>
      </trkpt>
      <trkpt lat="46.70825" lon="6.20484">
        <ele>936.555</ele>
      </trkpt>
      <trkpt lat="46.70828" lon="6.2047">
        <ele>936.411</ele>
      </trkpt>
      <trkpt lat="46.7083" lon="6.20455">
        <ele>936.586</ele>
      </trkpt>
      <trkpt lat="46.7083" lon="6.20429">
        <ele>936.19</ele>
      </trkpt>
      <trkpt lat="46.70831" lon="6.20413">
        <ele>935.828</ele>
      </trkpt>
      <trkpt lat="46.7083" lon="6.20395">
        <ele>935.791</ele>
      </trkpt>
      <trkpt lat="46.7083" lon="6.20374">
        <ele>935.273</ele>
      </trkpt>
      <trkpt lat="46.70828" lon="6.20347">
        <ele>934.791</ele>
      </trkpt>
      <trkpt lat="46.70826" lon="6.20316">
        <ele>934.748</ele>
      </trkpt>
      <trkpt lat="46.70825" lon="6.20295">
        <ele>934.418</ele>
      </trkpt>
      <trkpt lat="46.70824" lon="6.20275">
        <ele>934</ele>
      </trkpt>
      <trkpt lat="46.70825" lon="6.20254">
        <ele>934</ele>
      </trkpt>
      <trkpt lat="46.70826" lon="6.20231">
        <ele>934</ele>
      </trkpt>
      <trkpt lat="46.70826" lon="6.20216">
        <ele>934</ele>
      </trkpt>
      <trkpt lat="46.70827" lon="6.20208">
        <ele>934</ele>
      </trkpt>
      <trkpt lat="46.70833" lon="6.20199">
        <ele>934</ele>
      </trkpt>
      <trkpt lat="46.70836" lon="6.20187">
        <ele>934</ele>
      </trkpt>
      <trkpt lat="46.70837" lon="6.20178">
        <ele>934</ele>
      </trkpt>
      <trkpt lat="46.70837" lon="6.20163">
        <ele>934.019</ele>
      </trkpt>
      <trkpt lat="46.70838" lon="6.20151">
        <ele>934.083</ele>
      </trkpt>
      <trkpt lat="46.70838" lon="6.2014">
        <ele>934.159</ele>
      </trkpt>
      <trkpt lat="46.70839" lon="6.20124">
        <ele>934.084</ele>
      </trkpt>
      <trkpt lat="46.70841" lon="6.20117">
        <ele>934.061</ele>
      </trkpt>
      <trkpt lat="46.70844" lon="6.20114">
        <ele>934.045</ele>
      </trkpt>
      <trkpt lat="46.7085" lon="6.20115">
        <ele>934.077</ele>
      </trkpt>
      <trkpt lat="46.70856" lon="6.2011">
        <ele>933.993</ele>
      </trkpt>
      <trkpt lat="46.70864" lon="6.20099">
        <ele>934.061</ele>
      </trkpt>
      <trkpt lat="46.70871" lon="6.20087">
        <ele>934.044</ele>
      </trkpt>
      <trkpt lat="46.70887" lon="6.20068">
        <ele>934</ele>
      </trkpt>
      <trkpt lat="46.70898" lon="6.20041">
        <ele>934.313</ele>
      </trkpt>
      <trkpt lat="46.70914" lon="6.20023">
        <ele>934.902</ele>
      </trkpt>
      <trkpt lat="46.7093" lon="6.20004">
        <ele>935.492</ele>
      </trkpt>
      <trkpt lat="46.70941" lon="6.19992">
        <ele>936.128</ele>
      </trkpt>
      <trkpt lat="46.70955" lon="6.19972">
        <ele>937.392</ele>
      </trkpt>
      <trkpt lat="46.70968" lon="6.19955">
        <ele>938.392</ele>
      </trkpt>
      <trkpt lat="46.70975" lon="6.19952">
        <ele>938.86</ele>
      </trkpt>
      <trkpt lat="46.70987" lon="6.19949">
        <ele>939.465</ele>
      </trkpt>
      <trkpt lat="46.70998" lon="6.19947">
        <ele>939.906</ele>
      </trkpt>
      <trkpt lat="46.71009" lon="6.19943">
        <ele>940.607</ele>
      </trkpt>
      <trkpt lat="46.71015" lon="6.19937">
        <ele>940.765</ele>
      </trkpt>
      <trkpt lat="46.7102" lon="6.19927">
        <ele>940.531</ele>
      </trkpt>
      <trkpt lat="46.71027" lon="6.19918">
        <ele>940.077</ele>
      </trkpt>
      <trkpt lat="46.71033" lon="6.1991">
        <ele>940.132</ele>
      </trkpt>
      <trkpt lat="46.71042" lon="6.19912">
        <ele>940.418</ele>
      </trkpt>
      <trkpt lat="46.71052" lon="6.19916">
        <ele>940.844</ele>
      </trkpt>
      <trkpt lat="46.71061" lon="6.19919">
        <ele>941.313</ele>
      </trkpt>
      <trkpt lat="46.71073" lon="6.19911">
        <ele>941.56</ele>
      </trkpt>
      <trkpt lat="46.71079" lon="6.19902">
        <ele>941.764</ele>
      </trkpt>
      <trkpt lat="46.71086" lon="6.19896">
        <ele>942.193</ele>
      </trkpt>
      <trkpt lat="46.71079" lon="6.19886">
        <ele>941.672</ele>
      </trkpt>
      <trkpt lat="46.71073" lon="6.19872">
        <ele>941.498</ele>
      </trkpt>
      <trkpt lat="46.71067" lon="6.1985">
        <ele>941.197</ele>
      </trkpt>
      <trkpt lat="46.7106" lon="6.1984">
        <ele>940.504</ele>
      </trkpt>
      <trkpt lat="46.71048" lon="6.19818">
        <ele>939.882</ele>
      </trkpt>
      <trkpt lat="46.7104" lon="6.19798">
        <ele>940.124</ele>
      </trkpt>
      <trkpt lat="46.7103" lon="6.19776">
        <ele>940.095</ele>
      </trkpt>
      <trkpt lat="46.71022" lon="6.19764">
        <ele>939.57</ele>
      </trkpt>
      <trkpt lat="46.71013" lon="6.19748">
        <ele>938.895</ele>
      </trkpt>
      <trkpt lat="46.71009" lon="6.19733">
        <ele>938.066</ele>
      </trkpt>
      <trkpt lat="46.71004" lon="6.19713">
        <ele>937.314</ele>
      </trkpt>
      <trkpt lat="46.71002" lon="6.19692">
        <ele>937.117</ele>
      </trkpt>
      <trkpt lat="46.71001" lon="6.19675">
        <ele>937.054</ele>
      </trkpt>
      <trkpt lat="46.71002" lon="6.19649">
        <ele>937.073</ele>
      </trkpt>
      <trkpt lat="46.71002" lon="6.19631">
        <ele>936.776</ele>
      </trkpt>
      <trkpt lat="46.71002" lon="6.19623">
        <ele>936.492</ele>
      </trkpt>
      <trkpt lat="46.71002" lon="6.19608">
        <ele>935.981</ele>
      </trkpt>
      <trkpt lat="46.71003" lon="6.19595">
        <ele>935.527</ele>
      </trkpt>
      <trkpt lat="46.71001" lon="6.19574">
        <ele>935.043</ele>
      </trkpt>
      <trkpt lat="46.71005" lon="6.19555">
        <ele>935.181</ele>
      </trkpt>
      <trkpt lat="46.71009" lon="6.19543">
        <ele>935.181</ele>
      </trkpt>
      <trkpt lat="46.71017" lon="6.19534">
        <ele>935.14</ele>
      </trkpt>
      <trkpt lat="46.71028" lon="6.19523">
        <ele>934.999</ele>
      </trkpt>
      <trkpt lat="46.71042" lon="6.19505">
        <ele>935.591</ele>
      </trkpt>
      <trkpt lat="46.71053" lon="6.19486">
        <ele>935.438</ele>
      </trkpt>
      <trkpt lat="46.71062" lon="6.1947">
        <ele>935.455</ele>
      </trkpt>
      <trkpt lat="46.71066" lon="6.19462">
        <ele>935.603</ele>
      </trkpt>
      <trkpt lat="46.71066" lon="6.19449">
        <ele>935.449</ele>
      </trkpt>
      <trkpt lat="46.71069" lon="6.19436">
        <ele>935.339</ele>
      </trkpt>
      <trkpt lat="46.71069" lon="6.1942">
        <ele>935.059</ele>
      </trkpt>
      <trkpt lat="46.7107" lon="6.19409">
        <ele>934.857</ele>
      </trkpt>
      <trkpt lat="46.71067" lon="6.1939">
        <ele>934.445</ele>
      </trkpt>
      <trkpt lat="46.71063" lon="6.19377">
        <ele>933.292</ele>
      </trkpt>
      <trkpt lat="46.71058" lon="6.19359">
        <ele>931.908</ele>
      </trkpt>
      <trkpt lat="46.71053" lon="6.1934">
        <ele>931.224</ele>
      </trkpt>
      <trkpt lat="46.71051" lon="6.19322">
        <ele>931</ele>
      </trkpt>
      <trkpt lat="46.7105" lon="6.19304">
        <ele>931.058</ele>
      </trkpt>
      <trkpt lat="46.71048" lon="6.19291">
        <ele>931.534</ele>
      </trkpt>
      <trkpt lat="46.71046" lon="6.19278">
        <ele>932</ele>
      </trkpt>
      <trkpt lat="46.71046" lon="6.19263">
        <ele>932</ele>
      </trkpt>
      <trkpt lat="46.71046" lon="6.19253">
        <ele>932</ele>
      </trkpt>
      <trkpt lat="46.7105" lon="6.19245">
        <ele>932.18</ele>
      </trkpt>
      <trkpt lat="46.71057" lon="6.19242">
        <ele>932.277</ele>
      </trkpt>
      <trkpt lat="46.71068" lon="6.19245">
        <ele>932.192</ele>
      </trkpt>
      <trkpt lat="46.71082" lon="6.19257">
        <ele>932</ele>
      </trkpt>
      <trkpt lat="46.71094" lon="6.19268">
        <ele>932.134</ele>
      </trkpt>
      <trkpt lat="46.71105" lon="6.19282">
        <ele>931.967</ele>
      </trkpt>
      <trkpt lat="46.7111" lon="6.19282">
        <ele>931.995</ele>
      </trkpt>
      <trkpt lat="46.71121" lon="6.19253">
        <ele>933.606</ele>
      </trkpt>
      <trkpt lat="46.70655" lon="6.20926">
        <ele>915.833</ele>
        <time>2014-06-13T06:31:31Z</time>
      </trkpt>
      <trkpt lat="46.70655" lon="6.20926">
        <ele>915.833</ele>
        <time>2014-06-13T06:31:31Z</time>
      </trkpt>
      <trkpt lat="46.70661" lon="6.20866">
        <ele>914.823</ele>
        <time>2014-06-13T06:31:56Z</time>
      </trkpt>
      <trkpt lat="46.70681" lon="6.2087">
        <ele>921.615</ele>
        <time>2014-06-13T06:33:08Z</time>
      </trkpt>
      <trkpt lat="46.70669" lon="6.20878">
        <ele>947.507</ele>
        <time>2014-06-13T06:37:35Z</time>
      </trkpt>
      <trkpt lat="46.70641" lon="6.20859">
        <ele>947.03</ele>
        <time>2014-06-13T06:38:28Z</time>
      </trkpt>
      <trkpt lat="46.70586" lon="6.20769">
        <ele>945.154</ele>
        <time>2014-06-13T06:39:58Z</time>
      </trkpt>
      <trkpt lat="46.70638" lon="6.20735">
        <ele>944.679</ele>
        <time>2014-06-13T06:40:59Z</time>
      </trkpt>
      <trkpt lat="46.70685" lon="6.20751">
        <ele>942.246</ele>
        <time>2014-06-13T06:41:29Z</time>
      </trkpt>
      <trkpt lat="46.70696" lon="6.20742">
        <ele>946.671</ele>
        <time>2014-06-13T06:41:37Z</time>
      </trkpt>
      <trkpt lat="46.70794" lon="6.20587">
        <ele>944.67</ele>
        <time>2014-06-13T06:43:23Z</time>
      </trkpt>
      <trkpt lat="46.70813" lon="6.2046">
        <ele>942.752</ele>
        <time>2014-06-13T06:44:27Z</time>
      </trkpt>
      <trkpt lat="46.70812" lon="6.20269">
        <ele>941.838</ele>
        <time>2014-06-13T06:45:59Z</time>
      </trkpt>
      <trkpt lat="46.70846" lon="6.20111">
        <ele>942.27</ele>
        <time>2014-06-13T06:47:25Z</time>
      </trkpt>
      <trkpt lat="46.70972" lon="6.19949">
        <ele>946.617</ele>
        <time>2014-06-13T06:49:30Z</time>
      </trkpt>
      <trkpt lat="46.70999" lon="6.19947">
        <ele>948.507</ele>
        <time>2014-06-13T06:49:52Z</time>
      </trkpt>
      <trkpt lat="46.71023" lon="6.19919">
        <ele>949.05</ele>
        <time>2014-06-13T06:50:15Z</time>
      </trkpt>
      <trkpt lat="46.71079" lon="6.19899">
        <ele>949.944</ele>
        <time>2014-06-13T06:51:01Z</time>
      </trkpt>
      <trkpt lat="46.71004" lon="6.19731">
        <ele>947.069</ele>
        <time>2014-06-13T06:52:42Z</time>
      </trkpt>
      <trkpt lat="46.70993" lon="6.1962">
        <ele>946.186</ele>
        <time>2014-06-13T06:53:35Z</time>
      </trkpt>
      <trkpt lat="46.70999" lon="6.19552">
        <ele>944.631</ele>
        <time>2014-06-13T06:54:10Z</time>
      </trkpt>
      <trkpt lat="46.71074" lon="6.19436">
        <ele>946.67</ele>
        <time>2014-06-13T06:55:32Z</time>
      </trkpt>
      <trkpt lat="46.71049" lon="6.19299">
        <ele>943.232</ele>
        <time>2014-06-13T06:56:43Z</time>
      </trkpt>
      <trkpt lat="46.71032" lon="6.19275">
        <ele>943.237</ele>
        <time>2014-06-13T06:57:04Z</time>
      </trkpt>
      <trkpt lat="46.7105" lon="6.19254">
        <ele>943.249</ele>
        <time>2014-06-13T06:57:24Z</time>
      </trkpt>
      <trkpt lat="46.71062" lon="6.19264">
        <ele>943.213</ele>
        <time>2014-06-13T07:01:20Z</time>
      </trkpt>
      <trkpt lat="46.71066" lon="6.19249">
        <ele>943.707</ele>
        <time>2014-06-13T07:04:35Z</time>
      </trkpt>
      <trkpt lat="46.71061" lon="6.19291">
        <ele>943.76</ele>
        <time>2014-06-13T07:05:47Z</time>
      </trkpt>
      <trkpt lat="46.7103" lon="6.19227">
        <ele>943.784</ele>
        <time>2014-06-13T07:07:09Z</time>
      </trkpt>
      <trkpt lat="46.70948" lon="6.19169">
        <ele>943.739</ele>
        <time>2014-06-13T07:08:28Z</time>
      </trkpt>
      <trkpt lat="46.70767" lon="6.18995">
        <ele>944.666</ele>
        <time>2014-06-13T07:11:36Z</time>
      </trkpt>
      <trkpt lat="46.70493" lon="6.18864">
        <ele>946.151</ele>
        <time>2014-06-13T07:15:17Z</time>
      </trkpt>
      <trkpt lat="46.70096" lon="6.19444">
        <ele>953.86</ele>
        <time>2014-06-13T07:26:48Z</time>
      </trkpt>
      <trkpt lat="46.7011" lon="6.19416">
        <ele>950.492</ele>
        <time>2014-06-13T07:27:16Z</time>
      </trkpt>
      <trkpt lat="46.70079" lon="6.19355">
        <ele>950.435</ele>
        <time>2014-06-13T07:28:14Z</time>
      </trkpt>
      <trkpt lat="46.70068" lon="6.19281">
        <ele>949.986</ele>
        <time>2014-06-13T07:28:56Z</time>
      </trkpt>
      <trkpt lat="46.69919" lon="6.18946">
        <ele>951.414</ele>
        <time>2014-06-13T07:32:34Z</time>
      </trkpt>
      <trkpt lat="46.69746" lon="6.18763">
        <ele>954.707</ele>
        <time>2014-06-13T07:35:31Z</time>
      </trkpt>
      <trkpt lat="46.69639" lon="6.18615">
        <ele>956.24</ele>
        <time>2014-06-13T07:37:40Z</time>
      </trkpt>
      <trkpt lat="46.69455" lon="6.18524">
        <ele>955.794</ele>
        <time>2014-06-13T07:40:20Z</time>
      </trkpt>
      <trkpt lat="46.69462" lon="6.18476">
        <ele>957.649</ele>
        <time>2014-06-13T07:40:53Z</time>
      </trkpt>
      <trkpt lat="46.69538" lon="6.18406">
        <ele>960.096</ele>
        <time>2014-06-13T07:42:11Z</time>
      </trkpt>
      <trkpt lat="46.69558" lon="6.1837">
        <ele>960.081</ele>
        <time>2014-06-13T07:42:36Z</time>
      </trkpt>
      <trkpt lat="46.69553" lon="6.18322">
        <ele>961.57</ele>
        <time>2014-06-13T07:43:13Z</time>
      </trkpt>
      <trkpt lat="46.69529" lon="6.18272">
        <ele>962.492</ele>
        <time>2014-06-13T07:43:50Z</time>
      </trkpt>
      <trkpt lat="46.69532" lon="6.18208">
        <ele>962.466</ele>
        <time>2014-06-13T07:44:31Z</time>
      </trkpt>
      <trkpt lat="46.69517" lon="6.1814">
        <ele>961.929</ele>
        <time>2014-06-13T07:45:07Z</time>
      </trkpt>
      <trkpt lat="46.69448" lon="6.18085">
        <ele>965.821</ele>
        <time>2014-06-13T07:46:30Z</time>
      </trkpt>
      <trkpt lat="46.6938" lon="6.18056">
        <ele>974.407</ele>
        <time>2014-06-13T07:47:53Z</time>
      </trkpt>
      <trkpt lat="46.69252" lon="6.17881">
        <ele>977.393</ele>
        <time>2014-06-13T07:50:32Z</time>
      </trkpt>
      <trkpt lat="46.69267" lon="6.1783">
        <ele>975.987</ele>
        <time>2014-06-13T07:51:01Z</time>
      </trkpt>
      <trkpt lat="46.69313" lon="6.17786">
        <ele>977.812</ele>
        <time>2014-06-13T07:51:48Z</time>
      </trkpt>
      <trkpt lat="46.6932" lon="6.17705">
        <ele>980.759</ele>
        <time>2014-06-13T07:52:42Z</time>
      </trkpt>
      <trkpt lat="46.69395" lon="6.17704">
        <ele>983.114</ele>
        <time>2014-06-13T07:53:45Z</time>
      </trkpt>
      <trkpt lat="46.69434" lon="6.17722">
        <ele>985.593</ele>
        <time>2014-06-13T07:54:25Z</time>
      </trkpt>
      <trkpt lat="46.69478" lon="6.17687">
        <ele>984.115</ele>
        <time>2014-06-13T07:55:05Z</time>
      </trkpt>
      <trkpt lat="46.69479" lon="6.1762">
        <ele>983.128</ele>
        <time>2014-06-13T07:55:42Z</time>
      </trkpt>
      <trkpt lat="46.69462" lon="6.1758">
        <ele>982.189</ele>
        <time>2014-06-13T07:56:18Z</time>
      </trkpt>
      <trkpt lat="46.6948" lon="6.17533">
        <ele>980.217</ele>
        <time>2014-06-13T07:56:56Z</time>
      </trkpt>
      <trkpt lat="46.69474" lon="6.17443">
        <ele>977.807</ele>
        <time>2014-06-13T07:57:45Z</time>
      </trkpt>
      <trkpt lat="46.69424" lon="6.17348">
        <ele>974.479</ele>
        <time>2014-06-13T07:58:50Z</time>
      </trkpt>
      <trkpt lat="46.69415" lon="6.17298">
        <ele>973.083</ele>
        <time>2014-06-13T07:59:34Z</time>
      </trkpt>
      <trkpt lat="46.69492" lon="6.17217">
        <ele>974.038</ele>
        <time>2014-06-13T08:01:10Z</time>
      </trkpt>
      <trkpt lat="46.6947" lon="6.17121">
        <ele>978.845</ele>
        <time>2014-06-13T08:02:12Z</time>
      </trkpt>
      <trkpt lat="46.695" lon="6.17077">
        <ele>980.23</ele>
        <time>2014-06-13T08:02:54Z</time>
      </trkpt>
      <trkpt lat="46.69496" lon="6.17054">
        <ele>981.639</ele>
        <time>2014-06-13T08:03:09Z</time>
      </trkpt>
      <trkpt lat="46.69356" lon="6.1662">
        <ele>986.991</ele>
        <time>2014-06-13T08:07:34Z</time>
      </trkpt>
      <trkpt lat="46.69239" lon="6.16336">
        <ele>986.935</ele>
        <time>2014-06-13T08:10:28Z</time>
      </trkpt>
      <trkpt lat="46.69213" lon="6.16242">
        <ele>988.986</ele>
        <time>2014-06-13T08:11:23Z</time>
      </trkpt>
      <trkpt lat="46.69143" lon="6.16096">
        <ele>988.914</ele>
        <time>2014-06-13T08:13:01Z</time>
      </trkpt>
      <trkpt lat="46.69019" lon="6.15708">
        <ele>992.207</ele>
        <time>2014-06-13T08:16:40Z</time>
      </trkpt>
      <trkpt lat="46.68996" lon="6.157">
        <ele>990.83</ele>
        <time>2014-06-13T08:16:59Z</time>
      </trkpt>
      <trkpt lat="46.68845" lon="6.15856">
        <ele>993.294</ele>
        <time>2014-06-13T08:19:35Z</time>
      </trkpt>
      <trkpt lat="46.68819" lon="6.15865">
        <ele>992.299</ele>
        <time>2014-06-13T08:19:56Z</time>
      </trkpt>
      <trkpt lat="46.68713" lon="6.15637">
        <ele>978.866</ele>
        <time>2014-06-13T08:22:33Z</time>
      </trkpt>
      <trkpt lat="46.68571" lon="6.15026">
        <ele>983.191</ele>
        <time>2014-06-13T08:28:31Z</time>
      </trkpt>
      <trkpt lat="46.68469" lon="6.14793">
        <ele>986.53</ele>
        <time>2014-06-13T08:31:25Z</time>
      </trkpt>
      <trkpt lat="46.68352" lon="6.14384">
        <ele>990.312</ele>
        <time>2014-06-13T08:35:30Z</time>
      </trkpt>
      <trkpt lat="46.68291" lon="6.13972">
        <ele>1007.669</ele>
        <time>2014-06-13T08:40:33Z</time>
      </trkpt>
      <trkpt lat="46.68226" lon="6.13774">
        <ele>1009.004</ele>
        <time>2014-06-13T08:42:34Z</time>
      </trkpt>
      <trkpt lat="46.68121" lon="6.13607">
        <ele>998.524</ele>
        <time>2014-06-13T08:44:41Z</time>
      </trkpt>
      <trkpt lat="46.68085" lon="6.13492">
        <ele>995.607</ele>
        <time>2014-06-13T08:45:55Z</time>
      </trkpt>
      <trkpt lat="46.68086" lon="6.13442">
        <ele>995.663</ele>
        <time>2014-06-13T08:46:25Z</time>
      </trkpt>
    </trkseg>
  </trk>
  <trk>
    <name><![CDATA[GTJ Labergement &gt; Bellegarde_4]]></name>
    <trkseg>
      <trkpt lat="46.68086" lon="6.13442">
        <ele>995.663</ele>
        <time>2014-06-13T08:46:25Z</time>
      </trkpt>
      <trkpt lat="46.68086" lon="6.13442">
        <ele>995.663</ele>
        <time>2014-06-13T08:46:25Z</time>
      </trkpt>
      <trkpt lat="46.68044" lon="6.13417">
        <ele>996.567</ele>
        <time>2014-06-13T08:47:03Z</time>
      </trkpt>
      <trkpt lat="46.67963" lon="6.13328">
        <ele>994.162</ele>
        <time>2014-06-13T08:48:23Z</time>
      </trkpt>
      <trkpt lat="46.67937" lon="6.13337">
        <ele>993.719</ele>
        <time>2014-06-13T08:48:53Z</time>
      </trkpt>
      <trkpt lat="46.67881" lon="6.13417">
        <ele>994.654</ele>
        <time>2014-06-13T08:49:58Z</time>
      </trkpt>
      <trkpt lat="46.67735" lon="6.13756">
        <ele>999.453</ele>
        <time>2014-06-13T08:53:42Z</time>
      </trkpt>
      <trkpt lat="46.67672" lon="6.13834">
        <ele>1001.465</ele>
        <time>2014-06-13T08:54:49Z</time>
      </trkpt>
      <trkpt lat="46.67641" lon="6.13841">
        <ele>1002.311</ele>
        <time>2014-06-13T08:55:10Z</time>
      </trkpt>
      <trkpt lat="46.67604" lon="6.13828">
        <ele>1003.321</ele>
        <time>2014-06-13T08:55:38Z</time>
      </trkpt>
      <trkpt lat="46.67507" lon="6.13757">
        <ele>1005.703</ele>
        <time>2014-06-13T08:57:02Z</time>
      </trkpt>
      <trkpt lat="46.6743" lon="6.13751">
        <ele>1009.007</ele>
        <time>2014-06-13T08:58:09Z</time>
      </trkpt>
      <trkpt lat="46.6737" lon="6.13511">
        <ele>1011.438</ele>
        <time>2014-06-13T09:00:41Z</time>
      </trkpt>
      <trkpt lat="46.67251" lon="6.13228">
        <ele>1017.752</ele>
        <time>2014-06-13T09:03:38Z</time>
      </trkpt>
      <trkpt lat="46.67156" lon="6.13168">
        <ele>1020.127</ele>
        <time>2014-06-13T09:04:58Z</time>
      </trkpt>
      <trkpt lat="46.67048" lon="6.13047">
        <ele>1022.524</ele>
        <time>2014-06-13T09:06:44Z</time>
      </trkpt>
      <trkpt lat="46.66965" lon="6.12987">
        <ele>1030.749</ele>
        <time>2014-06-13T09:08:04Z</time>
      </trkpt>
      <trkpt lat="46.6671" lon="6.12571">
        <ele>1057.638</ele>
        <time>2014-06-13T09:13:56Z</time>
      </trkpt>
      <trkpt lat="46.66531" lon="6.12113">
        <ele>1045.62</ele>
        <time>2014-06-13T09:18:33Z</time>
      </trkpt>
      <trkpt lat="46.66517" lon="6.11881">
        <ele>1046.592</ele>
        <time>2014-06-13T09:20:56Z</time>
      </trkpt>
      <trkpt lat="46.66471" lon="6.11797">
        <ele>1045.673</ele>
        <time>2014-06-13T09:21:47Z</time>
      </trkpt>
      <trkpt lat="46.664" lon="6.11699">
        <ele>1049.42</ele>
        <time>2014-06-13T09:23:05Z</time>
      </trkpt>
      <trkpt lat="46.6632" lon="6.1176">
        <ele>1058.607</ele>
        <time>2014-06-13T09:24:38Z</time>
      </trkpt>
      <trkpt lat="46.66261" lon="6.11755">
        <ele>1065.316</ele>
        <time>2014-06-13T09:25:35Z</time>
      </trkpt>
      <trkpt lat="46.66214" lon="6.11718">
        <ele>1065.85</ele>
        <time>2014-06-13T09:26:23Z</time>
      </trkpt>
      <trkpt lat="46.66201" lon="6.11616">
        <ele>1058.655</ele>
        <time>2014-06-13T09:27:35Z</time>
      </trkpt>
      <trkpt lat="46.66222" lon="6.11508">
        <ele>1049.452</ele>
        <time>2014-06-13T09:28:55Z</time>
      </trkpt>
      <trkpt lat="46.66172" lon="6.1134">
        <ele>1048.547</ele>
        <time>2014-06-13T09:31:07Z</time>
      </trkpt>
      <trkpt lat="46.66174" lon="6.11282">
        <ele>1052.816</ele>
        <time>2014-06-13T09:31:58Z</time>
      </trkpt>
      <trkpt lat="46.66152" lon="6.11217">
        <ele>1057.138</ele>
        <time>2014-06-13T09:32:52Z</time>
      </trkpt>
      <trkpt lat="46.66089" lon="6.11096">
        <ele>1065.865</ele>
        <time>2014-06-13T09:35:16Z</time>
      </trkpt>
      <trkpt lat="46.66066" lon="6.11003">
        <ele>1070.168</ele>
        <time>2014-06-13T09:36:18Z</time>
      </trkpt>
      <trkpt lat="46.66008" lon="6.1095">
        <ele>1071.514</ele>
        <time>2014-06-13T09:37:20Z</time>
      </trkpt>
      <trkpt lat="46.65931" lon="6.10823">
        <ele>1069.607</ele>
        <time>2014-06-13T09:39:13Z</time>
      </trkpt>
      <trkpt lat="46.65823" lon="6.10578">
        <ele>1073.593</ele>
        <time>2014-06-13T09:42:05Z</time>
      </trkpt>
      <trkpt lat="46.65688" lon="6.10696">
        <ele>1090.387</ele>
        <time>2014-06-13T09:45:09Z</time>
      </trkpt>
      <trkpt lat="46.65645" lon="6.10684">
        <ele>1094.122</ele>
        <time>2014-06-13T09:45:58Z</time>
      </trkpt>
      <trkpt lat="46.65585" lon="6.10643">
        <ele>1100.979</ele>
        <time>2014-06-13T09:47:27Z</time>
      </trkpt>
      <trkpt lat="46.65563" lon="6.10656">
        <ele>1104.764</ele>
        <time>2014-06-13T09:48:03Z</time>
      </trkpt>
      <trkpt lat="46.65578" lon="6.10716">
        <ele>1108.583</ele>
        <time>2014-06-13T09:49:00Z</time>
      </trkpt>
      <trkpt lat="46.65684" lon="6.10893">
        <ele>1122.065</ele>
        <time>2014-06-13T09:52:27Z</time>
      </trkpt>
      <trkpt lat="46.65701" lon="6.10953">
        <ele>1124.972</ele>
        <time>2014-06-13T09:53:17Z</time>
      </trkpt>
      <trkpt lat="46.65703" lon="6.11073">
        <ele>1131.613</ele>
        <time>2014-06-13T09:55:00Z</time>
      </trkpt>
      <trkpt lat="46.65685" lon="6.11119">
        <ele>1133.114</ele>
        <time>2014-06-13T09:55:31Z</time>
      </trkpt>
      <trkpt lat="46.65636" lon="6.11177">
        <ele>1136.407</ele>
        <time>2014-06-13T09:56:27Z</time>
      </trkpt>
      <trkpt lat="46.65592" lon="6.11179">
        <ele>1140.354</ele>
        <time>2014-06-13T09:57:11Z</time>
      </trkpt>
      <trkpt lat="46.65556" lon="6.11137">
        <ele>1144.158</ele>
        <time>2014-06-13T09:58:04Z</time>
      </trkpt>
      <trkpt lat="46.65505" lon="6.11109">
        <ele>1150.893</ele>
        <time>2014-06-13T09:59:11Z</time>
      </trkpt>
      <trkpt lat="46.65423" lon="6.11217">
        <ele>1163.37</ele>
        <time>2014-06-13T10:01:29Z</time>
      </trkpt>
      <trkpt lat="46.65388" lon="6.11236">
        <ele>1166.715</ele>
        <time>2014-06-13T10:02:18Z</time>
      </trkpt>
      <trkpt lat="46.65363" lon="6.11271">
        <ele>1167.724</ele>
        <time>2014-06-13T10:02:53Z</time>
      </trkpt>
      <trkpt lat="46.65343" lon="6.11277">
        <ele>1169.636</ele>
        <time>2014-06-13T10:03:10Z</time>
      </trkpt>
      <trkpt lat="46.65324" lon="6.11263">
        <ele>1171.011</ele>
        <time>2014-06-13T10:03:27Z</time>
      </trkpt>
      <trkpt lat="46.65282" lon="6.11206">
        <ele>1172.521</ele>
        <time>2014-06-13T10:04:15Z</time>
      </trkpt>
      <trkpt lat="46.65247" lon="6.11187">
        <ele>1174.903</ele>
        <time>2014-06-13T10:04:53Z</time>
      </trkpt>
      <trkpt lat="46.65157" lon="6.11251">
        <ele>1177.807</ele>
        <time>2014-06-13T10:06:28Z</time>
      </trkpt>
      <trkpt lat="46.6496" lon="6.11335">
        <ele>1194.628</ele>
        <time>2014-06-13T10:09:50Z</time>
      </trkpt>
      <trkpt lat="46.64942" lon="6.11365">
        <ele>1195.192</ele>
        <time>2014-06-13T10:10:14Z</time>
      </trkpt>
      <trkpt lat="46.64889" lon="6.11396">
        <ele>1193.157</ele>
        <time>2014-06-13T10:10:53Z</time>
      </trkpt>
      <trkpt lat="46.64861" lon="6.11346">
        <ele>1196.054</ele>
        <time>2014-06-13T10:11:28Z</time>
      </trkpt>
      <trkpt lat="46.64813" lon="6.11321">
        <ele>1195.149</ele>
        <time>2014-06-13T10:12:13Z</time>
      </trkpt>
      <trkpt lat="46.64564" lon="6.1142">
        <ele>1193.138</ele>
        <time>2014-06-13T10:15:36Z</time>
      </trkpt>
      <trkpt lat="46.64432" lon="6.11614">
        <ele>1191.27</ele>
        <time>2014-06-13T10:18:01Z</time>
      </trkpt>
      <trkpt lat="46.64394" lon="6.11637">
        <ele>1192.774</ele>
        <time>2014-06-13T10:18:48Z</time>
      </trkpt>
      <trkpt lat="46.6425" lon="6.11785">
        <ele>1205.256</ele>
        <time>2014-06-13T10:21:30Z</time>
      </trkpt>
      <trkpt lat="46.64107" lon="6.11868">
        <ele>1212.821</ele>
        <time>2014-06-13T10:23:45Z</time>
      </trkpt>
      <trkpt lat="46.64" lon="6.11834">
        <ele>1211.407</ele>
        <time>2014-06-13T10:25:14Z</time>
      </trkpt>
      <trkpt lat="46.63994" lon="6.11875">
        <ele>1211.424</ele>
        <time>2014-06-13T10:25:43Z</time>
      </trkpt>
      <trkpt lat="46.63957" lon="6.11878">
        <ele>1211.458</ele>
        <time>2014-06-13T10:26:17Z</time>
      </trkpt>
      <trkpt lat="46.63892" lon="6.11829">
        <ele>1210.433</ele>
        <time>2014-06-13T10:27:12Z</time>
      </trkpt>
      <trkpt lat="46.63831" lon="6.11733">
        <ele>1209.59</ele>
        <time>2014-06-13T10:28:24Z</time>
      </trkpt>
      <trkpt lat="46.63785" lon="6.11596">
        <ele>1208.055</ele>
        <time>2014-06-13T10:29:46Z</time>
      </trkpt>
      <trkpt lat="46.63752" lon="6.11395">
        <ele>1208.074</ele>
        <time>2014-06-13T10:31:33Z</time>
      </trkpt>
      <trkpt lat="46.63712" lon="6.11286">
        <ele>1208.026</ele>
        <time>2014-06-13T10:32:37Z</time>
      </trkpt>
      <trkpt lat="46.63675" lon="6.11225">
        <ele>1206.658</ele>
        <time>2014-06-13T10:33:17Z</time>
      </trkpt>
      <trkpt lat="46.63597" lon="6.11214">
        <ele>1207.652</ele>
        <time>2014-06-13T10:34:15Z</time>
      </trkpt>
      <trkpt lat="46.63559" lon="6.11155">
        <ele>1207.617</ele>
        <time>2014-06-13T10:34:52Z</time>
      </trkpt>
      <trkpt lat="46.63583" lon="6.10997">
        <ele>1207.607</ele>
        <time>2014-06-13T10:36:08Z</time>
      </trkpt>
      <trkpt lat="46.63554" lon="6.1095">
        <ele>1206.692</ele>
        <time>2014-06-13T10:36:44Z</time>
      </trkpt>
      <trkpt lat="46.63465" lon="6.10926">
        <ele>1205.696</ele>
        <time>2014-06-13T10:37:51Z</time>
      </trkpt>
      <trkpt lat="46.63423" lon="6.10937">
        <ele>1205.681</ele>
        <time>2014-06-13T10:38:31Z</time>
      </trkpt>
      <trkpt lat="46.6334" lon="6.11159">
        <ele>1206.648</ele>
        <time>2014-06-13T10:41:08Z</time>
      </trkpt>
      <trkpt lat="46.63228" lon="6.11287">
        <ele>1210.043</ele>
        <time>2014-06-13T10:42:47Z</time>
      </trkpt>
      <trkpt lat="46.63151" lon="6.11329">
        <ele>1215.732</ele>
        <time>2014-06-13T10:43:58Z</time>
      </trkpt>
      <trkpt lat="46.63112" lon="6.11295">
        <ele>1215.744</ele>
        <time>2014-06-13T10:44:33Z</time>
      </trkpt>
      <trkpt lat="46.63054" lon="6.11081">
        <ele>1202.874</ele>
        <time>2014-06-13T10:46:37Z</time>
      </trkpt>
      <trkpt lat="46.63028" lon="6.11037">
        <ele>1201.356</ele>
        <time>2014-06-13T10:47:09Z</time>
      </trkpt>
      <trkpt lat="46.62927" lon="6.10966">
        <ele>1199.421</ele>
        <time>2014-06-13T10:48:51Z</time>
      </trkpt>
      <trkpt lat="46.62892" lon="6.1092">
        <ele>1197.907</ele>
        <time>2014-06-13T10:49:33Z</time>
      </trkpt>
      <trkpt lat="46.62881" lon="6.10856">
        <ele>1194.164</ele>
        <time>2014-06-13T10:50:03Z</time>
      </trkpt>
      <trkpt lat="46.62835" lon="6.10885">
        <ele>1187.958</ele>
        <time>2014-06-13T10:50:51Z</time>
      </trkpt>
      <trkpt lat="46.62803" lon="6.10822">
        <ele>1184.023</ele>
        <time>2014-06-13T10:51:33Z</time>
      </trkpt>
      <trkpt lat="46.62738" lon="6.10921">
        <ele>1173.97</ele>
        <time>2014-06-13T10:53:04Z</time>
      </trkpt>
      <trkpt lat="46.62674" lon="6.10957">
        <ele>1169.645</ele>
        <time>2014-06-13T10:53:43Z</time>
      </trkpt>
      <trkpt lat="46.62648" lon="6.10951">
        <ele>1169.194</ele>
        <time>2014-06-13T10:54:02Z</time>
      </trkpt>
      <trkpt lat="46.62592" lon="6.109">
        <ele>1170.586</ele>
        <time>2014-06-13T10:54:56Z</time>
      </trkpt>
      <trkpt lat="46.62481" lon="6.10927">
        <ele>1164.378</ele>
        <time>2014-06-13T10:56:29Z</time>
      </trkpt>
      <trkpt lat="46.62429" lon="6.10916">
        <ele>1158.133</ele>
        <time>2014-06-13T10:58:02Z</time>
      </trkpt>
      <trkpt lat="46.62356" lon="6.10776">
        <ele>1150.826</ele>
        <time>2014-06-13T10:59:54Z</time>
      </trkpt>
      <trkpt lat="46.62258" lon="6.10477">
        <ele>1138.807</ele>
        <time>2014-06-13T11:02:56Z</time>
      </trkpt>
      <trkpt lat="46.6222" lon="6.10441">
        <ele>1137.964</ele>
        <time>2014-06-13T11:03:42Z</time>
      </trkpt>
      <trkpt lat="46.62192" lon="6.1045">
        <ele>1138.828</ele>
        <time>2014-06-13T11:04:09Z</time>
      </trkpt>
      <trkpt lat="46.62031" lon="6.1058">
        <ele>1122.583</ele>
        <time>2014-06-13T11:07:06Z</time>
      </trkpt>
      <trkpt lat="46.61941" lon="6.10547">
        <ele>1113.88</ele>
        <time>2014-06-13T11:08:29Z</time>
      </trkpt>
      <trkpt lat="46.61882" lon="6.10495">
        <ele>1106.185</ele>
        <time>2014-06-13T11:09:33Z</time>
      </trkpt>
      <trkpt lat="46.61806" lon="6.10518">
        <ele>1106.654</ele>
        <time>2014-06-13T11:10:58Z</time>
      </trkpt>
      <trkpt lat="46.61744" lon="6.10502">
        <ele>1102.386</ele>
        <time>2014-06-13T11:11:51Z</time>
      </trkpt>
      <trkpt lat="46.61707" lon="6.10523">
        <ele>1099.483</ele>
        <time>2014-06-13T11:12:21Z</time>
      </trkpt>
      <trkpt lat="46.6168" lon="6.10521">
        <ele>1098.425</ele>
        <time>2014-06-13T11:12:47Z</time>
      </trkpt>
      <trkpt lat="46.61639" lon="6.10559">
        <ele>1098.017</ele>
        <time>2014-06-13T11:13:28Z</time>
      </trkpt>
      <trkpt lat="46.61568" lon="6.10568">
        <ele>1095.607</ele>
        <time>2014-06-13T11:14:23Z</time>
      </trkpt>
      <trkpt lat="46.61446" lon="6.10645">
        <ele>1092.795</ele>
        <time>2014-06-13T11:16:14Z</time>
      </trkpt>
      <trkpt lat="46.61415" lon="6.1064">
        <ele>1093.619</ele>
        <time>2014-06-13T11:16:44Z</time>
      </trkpt>
      <trkpt lat="46.61372" lon="6.10582">
        <ele>1090.344</ele>
        <time>2014-06-13T11:17:36Z</time>
      </trkpt>
      <trkpt lat="46.61232" lon="6.10539">
        <ele>1093.251</ele>
        <time>2014-06-13T11:19:44Z</time>
      </trkpt>
      <trkpt lat="46.61197" lon="6.10414">
        <ele>1092.746</ele>
        <time>2014-06-13T11:20:55Z</time>
      </trkpt>
      <trkpt lat="46.61159" lon="6.10386">
        <ele>1091.255</ele>
        <time>2014-06-13T11:21:35Z</time>
      </trkpt>
      <trkpt lat="46.61099" lon="6.10403">
        <ele>1090.367</ele>
        <time>2014-06-13T11:22:36Z</time>
      </trkpt>
      <trkpt lat="46.60965" lon="6.10476">
        <ele>1086.929</ele>
        <time>2014-06-13T11:24:31Z</time>
      </trkpt>
      <trkpt lat="46.608" lon="6.1061">
        <ele>1085</ele>
        <time>2014-06-13T11:27:18Z</time>
      </trkpt>
      <trkpt lat="46.60692" lon="6.10676">
        <ele>1084.02</ele>
        <time>2014-06-13T11:29:02Z</time>
      </trkpt>
      <trkpt lat="46.60271" lon="6.10672">
        <ele>1079.207</ele>
        <time>2014-06-13T11:34:51Z</time>
      </trkpt>
      <trkpt lat="46.60127" lon="6.10712">
        <ele>1077.879</ele>
        <time>2014-06-13T11:36:58Z</time>
      </trkpt>
      <trkpt lat="46.60075" lon="6.10711">
        <ele>1077.323</ele>
        <time>2014-06-13T11:37:54Z</time>
      </trkpt>
      <trkpt lat="46.6006" lon="6.10864">
        <ele>1078.388</ele>
        <time>2014-06-13T11:40:08Z</time>
      </trkpt>
      <trkpt lat="46.59942" lon="6.1133">
        <ele>1094.145</ele>
        <time>2014-06-13T11:45:37Z</time>
      </trkpt>
      <trkpt lat="46.59882" lon="6.11402">
        <ele>1089.88</ele>
        <time>2014-06-13T11:46:59Z</time>
      </trkpt>
      <trkpt lat="46.59802" lon="6.11411">
        <ele>1093.279</ele>
        <time>2014-06-13T11:48:54Z</time>
      </trkpt>
      <trkpt lat="46.59826" lon="6.11404">
        <ele>1093.621</ele>
        <time>2014-06-13T11:49:49Z</time>
      </trkpt>
      <trkpt lat="46.59822" lon="6.11391">
        <ele>1094.166</ele>
        <time>2014-06-13T11:50:09Z</time>
      </trkpt>
      <trkpt lat="46.59844" lon="6.11363">
        <ele>1093.629</ele>
        <time>2014-06-13T11:50:43Z</time>
      </trkpt>
      <trkpt lat="46.59794" lon="6.11417">
        <ele>1093.621</ele>
        <time>2014-06-13T11:51:10Z</time>
      </trkpt>
      <trkpt lat="46.59812" lon="6.11379">
        <ele>1097.007</ele>
        <time>2014-06-13T11:53:43Z</time>
      </trkpt>
      <trkpt lat="46.60026" lon="6.10511">
        <ele>1076.688</ele>
      </trkpt>
      <trkpt lat="46.60025" lon="6.10529">
        <ele>1076.17</ele>
      </trkpt>
      <trkpt lat="46.60027" lon="6.10546">
        <ele>1076.02</ele>
      </trkpt>
      <trkpt lat="46.60037" lon="6.10574">
        <ele>1075.216</ele>
      </trkpt>
      <trkpt lat="46.60044" lon="6.10599">
        <ele>1074.199</ele>
      </trkpt>
      <trkpt lat="46.60051" lon="6.10614">
        <ele>1073.611</ele>
      </trkpt>
      <trkpt lat="46.60056" lon="6.10629">
        <ele>1072.684</ele>
      </trkpt>
      <trkpt lat="46.60061" lon="6.10648">
        <ele>1072</ele>
      </trkpt>
      <trkpt lat="46.60067" lon="6.10668">
        <ele>1071.962</ele>
      </trkpt>
      <trkpt lat="46.60072" lon="6.10688">
        <ele>1071.243</ele>
      </trkpt>
      <trkpt lat="46.60076" lon="6.10704">
        <ele>1071</ele>
      </trkpt>
      <trkpt lat="46.60074" lon="6.10735">
        <ele>1071</ele>
      </trkpt>
      <trkpt lat="46.60071" lon="6.10769">
        <ele>1071</ele>
      </trkpt>
      <trkpt lat="46.60071" lon="6.10802">
        <ele>1071.872</ele>
      </trkpt>
      <trkpt lat="46.60069" lon="6.10828">
        <ele>1072</ele>
      </trkpt>
      <trkpt lat="46.60066" lon="6.10842">
        <ele>1072</ele>
      </trkpt>
      <trkpt lat="46.60057" lon="6.10866">
        <ele>1072</ele>
      </trkpt>
      <trkpt lat="46.60046" lon="6.10895">
        <ele>1072</ele>
      </trkpt>
      <trkpt lat="46.60036" lon="6.10925">
        <ele>1072</ele>
      </trkpt>
      <trkpt lat="46.60028" lon="6.10956">
        <ele>1072</ele>
      </trkpt>
      <trkpt lat="46.60013" lon="6.11015">
        <ele>1072.298</ele>
      </trkpt>
      <trkpt lat="46.60001" lon="6.1106">
        <ele>1074.128</ele>
      </trkpt>
      <trkpt lat="46.59996" lon="6.11081">
        <ele>1075.066</ele>
      </trkpt>
      <trkpt lat="46.59993" lon="6.11104">
        <ele>1075.99</ele>
      </trkpt>
      <trkpt lat="46.59985" lon="6.11129">
        <ele>1077.837</ele>
      </trkpt>
      <trkpt lat="46.59979" lon="6.11161">
        <ele>1079.768</ele>
      </trkpt>
      <trkpt lat="46.59973" lon="6.11189">
        <ele>1082.391</ele>
      </trkpt>
      <trkpt lat="46.59967" lon="6.11229">
        <ele>1085.252</ele>
      </trkpt>
      <trkpt lat="46.59969" lon="6.11244">
        <ele>1085.786</ele>
      </trkpt>
      <trkpt lat="46.59965" lon="6.11272">
        <ele>1086.985</ele>
      </trkpt>
      <trkpt lat="46.59957" lon="6.11305">
        <ele>1087.006</ele>
      </trkpt>
      <trkpt lat="46.59938" lon="6.11343">
        <ele>1088.856</ele>
      </trkpt>
      <trkpt lat="46.59925" lon="6.11362">
        <ele>1088.534</ele>
      </trkpt>
      <trkpt lat="46.59913" lon="6.11374">
        <ele>1087.46</ele>
      </trkpt>
      <trkpt lat="46.59905" lon="6.11387">
        <ele>1087.047</ele>
      </trkpt>
      <trkpt lat="46.59899" lon="6.11391">
        <ele>1087</ele>
      </trkpt>
      <trkpt lat="46.59885" lon="6.114">
        <ele>1087</ele>
      </trkpt>
      <trkpt lat="46.59872" lon="6.11401">
        <ele>1087</ele>
      </trkpt>
      <trkpt lat="46.59863" lon="6.114">
        <ele>1087</ele>
      </trkpt>
      <trkpt lat="46.5985" lon="6.11401">
        <ele>1087</ele>
      </trkpt>
      <trkpt lat="46.5984" lon="6.114">
        <ele>1087</ele>
      </trkpt>
      <trkpt lat="46.59827" lon="6.11406">
        <ele>1087</ele>
      </trkpt>
      <trkpt lat="46.59817" lon="6.11412">
        <ele>1087</ele>
      </trkpt>
      <trkpt lat="46.59808" lon="6.11417">
        <ele>1087</ele>
      </trkpt>
      <trkpt lat="46.59799" lon="6.11425">
        <ele>1087</ele>
      </trkpt>
      <trkpt lat="46.59796" lon="6.11431">
        <ele>1087</ele>
      </trkpt>
      <trkpt lat="46.59788" lon="6.11436">
        <ele>1087</ele>
      </trkpt>
      <trkpt lat="46.59784" lon="6.11416">
        <ele>1087</ele>
      </trkpt>
      <trkpt lat="46.59779" lon="6.11401">
        <ele>1087</ele>
      </trkpt>
      <trkpt lat="46.59766" lon="6.11385">
        <ele>1087</ele>
      </trkpt>
      <trkpt lat="46.59756" lon="6.11368">
        <ele>1087</ele>
      </trkpt>
      <trkpt lat="46.59748" lon="6.11351">
        <ele>1086.24</ele>
      </trkpt>
      <trkpt lat="46.59737" lon="6.11336">
        <ele>1085.132</ele>
      </trkpt>
      <trkpt lat="46.59731" lon="6.11326">
        <ele>1084.522</ele>
      </trkpt>
      <trkpt lat="46.59727" lon="6.11324">
        <ele>1084.348</ele>
      </trkpt>
      <trkpt lat="46.59721" lon="6.1133">
        <ele>1084.679</ele>
      </trkpt>
      <trkpt lat="46.59714" lon="6.11336">
        <ele>1084.779</ele>
      </trkpt>
      <trkpt lat="46.59705" lon="6.11335">
        <ele>1084.433</ele>
      </trkpt>
      <trkpt lat="46.59698" lon="6.1133">
        <ele>1083.873</ele>
      </trkpt>
      <trkpt lat="46.59694" lon="6.11325">
        <ele>1083.328</ele>
      </trkpt>
      <trkpt lat="46.59688" lon="6.11321">
        <ele>1082.76</ele>
      </trkpt>
      <trkpt lat="46.59683" lon="6.11324">
        <ele>1082.603</ele>
      </trkpt>
      <trkpt lat="46.59668" lon="6.11347">
        <ele>1082.619</ele>
      </trkpt>
      <trkpt lat="46.59652" lon="6.11389">
        <ele>1081.45</ele>
      </trkpt>
      <trkpt lat="46.59632" lon="6.11436">
        <ele>1078.249</ele>
      </trkpt>
      <trkpt lat="46.59615" lon="6.11473">
        <ele>1075.389</ele>
      </trkpt>
      <trkpt lat="46.59599" lon="6.11494">
        <ele>1075.795</ele>
      </trkpt>
      <trkpt lat="46.59589" lon="6.11502">
        <ele>1076.063</ele>
      </trkpt>
      <trkpt lat="46.59579" lon="6.11504">
        <ele>1076.297</ele>
      </trkpt>
      <trkpt lat="46.59566" lon="6.11503">
        <ele>1076.661</ele>
      </trkpt>
      <trkpt lat="46.59553" lon="6.11496">
        <ele>1077</ele>
      </trkpt>
      <trkpt lat="46.59542" lon="6.11489">
        <ele>1077</ele>
      </trkpt>
      <trkpt lat="46.59526" lon="6.11484">
        <ele>1077</ele>
      </trkpt>
      <trkpt lat="46.59515" lon="6.1148">
        <ele>1077</ele>
      </trkpt>
      <trkpt lat="46.595" lon="6.11479">
        <ele>1077</ele>
      </trkpt>
      <trkpt lat="46.59477" lon="6.11483">
        <ele>1077</ele>
      </trkpt>
      <trkpt lat="46.59452" lon="6.11487">
        <ele>1076.272</ele>
      </trkpt>
      <trkpt lat="46.59437" lon="6.1149">
        <ele>1076.16</ele>
      </trkpt>
      <trkpt lat="46.59421" lon="6.11493">
        <ele>1076.63</ele>
      </trkpt>
      <trkpt lat="46.59408" lon="6.11492">
        <ele>1076.812</ele>
      </trkpt>
      <trkpt lat="46.59396" lon="6.11493">
        <ele>1076.941</ele>
      </trkpt>
      <trkpt lat="46.59383" lon="6.11496">
        <ele>1077</ele>
      </trkpt>
      <trkpt lat="46.59373" lon="6.115">
        <ele>1077</ele>
      </trkpt>
      <trkpt lat="46.59358" lon="6.11517">
        <ele>1077.599</ele>
      </trkpt>
      <trkpt lat="46.59346" lon="6.11535">
        <ele>1078.275</ele>
      </trkpt>
      <trkpt lat="46.59336" lon="6.1155">
        <ele>1078.78</ele>
      </trkpt>
      <trkpt lat="46.59326" lon="6.11565">
        <ele>1079.095</ele>
      </trkpt>
      <trkpt lat="46.59316" lon="6.11579">
        <ele>1079.525</ele>
      </trkpt>
      <trkpt lat="46.593" lon="6.11598">
        <ele>1080.302</ele>
      </trkpt>
      <trkpt lat="46.59288" lon="6.11611">
        <ele>1080.379</ele>
      </trkpt>
      <trkpt lat="46.59277" lon="6.11627">
        <ele>1080.557</ele>
      </trkpt>
      <trkpt lat="46.59267" lon="6.11638">
        <ele>1080.565</ele>
      </trkpt>
      <trkpt lat="46.59257" lon="6.11663">
        <ele>1081.126</ele>
      </trkpt>
      <trkpt lat="46.59253" lon="6.11689">
        <ele>1082.627</ele>
      </trkpt>
      <trkpt lat="46.59248" lon="6.11713">
        <ele>1083.642</ele>
      </trkpt>
      <trkpt lat="46.59238" lon="6.11743">
        <ele>1084.764</ele>
      </trkpt>
      <trkpt lat="46.5923" lon="6.11769">
        <ele>1085.686</ele>
      </trkpt>
      <trkpt lat="46.5922" lon="6.11793">
        <ele>1087.086</ele>
      </trkpt>
      <trkpt lat="46.59206" lon="6.11823">
        <ele>1088.624</ele>
      </trkpt>
      <trkpt lat="46.59189" lon="6.11853">
        <ele>1091.847</ele>
      </trkpt>
      <trkpt lat="46.59173" lon="6.11883">
        <ele>1097.392</ele>
      </trkpt>
      <trkpt lat="46.5916" lon="6.11913">
        <ele>1102.57</ele>
      </trkpt>
      <trkpt lat="46.59142" lon="6.11944">
        <ele>1108.544</ele>
      </trkpt>
      <trkpt lat="46.59134" lon="6.11955">
        <ele>1111.021</ele>
      </trkpt>
      <trkpt lat="46.59123" lon="6.11959">
        <ele>1113.096</ele>
      </trkpt>
      <trkpt lat="46.59114" lon="6.11959">
        <ele>1114.494</ele>
      </trkpt>
      <trkpt lat="46.59105" lon="6.11951">
        <ele>1115.934</ele>
      </trkpt>
      <trkpt lat="46.59097" lon="6.11939">
        <ele>1116.69</ele>
      </trkpt>
      <trkpt lat="46.59088" lon="6.11929">
        <ele>1117.811</ele>
      </trkpt>
      <trkpt lat="46.59081" lon="6.11912">
        <ele>1118.096</ele>
      </trkpt>
      <trkpt lat="46.59072" lon="6.11903">
        <ele>1119.033</ele>
      </trkpt>
      <trkpt lat="46.59061" lon="6.11891">
        <ele>1120.11</ele>
      </trkpt>
      <trkpt lat="46.59054" lon="6.11883">
        <ele>1120.664</ele>
      </trkpt>
      <trkpt lat="46.59042" lon="6.11875">
        <ele>1121.007</ele>
      </trkpt>
      <trkpt lat="46.59032" lon="6.11868">
        <ele>1121.199</ele>
      </trkpt>
      <trkpt lat="46.59023" lon="6.11864">
        <ele>1121.908</ele>
      </trkpt>
      <trkpt lat="46.59013" lon="6.1186">
        <ele>1123.063</ele>
      </trkpt>
      <trkpt lat="46.59005" lon="6.1186">
        <ele>1124.156</ele>
      </trkpt>
      <trkpt lat="46.58996" lon="6.11859">
        <ele>1125.393</ele>
      </trkpt>
      <trkpt lat="46.58986" lon="6.11853">
        <ele>1126.293</ele>
      </trkpt>
      <trkpt lat="46.58977" lon="6.11845">
        <ele>1126.571</ele>
      </trkpt>
      <trkpt lat="46.58969" lon="6.11836">
        <ele>1126.767</ele>
      </trkpt>
      <trkpt lat="46.58963" lon="6.11834">
        <ele>1127.35</ele>
      </trkpt>
      <trkpt lat="46.58958" lon="6.11828">
        <ele>1127.741</ele>
      </trkpt>
      <trkpt lat="46.58953" lon="6.11827">
        <ele>1128.241</ele>
      </trkpt>
      <trkpt lat="46.58948" lon="6.11831">
        <ele>1129.397</ele>
      </trkpt>
      <trkpt lat="46.58941" lon="6.11839">
        <ele>1130.863</ele>
      </trkpt>
      <trkpt lat="46.58935" lon="6.11842">
        <ele>1131.585</ele>
      </trkpt>
      <trkpt lat="46.58929" lon="6.11844">
        <ele>1132.307</ele>
      </trkpt>
      <trkpt lat="46.58918" lon="6.11844">
        <ele>1133.031</ele>
      </trkpt>
      <trkpt lat="46.58904" lon="6.11839">
        <ele>1133.885</ele>
      </trkpt>
      <trkpt lat="46.58899" lon="6.11839">
        <ele>1134.414</ele>
      </trkpt>
      <trkpt lat="46.58889" lon="6.11835">
        <ele>1135.132</ele>
      </trkpt>
      <trkpt lat="46.5888" lon="6.11834">
        <ele>1135.747</ele>
      </trkpt>
      <trkpt lat="46.58869" lon="6.11835">
        <ele>1136.658</ele>
      </trkpt>
      <trkpt lat="46.58857" lon="6.11838">
        <ele>1137.761</ele>
      </trkpt>
      <trkpt lat="46.58849" lon="6.11839">
        <ele>1138.447</ele>
      </trkpt>
      <trkpt lat="46.58836" lon="6.1184">
        <ele>1139.496</ele>
      </trkpt>
      <trkpt lat="46.58821" lon="6.11839">
        <ele>1139.557</ele>
      </trkpt>
      <trkpt lat="46.5881" lon="6.11838">
        <ele>1139.473</ele>
      </trkpt>
      <trkpt lat="46.58801" lon="6.11839">
        <ele>1139.444</ele>
      </trkpt>
      <trkpt lat="46.58787" lon="6.11838">
        <ele>1138.929</ele>
      </trkpt>
      <trkpt lat="46.58774" lon="6.11834">
        <ele>1138.852</ele>
      </trkpt>
      <trkpt lat="46.58763" lon="6.11826">
        <ele>1140.554</ele>
      </trkpt>
      <trkpt lat="46.58749" lon="6.1182">
        <ele>1142.733</ele>
      </trkpt>
      <trkpt lat="46.5874" lon="6.11813">
        <ele>1142.666</ele>
      </trkpt>
      <trkpt lat="46.58731" lon="6.11806">
        <ele>1142.437</ele>
      </trkpt>
      <trkpt lat="46.58723" lon="6.11802">
        <ele>1142.453</ele>
      </trkpt>
      <trkpt lat="46.58703" lon="6.11801">
        <ele>1143.131</ele>
      </trkpt>
      <trkpt lat="46.58686" lon="6.11801">
        <ele>1144.141</ele>
      </trkpt>
      <trkpt lat="46.58673" lon="6.11799">
        <ele>1144.83</ele>
      </trkpt>
      <trkpt lat="46.58654" lon="6.11791">
        <ele>1145.56</ele>
      </trkpt>
      <trkpt lat="46.58644" lon="6.11782">
        <ele>1145.219</ele>
      </trkpt>
      <trkpt lat="46.58629" lon="6.11773">
        <ele>1145.843</ele>
      </trkpt>
      <trkpt lat="46.58619" lon="6.11769">
        <ele>1146.882</ele>
      </trkpt>
      <trkpt lat="46.5861" lon="6.11763">
        <ele>1147.694</ele>
      </trkpt>
      <trkpt lat="46.58601" lon="6.11759">
        <ele>1148.872</ele>
      </trkpt>
      <trkpt lat="46.58591" lon="6.11757">
        <ele>1150.43</ele>
      </trkpt>
      <trkpt lat="46.58578" lon="6.11756">
        <ele>1152.521</ele>
      </trkpt>
      <trkpt lat="46.58564" lon="6.1175">
        <ele>1154.515</ele>
      </trkpt>
      <trkpt lat="46.5855" lon="6.1174">
        <ele>1155.715</ele>
      </trkpt>
      <trkpt lat="46.5854" lon="6.11731">
        <ele>1156.176</ele>
      </trkpt>
      <trkpt lat="46.58531" lon="6.11717">
        <ele>1156.12</ele>
      </trkpt>
      <trkpt lat="46.58522" lon="6.11707">
        <ele>1156.647</ele>
      </trkpt>
      <trkpt lat="46.58512" lon="6.11699">
        <ele>1157.199</ele>
      </trkpt>
      <trkpt lat="46.585" lon="6.11687">
        <ele>1157.531</ele>
      </trkpt>
      <trkpt lat="46.58492" lon="6.1167">
        <ele>1157.398</ele>
      </trkpt>
      <trkpt lat="46.58486" lon="6.11658">
        <ele>1157.424</ele>
      </trkpt>
      <trkpt lat="46.58476" lon="6.11643">
        <ele>1157.703</ele>
      </trkpt>
      <trkpt lat="46.58468" lon="6.11637">
        <ele>1158.227</ele>
      </trkpt>
      <trkpt lat="46.58457" lon="6.11612">
        <ele>1156.647</ele>
      </trkpt>
      <trkpt lat="46.58451" lon="6.11599">
        <ele>1155.535</ele>
      </trkpt>
      <trkpt lat="46.58448" lon="6.1159">
        <ele>1154.726</ele>
      </trkpt>
      <trkpt lat="46.58445" lon="6.11579">
        <ele>1153.5</ele>
      </trkpt>
      <trkpt lat="46.58435" lon="6.1156">
        <ele>1152.156</ele>
      </trkpt>
      <trkpt lat="46.58422" lon="6.11543">
        <ele>1151.226</ele>
      </trkpt>
      <trkpt lat="46.58403" lon="6.11517">
        <ele>1151.023</ele>
      </trkpt>
      <trkpt lat="46.58379" lon="6.11488">
        <ele>1154.266</ele>
      </trkpt>
      <trkpt lat="46.58357" lon="6.11468">
        <ele>1160.452</ele>
      </trkpt>
      <trkpt lat="46.58341" lon="6.11447">
        <ele>1162.97</ele>
      </trkpt>
      <trkpt lat="46.58325" lon="6.11433">
        <ele>1166.585</ele>
      </trkpt>
      <trkpt lat="46.58307" lon="6.11417">
        <ele>1169.733</ele>
      </trkpt>
      <trkpt lat="46.58297" lon="6.11408">
        <ele>1170.211</ele>
      </trkpt>
      <trkpt lat="46.5829" lon="6.114">
        <ele>1170.223</ele>
      </trkpt>
      <trkpt lat="46.58281" lon="6.11393">
        <ele>1170.117</ele>
      </trkpt>
      <trkpt lat="46.58269" lon="6.11392">
        <ele>1171.841</ele>
      </trkpt>
      <trkpt lat="46.58256" lon="6.11391">
        <ele>1174.075</ele>
      </trkpt>
      <trkpt lat="46.58245" lon="6.11385">
        <ele>1176.348</ele>
      </trkpt>
      <trkpt lat="46.58238" lon="6.11372">
        <ele>1176.997</ele>
      </trkpt>
      <trkpt lat="46.58232" lon="6.11358">
        <ele>1176.354</ele>
      </trkpt>
      <trkpt lat="46.58222" lon="6.11344">
        <ele>1176.993</ele>
      </trkpt>
      <trkpt lat="46.58207" lon="6.11332">
        <ele>1179.065</ele>
      </trkpt>
      <trkpt lat="46.58198" lon="6.11321">
        <ele>1179.744</ele>
      </trkpt>
      <trkpt lat="46.58188" lon="6.11306">
        <ele>1180.419</ele>
      </trkpt>
      <trkpt lat="46.58183" lon="6.11285">
        <ele>1180.537</ele>
      </trkpt>
      <trkpt lat="46.58178" lon="6.11273">
        <ele>1180.987</ele>
      </trkpt>
      <trkpt lat="46.58166" lon="6.11257">
        <ele>1183.175</ele>
      </trkpt>
      <trkpt lat="46.58157" lon="6.11239">
        <ele>1184.272</ele>
      </trkpt>
      <trkpt lat="46.58146" lon="6.11225">
        <ele>1185.182</ele>
      </trkpt>
      <trkpt lat="46.58126" lon="6.11202">
        <ele>1185.841</ele>
      </trkpt>
      <trkpt lat="46.58117" lon="6.11187">
        <ele>1184.087</ele>
      </trkpt>
      <trkpt lat="46.58111" lon="6.1118">
        <ele>1183.373</ele>
      </trkpt>
      <trkpt lat="46.58098" lon="6.11171">
        <ele>1183.585</ele>
      </trkpt>
      <trkpt lat="46.58084" lon="6.11163">
        <ele>1182.744</ele>
      </trkpt>
      <trkpt lat="46.58077" lon="6.11158">
        <ele>1182.384</ele>
      </trkpt>
      <trkpt lat="46.58071" lon="6.11156">
        <ele>1182.88</ele>
      </trkpt>
      <trkpt lat="46.58064" lon="6.11139">
        <ele>1176.834</ele>
      </trkpt>
      <trkpt lat="46.58061" lon="6.11129">
        <ele>1174.222</ele>
      </trkpt>
      <trkpt lat="46.58056" lon="6.11106">
        <ele>1168.215</ele>
      </trkpt>
      <trkpt lat="46.58058" lon="6.11083">
        <ele>1164.875</ele>
      </trkpt>
      <trkpt lat="46.58059" lon="6.11068">
        <ele>1162.803</ele>
      </trkpt>
      <trkpt lat="46.58059" lon="6.11044">
        <ele>1159.39</ele>
      </trkpt>
      <trkpt lat="46.58061" lon="6.11023">
        <ele>1156.355</ele>
      </trkpt>
      <trkpt lat="46.58067" lon="6.11009">
        <ele>1154.261</ele>
      </trkpt>
      <trkpt lat="46.58077" lon="6.10996">
        <ele>1153.11</ele>
      </trkpt>
      <trkpt lat="46.58085" lon="6.10989">
        <ele>1152.738</ele>
      </trkpt>
      <trkpt lat="46.58091" lon="6.10979">
        <ele>1151.689</ele>
      </trkpt>
      <trkpt lat="46.58097" lon="6.10967">
        <ele>1150.594</ele>
      </trkpt>
      <trkpt lat="46.58099" lon="6.1096">
        <ele>1150.136</ele>
      </trkpt>
      <trkpt lat="46.58103" lon="6.10936">
        <ele>1148.393</ele>
      </trkpt>
      <trkpt lat="46.58104" lon="6.1092">
        <ele>1147.22</ele>
      </trkpt>
      <trkpt lat="46.58105" lon="6.10905">
        <ele>1146.165</ele>
      </trkpt>
      <trkpt lat="46.58104" lon="6.10895">
        <ele>1145.455</ele>
      </trkpt>
      <trkpt lat="46.58103" lon="6.10884">
        <ele>1144.552</ele>
      </trkpt>
      <trkpt lat="46.5808" lon="6.10853">
        <ele>1143.432</ele>
      </trkpt>
      <trkpt lat="46.58068" lon="6.10842">
        <ele>1143.004</ele>
      </trkpt>
      <trkpt lat="46.58045" lon="6.10801">
        <ele>1141.174</ele>
      </trkpt>
      <trkpt lat="46.57997" lon="6.10743">
        <ele>1139.828</ele>
      </trkpt>
      <trkpt lat="46.57979" lon="6.10714">
        <ele>1139.282</ele>
      </trkpt>
      <trkpt lat="46.57969" lon="6.10693">
        <ele>1138.857</ele>
      </trkpt>
      <trkpt lat="46.5796" lon="6.10676">
        <ele>1137.03</ele>
      </trkpt>
      <trkpt lat="46.5795" lon="6.10664">
        <ele>1135.703</ele>
      </trkpt>
      <trkpt lat="46.57941" lon="6.10654">
        <ele>1134.732</ele>
      </trkpt>
      <trkpt lat="46.57932" lon="6.1065">
        <ele>1134.632</ele>
      </trkpt>
      <trkpt lat="46.57924" lon="6.10639">
        <ele>1133.789</ele>
      </trkpt>
      <trkpt lat="46.57917" lon="6.10629">
        <ele>1132.935</ele>
      </trkpt>
      <trkpt lat="46.57912" lon="6.10629">
        <ele>1132.577</ele>
      </trkpt>
      <trkpt lat="46.57904" lon="6.1063">
        <ele>1132.124</ele>
      </trkpt>
      <trkpt lat="46.57898" lon="6.10628">
        <ele>1131.416</ele>
      </trkpt>
      <trkpt lat="46.57893" lon="6.10623">
        <ele>1130.543</ele>
      </trkpt>
      <trkpt lat="46.57888" lon="6.10614">
        <ele>1129.267</ele>
      </trkpt>
      <trkpt lat="46.57881" lon="6.10605">
        <ele>1128.168</ele>
      </trkpt>
      <trkpt lat="46.57874" lon="6.10594">
        <ele>1126.896</ele>
      </trkpt>
      <trkpt lat="46.5787" lon="6.10585">
        <ele>1126.139</ele>
      </trkpt>
      <trkpt lat="46.57867" lon="6.10578">
        <ele>1125.747</ele>
      </trkpt>
      <trkpt lat="46.57857" lon="6.10579">
        <ele>1126.272</ele>
      </trkpt>
      <trkpt lat="46.57839" lon="6.1058">
        <ele>1128.317</ele>
      </trkpt>
      <trkpt lat="46.57829" lon="6.10581">
        <ele>1129.311</ele>
      </trkpt>
      <trkpt lat="46.57813" lon="6.10576">
        <ele>1130.696</ele>
      </trkpt>
      <trkpt lat="46.57801" lon="6.10571">
        <ele>1131.762</ele>
      </trkpt>
      <trkpt lat="46.57792" lon="6.10565">
        <ele>1132.679</ele>
      </trkpt>
      <trkpt lat="46.57779" lon="6.10556">
        <ele>1133.874</ele>
      </trkpt>
      <trkpt lat="46.57767" lon="6.10544">
        <ele>1134.748</ele>
      </trkpt>
      <trkpt lat="46.57755" lon="6.10525">
        <ele>1135.566</ele>
      </trkpt>
      <trkpt lat="46.57737" lon="6.10501">
        <ele>1136.386</ele>
      </trkpt>
      <trkpt lat="46.57727" lon="6.10484">
        <ele>1137.031</ele>
      </trkpt>
      <trkpt lat="46.57715" lon="6.10465">
        <ele>1137.071</ele>
      </trkpt>
      <trkpt lat="46.57706" lon="6.10446">
        <ele>1136.8</ele>
      </trkpt>
      <trkpt lat="46.57689" lon="6.10421">
        <ele>1136.63</ele>
      </trkpt>
      <trkpt lat="46.57674" lon="6.10398">
        <ele>1136.315</ele>
      </trkpt>
      <trkpt lat="46.57659" lon="6.10376">
        <ele>1135.415</ele>
      </trkpt>
      <trkpt lat="46.57646" lon="6.10357">
        <ele>1134.09</ele>
      </trkpt>
      <trkpt lat="46.5763" lon="6.10337">
        <ele>1132.519</ele>
      </trkpt>
      <trkpt lat="46.57618" lon="6.10329">
        <ele>1131.306</ele>
      </trkpt>
      <trkpt lat="46.576" lon="6.10321">
        <ele>1130.177</ele>
      </trkpt>
      <trkpt lat="46.57576" lon="6.10305">
        <ele>1129.233</ele>
      </trkpt>
      <trkpt lat="46.5756" lon="6.10288">
        <ele>1129.657</ele>
      </trkpt>
      <trkpt lat="46.57542" lon="6.10265">
        <ele>1130.962</ele>
      </trkpt>
      <trkpt lat="46.57534" lon="6.10242">
        <ele>1131.007</ele>
      </trkpt>
      <trkpt lat="46.57528" lon="6.10223">
        <ele>1131.009</ele>
      </trkpt>
      <trkpt lat="46.57525" lon="6.10202">
        <ele>1131.26</ele>
      </trkpt>
      <trkpt lat="46.57523" lon="6.10185">
        <ele>1131.504</ele>
      </trkpt>
      <trkpt lat="46.57514" lon="6.1016">
        <ele>1131.617</ele>
      </trkpt>
      <trkpt lat="46.57506" lon="6.10135">
        <ele>1131.303</ele>
      </trkpt>
      <trkpt lat="46.57503" lon="6.10119">
        <ele>1131.55</ele>
      </trkpt>
      <trkpt lat="46.57502" lon="6.10093">
        <ele>1131.764</ele>
      </trkpt>
      <trkpt lat="46.57508" lon="6.10072">
        <ele>1130.686</ele>
      </trkpt>
      <trkpt lat="46.5751" lon="6.1006">
        <ele>1130.117</ele>
      </trkpt>
      <trkpt lat="46.57511" lon="6.10046">
        <ele>1129.274</ele>
      </trkpt>
      <trkpt lat="46.575" lon="6.10012">
        <ele>1128.317</ele>
      </trkpt>
      <trkpt lat="46.57493" lon="6.09989">
        <ele>1126.963</ele>
      </trkpt>
      <trkpt lat="46.57487" lon="6.09972">
        <ele>1126.427</ele>
      </trkpt>
      <trkpt lat="46.57482" lon="6.09951">
        <ele>1125.641</ele>
      </trkpt>
      <trkpt lat="46.57478" lon="6.09934">
        <ele>1125.226</ele>
      </trkpt>
      <trkpt lat="46.57474" lon="6.09918">
        <ele>1124.743</ele>
      </trkpt>
      <trkpt lat="46.57472" lon="6.09906">
        <ele>1124.639</ele>
      </trkpt>
      <trkpt lat="46.57474" lon="6.0989">
        <ele>1123.752</ele>
      </trkpt>
      <trkpt lat="46.57476" lon="6.09865">
        <ele>1122.422</ele>
      </trkpt>
      <trkpt lat="46.57476" lon="6.09846">
        <ele>1121.09</ele>
      </trkpt>
      <trkpt lat="46.57474" lon="6.09838">
        <ele>1120.903</ele>
      </trkpt>
      <trkpt lat="46.57471" lon="6.09826">
        <ele>1120.829</ele>
      </trkpt>
      <trkpt lat="46.57458" lon="6.09812">
        <ele>1121.071</ele>
      </trkpt>
      <trkpt lat="46.57438" lon="6.09801">
        <ele>1120.481</ele>
      </trkpt>
      <trkpt lat="46.57414" lon="6.09791">
        <ele>1119.353</ele>
      </trkpt>
      <trkpt lat="46.57394" lon="6.09781">
        <ele>1117.634</ele>
      </trkpt>
      <trkpt lat="46.57377" lon="6.09775">
        <ele>1117.051</ele>
      </trkpt>
      <trkpt lat="46.57356" lon="6.09767">
        <ele>1116.66</ele>
      </trkpt>
      <trkpt lat="46.57342" lon="6.09766">
        <ele>1117.039</ele>
      </trkpt>
      <trkpt lat="46.57328" lon="6.09759">
        <ele>1116.207</ele>
      </trkpt>
      <trkpt lat="46.57316" lon="6.09758">
        <ele>1115.963</ele>
      </trkpt>
      <trkpt lat="46.57305" lon="6.09744">
        <ele>1114.431</ele>
      </trkpt>
      <trkpt lat="46.57293" lon="6.09729">
        <ele>1114.892</ele>
      </trkpt>
      <trkpt lat="46.57285" lon="6.09704">
        <ele>1114.331</ele>
      </trkpt>
      <trkpt lat="46.57272" lon="6.09673">
        <ele>1114.828</ele>
      </trkpt>
      <trkpt lat="46.57262" lon="6.09648">
        <ele>1114.652</ele>
      </trkpt>
      <trkpt lat="46.57251" lon="6.09621">
        <ele>1113.959</ele>
      </trkpt>
      <trkpt lat="46.57241" lon="6.09604">
        <ele>1113.527</ele>
      </trkpt>
      <trkpt lat="46.57236" lon="6.09588">
        <ele>1112.457</ele>
      </trkpt>
      <trkpt lat="46.57225" lon="6.09569">
        <ele>1111.566</ele>
      </trkpt>
      <trkpt lat="46.57222" lon="6.09549">
        <ele>1109.661</ele>
      </trkpt>
      <trkpt lat="46.57212" lon="6.09524">
        <ele>1109.456</ele>
      </trkpt>
      <trkpt lat="46.57208" lon="6.09507">
        <ele>1108.653</ele>
      </trkpt>
      <trkpt lat="46.57201" lon="6.09487">
        <ele>1107.409</ele>
      </trkpt>
      <trkpt lat="46.57194" lon="6.09472">
        <ele>1105.979</ele>
      </trkpt>
      <trkpt lat="46.57188" lon="6.09462">
        <ele>1104.706</ele>
      </trkpt>
      <trkpt lat="46.57176" lon="6.09453">
        <ele>1103.845</ele>
      </trkpt>
      <trkpt lat="46.57159" lon="6.09434">
        <ele>1101.82</ele>
      </trkpt>
      <trkpt lat="46.57132" lon="6.09409">
        <ele>1100.697</ele>
      </trkpt>
      <trkpt lat="46.57106" lon="6.09381">
        <ele>1099.712</ele>
      </trkpt>
      <trkpt lat="46.57082" lon="6.09355">
        <ele>1098.785</ele>
      </trkpt>
      <trkpt lat="46.57068" lon="6.09334">
        <ele>1098.578</ele>
      </trkpt>
      <trkpt lat="46.57052" lon="6.09317">
        <ele>1099</ele>
      </trkpt>
      <trkpt lat="46.57038" lon="6.093">
        <ele>1098.917</ele>
      </trkpt>
      <trkpt lat="46.5703" lon="6.09278">
        <ele>1098.914</ele>
      </trkpt>
      <trkpt lat="46.57021" lon="6.09267">
        <ele>1099.08</ele>
      </trkpt>
      <trkpt lat="46.57013" lon="6.09254">
        <ele>1099.204</ele>
      </trkpt>
      <trkpt lat="46.57004" lon="6.09247">
        <ele>1099.598</ele>
      </trkpt>
      <trkpt lat="46.56986" lon="6.09239">
        <ele>1100.871</ele>
      </trkpt>
      <trkpt lat="46.5697" lon="6.09233">
        <ele>1101.904</ele>
      </trkpt>
      <trkpt lat="46.56952" lon="6.09222">
        <ele>1102.436</ele>
      </trkpt>
      <trkpt lat="46.56932" lon="6.09211">
        <ele>1102.765</ele>
      </trkpt>
      <trkpt lat="46.56905" lon="6.09192">
        <ele>1102.956</ele>
      </trkpt>
      <trkpt lat="46.56885" lon="6.09171">
        <ele>1103.258</ele>
      </trkpt>
      <trkpt lat="46.56869" lon="6.09151">
        <ele>1104.029</ele>
      </trkpt>
      <trkpt lat="46.56858" lon="6.09129">
        <ele>1104.206</ele>
      </trkpt>
      <trkpt lat="46.56847" lon="6.091">
        <ele>1104.43</ele>
      </trkpt>
      <trkpt lat="46.56834" lon="6.0907">
        <ele>1103.949</ele>
      </trkpt>
      <trkpt lat="46.56826" lon="6.0905">
        <ele>1104.055</ele>
      </trkpt>
      <trkpt lat="46.56819" lon="6.09031">
        <ele>1103.652</ele>
      </trkpt>
      <trkpt lat="46.56813" lon="6.09013">
        <ele>1103.749</ele>
      </trkpt>
      <trkpt lat="46.56807" lon="6.0899">
        <ele>1103.589</ele>
      </trkpt>
      <trkpt lat="46.568" lon="6.08974">
        <ele>1103.46</ele>
      </trkpt>
      <trkpt lat="46.56792" lon="6.08953">
        <ele>1103.633</ele>
      </trkpt>
      <trkpt lat="46.56785" lon="6.08937">
        <ele>1103.502</ele>
      </trkpt>
      <trkpt lat="46.56775" lon="6.08929">
        <ele>1103.538</ele>
      </trkpt>
      <trkpt lat="46.56765" lon="6.08921">
        <ele>1103.635</ele>
      </trkpt>
      <trkpt lat="46.56755" lon="6.08911">
        <ele>1103.61</ele>
      </trkpt>
      <trkpt lat="46.56744" lon="6.08887">
        <ele>1102.662</ele>
      </trkpt>
      <trkpt lat="46.56729" lon="6.08855">
        <ele>1100.788</ele>
      </trkpt>
      <trkpt lat="46.56712" lon="6.08813">
        <ele>1099.277</ele>
      </trkpt>
      <trkpt lat="46.56699" lon="6.08772">
        <ele>1097.775</ele>
      </trkpt>
      <trkpt lat="46.56688" lon="6.08748">
        <ele>1096.926</ele>
      </trkpt>
      <trkpt lat="46.56682" lon="6.0873">
        <ele>1096.264</ele>
      </trkpt>
      <trkpt lat="46.56674" lon="6.087">
        <ele>1095.779</ele>
      </trkpt>
      <trkpt lat="46.56662" lon="6.08671">
        <ele>1095.698</ele>
      </trkpt>
      <trkpt lat="46.56652" lon="6.08649">
        <ele>1096.23</ele>
      </trkpt>
      <trkpt lat="46.56645" lon="6.08627">
        <ele>1096.555</ele>
      </trkpt>
      <trkpt lat="46.56635" lon="6.08607">
        <ele>1097.453</ele>
      </trkpt>
      <trkpt lat="46.56626" lon="6.08585">
        <ele>1097.946</ele>
      </trkpt>
      <trkpt lat="46.56618" lon="6.08564">
        <ele>1098.511</ele>
      </trkpt>
      <trkpt lat="46.56609" lon="6.08534">
        <ele>1099.187</ele>
      </trkpt>
      <trkpt lat="46.56604" lon="6.08514">
        <ele>1099.527</ele>
      </trkpt>
      <trkpt lat="46.56601" lon="6.08494">
        <ele>1099.785</ele>
      </trkpt>
      <trkpt lat="46.56599" lon="6.08479">
        <ele>1099.964</ele>
      </trkpt>
      <trkpt lat="46.566" lon="6.08466">
        <ele>1100</ele>
      </trkpt>
      <trkpt lat="46.566" lon="6.0844">
        <ele>1100</ele>
      </trkpt>
      <trkpt lat="46.56606" lon="6.08422">
        <ele>1100</ele>
      </trkpt>
      <trkpt lat="46.56612" lon="6.08389">
        <ele>1098.892</ele>
      </trkpt>
      <trkpt lat="46.56623" lon="6.08362">
        <ele>1097.564</ele>
      </trkpt>
      <trkpt lat="46.56632" lon="6.08338">
        <ele>1096.397</ele>
      </trkpt>
      <trkpt lat="46.56641" lon="6.08319">
        <ele>1095.938</ele>
      </trkpt>
      <trkpt lat="46.56652" lon="6.08295">
        <ele>1095.545</ele>
      </trkpt>
      <trkpt lat="46.56662" lon="6.08266">
        <ele>1095.109</ele>
      </trkpt>
      <trkpt lat="46.5667" lon="6.08234">
        <ele>1094.731</ele>
      </trkpt>
      <trkpt lat="46.56678" lon="6.08209">
        <ele>1094.184</ele>
      </trkpt>
      <trkpt lat="46.56687" lon="6.08186">
        <ele>1092.976</ele>
      </trkpt>
      <trkpt lat="46.56695" lon="6.08159">
        <ele>1090.704</ele>
      </trkpt>
      <trkpt lat="46.56705" lon="6.08142">
        <ele>1090.066</ele>
      </trkpt>
      <trkpt lat="46.56718" lon="6.08113">
        <ele>1090</ele>
      </trkpt>
      <trkpt lat="46.56727" lon="6.08093">
        <ele>1091.213</ele>
      </trkpt>
      <trkpt lat="46.56729" lon="6.08073">
        <ele>1092.132</ele>
      </trkpt>
      <trkpt lat="46.5673" lon="6.08057">
        <ele>1092.656</ele>
      </trkpt>
      <trkpt lat="46.56718" lon="6.08022">
        <ele>1094.366</ele>
      </trkpt>
      <trkpt lat="46.56704" lon="6.08003">
        <ele>1095.552</ele>
      </trkpt>
      <trkpt lat="46.56694" lon="6.07988">
        <ele>1096.442</ele>
      </trkpt>
      <trkpt lat="46.56689" lon="6.07979">
        <ele>1096.602</ele>
      </trkpt>
      <trkpt lat="46.56674" lon="6.07994">
        <ele>1096.052</ele>
      </trkpt>
      <trkpt lat="46.5666" lon="6.08015">
        <ele>1094.692</ele>
      </trkpt>
      <trkpt lat="46.56647" lon="6.08024">
        <ele>1093.594</ele>
      </trkpt>
      <trkpt lat="46.56638" lon="6.08026">
        <ele>1093.036</ele>
      </trkpt>
      <trkpt lat="46.56626" lon="6.08016">
        <ele>1092.73</ele>
      </trkpt>
      <trkpt lat="46.56614" lon="6.08">
        <ele>1092.302</ele>
      </trkpt>
      <trkpt lat="46.566" lon="6.07976">
        <ele>1090.47</ele>
      </trkpt>
      <trkpt lat="46.56588" lon="6.07946">
        <ele>1088.856</ele>
      </trkpt>
      <trkpt lat="46.56575" lon="6.07916">
        <ele>1087.507</ele>
      </trkpt>
      <trkpt lat="46.56561" lon="6.07879">
        <ele>1084.59</ele>
      </trkpt>
      <trkpt lat="46.56547" lon="6.07858">
        <ele>1081.7</ele>
      </trkpt>
      <trkpt lat="46.5653" lon="6.07851">
        <ele>1079.304</ele>
      </trkpt>
      <trkpt lat="46.56507" lon="6.07857">
        <ele>1078.153</ele>
      </trkpt>
      <trkpt lat="46.56489" lon="6.07867">
        <ele>1077.194</ele>
      </trkpt>
      <trkpt lat="46.56465" lon="6.07879">
        <ele>1075.732</ele>
      </trkpt>
      <trkpt lat="46.56445" lon="6.07881">
        <ele>1075.001</ele>
      </trkpt>
      <trkpt lat="46.5642" lon="6.07879">
        <ele>1075</ele>
      </trkpt>
      <trkpt lat="46.56404" lon="6.07873">
        <ele>1075</ele>
      </trkpt>
      <trkpt lat="46.56386" lon="6.0786">
        <ele>1075.123</ele>
      </trkpt>
      <trkpt lat="46.56362" lon="6.07847">
        <ele>1075.959</ele>
      </trkpt>
      <trkpt lat="46.56343" lon="6.07828">
        <ele>1077.332</ele>
      </trkpt>
      <trkpt lat="46.56325" lon="6.07797">
        <ele>1078.433</ele>
      </trkpt>
      <trkpt lat="46.56314" lon="6.0777">
        <ele>1078.893</ele>
      </trkpt>
      <trkpt lat="46.56306" lon="6.07741">
        <ele>1078.956</ele>
      </trkpt>
      <trkpt lat="46.56298" lon="6.07712">
        <ele>1080.087</ele>
      </trkpt>
      <trkpt lat="46.56295" lon="6.07679">
        <ele>1080.25</ele>
      </trkpt>
      <trkpt lat="46.56294" lon="6.07652">
        <ele>1080.234</ele>
      </trkpt>
      <trkpt lat="46.56297" lon="6.07629">
        <ele>1080.279</ele>
      </trkpt>
      <trkpt lat="46.56305" lon="6.07603">
        <ele>1080.356</ele>
      </trkpt>
      <trkpt lat="46.56317" lon="6.07578">
        <ele>1078.994</ele>
      </trkpt>
      <trkpt lat="46.56324" lon="6.07561">
        <ele>1076.358</ele>
      </trkpt>
      <trkpt lat="46.56328" lon="6.07553">
        <ele>1074.854</ele>
      </trkpt>
      <trkpt lat="46.56336" lon="6.07537">
        <ele>1071.318</ele>
      </trkpt>
      <trkpt lat="46.56342" lon="6.07519">
        <ele>1066.857</ele>
      </trkpt>
      <trkpt lat="46.56341" lon="6.07505">
        <ele>1063.321</ele>
      </trkpt>
      <trkpt lat="46.56347" lon="6.07498">
        <ele>1061.579</ele>
      </trkpt>
      <trkpt lat="46.56347" lon="6.07487">
        <ele>1061.732</ele>
      </trkpt>
      <trkpt lat="46.56344" lon="6.07477">
        <ele>1061.59</ele>
      </trkpt>
      <trkpt lat="46.56333" lon="6.0746">
        <ele>1061.324</ele>
      </trkpt>
      <trkpt lat="46.56317" lon="6.07449">
        <ele>1061.11</ele>
      </trkpt>
      <trkpt lat="46.56303" lon="6.07435">
        <ele>1060.536</ele>
      </trkpt>
      <trkpt lat="46.56288" lon="6.07421">
        <ele>1059.605</ele>
      </trkpt>
      <trkpt lat="46.56275" lon="6.07409">
        <ele>1057.758</ele>
      </trkpt>
      <trkpt lat="46.56259" lon="6.07396">
        <ele>1054.284</ele>
      </trkpt>
      <trkpt lat="46.56244" lon="6.0738">
        <ele>1052.12</ele>
      </trkpt>
      <trkpt lat="46.56227" lon="6.07366">
        <ele>1051.21</ele>
      </trkpt>
      <trkpt lat="46.56215" lon="6.07349">
        <ele>1050.607</ele>
      </trkpt>
      <trkpt lat="46.56205" lon="6.07337">
        <ele>1050.476</ele>
      </trkpt>
      <trkpt lat="46.56185" lon="6.07319">
        <ele>1048.951</ele>
      </trkpt>
      <trkpt lat="46.56174" lon="6.07309">
        <ele>1047.202</ele>
      </trkpt>
      <trkpt lat="46.56166" lon="6.07298">
        <ele>1045.681</ele>
      </trkpt>
      <trkpt lat="46.56154" lon="6.07279">
        <ele>1042.682</ele>
      </trkpt>
      <trkpt lat="46.56136" lon="6.0726">
        <ele>1040</ele>
      </trkpt>
      <trkpt lat="46.56121" lon="6.07238">
        <ele>1040.154</ele>
      </trkpt>
      <trkpt lat="46.56111" lon="6.07223">
        <ele>1040.011</ele>
      </trkpt>
      <trkpt lat="46.56101" lon="6.07202">
        <ele>1040</ele>
      </trkpt>
      <trkpt lat="46.56096" lon="6.07192">
        <ele>1040</ele>
      </trkpt>
      <trkpt lat="46.56085" lon="6.07177">
        <ele>1040</ele>
      </trkpt>
      <trkpt lat="46.5607" lon="6.07155">
        <ele>1038.043</ele>
      </trkpt>
      <trkpt lat="46.56054" lon="6.0714">
        <ele>1035.801</ele>
      </trkpt>
      <trkpt lat="46.56031" lon="6.07106">
        <ele>1031.274</ele>
      </trkpt>
      <trkpt lat="46.56017" lon="6.07094">
        <ele>1030.223</ele>
      </trkpt>
      <trkpt lat="46.56003" lon="6.07075">
        <ele>1030</ele>
      </trkpt>
      <trkpt lat="46.5599" lon="6.07046">
        <ele>1029.639</ele>
      </trkpt>
      <trkpt lat="46.55983" lon="6.07025">
        <ele>1029.381</ele>
      </trkpt>
      <trkpt lat="46.55968" lon="6.06983">
        <ele>1028.914</ele>
      </trkpt>
      <trkpt lat="46.55961" lon="6.06956">
        <ele>1028.029</ele>
      </trkpt>
      <trkpt lat="46.55955" lon="6.06928">
        <ele>1027.36</ele>
      </trkpt>
      <trkpt lat="46.55951" lon="6.0691">
        <ele>1027.022</ele>
      </trkpt>
      <trkpt lat="46.55946" lon="6.06886">
        <ele>1026</ele>
      </trkpt>
      <trkpt lat="46.55939" lon="6.06862">
        <ele>1025.223</ele>
      </trkpt>
      <trkpt lat="46.55932" lon="6.06851">
        <ele>1025.441</ele>
      </trkpt>
      <trkpt lat="46.55919" lon="6.06847">
        <ele>1025.922</ele>
      </trkpt>
      <trkpt lat="46.55906" lon="6.06832">
        <ele>1027.104</ele>
      </trkpt>
      <trkpt lat="46.55895" lon="6.06813">
        <ele>1027.581</ele>
      </trkpt>
      <trkpt lat="46.55888" lon="6.06786">
        <ele>1028.034</ele>
      </trkpt>
      <trkpt lat="46.55881" lon="6.06765">
        <ele>1028.284</ele>
      </trkpt>
      <trkpt lat="46.55875" lon="6.06738">
        <ele>1028.277</ele>
      </trkpt>
      <trkpt lat="46.55872" lon="6.06718">
        <ele>1028.276</ele>
      </trkpt>
      <trkpt lat="46.55867" lon="6.06702">
        <ele>1029.135</ele>
      </trkpt>
      <trkpt lat="46.55863" lon="6.06687">
        <ele>1029.788</ele>
      </trkpt>
      <trkpt lat="46.55856" lon="6.06675">
        <ele>1030</ele>
      </trkpt>
      <trkpt lat="46.5585" lon="6.06653">
        <ele>1030</ele>
      </trkpt>
      <trkpt lat="46.55839" lon="6.06626">
        <ele>1029.64</ele>
      </trkpt>
      <trkpt lat="46.55836" lon="6.06631">
        <ele>1029.734</ele>
      </trkpt>
      <trkpt lat="46.55822" lon="6.06601">
        <ele>1028.829</ele>
      </trkpt>
      <trkpt lat="46.55811" lon="6.06572">
        <ele>1028.373</ele>
      </trkpt>
      <trkpt lat="46.55801" lon="6.06539">
        <ele>1027.964</ele>
      </trkpt>
      <trkpt lat="46.55789" lon="6.06508">
        <ele>1026.642</ele>
      </trkpt>
      <trkpt lat="46.55782" lon="6.06495">
        <ele>1025.544</ele>
      </trkpt>
      <trkpt lat="46.55773" lon="6.06473">
        <ele>1024.698</ele>
      </trkpt>
      <trkpt lat="46.55763" lon="6.06451">
        <ele>1022.763</ele>
      </trkpt>
      <trkpt lat="46.55748" lon="6.06419">
        <ele>1019.11</ele>
      </trkpt>
      <trkpt lat="46.55735" lon="6.06389">
        <ele>1017.329</ele>
      </trkpt>
      <trkpt lat="46.55713" lon="6.06361">
        <ele>1015.003</ele>
      </trkpt>
      <trkpt lat="46.55692" lon="6.06337">
        <ele>1013.409</ele>
      </trkpt>
      <trkpt lat="46.55674" lon="6.06314">
        <ele>1012.613</ele>
      </trkpt>
      <trkpt lat="46.55659" lon="6.06305">
        <ele>1011.975</ele>
      </trkpt>
      <trkpt lat="46.55641" lon="6.06299">
        <ele>1011.534</ele>
      </trkpt>
      <trkpt lat="46.55626" lon="6.06305">
        <ele>1010.991</ele>
      </trkpt>
      <trkpt lat="46.55611" lon="6.06305">
        <ele>1009.981</ele>
      </trkpt>
      <trkpt lat="46.5559" lon="6.06307">
        <ele>1007.848</ele>
      </trkpt>
      <trkpt lat="46.55573" lon="6.06308">
        <ele>1006.073</ele>
      </trkpt>
      <trkpt lat="46.55557" lon="6.06306">
        <ele>1004.258</ele>
      </trkpt>
      <trkpt lat="46.55544" lon="6.06302">
        <ele>1002.413</ele>
      </trkpt>
      <trkpt lat="46.55539" lon="6.06294">
        <ele>1001.184</ele>
      </trkpt>
      <trkpt lat="46.55524" lon="6.0628">
        <ele>998.695</ele>
      </trkpt>
      <trkpt lat="46.55506" lon="6.06256">
        <ele>995.094</ele>
      </trkpt>
      <trkpt lat="46.55471" lon="6.06237">
        <ele>991.649</ele>
      </trkpt>
      <trkpt lat="46.55417" lon="6.06243">
        <ele>994.49</ele>
      </trkpt>
      <trkpt lat="46.55379" lon="6.06237">
        <ele>997.544</ele>
      </trkpt>
      <trkpt lat="46.55352" lon="6.06212">
        <ele>998.606</ele>
      </trkpt>
      <trkpt lat="46.55334" lon="6.06156">
        <ele>994.796</ele>
      </trkpt>
      <trkpt lat="46.55291" lon="6.06107">
        <ele>991.781</ele>
      </trkpt>
      <trkpt lat="46.55273" lon="6.0609">
        <ele>992.11</ele>
      </trkpt>
      <trkpt lat="46.55245" lon="6.06068">
        <ele>993.638</ele>
      </trkpt>
      <trkpt lat="46.55234" lon="6.06044">
        <ele>991.935</ele>
      </trkpt>
      <trkpt lat="46.55197" lon="6.06065">
        <ele>994.949</ele>
      </trkpt>
      <trkpt lat="46.5519" lon="6.06005">
        <ele>990.569</ele>
      </trkpt>
      <trkpt lat="46.55076" lon="6.06047">
        <ele>998.036</ele>
      </trkpt>
      <trkpt lat="46.55055" lon="6.05872">
        <ele>982.456</ele>
      </trkpt>
      <trkpt lat="46.55037" lon="6.05864">
        <ele>984.165</ele>
      </trkpt>
      <trkpt lat="46.55011" lon="6.05853">
        <ele>985.585</ele>
      </trkpt>
      <trkpt lat="46.55016" lon="6.05834">
        <ele>983.831</ele>
      </trkpt>
      <trkpt lat="46.54973" lon="6.05778">
        <ele>983.835</ele>
      </trkpt>
      <trkpt lat="46.54893" lon="6.0575">
        <ele>979.144</ele>
      </trkpt>
      <trkpt lat="46.54839" lon="6.05675">
        <ele>973.419</ele>
      </trkpt>
      <trkpt lat="46.54895" lon="6.05574">
        <ele>969.742</ele>
      </trkpt>
      <trkpt lat="46.54914" lon="6.05556">
        <ele>968.38</ele>
      </trkpt>
      <trkpt lat="46.54934" lon="6.05523">
        <ele>967.904</ele>
      </trkpt>
      <trkpt lat="46.54952" lon="6.05498">
        <ele>967.081</ele>
      </trkpt>
      <trkpt lat="46.54968" lon="6.0547">
        <ele>966.895</ele>
      </trkpt>
      <trkpt lat="46.54979" lon="6.05439">
        <ele>968.054</ele>
      </trkpt>
      <trkpt lat="46.55005" lon="6.05392">
        <ele>970.739</ele>
      </trkpt>
      <trkpt lat="46.55018" lon="6.05347">
        <ele>973.682</ele>
      </trkpt>
      <trkpt lat="46.55034" lon="6.05286">
        <ele>971.841</ele>
      </trkpt>
      <trkpt lat="46.55038" lon="6.05221">
        <ele>961.523</ele>
      </trkpt>
      <trkpt lat="46.55028" lon="6.05188">
        <ele>960.046</ele>
      </trkpt>
      <trkpt lat="46.54945" lon="6.05094">
        <ele>955.761</ele>
      </trkpt>
      <trkpt lat="46.54886" lon="6.05048">
        <ele>950.259</ele>
      </trkpt>
      <trkpt lat="46.54852" lon="6.05055">
        <ele>954.619</ele>
      </trkpt>
      <trkpt lat="46.54799" lon="6.05101">
        <ele>957.622</ele>
      </trkpt>
      <trkpt lat="46.54769" lon="6.05118">
        <ele>957.617</ele>
      </trkpt>
      <trkpt lat="46.54701" lon="6.05071">
        <ele>954.786</ele>
      </trkpt>
      <trkpt lat="46.54654" lon="6.05068">
        <ele>952.905</ele>
      </trkpt>
      <trkpt lat="46.5461" lon="6.05088">
        <ele>950</ele>
      </trkpt>
      <trkpt lat="46.54576" lon="6.05098">
        <ele>949.612</ele>
      </trkpt>
      <trkpt lat="46.54532" lon="6.05066">
        <ele>947.282</ele>
      </trkpt>
      <trkpt lat="46.54486" lon="6.05027">
        <ele>947.952</ele>
      </trkpt>
      <trkpt lat="46.5444" lon="6.04998">
        <ele>948.249</ele>
      </trkpt>
      <trkpt lat="46.54389" lon="6.04965">
        <ele>949.266</ele>
      </trkpt>
      <trkpt lat="46.54365" lon="6.04934">
        <ele>953.419</ele>
      </trkpt>
      <trkpt lat="46.54342" lon="6.0489">
        <ele>955.117</ele>
      </trkpt>
      <trkpt lat="46.54325" lon="6.04863">
        <ele>954.086</ele>
      </trkpt>
      <trkpt lat="46.5431" lon="6.04842">
        <ele>953.309</ele>
      </trkpt>
      <trkpt lat="46.543" lon="6.04805">
        <ele>950.992</ele>
      </trkpt>
      <trkpt lat="46.54292" lon="6.04756">
        <ele>948.422</ele>
      </trkpt>
      <trkpt lat="46.54271" lon="6.04725">
        <ele>944.661</ele>
      </trkpt>
      <trkpt lat="46.54242" lon="6.04707">
        <ele>942.214</ele>
      </trkpt>
      <trkpt lat="46.54219" lon="6.04715">
        <ele>943.365</ele>
      </trkpt>
      <trkpt lat="46.54189" lon="6.04729">
        <ele>942.091</ele>
      </trkpt>
      <trkpt lat="46.54165" lon="6.04724">
        <ele>936.481</ele>
      </trkpt>
      <trkpt lat="46.54149" lon="6.04668">
        <ele>935.254</ele>
      </trkpt>
      <trkpt lat="46.54161" lon="6.04633">
        <ele>933.065</ele>
      </trkpt>
      <trkpt lat="46.54187" lon="6.04602">
        <ele>928.255</ele>
      </trkpt>
      <trkpt lat="46.54194" lon="6.0458">
        <ele>926.756</ele>
      </trkpt>
      <trkpt lat="46.54193" lon="6.0456">
        <ele>925.691</ele>
      </trkpt>
      <trkpt lat="46.54169" lon="6.04516">
        <ele>924.827</ele>
      </trkpt>
      <trkpt lat="46.54142" lon="6.04458">
        <ele>921.017</ele>
      </trkpt>
      <trkpt lat="46.54128" lon="6.04409">
        <ele>918.305</ele>
      </trkpt>
      <trkpt lat="46.54119" lon="6.04339">
        <ele>913.311</ele>
      </trkpt>
      <trkpt lat="46.54104" lon="6.04299">
        <ele>911.676</ele>
      </trkpt>
      <trkpt lat="46.54092" lon="6.04269">
        <ele>908.887</ele>
      </trkpt>
      <trkpt lat="46.54046" lon="6.04233">
        <ele>907.36</ele>
      </trkpt>
      <trkpt lat="46.54006" lon="6.04208">
        <ele>904.418</ele>
      </trkpt>
      <trkpt lat="46.5397" lon="6.04202">
        <ele>904.785</ele>
      </trkpt>
      <trkpt lat="46.53937" lon="6.04177">
        <ele>901.439</ele>
      </trkpt>
      <trkpt lat="46.53906" lon="6.04158">
        <ele>899.258</ele>
      </trkpt>
      <trkpt lat="46.53877" lon="6.0416">
        <ele>902.377</ele>
      </trkpt>
      <trkpt lat="46.53857" lon="6.04165">
        <ele>904.693</ele>
      </trkpt>
      <trkpt lat="46.53843" lon="6.04154">
        <ele>902.473</ele>
      </trkpt>
      <trkpt lat="46.53835" lon="6.04147">
        <ele>900.993</ele>
      </trkpt>
      <trkpt lat="46.53819" lon="6.04143">
        <ele>902.391</ele>
      </trkpt>
      <trkpt lat="46.53775" lon="6.04114">
        <ele>907.961</ele>
      </trkpt>
      <trkpt lat="46.53722" lon="6.04087">
        <ele>913.725</ele>
      </trkpt>
      <trkpt lat="46.5369" lon="6.04095">
        <ele>918.461</ele>
      </trkpt>
      <trkpt lat="46.53663" lon="6.04096">
        <ele>921.109</ele>
      </trkpt>
      <trkpt lat="46.53636" lon="6.04091">
        <ele>922.515</ele>
      </trkpt>
      <trkpt lat="46.5361" lon="6.0407">
        <ele>923.506</ele>
      </trkpt>
      <trkpt lat="46.53589" lon="6.04019">
        <ele>924.658</ele>
      </trkpt>
      <trkpt lat="46.53565" lon="6.03992">
        <ele>927.868</ele>
      </trkpt>
      <trkpt lat="46.53518" lon="6.03969">
        <ele>933.724</ele>
      </trkpt>
      <trkpt lat="46.53452" lon="6.03932">
        <ele>937.314</ele>
      </trkpt>
      <trkpt lat="46.53421" lon="6.03913">
        <ele>942.206</ele>
      </trkpt>
      <trkpt lat="46.53383" lon="6.03855">
        <ele>946.302</ele>
      </trkpt>
      <trkpt lat="46.53325" lon="6.03812">
        <ele>950.817</ele>
      </trkpt>
      <trkpt lat="46.53279" lon="6.03783">
        <ele>958.185</ele>
      </trkpt>
      <trkpt lat="46.53241" lon="6.03767">
        <ele>962.844</ele>
      </trkpt>
      <trkpt lat="46.53202" lon="6.03725">
        <ele>964.711</ele>
      </trkpt>
      <trkpt lat="46.53166" lon="6.03716">
        <ele>970.185</ele>
      </trkpt>
      <trkpt lat="46.53102" lon="6.03679">
        <ele>971.187</ele>
      </trkpt>
      <trkpt lat="46.53083" lon="6.03636">
        <ele>970.751</ele>
      </trkpt>
      <trkpt lat="46.53056" lon="6.03582">
        <ele>968.758</ele>
      </trkpt>
      <trkpt lat="46.53015" lon="6.0353">
        <ele>965.652</ele>
      </trkpt>
      <trkpt lat="46.52933" lon="6.03479">
        <ele>961.405</ele>
      </trkpt>
      <trkpt lat="46.52861" lon="6.03421">
        <ele>958.988</ele>
      </trkpt>
      <trkpt lat="46.52775" lon="6.03354">
        <ele>950.412</ele>
      </trkpt>
      <trkpt lat="46.52729" lon="6.03383">
        <ele>946.217</ele>
      </trkpt>
      <trkpt lat="46.52675" lon="6.03379">
        <ele>946.327</ele>
      </trkpt>
      <trkpt lat="46.52602" lon="6.03352">
        <ele>943.845</ele>
      </trkpt>
      <trkpt lat="46.52579" lon="6.0337">
        <ele>946.325</ele>
      </trkpt>
      <trkpt lat="46.52548" lon="6.0342">
        <ele>947.271</ele>
      </trkpt>
      <trkpt lat="46.52523" lon="6.03431">
        <ele>946.703</ele>
      </trkpt>
      <trkpt lat="46.52481" lon="6.03409">
        <ele>943.05</ele>
      </trkpt>
      <trkpt lat="46.52437" lon="6.03373">
        <ele>941.09</ele>
      </trkpt>
      <trkpt lat="46.52436" lon="6.03327">
        <ele>932.064</ele>
      </trkpt>
      <trkpt lat="46.52439" lon="6.03308">
        <ele>928.342</ele>
      </trkpt>
      <trkpt lat="46.5241" lon="6.03286">
        <ele>927.45</ele>
      </trkpt>
      <trkpt lat="46.5242" lon="6.03271">
        <ele>924.522</ele>
      </trkpt>
      <trkpt lat="46.52449" lon="6.03263">
        <ele>920.38</ele>
      </trkpt>
      <trkpt lat="46.52412" lon="6.03244">
        <ele>918.541</ele>
      </trkpt>
      <trkpt lat="46.52385" lon="6.03223">
        <ele>908.593</ele>
      </trkpt>
      <trkpt lat="46.52406" lon="6.03208">
        <ele>907.816</ele>
      </trkpt>
      <trkpt lat="46.52452" lon="6.03188">
        <ele>902.502</ele>
      </trkpt>
      <trkpt lat="46.5248" lon="6.03206">
        <ele>901.834</ele>
      </trkpt>
      <trkpt lat="46.52492" lon="6.03191">
        <ele>896.579</ele>
      </trkpt>
      <trkpt lat="46.52468" lon="6.0316">
        <ele>892.954</ele>
      </trkpt>
      <trkpt lat="46.5244" lon="6.03125">
        <ele>888.786</ele>
      </trkpt>
      <trkpt lat="46.52407" lon="6.03103">
        <ele>885.178</ele>
      </trkpt>
      <trkpt lat="46.52385" lon="6.03105">
        <ele>884.401</ele>
      </trkpt>
      <trkpt lat="46.52348" lon="6.03139">
        <ele>885.502</ele>
      </trkpt>
      <trkpt lat="46.52305" lon="6.03119">
        <ele>876.08</ele>
      </trkpt>
      <trkpt lat="46.52248" lon="6.03093">
        <ele>870.49</ele>
      </trkpt>
      <trkpt lat="46.52212" lon="6.03077">
        <ele>867.691</ele>
      </trkpt>
      <trkpt lat="46.5219" lon="6.03079">
        <ele>867.4</ele>
      </trkpt>
      <trkpt lat="46.5216" lon="6.03093">
        <ele>869.74</ele>
      </trkpt>
      <trkpt lat="46.52142" lon="6.03082">
        <ele>865.89</ele>
      </trkpt>
      <trkpt lat="46.52137" lon="6.03049">
        <ele>859.515</ele>
      </trkpt>
      <trkpt lat="46.52103" lon="6.0304">
        <ele>852.695</ele>
      </trkpt>
      <trkpt lat="46.52085" lon="6.03052">
        <ele>854.85</ele>
      </trkpt>
      <trkpt lat="46.52073" lon="6.03077">
        <ele>865.326</ele>
      </trkpt>
      <trkpt lat="46.52014" lon="6.03086">
        <ele>874.806</ele>
      </trkpt>
      <trkpt lat="46.51944" lon="6.03095">
        <ele>890.62</ele>
      </trkpt>
      <trkpt lat="46.51862" lon="6.03102">
        <ele>912.185</ele>
      </trkpt>
      <trkpt lat="46.51811" lon="6.03086">
        <ele>915.023</ele>
      </trkpt>
      <trkpt lat="46.51752" lon="6.03101">
        <ele>942.918</ele>
      </trkpt>
      <trkpt lat="46.517" lon="6.03098">
        <ele>956.05</ele>
      </trkpt>
      <trkpt lat="46.51638" lon="6.03084">
        <ele>962.378</ele>
      </trkpt>
      <trkpt lat="46.51608" lon="6.03095">
        <ele>971.208</ele>
      </trkpt>
      <trkpt lat="46.51607" lon="6.0314">
        <ele>977.767</ele>
      </trkpt>
      <trkpt lat="46.51617" lon="6.03174">
        <ele>976.976</ele>
      </trkpt>
      <trkpt lat="46.51661" lon="6.03196">
        <ele>982.867</ele>
      </trkpt>
      <trkpt lat="46.5167" lon="6.0321">
        <ele>983.725</ele>
      </trkpt>
      <trkpt lat="46.51652" lon="6.03277">
        <ele>979.819</ele>
      </trkpt>
      <trkpt lat="46.51639" lon="6.03335">
        <ele>981.902</ele>
      </trkpt>
      <trkpt lat="46.51619" lon="6.03397">
        <ele>975.072</ele>
      </trkpt>
      <trkpt lat="46.51595" lon="6.03454">
        <ele>977.835</ele>
      </trkpt>
      <trkpt lat="46.5155" lon="6.03518">
        <ele>984.455</ele>
      </trkpt>
      <trkpt lat="46.51495" lon="6.03586">
        <ele>990.636</ele>
      </trkpt>
      <trkpt lat="46.51456" lon="6.03627">
        <ele>994.589</ele>
      </trkpt>
      <trkpt lat="46.51417" lon="6.03675">
        <ele>1001.94</ele>
      </trkpt>
      <trkpt lat="46.51363" lon="6.03707">
        <ele>1010.411</ele>
      </trkpt>
      <trkpt lat="46.51287" lon="6.03732">
        <ele>1019.106</ele>
      </trkpt>
      <trkpt lat="46.51233" lon="6.03738">
        <ele>1023.104</ele>
      </trkpt>
      <trkpt lat="46.5113" lon="6.03721">
        <ele>1029.35</ele>
      </trkpt>
      <trkpt lat="46.51089" lon="6.0378">
        <ele>1035.041</ele>
      </trkpt>
      <trkpt lat="46.51058" lon="6.03814">
        <ele>1038.592</ele>
      </trkpt>
      <trkpt lat="46.51028" lon="6.03844">
        <ele>1039.412</ele>
      </trkpt>
      <trkpt lat="46.50991" lon="6.03855">
        <ele>1042.023</ele>
      </trkpt>
      <trkpt lat="46.50956" lon="6.03846">
        <ele>1042.237</ele>
      </trkpt>
      <trkpt lat="46.50914" lon="6.03863">
        <ele>1041.79</ele>
      </trkpt>
      <trkpt lat="46.50921" lon="6.03879">
        <ele>1043.461</ele>
      </trkpt>
      <trkpt lat="46.5091" lon="6.03921">
        <ele>1046.786</ele>
      </trkpt>
      <trkpt lat="46.50871" lon="6.03948">
        <ele>1046.799</ele>
      </trkpt>
      <trkpt lat="46.50839" lon="6.03959">
        <ele>1048.049</ele>
      </trkpt>
      <trkpt lat="46.508" lon="6.03985">
        <ele>1049.287</ele>
      </trkpt>
      <trkpt lat="46.50744" lon="6.03982">
        <ele>1054.228</ele>
      </trkpt>
      <trkpt lat="46.50666" lon="6.04022">
        <ele>1061.248</ele>
      </trkpt>
      <trkpt lat="46.50613" lon="6.04054">
        <ele>1065.812</ele>
      </trkpt>
      <trkpt lat="46.50572" lon="6.04077">
        <ele>1071.254</ele>
      </trkpt>
      <trkpt lat="46.50526" lon="6.04104">
        <ele>1075.521</ele>
      </trkpt>
      <trkpt lat="46.50492" lon="6.04121">
        <ele>1076.449</ele>
      </trkpt>
      <trkpt lat="46.50458" lon="6.04125">
        <ele>1074.944</ele>
      </trkpt>
      <trkpt lat="46.50445" lon="6.04163">
        <ele>1081.428</ele>
      </trkpt>
      <trkpt lat="46.50442" lon="6.04209">
        <ele>1087.792</ele>
      </trkpt>
      <trkpt lat="46.50455" lon="6.04216">
        <ele>1088.833</ele>
      </trkpt>
      <trkpt lat="46.50488" lon="6.04232">
        <ele>1089.949</ele>
      </trkpt>
      <trkpt lat="46.50515" lon="6.0425">
        <ele>1092.93</ele>
      </trkpt>
      <trkpt lat="46.50533" lon="6.0429">
        <ele>1099.759</ele>
      </trkpt>
      <trkpt lat="46.50556" lon="6.04305">
        <ele>1101.855</ele>
      </trkpt>
      <trkpt lat="46.50618" lon="6.04319">
        <ele>1103.012</ele>
      </trkpt>
      <trkpt lat="46.50651" lon="6.04347">
        <ele>1106.47</ele>
      </trkpt>
      <trkpt lat="46.50675" lon="6.04378">
        <ele>1110.245</ele>
      </trkpt>
      <trkpt lat="46.50705" lon="6.04406">
        <ele>1112.319</ele>
      </trkpt>
      <trkpt lat="46.50729" lon="6.04447">
        <ele>1117.322</ele>
      </trkpt>
      <trkpt lat="46.50747" lon="6.04455">
        <ele>1121.59</ele>
      </trkpt>
      <trkpt lat="46.50813" lon="6.0442">
        <ele>1123.51</ele>
      </trkpt>
      <trkpt lat="46.5086" lon="6.04413">
        <ele>1125.391</ele>
      </trkpt>
      <trkpt lat="46.50894" lon="6.04432">
        <ele>1133.132</ele>
      </trkpt>
      <trkpt lat="46.50946" lon="6.04423">
        <ele>1135.613</ele>
      </trkpt>
      <trkpt lat="46.50973" lon="6.04411">
        <ele>1132.897</ele>
      </trkpt>
      <trkpt lat="46.51013" lon="6.04434">
        <ele>1139.89</ele>
      </trkpt>
      <trkpt lat="46.51075" lon="6.04464">
        <ele>1148.828</ele>
      </trkpt>
      <trkpt lat="46.5112" lon="6.04474">
        <ele>1151.437</ele>
      </trkpt>
      <trkpt lat="46.51175" lon="6.04445">
        <ele>1153.457</ele>
      </trkpt>
      <trkpt lat="46.51209" lon="6.04441">
        <ele>1158.536</ele>
      </trkpt>
      <trkpt lat="46.51225" lon="6.04566">
        <ele>1166.305</ele>
      </trkpt>
      <trkpt lat="46.51249" lon="6.04642">
        <ele>1169.633</ele>
      </trkpt>
      <trkpt lat="46.51271" lon="6.04683">
        <ele>1170.21</ele>
      </trkpt>
      <trkpt lat="46.5127" lon="6.04764">
        <ele>1175.682</ele>
      </trkpt>
      <trkpt lat="46.51285" lon="6.04847">
        <ele>1180.938</ele>
      </trkpt>
      <trkpt lat="46.51268" lon="6.0496">
        <ele>1186.73</ele>
      </trkpt>
      <trkpt lat="46.5125" lon="6.05024">
        <ele>1189.746</ele>
      </trkpt>
      <trkpt lat="46.51237" lon="6.05092">
        <ele>1194.113</ele>
      </trkpt>
      <trkpt lat="46.51249" lon="6.05128">
        <ele>1197.219</ele>
      </trkpt>
      <trkpt lat="46.51246" lon="6.05213">
        <ele>1206.688</ele>
      </trkpt>
      <trkpt lat="46.51244" lon="6.05301">
        <ele>1212.248</ele>
      </trkpt>
      <trkpt lat="46.51213" lon="6.05396">
        <ele>1220.18</ele>
      </trkpt>
      <trkpt lat="46.51172" lon="6.05417">
        <ele>1225.381</ele>
      </trkpt>
      <trkpt lat="46.51146" lon="6.05408">
        <ele>1227.365</ele>
      </trkpt>
      <trkpt lat="46.51125" lon="6.0543">
        <ele>1231.478</ele>
      </trkpt>
      <trkpt lat="46.51116" lon="6.05484">
        <ele>1235.351</ele>
      </trkpt>
      <trkpt lat="46.5111" lon="6.05543">
        <ele>1239.617</ele>
      </trkpt>
      <trkpt lat="46.51084" lon="6.05564">
        <ele>1241.259</ele>
      </trkpt>
      <trkpt lat="46.51061" lon="6.05591">
        <ele>1243.633</ele>
      </trkpt>
      <trkpt lat="46.51053" lon="6.05624">
        <ele>1244.336</ele>
      </trkpt>
      <trkpt lat="46.51004" lon="6.05601">
        <ele>1249.183</ele>
      </trkpt>
      <trkpt lat="46.50947" lon="6.05548">
        <ele>1258.602</ele>
      </trkpt>
      <trkpt lat="46.5091" lon="6.05513">
        <ele>1259.455</ele>
      </trkpt>
      <trkpt lat="46.50902" lon="6.05486">
        <ele>1258.762</ele>
      </trkpt>
      <trkpt lat="46.50876" lon="6.05465">
        <ele>1260.227</ele>
      </trkpt>
      <trkpt lat="46.50847" lon="6.0545">
        <ele>1263.77</ele>
      </trkpt>
      <trkpt lat="46.50841" lon="6.0541">
        <ele>1267.311</ele>
      </trkpt>
      <trkpt lat="46.5082" lon="6.05376">
        <ele>1270</ele>
      </trkpt>
      <trkpt lat="46.50775" lon="6.05383">
        <ele>1269.137</ele>
      </trkpt>
      <trkpt lat="46.50745" lon="6.0541">
        <ele>1269.565</ele>
      </trkpt>
      <trkpt lat="46.50704" lon="6.05407">
        <ele>1269.881</ele>
      </trkpt>
      <trkpt lat="46.50676" lon="6.05389">
        <ele>1272.05</ele>
      </trkpt>
      <trkpt lat="46.50646" lon="6.05384">
        <ele>1275.461</ele>
      </trkpt>
      <trkpt lat="46.50617" lon="6.05388">
        <ele>1280.043</ele>
      </trkpt>
      <trkpt lat="46.5059" lon="6.05377">
        <ele>1281.531</ele>
      </trkpt>
      <trkpt lat="46.50566" lon="6.05352">
        <ele>1276.844</ele>
      </trkpt>
      <trkpt lat="46.50491" lon="6.0538">
        <ele>1280.384</ele>
      </trkpt>
      <trkpt lat="46.50464" lon="6.05443">
        <ele>1283.832</ele>
      </trkpt>
      <trkpt lat="46.50409" lon="6.05482">
        <ele>1278.783</ele>
      </trkpt>
      <trkpt lat="46.50338" lon="6.05532">
        <ele>1271.807</ele>
      </trkpt>
      <trkpt lat="46.50242" lon="6.05636">
        <ele>1263.271</ele>
      </trkpt>
      <trkpt lat="46.50211" lon="6.0569">
        <ele>1256.842</ele>
      </trkpt>
      <trkpt lat="46.50216" lon="6.05739">
        <ele>1254.196</ele>
      </trkpt>
      <trkpt lat="46.50251" lon="6.05784">
        <ele>1257.433</ele>
      </trkpt>
      <trkpt lat="46.5026" lon="6.0584">
        <ele>1253.743</ele>
      </trkpt>
      <trkpt lat="46.50273" lon="6.05913">
        <ele>1250.795</ele>
      </trkpt>
      <trkpt lat="46.50285" lon="6.05962">
        <ele>1249.354</ele>
      </trkpt>
      <trkpt lat="46.50282" lon="6.05969">
        <ele>1248.657</ele>
      </trkpt>
      <trkpt lat="46.50277" lon="6.05957">
        <ele>1248.471</ele>
      </trkpt>
      <trkpt lat="46.50269" lon="6.05953">
        <ele>1247.77</ele>
      </trkpt>
      <trkpt lat="46.50258" lon="6.05954">
        <ele>1246.52</ele>
      </trkpt>
      <trkpt lat="46.50247" lon="6.05955">
        <ele>1245.347</ele>
      </trkpt>
      <trkpt lat="46.50242" lon="6.05954">
        <ele>1244.979</ele>
      </trkpt>
      <trkpt lat="46.50233" lon="6.05957">
        <ele>1244.055</ele>
      </trkpt>
      <trkpt lat="46.50225" lon="6.05953">
        <ele>1243.629</ele>
      </trkpt>
      <trkpt lat="46.50221" lon="6.05945">
        <ele>1243.856</ele>
      </trkpt>
      <trkpt lat="46.50218" lon="6.05935">
        <ele>1243.896</ele>
      </trkpt>
      <trkpt lat="46.50216" lon="6.05922">
        <ele>1244.173</ele>
      </trkpt>
      <trkpt lat="46.50216" lon="6.05908">
        <ele>1244.569</ele>
      </trkpt>
      <trkpt lat="46.50212" lon="6.05894">
        <ele>1244.674</ele>
      </trkpt>
      <trkpt lat="46.50203" lon="6.0588">
        <ele>1244.24</ele>
      </trkpt>
      <trkpt lat="46.50195" lon="6.05874">
        <ele>1243.603</ele>
      </trkpt>
      <trkpt lat="46.50186" lon="6.05867">
        <ele>1242.335</ele>
      </trkpt>
      <trkpt lat="46.50182" lon="6.05867">
        <ele>1241.538</ele>
      </trkpt>
      <trkpt lat="46.50173" lon="6.05868">
        <ele>1239.874</ele>
      </trkpt>
      <trkpt lat="46.50166" lon="6.05869">
        <ele>1238.604</ele>
      </trkpt>
      <trkpt lat="46.5016" lon="6.05874">
        <ele>1237.305</ele>
      </trkpt>
      <trkpt lat="46.50148" lon="6.05884">
        <ele>1234.166</ele>
      </trkpt>
      <trkpt lat="46.50137" lon="6.05898">
        <ele>1230.972</ele>
      </trkpt>
      <trkpt lat="46.50127" lon="6.05911">
        <ele>1227.864</ele>
      </trkpt>
      <trkpt lat="46.50124" lon="6.05912">
        <ele>1227.251</ele>
      </trkpt>
      <trkpt lat="46.50119" lon="6.05915">
        <ele>1225.768</ele>
      </trkpt>
      <trkpt lat="46.50107" lon="6.05908">
        <ele>1224.412</ele>
      </trkpt>
      <trkpt lat="46.50097" lon="6.05895">
        <ele>1223.804</ele>
      </trkpt>
      <trkpt lat="46.50084" lon="6.05893">
        <ele>1221.874</ele>
      </trkpt>
      <trkpt lat="46.50072" lon="6.05887">
        <ele>1221.323</ele>
      </trkpt>
      <trkpt lat="46.50062" lon="6.05887">
        <ele>1220.587</ele>
      </trkpt>
      <trkpt lat="46.50051" lon="6.05884">
        <ele>1220.143</ele>
      </trkpt>
      <trkpt lat="46.50035" lon="6.05873">
        <ele>1220.154</ele>
      </trkpt>
      <trkpt lat="46.50025" lon="6.05868">
        <ele>1219.935</ele>
      </trkpt>
      <trkpt lat="46.50015" lon="6.05859">
        <ele>1219.521</ele>
      </trkpt>
      <trkpt lat="46.50007" lon="6.05857">
        <ele>1219.239</ele>
      </trkpt>
      <trkpt lat="46.49997" lon="6.05851">
        <ele>1218.6</ele>
      </trkpt>
      <trkpt lat="46.49982" lon="6.05845">
        <ele>1216.717</ele>
      </trkpt>
      <trkpt lat="46.4997" lon="6.05841">
        <ele>1215.083</ele>
      </trkpt>
      <trkpt lat="46.49958" lon="6.05835">
        <ele>1213.59</ele>
      </trkpt>
      <trkpt lat="46.49944" lon="6.05823">
        <ele>1211.303</ele>
      </trkpt>
      <trkpt lat="46.49932" lon="6.05811">
        <ele>1210.919</ele>
      </trkpt>
      <trkpt lat="46.49919" lon="6.05805">
        <ele>1210.883</ele>
      </trkpt>
      <trkpt lat="46.49906" lon="6.05801">
        <ele>1211.716</ele>
      </trkpt>
      <trkpt lat="46.49895" lon="6.058">
        <ele>1212.537</ele>
      </trkpt>
      <trkpt lat="46.49881" lon="6.05802">
        <ele>1213.915</ele>
      </trkpt>
      <trkpt lat="46.49874" lon="6.05808">
        <ele>1215.513</ele>
      </trkpt>
      <trkpt lat="46.49859" lon="6.05814">
        <ele>1217.142</ele>
      </trkpt>
      <trkpt lat="46.49846" lon="6.05824">
        <ele>1218.15</ele>
      </trkpt>
      <trkpt lat="46.49839" lon="6.05829">
        <ele>1218.538</ele>
      </trkpt>
      <trkpt lat="46.49829" lon="6.05831">
        <ele>1218.038</ele>
      </trkpt>
      <trkpt lat="46.49817" lon="6.05834">
        <ele>1216.694</ele>
      </trkpt>
      <trkpt lat="46.49805" lon="6.05828">
        <ele>1214.519</ele>
      </trkpt>
      <trkpt lat="46.49795" lon="6.05824">
        <ele>1212.678</ele>
      </trkpt>
      <trkpt lat="46.49779" lon="6.05805">
        <ele>1210.094</ele>
      </trkpt>
      <trkpt lat="46.49762" lon="6.05791">
        <ele>1208.881</ele>
      </trkpt>
      <trkpt lat="46.4975" lon="6.05782">
        <ele>1208.01</ele>
      </trkpt>
      <trkpt lat="46.49736" lon="6.0577">
        <ele>1206.395</ele>
      </trkpt>
      <trkpt lat="46.49727" lon="6.05761">
        <ele>1205.137</ele>
      </trkpt>
      <trkpt lat="46.49718" lon="6.05746">
        <ele>1203.67</ele>
      </trkpt>
      <trkpt lat="46.49706" lon="6.05735">
        <ele>1202.854</ele>
      </trkpt>
      <trkpt lat="46.49698" lon="6.05726">
        <ele>1202.269</ele>
      </trkpt>
      <trkpt lat="46.49693" lon="6.05716">
        <ele>1201.662</ele>
      </trkpt>
      <trkpt lat="46.49686" lon="6.05708">
        <ele>1201.03</ele>
      </trkpt>
      <trkpt lat="46.49675" lon="6.0571">
        <ele>1200.457</ele>
      </trkpt>
      <trkpt lat="46.49663" lon="6.05709">
        <ele>1200</ele>
      </trkpt>
      <trkpt lat="46.4965" lon="6.05699">
        <ele>1200</ele>
      </trkpt>
      <trkpt lat="46.4964" lon="6.05685">
        <ele>1200</ele>
      </trkpt>
      <trkpt lat="46.49624" lon="6.05669">
        <ele>1199.042</ele>
      </trkpt>
      <trkpt lat="46.49614" lon="6.05657">
        <ele>1197.11</ele>
      </trkpt>
      <trkpt lat="46.49598" lon="6.05646">
        <ele>1195.648</ele>
      </trkpt>
      <trkpt lat="46.49581" lon="6.0564">
        <ele>1194.935</ele>
      </trkpt>
      <trkpt lat="46.49568" lon="6.05634">
        <ele>1193.655</ele>
      </trkpt>
      <trkpt lat="46.49555" lon="6.05625">
        <ele>1192.454</ele>
      </trkpt>
      <trkpt lat="46.49544" lon="6.05615">
        <ele>1191.289</ele>
      </trkpt>
      <trkpt lat="46.49538" lon="6.05606">
        <ele>1190.634</ele>
      </trkpt>
      <trkpt lat="46.49523" lon="6.05581">
        <ele>1190</ele>
      </trkpt>
      <trkpt lat="46.49512" lon="6.05559">
        <ele>1190</ele>
      </trkpt>
      <trkpt lat="46.49507" lon="6.05545">
        <ele>1189.345</ele>
      </trkpt>
      <trkpt lat="46.49495" lon="6.05528">
        <ele>1187.659</ele>
      </trkpt>
      <trkpt lat="46.49486" lon="6.05516">
        <ele>1185.961</ele>
      </trkpt>
      <trkpt lat="46.4947" lon="6.05513">
        <ele>1184.816</ele>
      </trkpt>
      <trkpt lat="46.49456" lon="6.05516">
        <ele>1184.212</ele>
      </trkpt>
      <trkpt lat="46.49443" lon="6.05521">
        <ele>1183.664</ele>
      </trkpt>
      <trkpt lat="46.49437" lon="6.05526">
        <ele>1183.091</ele>
      </trkpt>
      <trkpt lat="46.49435" lon="6.05526">
        <ele>1182.971</ele>
      </trkpt>
      <trkpt lat="46.49426" lon="6.05525">
        <ele>1182.018</ele>
      </trkpt>
      <trkpt lat="46.49416" lon="6.05523">
        <ele>1180.955</ele>
      </trkpt>
      <trkpt lat="46.49408" lon="6.05514">
        <ele>1179.7</ele>
      </trkpt>
      <trkpt lat="46.49402" lon="6.05505">
        <ele>1178.929</ele>
      </trkpt>
      <trkpt lat="46.49395" lon="6.0549">
        <ele>1178.065</ele>
      </trkpt>
      <trkpt lat="46.4939" lon="6.05483">
        <ele>1177.661</ele>
      </trkpt>
      <trkpt lat="46.4938" lon="6.05476">
        <ele>1176.139</ele>
      </trkpt>
      <trkpt lat="46.49372" lon="6.05474">
        <ele>1174.82</ele>
      </trkpt>
      <trkpt lat="46.49362" lon="6.05468">
        <ele>1173.131</ele>
      </trkpt>
      <trkpt lat="46.49358" lon="6.05452">
        <ele>1172.651</ele>
      </trkpt>
      <trkpt lat="46.49354" lon="6.05439">
        <ele>1172.054</ele>
      </trkpt>
      <trkpt lat="46.4935" lon="6.05424">
        <ele>1171.332</ele>
      </trkpt>
      <trkpt lat="46.49345" lon="6.05404">
        <ele>1169.616</ele>
      </trkpt>
      <trkpt lat="46.4934" lon="6.05385">
        <ele>1167.154</ele>
      </trkpt>
      <trkpt lat="46.49335" lon="6.05369">
        <ele>1163.627</ele>
      </trkpt>
      <trkpt lat="46.49326" lon="6.0535">
        <ele>1160.571</ele>
      </trkpt>
      <trkpt lat="46.49321" lon="6.0534">
        <ele>1159.285</ele>
      </trkpt>
      <trkpt lat="46.49308" lon="6.05329">
        <ele>1157.811</ele>
      </trkpt>
      <trkpt lat="46.49303" lon="6.05328">
        <ele>1157.422</ele>
      </trkpt>
      <trkpt lat="46.49291" lon="6.05322">
        <ele>1156.132</ele>
      </trkpt>
      <trkpt lat="46.49278" lon="6.05318">
        <ele>1154.868</ele>
      </trkpt>
      <trkpt lat="46.49268" lon="6.05314">
        <ele>1153.76</ele>
      </trkpt>
      <trkpt lat="46.49251" lon="6.05316">
        <ele>1152.439</ele>
      </trkpt>
      <trkpt lat="46.4924" lon="6.0532">
        <ele>1151.561</ele>
      </trkpt>
      <trkpt lat="46.49228" lon="6.05332">
        <ele>1150.595</ele>
      </trkpt>
      <trkpt lat="46.49217" lon="6.05346">
        <ele>1149.752</ele>
      </trkpt>
      <trkpt lat="46.49212" lon="6.0536">
        <ele>1149.197</ele>
      </trkpt>
      <trkpt lat="46.49203" lon="6.0537">
        <ele>1147.832</ele>
      </trkpt>
      <trkpt lat="46.4919" lon="6.05369">
        <ele>1145.372</ele>
      </trkpt>
      <trkpt lat="46.49177" lon="6.05368">
        <ele>1143.117</ele>
      </trkpt>
      <trkpt lat="46.49162" lon="6.05359">
        <ele>1140.973</ele>
      </trkpt>
      <trkpt lat="46.49151" lon="6.05343">
        <ele>1140.992</ele>
      </trkpt>
      <trkpt lat="46.49142" lon="6.05334">
        <ele>1140.346</ele>
      </trkpt>
      <trkpt lat="46.49135" lon="6.05321">
        <ele>1140.234</ele>
      </trkpt>
      <trkpt lat="46.49123" lon="6.0531">
        <ele>1139.764</ele>
      </trkpt>
      <trkpt lat="46.49105" lon="6.05316">
        <ele>1137.336</ele>
      </trkpt>
      <trkpt lat="46.49088" lon="6.05314">
        <ele>1133.09</ele>
      </trkpt>
      <trkpt lat="46.49077" lon="6.05307">
        <ele>1130.808</ele>
      </trkpt>
      <trkpt lat="46.49064" lon="6.05301">
        <ele>1128.495</ele>
      </trkpt>
      <trkpt lat="46.4905" lon="6.05299">
        <ele>1125.683</ele>
      </trkpt>
      <trkpt lat="46.49036" lon="6.05286">
        <ele>1122.229</ele>
      </trkpt>
      <trkpt lat="46.49025" lon="6.05279">
        <ele>1119.864</ele>
      </trkpt>
      <trkpt lat="46.49015" lon="6.05243">
        <ele>1116.841</ele>
      </trkpt>
      <trkpt lat="46.49009" lon="6.05219">
        <ele>1114.638</ele>
      </trkpt>
      <trkpt lat="46.49" lon="6.05211">
        <ele>1112.12</ele>
      </trkpt>
      <trkpt lat="46.48989" lon="6.05205">
        <ele>1108.821</ele>
      </trkpt>
      <trkpt lat="46.48977" lon="6.05198">
        <ele>1104.676</ele>
      </trkpt>
      <trkpt lat="46.48965" lon="6.05184">
        <ele>1100.527</ele>
      </trkpt>
      <trkpt lat="46.48953" lon="6.05175">
        <ele>1097.531</ele>
      </trkpt>
      <trkpt lat="46.48945" lon="6.0516">
        <ele>1093.325</ele>
      </trkpt>
      <trkpt lat="46.48937" lon="6.05152">
        <ele>1090.393</ele>
      </trkpt>
      <trkpt lat="46.48932" lon="6.05137">
        <ele>1086.522</ele>
      </trkpt>
      <trkpt lat="46.48934" lon="6.0512">
        <ele>1084.548</ele>
      </trkpt>
      <trkpt lat="46.4893" lon="6.05108">
        <ele>1082.343</ele>
      </trkpt>
      <trkpt lat="46.48913" lon="6.05123">
        <ele>1082.384</ele>
      </trkpt>
      <trkpt lat="46.48898" lon="6.05148">
        <ele>1083.034</ele>
      </trkpt>
      <trkpt lat="46.48894" lon="6.05177">
        <ele>1083.661</ele>
      </trkpt>
      <trkpt lat="46.48891" lon="6.05208">
        <ele>1083.793</ele>
      </trkpt>
      <trkpt lat="46.48887" lon="6.05255">
        <ele>1081.007</ele>
      </trkpt>
      <trkpt lat="46.48894" lon="6.05293">
        <ele>1082.47</ele>
      </trkpt>
      <trkpt lat="46.48889" lon="6.05325">
        <ele>1080.084</ele>
      </trkpt>
      <trkpt lat="46.48886" lon="6.05356">
        <ele>1079.528</ele>
      </trkpt>
      <trkpt lat="46.48871" lon="6.0541">
        <ele>1080.883</ele>
      </trkpt>
      <trkpt lat="46.48868" lon="6.05426">
        <ele>1082.112</ele>
      </trkpt>
      <trkpt lat="46.48861" lon="6.05455">
        <ele>1084.189</ele>
      </trkpt>
      <trkpt lat="46.48851" lon="6.05474">
        <ele>1085.373</ele>
      </trkpt>
      <trkpt lat="46.4884" lon="6.05496">
        <ele>1086.181</ele>
      </trkpt>
      <trkpt lat="46.48832" lon="6.05517">
        <ele>1085.92</ele>
      </trkpt>
      <trkpt lat="46.48835" lon="6.05535">
        <ele>1085.921</ele>
      </trkpt>
      <trkpt lat="46.48843" lon="6.05557">
        <ele>1086.033</ele>
      </trkpt>
      <trkpt lat="46.48853" lon="6.0558">
        <ele>1086.2</ele>
      </trkpt>
      <trkpt lat="46.48861" lon="6.05602">
        <ele>1086.313</ele>
      </trkpt>
      <trkpt lat="46.48866" lon="6.05624">
        <ele>1086.146</ele>
      </trkpt>
      <trkpt lat="46.4887" lon="6.05645">
        <ele>1086.017</ele>
      </trkpt>
      <trkpt lat="46.48875" lon="6.05671">
        <ele>1085.752</ele>
      </trkpt>
      <trkpt lat="46.48876" lon="6.05696">
        <ele>1085.105</ele>
      </trkpt>
      <trkpt lat="46.48878" lon="6.05716">
        <ele>1085.05</ele>
      </trkpt>
      <trkpt lat="46.48877" lon="6.05724">
        <ele>1084.981</ele>
      </trkpt>
    </trkseg>
  </trk>
  <trk>
    <name><![CDATA[GTJ Labergement &gt; Bellegarde_5]]></name>
    <trkseg>
      <trkpt lat="46.48877" lon="6.05724">
        <ele>1084.981</ele>
      </trkpt>
      <trkpt lat="46.48877" lon="6.05724">
        <ele>1084.981</ele>
      </trkpt>
      <trkpt lat="46.48875" lon="6.05746">
        <ele>1085.862</ele>
      </trkpt>
      <trkpt lat="46.48868" lon="6.05762">
        <ele>1085.886</ele>
      </trkpt>
      <trkpt lat="46.48867" lon="6.05785">
        <ele>1087.101</ele>
      </trkpt>
      <trkpt lat="46.48868" lon="6.05801">
        <ele>1087.624</ele>
      </trkpt>
      <trkpt lat="46.4887" lon="6.05816">
        <ele>1088.192</ele>
      </trkpt>
      <trkpt lat="46.4887" lon="6.05824">
        <ele>1088.372</ele>
      </trkpt>
      <trkpt lat="46.48857" lon="6.05828">
        <ele>1086.944</ele>
      </trkpt>
      <trkpt lat="46.48846" lon="6.05831">
        <ele>1084.608</ele>
      </trkpt>
      <trkpt lat="46.48835" lon="6.05837">
        <ele>1082.519</ele>
      </trkpt>
      <trkpt lat="46.48829" lon="6.05846">
        <ele>1082.101</ele>
      </trkpt>
      <trkpt lat="46.48822" lon="6.0587">
        <ele>1081.754</ele>
      </trkpt>
      <trkpt lat="46.48819" lon="6.05883">
        <ele>1081.466</ele>
      </trkpt>
      <trkpt lat="46.48815" lon="6.059">
        <ele>1081.182</ele>
      </trkpt>
      <trkpt lat="46.48813" lon="6.05912">
        <ele>1080.962</ele>
      </trkpt>
      <trkpt lat="46.48809" lon="6.05918">
        <ele>1080.536</ele>
      </trkpt>
      <trkpt lat="46.48802" lon="6.05924">
        <ele>1080.229</ele>
      </trkpt>
      <trkpt lat="46.48791" lon="6.05925">
        <ele>1080.136</ele>
      </trkpt>
      <trkpt lat="46.48785" lon="6.05926">
        <ele>1080.088</ele>
      </trkpt>
      <trkpt lat="46.48772" lon="6.05924">
        <ele>1080.33</ele>
      </trkpt>
      <trkpt lat="46.48759" lon="6.05913">
        <ele>1080.598</ele>
      </trkpt>
      <trkpt lat="46.48742" lon="6.0591">
        <ele>1081.289</ele>
      </trkpt>
      <trkpt lat="46.4873" lon="6.05901">
        <ele>1081.494</ele>
      </trkpt>
      <trkpt lat="46.48715" lon="6.05898">
        <ele>1082.551</ele>
      </trkpt>
      <trkpt lat="46.48703" lon="6.05909">
        <ele>1084.971</ele>
      </trkpt>
      <trkpt lat="46.48693" lon="6.05931">
        <ele>1088.377</ele>
      </trkpt>
      <trkpt lat="46.48686" lon="6.05942">
        <ele>1090.443</ele>
      </trkpt>
      <trkpt lat="46.48673" lon="6.05967">
        <ele>1094.238</ele>
      </trkpt>
      <trkpt lat="46.48673" lon="6.0598">
        <ele>1095.159</ele>
      </trkpt>
      <trkpt lat="46.4867" lon="6.05996">
        <ele>1096.875</ele>
      </trkpt>
      <trkpt lat="46.48664" lon="6.06012">
        <ele>1098.823</ele>
      </trkpt>
      <trkpt lat="46.48657" lon="6.0602">
        <ele>1100.108</ele>
      </trkpt>
      <trkpt lat="46.48648" lon="6.06021">
        <ele>1101.446</ele>
      </trkpt>
      <trkpt lat="46.48639" lon="6.06016">
        <ele>1102.52</ele>
      </trkpt>
      <trkpt lat="46.48632" lon="6.06005">
        <ele>1102.973</ele>
      </trkpt>
      <trkpt lat="46.48622" lon="6.06001">
        <ele>1103.911</ele>
      </trkpt>
      <trkpt lat="46.48611" lon="6.0602">
        <ele>1105.721</ele>
      </trkpt>
      <trkpt lat="46.48598" lon="6.06029">
        <ele>1106.042</ele>
      </trkpt>
      <trkpt lat="46.48585" lon="6.06033">
        <ele>1106.184</ele>
      </trkpt>
      <trkpt lat="46.48572" lon="6.06032">
        <ele>1106.494</ele>
      </trkpt>
      <trkpt lat="46.48558" lon="6.06033">
        <ele>1106.942</ele>
      </trkpt>
      <trkpt lat="46.48544" lon="6.06033">
        <ele>1107.084</ele>
      </trkpt>
      <trkpt lat="46.48527" lon="6.06029">
        <ele>1107.061</ele>
      </trkpt>
      <trkpt lat="46.48498" lon="6.06029">
        <ele>1108.002</ele>
      </trkpt>
      <trkpt lat="46.48476" lon="6.06025">
        <ele>1108</ele>
      </trkpt>
      <trkpt lat="46.48449" lon="6.06025">
        <ele>1108.852</ele>
      </trkpt>
      <trkpt lat="46.48435" lon="6.06028">
        <ele>1109</ele>
      </trkpt>
      <trkpt lat="46.48425" lon="6.06032">
        <ele>1109</ele>
      </trkpt>
      <trkpt lat="46.48399" lon="6.06056">
        <ele>1109.006</ele>
      </trkpt>
      <trkpt lat="46.48384" lon="6.06078">
        <ele>1109</ele>
      </trkpt>
      <trkpt lat="46.48367" lon="6.06104">
        <ele>1109.922</ele>
      </trkpt>
      <trkpt lat="46.48348" lon="6.06131">
        <ele>1111.142</ele>
      </trkpt>
      <trkpt lat="46.48334" lon="6.06156">
        <ele>1111.315</ele>
      </trkpt>
      <trkpt lat="46.48317" lon="6.06181">
        <ele>1112.085</ele>
      </trkpt>
      <trkpt lat="46.48306" lon="6.06198">
        <ele>1112.25</ele>
      </trkpt>
      <trkpt lat="46.48297" lon="6.06209">
        <ele>1112.284</ele>
      </trkpt>
      <trkpt lat="46.48286" lon="6.062">
        <ele>1110.872</ele>
      </trkpt>
      <trkpt lat="46.48276" lon="6.06181">
        <ele>1110.036</ele>
      </trkpt>
      <trkpt lat="46.48266" lon="6.06174">
        <ele>1110.317</ele>
      </trkpt>
      <trkpt lat="46.48258" lon="6.06161">
        <ele>1110.855</ele>
      </trkpt>
      <trkpt lat="46.48284" lon="6.06133">
        <ele>1110.335</ele>
      </trkpt>
      <trkpt lat="46.48307" lon="6.0611">
        <ele>1110.07</ele>
      </trkpt>
      <trkpt lat="46.48334" lon="6.06087">
        <ele>1109.147</ele>
      </trkpt>
      <trkpt lat="46.4835" lon="6.06067">
        <ele>1109.446</ele>
      </trkpt>
      <trkpt lat="46.48367" lon="6.06052">
        <ele>1109</ele>
      </trkpt>
      <trkpt lat="46.48372" lon="6.06046">
        <ele>1109</ele>
      </trkpt>
      <trkpt lat="46.48378" lon="6.06042">
        <ele>1109</ele>
      </trkpt>
      <trkpt lat="46.48364" lon="6.06018">
        <ele>1109.36</ele>
      </trkpt>
      <trkpt lat="46.48359" lon="6.06001">
        <ele>1110.158</ele>
      </trkpt>
      <trkpt lat="46.48353" lon="6.0598">
        <ele>1110.643</ele>
      </trkpt>
      <trkpt lat="46.48339" lon="6.05956">
        <ele>1111.102</ele>
      </trkpt>
      <trkpt lat="46.48331" lon="6.05945">
        <ele>1111.695</ele>
      </trkpt>
      <trkpt lat="46.48323" lon="6.05935">
        <ele>1113.442</ele>
      </trkpt>
      <trkpt lat="46.48318" lon="6.0593">
        <ele>1114.644</ele>
      </trkpt>
      <trkpt lat="46.48309" lon="6.05924">
        <ele>1116.527</ele>
      </trkpt>
      <trkpt lat="46.48301" lon="6.05917">
        <ele>1117.796</ele>
      </trkpt>
      <trkpt lat="46.48291" lon="6.0591">
        <ele>1119.562</ele>
      </trkpt>
      <trkpt lat="46.48289" lon="6.05907">
        <ele>1119.947</ele>
      </trkpt>
      <trkpt lat="46.48288" lon="6.05887">
        <ele>1120.28</ele>
      </trkpt>
      <trkpt lat="46.48288" lon="6.05863">
        <ele>1120.678</ele>
      </trkpt>
      <trkpt lat="46.48285" lon="6.05835">
        <ele>1120.775</ele>
      </trkpt>
      <trkpt lat="46.48283" lon="6.05802">
        <ele>1120.492</ele>
      </trkpt>
      <trkpt lat="46.48282" lon="6.05786">
        <ele>1120.556</ele>
      </trkpt>
      <trkpt lat="46.48283" lon="6.05763">
        <ele>1121.015</ele>
      </trkpt>
      <trkpt lat="46.48281" lon="6.05738">
        <ele>1122.055</ele>
      </trkpt>
      <trkpt lat="46.48282" lon="6.05714">
        <ele>1123.147</ele>
      </trkpt>
      <trkpt lat="46.48287" lon="6.05693">
        <ele>1124.087</ele>
      </trkpt>
      <trkpt lat="46.4829" lon="6.05667">
        <ele>1125.615</ele>
      </trkpt>
      <trkpt lat="46.48294" lon="6.05653">
        <ele>1125.442</ele>
      </trkpt>
      <trkpt lat="46.483" lon="6.05634">
        <ele>1124.333</ele>
      </trkpt>
      <trkpt lat="46.48306" lon="6.05628">
        <ele>1123.112</ele>
      </trkpt>
      <trkpt lat="46.48315" lon="6.05613">
        <ele>1121.196</ele>
      </trkpt>
      <trkpt lat="46.48323" lon="6.05606">
        <ele>1119.698</ele>
      </trkpt>
      <trkpt lat="46.48331" lon="6.05602">
        <ele>1118.559</ele>
      </trkpt>
      <trkpt lat="46.48341" lon="6.05605">
        <ele>1118.115</ele>
      </trkpt>
      <trkpt lat="46.48351" lon="6.05613">
        <ele>1117.867</ele>
      </trkpt>
      <trkpt lat="46.48356" lon="6.05616">
        <ele>1117.732</ele>
      </trkpt>
      <trkpt lat="46.48365" lon="6.05617">
        <ele>1117.129</ele>
      </trkpt>
      <trkpt lat="46.48369" lon="6.05617">
        <ele>1116.903</ele>
      </trkpt>
      <trkpt lat="46.48371" lon="6.05606">
        <ele>1116.094</ele>
      </trkpt>
      <trkpt lat="46.48365" lon="6.05594">
        <ele>1116.126</ele>
      </trkpt>
      <trkpt lat="46.4836" lon="6.05582">
        <ele>1115.983</ele>
      </trkpt>
      <trkpt lat="46.4835" lon="6.05572">
        <ele>1115.583</ele>
      </trkpt>
      <trkpt lat="46.48343" lon="6.05567">
        <ele>1115.435</ele>
      </trkpt>
      <trkpt lat="46.48337" lon="6.0556">
        <ele>1115.168</ele>
      </trkpt>
      <trkpt lat="46.48332" lon="6.05556">
        <ele>1114.948</ele>
      </trkpt>
      <trkpt lat="46.48326" lon="6.05543">
        <ele>1112.924</ele>
      </trkpt>
      <trkpt lat="46.48325" lon="6.05529">
        <ele>1111.31</ele>
      </trkpt>
      <trkpt lat="46.48326" lon="6.05516">
        <ele>1110.64</ele>
      </trkpt>
      <trkpt lat="46.48326" lon="6.05508">
        <ele>1110.301</ele>
      </trkpt>
      <trkpt lat="46.48326" lon="6.05502">
        <ele>1110.034</ele>
      </trkpt>
      <trkpt lat="46.4832" lon="6.0548">
        <ele>1107.996</ele>
      </trkpt>
      <trkpt lat="46.48315" lon="6.05468">
        <ele>1106.719</ele>
      </trkpt>
      <trkpt lat="46.48308" lon="6.05457">
        <ele>1105.179</ele>
      </trkpt>
      <trkpt lat="46.48302" lon="6.05443">
        <ele>1104.199</ele>
      </trkpt>
      <trkpt lat="46.48297" lon="6.05436">
        <ele>1104.34</ele>
      </trkpt>
      <trkpt lat="46.48291" lon="6.05428">
        <ele>1104.419</ele>
      </trkpt>
      <trkpt lat="46.48284" lon="6.05409">
        <ele>1104.012</ele>
      </trkpt>
      <trkpt lat="46.48279" lon="6.05398">
        <ele>1103.542</ele>
      </trkpt>
      <trkpt lat="46.48275" lon="6.05387">
        <ele>1103.456</ele>
      </trkpt>
      <trkpt lat="46.48273" lon="6.05373">
        <ele>1102.71</ele>
      </trkpt>
      <trkpt lat="46.48267" lon="6.05362">
        <ele>1103.13</ele>
      </trkpt>
      <trkpt lat="46.48265" lon="6.05351">
        <ele>1102.812</ele>
      </trkpt>
      <trkpt lat="46.48262" lon="6.05338">
        <ele>1102.705</ele>
      </trkpt>
      <trkpt lat="46.48262" lon="6.05325">
        <ele>1101.902</ele>
      </trkpt>
      <trkpt lat="46.48271" lon="6.05306">
        <ele>1099.302</ele>
      </trkpt>
      <trkpt lat="46.48278" lon="6.05291">
        <ele>1096.984</ele>
      </trkpt>
      <trkpt lat="46.48284" lon="6.05277">
        <ele>1095.075</ele>
      </trkpt>
      <trkpt lat="46.48292" lon="6.05266">
        <ele>1092.901</ele>
      </trkpt>
      <trkpt lat="46.48298" lon="6.05251">
        <ele>1090.36</ele>
      </trkpt>
      <trkpt lat="46.48303" lon="6.05238">
        <ele>1088.145</ele>
      </trkpt>
      <trkpt lat="46.48306" lon="6.05222">
        <ele>1085.896</ele>
      </trkpt>
      <trkpt lat="46.48307" lon="6.05197">
        <ele>1083.137</ele>
      </trkpt>
      <trkpt lat="46.48307" lon="6.05184">
        <ele>1081.666</ele>
      </trkpt>
      <trkpt lat="46.48302" lon="6.05158">
        <ele>1079.824</ele>
      </trkpt>
      <trkpt lat="46.48297" lon="6.05133">
        <ele>1078.23</ele>
      </trkpt>
      <trkpt lat="46.48289" lon="6.05116">
        <ele>1077.548</ele>
      </trkpt>
      <trkpt lat="46.48274" lon="6.05091">
        <ele>1076.952</ele>
      </trkpt>
      <trkpt lat="46.48261" lon="6.0507">
        <ele>1077.026</ele>
      </trkpt>
      <trkpt lat="46.48249" lon="6.05045">
        <ele>1076.268</ele>
      </trkpt>
      <trkpt lat="46.48232" lon="6.05018">
        <ele>1074.276</ele>
      </trkpt>
      <trkpt lat="46.48217" lon="6.05002">
        <ele>1072.818</ele>
      </trkpt>
      <trkpt lat="46.48206" lon="6.0498">
        <ele>1069.533</ele>
      </trkpt>
      <trkpt lat="46.48198" lon="6.04967">
        <ele>1066.947</ele>
      </trkpt>
      <trkpt lat="46.48183" lon="6.04946">
        <ele>1063.761</ele>
      </trkpt>
      <trkpt lat="46.48168" lon="6.04932">
        <ele>1061.668</ele>
      </trkpt>
      <trkpt lat="46.48157" lon="6.0492">
        <ele>1060.368</ele>
      </trkpt>
      <trkpt lat="46.48144" lon="6.04911">
        <ele>1059.53</ele>
      </trkpt>
      <trkpt lat="46.48127" lon="6.04903">
        <ele>1060.292</ele>
      </trkpt>
      <trkpt lat="46.4811" lon="6.04892">
        <ele>1060.013</ele>
      </trkpt>
      <trkpt lat="46.48093" lon="6.04878">
        <ele>1061.062</ele>
      </trkpt>
      <trkpt lat="46.48077" lon="6.04867">
        <ele>1061.716</ele>
      </trkpt>
      <trkpt lat="46.48055" lon="6.04846">
        <ele>1061.844</ele>
      </trkpt>
      <trkpt lat="46.48038" lon="6.0483">
        <ele>1061.437</ele>
      </trkpt>
      <trkpt lat="46.48018" lon="6.04816">
        <ele>1061.663</ele>
      </trkpt>
      <trkpt lat="46.48002" lon="6.04803">
        <ele>1061.36</ele>
      </trkpt>
      <trkpt lat="46.47991" lon="6.04788">
        <ele>1060.174</ele>
      </trkpt>
      <trkpt lat="46.47981" lon="6.04776">
        <ele>1059.172</ele>
      </trkpt>
      <trkpt lat="46.47973" lon="6.04769">
        <ele>1058.962</ele>
      </trkpt>
      <trkpt lat="46.47972" lon="6.04752">
        <ele>1057.24</ele>
      </trkpt>
      <trkpt lat="46.47969" lon="6.04741">
        <ele>1055.953</ele>
      </trkpt>
      <trkpt lat="46.47964" lon="6.04731">
        <ele>1054.685</ele>
      </trkpt>
      <trkpt lat="46.4796" lon="6.04716">
        <ele>1052.972</ele>
      </trkpt>
      <trkpt lat="46.47952" lon="6.04695">
        <ele>1050.613</ele>
      </trkpt>
      <trkpt lat="46.47936" lon="6.04683">
        <ele>1047.758</ele>
      </trkpt>
      <trkpt lat="46.47928" lon="6.04676">
        <ele>1046.101</ele>
      </trkpt>
      <trkpt lat="46.47918" lon="6.04669">
        <ele>1044.352</ele>
      </trkpt>
      <trkpt lat="46.47905" lon="6.04665">
        <ele>1043.302</ele>
      </trkpt>
      <trkpt lat="46.47888" lon="6.04659">
        <ele>1041.273</ele>
      </trkpt>
      <trkpt lat="46.47864" lon="6.04657">
        <ele>1036.736</ele>
      </trkpt>
      <trkpt lat="46.47847" lon="6.04669">
        <ele>1035.278</ele>
      </trkpt>
      <trkpt lat="46.47833" lon="6.04681">
        <ele>1034.953</ele>
      </trkpt>
      <trkpt lat="46.47821" lon="6.04685">
        <ele>1033.928</ele>
      </trkpt>
      <trkpt lat="46.47809" lon="6.04684">
        <ele>1031.7</ele>
      </trkpt>
      <trkpt lat="46.47798" lon="6.04683">
        <ele>1030.597</ele>
      </trkpt>
      <trkpt lat="46.47781" lon="6.04682">
        <ele>1029.502</ele>
      </trkpt>
      <trkpt lat="46.47769" lon="6.04683">
        <ele>1029.509</ele>
      </trkpt>
      <trkpt lat="46.47752" lon="6.04679">
        <ele>1028.557</ele>
      </trkpt>
      <trkpt lat="46.47732" lon="6.04679">
        <ele>1027.566</ele>
      </trkpt>
      <trkpt lat="46.47716" lon="6.04683">
        <ele>1026.673</ele>
      </trkpt>
      <trkpt lat="46.47711" lon="6.04687">
        <ele>1026.825</ele>
      </trkpt>
      <trkpt lat="46.47703" lon="6.04695">
        <ele>1026.885</ele>
      </trkpt>
      <trkpt lat="46.47695" lon="6.04697">
        <ele>1025.945</ele>
      </trkpt>
      <trkpt lat="46.47681" lon="6.047">
        <ele>1024.45</ele>
      </trkpt>
      <trkpt lat="46.47675" lon="6.04712">
        <ele>1026.503</ele>
      </trkpt>
      <trkpt lat="46.47671" lon="6.04719">
        <ele>1027.007</ele>
      </trkpt>
      <trkpt lat="46.47659" lon="6.04728">
        <ele>1026.906</ele>
      </trkpt>
      <trkpt lat="46.47648" lon="6.04732">
        <ele>1025.71</ele>
      </trkpt>
      <trkpt lat="46.47637" lon="6.04733">
        <ele>1023.99</ele>
      </trkpt>
      <trkpt lat="46.47627" lon="6.04737">
        <ele>1023.011</ele>
      </trkpt>
      <trkpt lat="46.47614" lon="6.04749">
        <ele>1022.541</ele>
      </trkpt>
      <trkpt lat="46.47603" lon="6.04756">
        <ele>1021.356</ele>
      </trkpt>
      <trkpt lat="46.47591" lon="6.04765">
        <ele>1020.245</ele>
      </trkpt>
      <trkpt lat="46.47582" lon="6.04773">
        <ele>1019.225</ele>
      </trkpt>
      <trkpt lat="46.47569" lon="6.04783">
        <ele>1018.481</ele>
      </trkpt>
      <trkpt lat="46.47548" lon="6.04793">
        <ele>1016.375</ele>
      </trkpt>
      <trkpt lat="46.4753" lon="6.04802">
        <ele>1015.759</ele>
      </trkpt>
      <trkpt lat="46.47512" lon="6.04814">
        <ele>1016.053</ele>
      </trkpt>
      <trkpt lat="46.47492" lon="6.04822">
        <ele>1015.643</ele>
      </trkpt>
      <trkpt lat="46.47461" lon="6.04833">
        <ele>1014.275</ele>
      </trkpt>
      <trkpt lat="46.47441" lon="6.04841">
        <ele>1013.379</ele>
      </trkpt>
      <trkpt lat="46.47419" lon="6.04848">
        <ele>1011.889</ele>
      </trkpt>
      <trkpt lat="46.47394" lon="6.04858">
        <ele>1010.887</ele>
      </trkpt>
      <trkpt lat="46.47375" lon="6.04865">
        <ele>1011.205</ele>
      </trkpt>
      <trkpt lat="46.47356" lon="6.04875">
        <ele>1012.351</ele>
      </trkpt>
      <trkpt lat="46.47335" lon="6.04885">
        <ele>1013.452</ele>
      </trkpt>
      <trkpt lat="46.47319" lon="6.04897">
        <ele>1014.599</ele>
      </trkpt>
      <trkpt lat="46.47302" lon="6.04909">
        <ele>1015.549</ele>
      </trkpt>
      <trkpt lat="46.47282" lon="6.04902">
        <ele>1013.203</ele>
      </trkpt>
      <trkpt lat="46.47251" lon="6.049">
        <ele>1012.235</ele>
      </trkpt>
      <trkpt lat="46.47227" lon="6.04898">
        <ele>1010.642</ele>
      </trkpt>
      <trkpt lat="46.47207" lon="6.04897">
        <ele>1009.042</ele>
      </trkpt>
      <trkpt lat="46.47183" lon="6.04894">
        <ele>1007.37</ele>
      </trkpt>
      <trkpt lat="46.4717" lon="6.04891">
        <ele>1006.523</ele>
      </trkpt>
      <trkpt lat="46.47162" lon="6.04896">
        <ele>1007.024</ele>
      </trkpt>
      <trkpt lat="46.47151" lon="6.04903">
        <ele>1007.989</ele>
      </trkpt>
      <trkpt lat="46.47139" lon="6.04909">
        <ele>1008.542</ele>
      </trkpt>
      <trkpt lat="46.47124" lon="6.04913">
        <ele>1008.177</ele>
      </trkpt>
      <trkpt lat="46.47114" lon="6.04915">
        <ele>1007.903</ele>
      </trkpt>
      <trkpt lat="46.47103" lon="6.04906">
        <ele>1005.434</ele>
      </trkpt>
      <trkpt lat="46.47093" lon="6.04896">
        <ele>1003.257</ele>
      </trkpt>
      <trkpt lat="46.47084" lon="6.0489">
        <ele>1002.179</ele>
      </trkpt>
      <trkpt lat="46.47074" lon="6.04888">
        <ele>1000.799</ele>
      </trkpt>
      <trkpt lat="46.47063" lon="6.04887">
        <ele>999.38</ele>
      </trkpt>
      <trkpt lat="46.47046" lon="6.04891">
        <ele>997.925</ele>
      </trkpt>
      <trkpt lat="46.47029" lon="6.04896">
        <ele>996.704</ele>
      </trkpt>
      <trkpt lat="46.47017" lon="6.049">
        <ele>995.679</ele>
      </trkpt>
      <trkpt lat="46.47007" lon="6.04905">
        <ele>995.164</ele>
      </trkpt>
      <trkpt lat="46.46997" lon="6.04907">
        <ele>994.014</ele>
      </trkpt>
      <trkpt lat="46.4699" lon="6.04912">
        <ele>993.485</ele>
      </trkpt>
      <trkpt lat="46.46977" lon="6.04924">
        <ele>993.755</ele>
      </trkpt>
      <trkpt lat="46.46967" lon="6.04936">
        <ele>995.599</ele>
      </trkpt>
      <trkpt lat="46.46958" lon="6.0495">
        <ele>998.205</ele>
      </trkpt>
      <trkpt lat="46.46944" lon="6.04962">
        <ele>999.367</ele>
      </trkpt>
      <trkpt lat="46.46927" lon="6.04973">
        <ele>999.934</ele>
      </trkpt>
      <trkpt lat="46.46912" lon="6.04976">
        <ele>998.282</ele>
      </trkpt>
      <trkpt lat="46.46902" lon="6.04984">
        <ele>998.579</ele>
      </trkpt>
      <trkpt lat="46.46889" lon="6.04996">
        <ele>1000.572</ele>
      </trkpt>
      <trkpt lat="46.46875" lon="6.05008">
        <ele>1002.34</ele>
      </trkpt>
      <trkpt lat="46.46863" lon="6.05015">
        <ele>1002.62</ele>
      </trkpt>
      <trkpt lat="46.4685" lon="6.05023">
        <ele>1003.152</ele>
      </trkpt>
      <trkpt lat="46.46834" lon="6.0503">
        <ele>1003.537</ele>
      </trkpt>
      <trkpt lat="46.46821" lon="6.05035">
        <ele>1003.84</ele>
      </trkpt>
      <trkpt lat="46.46808" lon="6.05047">
        <ele>1006.464</ele>
      </trkpt>
      <trkpt lat="46.46796" lon="6.05055">
        <ele>1007.999</ele>
      </trkpt>
      <trkpt lat="46.4678" lon="6.05073">
        <ele>1010.898</ele>
      </trkpt>
      <trkpt lat="46.46768" lon="6.05087">
        <ele>1013.399</ele>
      </trkpt>
      <trkpt lat="46.46764" lon="6.05097">
        <ele>1015.138</ele>
      </trkpt>
      <trkpt lat="46.46763" lon="6.05111">
        <ele>1017.911</ele>
      </trkpt>
      <trkpt lat="46.46761" lon="6.05127">
        <ele>1020.704</ele>
      </trkpt>
      <trkpt lat="46.46758" lon="6.05139">
        <ele>1022.537</ele>
      </trkpt>
      <trkpt lat="46.46754" lon="6.0515">
        <ele>1023.939</ele>
      </trkpt>
      <trkpt lat="46.46744" lon="6.05159">
        <ele>1024.5</ele>
      </trkpt>
      <trkpt lat="46.46729" lon="6.05174">
        <ele>1025.742</ele>
      </trkpt>
      <trkpt lat="46.46715" lon="6.05191">
        <ele>1027.01</ele>
      </trkpt>
      <trkpt lat="46.46702" lon="6.05211">
        <ele>1029.611</ele>
      </trkpt>
      <trkpt lat="46.46695" lon="6.05214">
        <ele>1028.933</ele>
      </trkpt>
      <trkpt lat="46.46683" lon="6.05215">
        <ele>1028.2</ele>
      </trkpt>
      <trkpt lat="46.46673" lon="6.05209">
        <ele>1026.933</ele>
      </trkpt>
      <trkpt lat="46.46665" lon="6.05204">
        <ele>1025.856</ele>
      </trkpt>
      <trkpt lat="46.46658" lon="6.05199">
        <ele>1024.592</ele>
      </trkpt>
      <trkpt lat="46.46642" lon="6.05196">
        <ele>1022.476</ele>
      </trkpt>
      <trkpt lat="46.46631" lon="6.05198">
        <ele>1021.783</ele>
      </trkpt>
      <trkpt lat="46.46622" lon="6.05203">
        <ele>1021.546</ele>
      </trkpt>
      <trkpt lat="46.46611" lon="6.05205">
        <ele>1020.866</ele>
      </trkpt>
      <trkpt lat="46.46598" lon="6.05209">
        <ele>1018.913</ele>
      </trkpt>
      <trkpt lat="46.46588" lon="6.05208">
        <ele>1016.582</ele>
      </trkpt>
      <trkpt lat="46.46578" lon="6.05204">
        <ele>1013.479</ele>
      </trkpt>
      <trkpt lat="46.46567" lon="6.05207">
        <ele>1011.665</ele>
      </trkpt>
      <trkpt lat="46.46558" lon="6.05211">
        <ele>1010.516</ele>
      </trkpt>
      <trkpt lat="46.46545" lon="6.05217">
        <ele>1009.317</ele>
      </trkpt>
      <trkpt lat="46.46535" lon="6.05224">
        <ele>1008.608</ele>
      </trkpt>
      <trkpt lat="46.46526" lon="6.05233">
        <ele>1008.403</ele>
      </trkpt>
      <trkpt lat="46.46521" lon="6.05243">
        <ele>1009.399</ele>
      </trkpt>
      <trkpt lat="46.4652" lon="6.05248">
        <ele>1010.037</ele>
      </trkpt>
      <trkpt lat="46.46519" lon="6.05261">
        <ele>1012.288</ele>
      </trkpt>
      <trkpt lat="46.46529" lon="6.05274">
        <ele>1015.624</ele>
      </trkpt>
      <trkpt lat="46.46524" lon="6.05284">
        <ele>1016.805</ele>
      </trkpt>
      <trkpt lat="46.46515" lon="6.05298">
        <ele>1018.646</ele>
      </trkpt>
      <trkpt lat="46.46507" lon="6.0531">
        <ele>1020.906</ele>
      </trkpt>
      <trkpt lat="46.46491" lon="6.05334">
        <ele>1026.426</ele>
      </trkpt>
      <trkpt lat="46.46486" lon="6.05343">
        <ele>1028.626</ele>
      </trkpt>
      <trkpt lat="46.46485" lon="6.05361">
        <ele>1033.387</ele>
      </trkpt>
      <trkpt lat="46.46488" lon="6.05366">
        <ele>1034.997</ele>
      </trkpt>
      <trkpt lat="46.46484" lon="6.05379">
        <ele>1037.842</ele>
      </trkpt>
      <trkpt lat="46.46475" lon="6.05391">
        <ele>1039.328</ele>
      </trkpt>
      <trkpt lat="46.46466" lon="6.05405">
        <ele>1040.726</ele>
      </trkpt>
      <trkpt lat="46.46452" lon="6.05417">
        <ele>1040.089</ele>
      </trkpt>
      <trkpt lat="46.46438" lon="6.05429">
        <ele>1039.988</ele>
      </trkpt>
      <trkpt lat="46.4643" lon="6.05439">
        <ele>1040.462</ele>
      </trkpt>
      <trkpt lat="46.46421" lon="6.05451">
        <ele>1040.675</ele>
      </trkpt>
      <trkpt lat="46.46413" lon="6.05462">
        <ele>1041.256</ele>
      </trkpt>
      <trkpt lat="46.46406" lon="6.05475">
        <ele>1041.955</ele>
      </trkpt>
      <trkpt lat="46.46404" lon="6.05487">
        <ele>1042.129</ele>
      </trkpt>
      <trkpt lat="46.46402" lon="6.05499">
        <ele>1042.374</ele>
      </trkpt>
      <trkpt lat="46.46401" lon="6.05513">
        <ele>1043.201</ele>
      </trkpt>
      <trkpt lat="46.46407" lon="6.05525">
        <ele>1044.741</ele>
      </trkpt>
      <trkpt lat="46.46411" lon="6.05538">
        <ele>1045.758</ele>
      </trkpt>
      <trkpt lat="46.46417" lon="6.0556">
        <ele>1047.192</ele>
      </trkpt>
      <trkpt lat="46.46423" lon="6.05572">
        <ele>1048.583</ele>
      </trkpt>
      <trkpt lat="46.46431" lon="6.05582">
        <ele>1050.464</ele>
      </trkpt>
      <trkpt lat="46.46433" lon="6.05594">
        <ele>1051.789</ele>
      </trkpt>
      <trkpt lat="46.46432" lon="6.0561">
        <ele>1053.129</ele>
      </trkpt>
      <trkpt lat="46.46426" lon="6.05629">
        <ele>1054.054</ele>
      </trkpt>
      <trkpt lat="46.46417" lon="6.05651">
        <ele>1055.416</ele>
      </trkpt>
      <trkpt lat="46.46408" lon="6.05662">
        <ele>1054.931</ele>
      </trkpt>
      <trkpt lat="46.46396" lon="6.05678">
        <ele>1054.978</ele>
      </trkpt>
      <trkpt lat="46.46386" lon="6.05695">
        <ele>1055.418</ele>
      </trkpt>
      <trkpt lat="46.46384" lon="6.05714">
        <ele>1057.33</ele>
      </trkpt>
      <trkpt lat="46.4638" lon="6.05729">
        <ele>1058.159</ele>
      </trkpt>
      <trkpt lat="46.4638" lon="6.05747">
        <ele>1059.529</ele>
      </trkpt>
      <trkpt lat="46.46386" lon="6.05762">
        <ele>1060.209</ele>
      </trkpt>
      <trkpt lat="46.46385" lon="6.05784">
        <ele>1060.173</ele>
      </trkpt>
      <trkpt lat="46.46373" lon="6.058">
        <ele>1060.441</ele>
      </trkpt>
      <trkpt lat="46.46364" lon="6.05807">
        <ele>1060.68</ele>
      </trkpt>
      <trkpt lat="46.46353" lon="6.05818">
        <ele>1062.784</ele>
      </trkpt>
      <trkpt lat="46.46346" lon="6.05831">
        <ele>1064.707</ele>
      </trkpt>
      <trkpt lat="46.4634" lon="6.0584">
        <ele>1065.178</ele>
      </trkpt>
      <trkpt lat="46.46334" lon="6.05862">
        <ele>1067.253</ele>
      </trkpt>
      <trkpt lat="46.46333" lon="6.05885">
        <ele>1070.384</ele>
      </trkpt>
      <trkpt lat="46.46332" lon="6.05901">
        <ele>1071.442</ele>
      </trkpt>
      <trkpt lat="46.46327" lon="6.05914">
        <ele>1071.307</ele>
      </trkpt>
      <trkpt lat="46.46323" lon="6.0593">
        <ele>1072.118</ele>
      </trkpt>
      <trkpt lat="46.46318" lon="6.05941">
        <ele>1072.262</ele>
      </trkpt>
      <trkpt lat="46.46313" lon="6.0595">
        <ele>1072.243</ele>
      </trkpt>
      <trkpt lat="46.46312" lon="6.05952">
        <ele>1072.156</ele>
      </trkpt>
      <trkpt lat="46.46304" lon="6.05943">
        <ele>1069.677</ele>
      </trkpt>
      <trkpt lat="46.46296" lon="6.05943">
        <ele>1068.486</ele>
      </trkpt>
      <trkpt lat="46.46289" lon="6.05942">
        <ele>1067.296</ele>
      </trkpt>
      <trkpt lat="46.46281" lon="6.05943">
        <ele>1066.273</ele>
      </trkpt>
      <trkpt lat="46.46275" lon="6.05945">
        <ele>1065.797</ele>
      </trkpt>
      <trkpt lat="46.46267" lon="6.05949">
        <ele>1065.531</ele>
      </trkpt>
      <trkpt lat="46.46259" lon="6.0596">
        <ele>1065.719</ele>
      </trkpt>
      <trkpt lat="46.46253" lon="6.05972">
        <ele>1066.193</ele>
      </trkpt>
      <trkpt lat="46.46245" lon="6.0599">
        <ele>1066.685</ele>
      </trkpt>
      <trkpt lat="46.46243" lon="6.05998">
        <ele>1067.029</ele>
      </trkpt>
      <trkpt lat="46.4624" lon="6.06006">
        <ele>1067.486</ele>
      </trkpt>
      <trkpt lat="46.46233" lon="6.06017">
        <ele>1067.606</ele>
      </trkpt>
      <trkpt lat="46.46224" lon="6.06018">
        <ele>1066.51</ele>
      </trkpt>
      <trkpt lat="46.46217" lon="6.06017">
        <ele>1065.463</ele>
      </trkpt>
      <trkpt lat="46.4621" lon="6.06017">
        <ele>1064.175</ele>
      </trkpt>
      <trkpt lat="46.462" lon="6.06021">
        <ele>1063.153</ele>
      </trkpt>
      <trkpt lat="46.4619" lon="6.06025">
        <ele>1062.405</ele>
      </trkpt>
      <trkpt lat="46.46182" lon="6.06029">
        <ele>1062.364</ele>
      </trkpt>
      <trkpt lat="46.46173" lon="6.06032">
        <ele>1062.181</ele>
      </trkpt>
      <trkpt lat="46.46164" lon="6.06033">
        <ele>1061.827</ele>
      </trkpt>
      <trkpt lat="46.46155" lon="6.06019">
        <ele>1060.235</ele>
      </trkpt>
      <trkpt lat="46.46147" lon="6.06014">
        <ele>1060.001</ele>
      </trkpt>
      <trkpt lat="46.46137" lon="6.06007">
        <ele>1060.308</ele>
      </trkpt>
      <trkpt lat="46.46128" lon="6.06">
        <ele>1061.597</ele>
      </trkpt>
      <trkpt lat="46.4612" lon="6.05989">
        <ele>1062.935</ele>
      </trkpt>
      <trkpt lat="46.46117" lon="6.05974">
        <ele>1063.805</ele>
      </trkpt>
      <trkpt lat="46.46118" lon="6.05963">
        <ele>1063.879</ele>
      </trkpt>
      <trkpt lat="46.46117" lon="6.05945">
        <ele>1064.112</ele>
      </trkpt>
      <trkpt lat="46.46117" lon="6.05932">
        <ele>1064.665</ele>
      </trkpt>
      <trkpt lat="46.46112" lon="6.0592">
        <ele>1065.679</ele>
      </trkpt>
      <trkpt lat="46.46109" lon="6.05901">
        <ele>1066.275</ele>
      </trkpt>
      <trkpt lat="46.46105" lon="6.05881">
        <ele>1066.623</ele>
      </trkpt>
      <trkpt lat="46.46099" lon="6.05856">
        <ele>1066.972</ele>
      </trkpt>
      <trkpt lat="46.46094" lon="6.05838">
        <ele>1067.78</ele>
      </trkpt>
      <trkpt lat="46.46086" lon="6.05821">
        <ele>1069.119</ele>
      </trkpt>
      <trkpt lat="46.46081" lon="6.05806">
        <ele>1070.363</ele>
      </trkpt>
      <trkpt lat="46.46076" lon="6.05802">
        <ele>1071.642</ele>
      </trkpt>
      <trkpt lat="46.46072" lon="6.05805">
        <ele>1072.022</ele>
      </trkpt>
      <trkpt lat="46.46068" lon="6.05808">
        <ele>1072.673</ele>
      </trkpt>
      <trkpt lat="46.46063" lon="6.05818">
        <ele>1072.933</ele>
      </trkpt>
      <trkpt lat="46.46057" lon="6.05829">
        <ele>1073.145</ele>
      </trkpt>
      <trkpt lat="46.46049" lon="6.05839">
        <ele>1074.493</ele>
      </trkpt>
      <trkpt lat="46.4604" lon="6.05854">
        <ele>1076.295</ele>
      </trkpt>
      <trkpt lat="46.46027" lon="6.05872">
        <ele>1078.263</ele>
      </trkpt>
      <trkpt lat="46.4602" lon="6.05881">
        <ele>1078.548</ele>
      </trkpt>
      <trkpt lat="46.46008" lon="6.05899">
        <ele>1079.892</ele>
      </trkpt>
      <trkpt lat="46.46001" lon="6.05913">
        <ele>1080.863</ele>
      </trkpt>
      <trkpt lat="46.45991" lon="6.05927">
        <ele>1082.948</ele>
      </trkpt>
      <trkpt lat="46.45982" lon="6.05942">
        <ele>1084.818</ele>
      </trkpt>
      <trkpt lat="46.4597" lon="6.05968">
        <ele>1086.238</ele>
      </trkpt>
      <trkpt lat="46.45964" lon="6.05982">
        <ele>1086.639</ele>
      </trkpt>
      <trkpt lat="46.45962" lon="6.05985">
        <ele>1086.853</ele>
      </trkpt>
      <trkpt lat="46.45957" lon="6.05994">
        <ele>1087.3</ele>
      </trkpt>
      <trkpt lat="46.45952" lon="6.06007">
        <ele>1087.477</ele>
      </trkpt>
      <trkpt lat="46.45945" lon="6.06013">
        <ele>1087.984</ele>
      </trkpt>
      <trkpt lat="46.45936" lon="6.06021">
        <ele>1088.766</ele>
      </trkpt>
      <trkpt lat="46.45932" lon="6.0603">
        <ele>1088.697</ele>
      </trkpt>
      <trkpt lat="46.45928" lon="6.06043">
        <ele>1088.784</ele>
      </trkpt>
      <trkpt lat="46.45922" lon="6.0606">
        <ele>1089.048</ele>
      </trkpt>
      <trkpt lat="46.45921" lon="6.06075">
        <ele>1088.754</ele>
      </trkpt>
      <trkpt lat="46.45918" lon="6.06088">
        <ele>1088.839</ele>
      </trkpt>
      <trkpt lat="46.45916" lon="6.06096">
        <ele>1089.048</ele>
      </trkpt>
      <trkpt lat="46.45913" lon="6.06105">
        <ele>1089.797</ele>
      </trkpt>
      <trkpt lat="46.45907" lon="6.06116">
        <ele>1091.652</ele>
      </trkpt>
      <trkpt lat="46.45895" lon="6.06117">
        <ele>1094.081</ele>
      </trkpt>
      <trkpt lat="46.45884" lon="6.06126">
        <ele>1096.712</ele>
      </trkpt>
      <trkpt lat="46.45877" lon="6.06132">
        <ele>1097.918</ele>
      </trkpt>
      <trkpt lat="46.4586" lon="6.06147">
        <ele>1100.436</ele>
      </trkpt>
      <trkpt lat="46.45848" lon="6.06165">
        <ele>1102.33</ele>
      </trkpt>
      <trkpt lat="46.45833" lon="6.06178">
        <ele>1104.949</ele>
      </trkpt>
      <trkpt lat="46.45822" lon="6.06194">
        <ele>1107.985</ele>
      </trkpt>
      <trkpt lat="46.45814" lon="6.06201">
        <ele>1109.823</ele>
      </trkpt>
      <trkpt lat="46.45806" lon="6.06211">
        <ele>1111.557</ele>
      </trkpt>
      <trkpt lat="46.45799" lon="6.06218">
        <ele>1112.101</ele>
      </trkpt>
      <trkpt lat="46.45789" lon="6.06232">
        <ele>1113.156</ele>
      </trkpt>
      <trkpt lat="46.45784" lon="6.06243">
        <ele>1114.097</ele>
      </trkpt>
      <trkpt lat="46.45783" lon="6.0625">
        <ele>1114.6</ele>
      </trkpt>
      <trkpt lat="46.45781" lon="6.06258">
        <ele>1115.326</ele>
      </trkpt>
      <trkpt lat="46.45774" lon="6.06264">
        <ele>1116.823</ele>
      </trkpt>
      <trkpt lat="46.45768" lon="6.0627">
        <ele>1118.34</ele>
      </trkpt>
      <trkpt lat="46.45762" lon="6.06282">
        <ele>1120.136</ele>
      </trkpt>
      <trkpt lat="46.45757" lon="6.063">
        <ele>1121.802</ele>
      </trkpt>
      <trkpt lat="46.45753" lon="6.06313">
        <ele>1122.882</ele>
      </trkpt>
      <trkpt lat="46.45746" lon="6.06322">
        <ele>1124.332</ele>
      </trkpt>
      <trkpt lat="46.45735" lon="6.0633">
        <ele>1126.116</ele>
      </trkpt>
      <trkpt lat="46.45725" lon="6.06339">
        <ele>1127.46</ele>
      </trkpt>
      <trkpt lat="46.45709" lon="6.06349">
        <ele>1128.407</ele>
      </trkpt>
      <trkpt lat="46.45693" lon="6.06354">
        <ele>1129.29</ele>
      </trkpt>
      <trkpt lat="46.45677" lon="6.0636">
        <ele>1129.649</ele>
      </trkpt>
      <trkpt lat="46.45659" lon="6.06371">
        <ele>1128.994</ele>
      </trkpt>
      <trkpt lat="46.45646" lon="6.06379">
        <ele>1128.573</ele>
      </trkpt>
      <trkpt lat="46.45637" lon="6.06388">
        <ele>1128.072</ele>
      </trkpt>
      <trkpt lat="46.45633" lon="6.06391">
        <ele>1127.801</ele>
      </trkpt>
      <trkpt lat="46.45622" lon="6.064">
        <ele>1127.062</ele>
      </trkpt>
      <trkpt lat="46.45612" lon="6.06393">
        <ele>1127.726</ele>
      </trkpt>
      <trkpt lat="46.45603" lon="6.06379">
        <ele>1128.253</ele>
      </trkpt>
      <trkpt lat="46.45594" lon="6.06372">
        <ele>1128.243</ele>
      </trkpt>
      <trkpt lat="46.45583" lon="6.06371">
        <ele>1128.012</ele>
      </trkpt>
      <trkpt lat="46.45568" lon="6.06377">
        <ele>1128.78</ele>
      </trkpt>
      <trkpt lat="46.45542" lon="6.06394">
        <ele>1130.086</ele>
      </trkpt>
      <trkpt lat="46.45519" lon="6.06421">
        <ele>1133.815</ele>
      </trkpt>
      <trkpt lat="46.45499" lon="6.06432">
        <ele>1137.694</ele>
      </trkpt>
      <trkpt lat="46.45476" lon="6.06442">
        <ele>1141.278</ele>
      </trkpt>
      <trkpt lat="46.45457" lon="6.06454">
        <ele>1143.691</ele>
      </trkpt>
      <trkpt lat="46.45433" lon="6.06465">
        <ele>1146.505</ele>
      </trkpt>
      <trkpt lat="46.45414" lon="6.06475">
        <ele>1148.07</ele>
      </trkpt>
      <trkpt lat="46.45401" lon="6.06482">
        <ele>1148.8</ele>
      </trkpt>
      <trkpt lat="46.4538" lon="6.06492">
        <ele>1149.688</ele>
      </trkpt>
      <trkpt lat="46.45353" lon="6.06499">
        <ele>1151.331</ele>
      </trkpt>
      <trkpt lat="46.45332" lon="6.06504">
        <ele>1153.89</ele>
      </trkpt>
      <trkpt lat="46.45312" lon="6.06501">
        <ele>1157.011</ele>
      </trkpt>
      <trkpt lat="46.45291" lon="6.06486">
        <ele>1161.085</ele>
      </trkpt>
      <trkpt lat="46.45278" lon="6.06476">
        <ele>1164.595</ele>
      </trkpt>
      <trkpt lat="46.45275" lon="6.06466">
        <ele>1166.489</ele>
      </trkpt>
      <trkpt lat="46.45268" lon="6.06439">
        <ele>1172.165</ele>
      </trkpt>
      <trkpt lat="46.45263" lon="6.06416">
        <ele>1177.869</ele>
      </trkpt>
      <trkpt lat="46.45264" lon="6.06385">
        <ele>1184.366</ele>
      </trkpt>
      <trkpt lat="46.45269" lon="6.06348">
        <ele>1191.69</ele>
      </trkpt>
      <trkpt lat="46.45279" lon="6.0631">
        <ele>1197.122</ele>
      </trkpt>
      <trkpt lat="46.45287" lon="6.06271">
        <ele>1203.319</ele>
      </trkpt>
      <trkpt lat="46.4529" lon="6.06235">
        <ele>1209.708</ele>
      </trkpt>
      <trkpt lat="46.45291" lon="6.06211">
        <ele>1214.186</ele>
      </trkpt>
      <trkpt lat="46.45292" lon="6.06193">
        <ele>1217.216</ele>
      </trkpt>
      <trkpt lat="46.45292" lon="6.06167">
        <ele>1221.994</ele>
      </trkpt>
      <trkpt lat="46.45287" lon="6.06154">
        <ele>1225.256</ele>
      </trkpt>
      <trkpt lat="46.45285" lon="6.06136">
        <ele>1228.573</ele>
      </trkpt>
      <trkpt lat="46.45275" lon="6.06117">
        <ele>1232.467</ele>
      </trkpt>
      <trkpt lat="46.45265" lon="6.06108">
        <ele>1236.224</ele>
      </trkpt>
      <trkpt lat="46.45249" lon="6.06102">
        <ele>1241.583</ele>
      </trkpt>
      <trkpt lat="46.45229" lon="6.06103">
        <ele>1245.018</ele>
      </trkpt>
      <trkpt lat="46.45208" lon="6.06109">
        <ele>1250.228</ele>
      </trkpt>
      <trkpt lat="46.45184" lon="6.06124">
        <ele>1256.648</ele>
      </trkpt>
      <trkpt lat="46.45168" lon="6.06134">
        <ele>1260.914</ele>
      </trkpt>
      <trkpt lat="46.45153" lon="6.06145">
        <ele>1263.738</ele>
      </trkpt>
      <trkpt lat="46.45134" lon="6.06166">
        <ele>1265.947</ele>
      </trkpt>
      <trkpt lat="46.4512" lon="6.06186">
        <ele>1267.266</ele>
      </trkpt>
      <trkpt lat="46.45104" lon="6.06206">
        <ele>1268.939</ele>
      </trkpt>
      <trkpt lat="46.45094" lon="6.06219">
        <ele>1271.146</ele>
      </trkpt>
      <trkpt lat="46.45083" lon="6.06238">
        <ele>1272.948</ele>
      </trkpt>
      <trkpt lat="46.45069" lon="6.06254">
        <ele>1274.851</ele>
      </trkpt>
      <trkpt lat="46.45055" lon="6.06267">
        <ele>1277.521</ele>
      </trkpt>
      <trkpt lat="46.45045" lon="6.06272">
        <ele>1280.214</ele>
      </trkpt>
      <trkpt lat="46.45033" lon="6.06276">
        <ele>1283.385</ele>
      </trkpt>
      <trkpt lat="46.45012" lon="6.06285">
        <ele>1289.508</ele>
      </trkpt>
      <trkpt lat="46.44992" lon="6.0629">
        <ele>1294.903</ele>
      </trkpt>
      <trkpt lat="46.44972" lon="6.06295">
        <ele>1300.052</ele>
      </trkpt>
      <trkpt lat="46.44944" lon="6.06308">
        <ele>1307.247</ele>
      </trkpt>
      <trkpt lat="46.44918" lon="6.06322">
        <ele>1313.045</ele>
      </trkpt>
      <trkpt lat="46.44894" lon="6.0633">
        <ele>1317.939</ele>
      </trkpt>
      <trkpt lat="46.44876" lon="6.06347">
        <ele>1323.514</ele>
      </trkpt>
      <trkpt lat="46.44862" lon="6.06361">
        <ele>1328.757</ele>
      </trkpt>
      <trkpt lat="46.44852" lon="6.06378">
        <ele>1332.333</ele>
      </trkpt>
      <trkpt lat="46.44843" lon="6.06392">
        <ele>1335.631</ele>
      </trkpt>
      <trkpt lat="46.44837" lon="6.06416">
        <ele>1336.964</ele>
      </trkpt>
      <trkpt lat="46.4484" lon="6.06439">
        <ele>1336.108</ele>
      </trkpt>
      <trkpt lat="46.44839" lon="6.06459">
        <ele>1335.626</ele>
      </trkpt>
      <trkpt lat="46.44833" lon="6.06479">
        <ele>1336.581</ele>
      </trkpt>
      <trkpt lat="46.44828" lon="6.06495">
        <ele>1337.732</ele>
      </trkpt>
      <trkpt lat="46.44811" lon="6.06507">
        <ele>1344.872</ele>
      </trkpt>
      <trkpt lat="46.4479" lon="6.06519">
        <ele>1349.86</ele>
      </trkpt>
      <trkpt lat="46.4477" lon="6.0653">
        <ele>1353.718</ele>
      </trkpt>
      <trkpt lat="46.44745" lon="6.06545">
        <ele>1358.202</ele>
      </trkpt>
      <trkpt lat="46.44723" lon="6.06556">
        <ele>1366.907</ele>
      </trkpt>
      <trkpt lat="46.44707" lon="6.06565">
        <ele>1373.227</ele>
      </trkpt>
      <trkpt lat="46.44696" lon="6.06574">
        <ele>1378.676</ele>
      </trkpt>
      <trkpt lat="46.44688" lon="6.06593">
        <ele>1382.933</ele>
      </trkpt>
      <trkpt lat="46.44684" lon="6.06614">
        <ele>1384.622</ele>
      </trkpt>
      <trkpt lat="46.44681" lon="6.06632">
        <ele>1384.734</ele>
      </trkpt>
      <trkpt lat="46.44678" lon="6.06648">
        <ele>1384.221</ele>
      </trkpt>
      <trkpt lat="46.44676" lon="6.06666">
        <ele>1382.668</ele>
      </trkpt>
      <trkpt lat="46.44668" lon="6.06694">
        <ele>1386.094</ele>
      </trkpt>
      <trkpt lat="46.4466" lon="6.06718">
        <ele>1387.55</ele>
      </trkpt>
      <trkpt lat="46.44649" lon="6.06744">
        <ele>1389.069</ele>
      </trkpt>
      <trkpt lat="46.44639" lon="6.06764">
        <ele>1393.246</ele>
      </trkpt>
      <trkpt lat="46.44626" lon="6.06786">
        <ele>1394.289</ele>
      </trkpt>
      <trkpt lat="46.44606" lon="6.06811">
        <ele>1397.998</ele>
      </trkpt>
      <trkpt lat="46.44593" lon="6.06833">
        <ele>1397.364</ele>
      </trkpt>
      <trkpt lat="46.44586" lon="6.0684">
        <ele>1397.741</ele>
      </trkpt>
      <trkpt lat="46.44569" lon="6.06864">
        <ele>1398.629</ele>
      </trkpt>
      <trkpt lat="46.4456" lon="6.06881">
        <ele>1399.661</ele>
      </trkpt>
      <trkpt lat="46.44554" lon="6.06893">
        <ele>1399.865</ele>
      </trkpt>
      <trkpt lat="46.44537" lon="6.06912">
        <ele>1398.159</ele>
      </trkpt>
      <trkpt lat="46.44532" lon="6.06918">
        <ele>1397.327</ele>
      </trkpt>
      <trkpt lat="46.44519" lon="6.06914">
        <ele>1396.832</ele>
      </trkpt>
      <trkpt lat="46.44511" lon="6.06899">
        <ele>1397.44</ele>
      </trkpt>
      <trkpt lat="46.44503" lon="6.06885">
        <ele>1398.279</ele>
      </trkpt>
      <trkpt lat="46.44503" lon="6.06867">
        <ele>1399.572</ele>
      </trkpt>
      <trkpt lat="46.44503" lon="6.06851">
        <ele>1400.742</ele>
      </trkpt>
      <trkpt lat="46.44505" lon="6.06838">
        <ele>1401.673</ele>
      </trkpt>
      <trkpt lat="46.44509" lon="6.06828">
        <ele>1402.47</ele>
      </trkpt>
      <trkpt lat="46.44502" lon="6.0682">
        <ele>1403.053</ele>
      </trkpt>
      <trkpt lat="46.44493" lon="6.06819">
        <ele>1402.896</ele>
      </trkpt>
      <trkpt lat="46.44482" lon="6.06827">
        <ele>1402.33</ele>
      </trkpt>
      <trkpt lat="46.44469" lon="6.06837">
        <ele>1401.765</ele>
      </trkpt>
      <trkpt lat="46.44459" lon="6.06845">
        <ele>1401.305</ele>
      </trkpt>
      <trkpt lat="46.44449" lon="6.06852">
        <ele>1401.058</ele>
      </trkpt>
      <trkpt lat="46.4444" lon="6.06858">
        <ele>1400.863</ele>
      </trkpt>
      <trkpt lat="46.44426" lon="6.06863">
        <ele>1400.239</ele>
      </trkpt>
      <trkpt lat="46.44416" lon="6.06866">
        <ele>1399.803</ele>
      </trkpt>
      <trkpt lat="46.44404" lon="6.06865">
        <ele>1399.261</ele>
      </trkpt>
      <trkpt lat="46.44395" lon="6.0686">
        <ele>1399.275</ele>
      </trkpt>
      <trkpt lat="46.44379" lon="6.06849">
        <ele>1397.912</ele>
      </trkpt>
      <trkpt lat="46.44369" lon="6.06837">
        <ele>1397.535</ele>
      </trkpt>
      <trkpt lat="46.44364" lon="6.06817">
        <ele>1398.367</ele>
      </trkpt>
      <trkpt lat="46.44361" lon="6.06797">
        <ele>1399.309</ele>
      </trkpt>
      <trkpt lat="46.44362" lon="6.06776">
        <ele>1400</ele>
      </trkpt>
      <trkpt lat="46.44369" lon="6.06755">
        <ele>1400</ele>
      </trkpt>
      <trkpt lat="46.44375" lon="6.06731">
        <ele>1399.649</ele>
      </trkpt>
      <trkpt lat="46.44377" lon="6.06715">
        <ele>1399.433</ele>
      </trkpt>
      <trkpt lat="46.44378" lon="6.06686">
        <ele>1398.69</ele>
      </trkpt>
      <trkpt lat="46.4438" lon="6.06662">
        <ele>1397.689</ele>
      </trkpt>
      <trkpt lat="46.44379" lon="6.06629">
        <ele>1395.38</ele>
      </trkpt>
      <trkpt lat="46.44379" lon="6.06596">
        <ele>1392.917</ele>
      </trkpt>
      <trkpt lat="46.44374" lon="6.06567">
        <ele>1391.316</ele>
      </trkpt>
      <trkpt lat="46.44369" lon="6.06537">
        <ele>1389.393</ele>
      </trkpt>
      <trkpt lat="46.44364" lon="6.06509">
        <ele>1387.706</ele>
      </trkpt>
      <trkpt lat="46.44362" lon="6.06483">
        <ele>1385.973</ele>
      </trkpt>
      <trkpt lat="46.44363" lon="6.06452">
        <ele>1384.56</ele>
      </trkpt>
      <trkpt lat="46.44363" lon="6.06419">
        <ele>1383.264</ele>
      </trkpt>
      <trkpt lat="46.44363" lon="6.06401">
        <ele>1382.022</ele>
      </trkpt>
      <trkpt lat="46.44359" lon="6.0638">
        <ele>1381.389</ele>
      </trkpt>
      <trkpt lat="46.44354" lon="6.06363">
        <ele>1382.192</ele>
      </trkpt>
      <trkpt lat="46.44341" lon="6.06349">
        <ele>1384.987</ele>
      </trkpt>
      <trkpt lat="46.44324" lon="6.0634">
        <ele>1387.792</ele>
      </trkpt>
      <trkpt lat="46.44304" lon="6.06334">
        <ele>1390.038</ele>
      </trkpt>
      <trkpt lat="46.44272" lon="6.06324">
        <ele>1388.589</ele>
      </trkpt>
      <trkpt lat="46.44247" lon="6.06319">
        <ele>1386.644</ele>
      </trkpt>
      <trkpt lat="46.44224" lon="6.06315">
        <ele>1383.868</ele>
      </trkpt>
      <trkpt lat="46.44205" lon="6.06311">
        <ele>1381.489</ele>
      </trkpt>
      <trkpt lat="46.44192" lon="6.06312">
        <ele>1380.13</ele>
      </trkpt>
      <trkpt lat="46.44181" lon="6.06314">
        <ele>1378.675</ele>
      </trkpt>
      <trkpt lat="46.44167" lon="6.06323">
        <ele>1377.323</ele>
      </trkpt>
      <trkpt lat="46.44156" lon="6.06332">
        <ele>1375.141</ele>
      </trkpt>
      <trkpt lat="46.44149" lon="6.0634">
        <ele>1373.541</ele>
      </trkpt>
      <trkpt lat="46.44141" lon="6.06345">
        <ele>1371.455</ele>
      </trkpt>
      <trkpt lat="46.44135" lon="6.06352">
        <ele>1370.354</ele>
      </trkpt>
      <trkpt lat="46.44125" lon="6.06354">
        <ele>1368.803</ele>
      </trkpt>
      <trkpt lat="46.44113" lon="6.0635">
        <ele>1366.967</ele>
      </trkpt>
      <trkpt lat="46.44106" lon="6.06337">
        <ele>1365.724</ele>
      </trkpt>
      <trkpt lat="46.44098" lon="6.06326">
        <ele>1364.971</ele>
      </trkpt>
      <trkpt lat="46.44087" lon="6.06312">
        <ele>1363.56</ele>
      </trkpt>
      <trkpt lat="46.44081" lon="6.06288">
        <ele>1362.117</ele>
      </trkpt>
      <trkpt lat="46.44078" lon="6.06268">
        <ele>1361.604</ele>
      </trkpt>
      <trkpt lat="46.44074" lon="6.06251">
        <ele>1361.319</ele>
      </trkpt>
      <trkpt lat="46.4407" lon="6.06235">
        <ele>1360.749</ele>
      </trkpt>
      <trkpt lat="46.44065" lon="6.06221">
        <ele>1360.319</ele>
      </trkpt>
      <trkpt lat="46.44059" lon="6.06198">
        <ele>1360.015</ele>
      </trkpt>
      <trkpt lat="46.44058" lon="6.06179">
        <ele>1360</ele>
      </trkpt>
      <trkpt lat="46.44059" lon="6.06164">
        <ele>1360.011</ele>
      </trkpt>
      <trkpt lat="46.44055" lon="6.06136">
        <ele>1359.954</ele>
      </trkpt>
      <trkpt lat="46.44056" lon="6.06115">
        <ele>1360.001</ele>
      </trkpt>
      <trkpt lat="46.44056" lon="6.06097">
        <ele>1359.507</ele>
      </trkpt>
      <trkpt lat="46.4405" lon="6.06087">
        <ele>1358.523</ele>
      </trkpt>
      <trkpt lat="46.44038" lon="6.06086">
        <ele>1357.158</ele>
      </trkpt>
      <trkpt lat="46.44028" lon="6.06082">
        <ele>1355.936</ele>
      </trkpt>
      <trkpt lat="46.44017" lon="6.06075">
        <ele>1354.608</ele>
      </trkpt>
      <trkpt lat="46.44011" lon="6.06061">
        <ele>1353.908</ele>
      </trkpt>
      <trkpt lat="46.44005" lon="6.06048">
        <ele>1353.091</ele>
      </trkpt>
      <trkpt lat="46.44005" lon="6.06025">
        <ele>1352.34</ele>
      </trkpt>
      <trkpt lat="46.44005" lon="6.06004">
        <ele>1352.39</ele>
      </trkpt>
      <trkpt lat="46.44002" lon="6.05992">
        <ele>1352.15</ele>
      </trkpt>
      <trkpt lat="46.43998" lon="6.05977">
        <ele>1352.401</ele>
      </trkpt>
      <trkpt lat="46.43992" lon="6.05967">
        <ele>1353.732</ele>
      </trkpt>
      <trkpt lat="46.43988" lon="6.05977">
        <ele>1354.949</ele>
      </trkpt>
      <trkpt lat="46.4398" lon="6.05994">
        <ele>1357.078</ele>
      </trkpt>
      <trkpt lat="46.43975" lon="6.0601">
        <ele>1358.345</ele>
      </trkpt>
      <trkpt lat="46.43964" lon="6.06029">
        <ele>1360.558</ele>
      </trkpt>
      <trkpt lat="46.43958" lon="6.06041">
        <ele>1363.034</ele>
      </trkpt>
      <trkpt lat="46.43946" lon="6.06052">
        <ele>1367.004</ele>
      </trkpt>
      <trkpt lat="46.43927" lon="6.06059">
        <ele>1370.707</ele>
      </trkpt>
      <trkpt lat="46.4391" lon="6.06063">
        <ele>1372.965</ele>
      </trkpt>
      <trkpt lat="46.43889" lon="6.06074">
        <ele>1375.613</ele>
      </trkpt>
      <trkpt lat="46.43871" lon="6.06084">
        <ele>1377.95</ele>
      </trkpt>
      <trkpt lat="46.43847" lon="6.06094">
        <ele>1380.009</ele>
      </trkpt>
      <trkpt lat="46.4383" lon="6.06101">
        <ele>1381.351</ele>
      </trkpt>
      <trkpt lat="46.43813" lon="6.0611">
        <ele>1383.834</ele>
      </trkpt>
      <trkpt lat="46.438" lon="6.06114">
        <ele>1384.835</ele>
      </trkpt>
      <trkpt lat="46.43788" lon="6.06121">
        <ele>1384.87</ele>
      </trkpt>
      <trkpt lat="46.43772" lon="6.06134">
        <ele>1385.259</ele>
      </trkpt>
      <trkpt lat="46.4376" lon="6.06148">
        <ele>1385.21</ele>
      </trkpt>
      <trkpt lat="46.43745" lon="6.06164">
        <ele>1385.683</ele>
      </trkpt>
      <trkpt lat="46.43734" lon="6.06184">
        <ele>1387.16</ele>
      </trkpt>
      <trkpt lat="46.43728" lon="6.0619">
        <ele>1387.201</ele>
      </trkpt>
      <trkpt lat="46.43713" lon="6.06201">
        <ele>1386.653</ele>
      </trkpt>
      <trkpt lat="46.43701" lon="6.06205">
        <ele>1385.737</ele>
      </trkpt>
      <trkpt lat="46.43689" lon="6.06202">
        <ele>1384.27</ele>
      </trkpt>
      <trkpt lat="46.43678" lon="6.06193">
        <ele>1382.125</ele>
      </trkpt>
      <trkpt lat="46.43665" lon="6.06187">
        <ele>1380.03</ele>
      </trkpt>
      <trkpt lat="46.43646" lon="6.06186">
        <ele>1377.407</ele>
      </trkpt>
      <trkpt lat="46.43638" lon="6.06187">
        <ele>1376.58</ele>
      </trkpt>
      <trkpt lat="46.43629" lon="6.06195">
        <ele>1376.565</ele>
      </trkpt>
      <trkpt lat="46.43624" lon="6.06204">
        <ele>1376.892</ele>
      </trkpt>
      <trkpt lat="46.43617" lon="6.06231">
        <ele>1378.565</ele>
      </trkpt>
      <trkpt lat="46.43614" lon="6.06254">
        <ele>1379.761</ele>
      </trkpt>
      <trkpt lat="46.43605" lon="6.06283">
        <ele>1380.39</ele>
      </trkpt>
      <trkpt lat="46.43597" lon="6.06303">
        <ele>1380.808</ele>
      </trkpt>
      <trkpt lat="46.43588" lon="6.06325">
        <ele>1380.451</ele>
      </trkpt>
      <trkpt lat="46.43567" lon="6.06348">
        <ele>1379.659</ele>
      </trkpt>
      <trkpt lat="46.43549" lon="6.06357">
        <ele>1379.197</ele>
      </trkpt>
      <trkpt lat="46.4353" lon="6.06365">
        <ele>1380.249</ele>
      </trkpt>
      <trkpt lat="46.43516" lon="6.06376">
        <ele>1381.489</ele>
      </trkpt>
      <trkpt lat="46.43503" lon="6.06377">
        <ele>1381.992</ele>
      </trkpt>
      <trkpt lat="46.43483" lon="6.06382">
        <ele>1383.095</ele>
      </trkpt>
      <trkpt lat="46.43468" lon="6.06386">
        <ele>1383.889</ele>
      </trkpt>
      <trkpt lat="46.43457" lon="6.06391">
        <ele>1384.769</ele>
      </trkpt>
      <trkpt lat="46.4345" lon="6.06396">
        <ele>1385.345</ele>
      </trkpt>
      <trkpt lat="46.43444" lon="6.06404">
        <ele>1386.034</ele>
      </trkpt>
      <trkpt lat="46.43431" lon="6.06409">
        <ele>1385.989</ele>
      </trkpt>
      <trkpt lat="46.43424" lon="6.0641">
        <ele>1385.782</ele>
      </trkpt>
      <trkpt lat="46.43417" lon="6.06407">
        <ele>1385.276</ele>
      </trkpt>
      <trkpt lat="46.43408" lon="6.06396">
        <ele>1384.217</ele>
      </trkpt>
      <trkpt lat="46.43403" lon="6.06388">
        <ele>1383.412</ele>
      </trkpt>
      <trkpt lat="46.43388" lon="6.06367">
        <ele>1381.489</ele>
      </trkpt>
      <trkpt lat="46.43375" lon="6.06352">
        <ele>1381.845</ele>
      </trkpt>
      <trkpt lat="46.43366" lon="6.06348">
        <ele>1382.571</ele>
      </trkpt>
      <trkpt lat="46.43354" lon="6.06344">
        <ele>1384.144</ele>
      </trkpt>
      <trkpt lat="46.43341" lon="6.06341">
        <ele>1386.16</ele>
      </trkpt>
      <trkpt lat="46.43325" lon="6.06329">
        <ele>1387.313</ele>
      </trkpt>
      <trkpt lat="46.43309" lon="6.06311">
        <ele>1386.837</ele>
      </trkpt>
      <trkpt lat="46.43296" lon="6.06294">
        <ele>1385.986</ele>
      </trkpt>
      <trkpt lat="46.43278" lon="6.0627">
        <ele>1384.375</ele>
      </trkpt>
      <trkpt lat="46.43272" lon="6.06263">
        <ele>1383.793</ele>
      </trkpt>
      <trkpt lat="46.43249" lon="6.06245">
        <ele>1382.089</ele>
      </trkpt>
      <trkpt lat="46.43233" lon="6.06233">
        <ele>1381.431</ele>
      </trkpt>
      <trkpt lat="46.4322" lon="6.06219">
        <ele>1380.927</ele>
      </trkpt>
      <trkpt lat="46.43209" lon="6.06212">
        <ele>1379.998</ele>
      </trkpt>
      <trkpt lat="46.43201" lon="6.06201">
        <ele>1379.435</ele>
      </trkpt>
      <trkpt lat="46.43192" lon="6.06188">
        <ele>1378.586</ele>
      </trkpt>
      <trkpt lat="46.43181" lon="6.06172">
        <ele>1376.651</ele>
      </trkpt>
      <trkpt lat="46.43172" lon="6.06162">
        <ele>1374.709</ele>
      </trkpt>
      <trkpt lat="46.43165" lon="6.06145">
        <ele>1373.128</ele>
      </trkpt>
      <trkpt lat="46.43139" lon="6.06148">
        <ele>1371.368</ele>
      </trkpt>
      <trkpt lat="46.43138" lon="6.06132">
        <ele>1370.741</ele>
      </trkpt>
      <trkpt lat="46.43145" lon="6.06119">
        <ele>1370.566</ele>
      </trkpt>
      <trkpt lat="46.43143" lon="6.06104">
        <ele>1370.114</ele>
      </trkpt>
      <trkpt lat="46.43135" lon="6.06089">
        <ele>1370</ele>
      </trkpt>
      <trkpt lat="46.43127" lon="6.06077">
        <ele>1369.78</ele>
      </trkpt>
      <trkpt lat="46.43118" lon="6.06069">
        <ele>1369.465</ele>
      </trkpt>
      <trkpt lat="46.43103" lon="6.06082">
        <ele>1370.519</ele>
      </trkpt>
      <trkpt lat="46.43086" lon="6.0607">
        <ele>1371.333</ele>
      </trkpt>
      <trkpt lat="46.43062" lon="6.06045">
        <ele>1375.354</ele>
      </trkpt>
      <trkpt lat="46.43033" lon="6.06027">
        <ele>1377.035</ele>
      </trkpt>
      <trkpt lat="46.43009" lon="6.06011">
        <ele>1376.256</ele>
      </trkpt>
      <trkpt lat="46.42996" lon="6.05997">
        <ele>1375.78</ele>
      </trkpt>
      <trkpt lat="46.42973" lon="6.05967">
        <ele>1373.297</ele>
      </trkpt>
      <trkpt lat="46.42948" lon="6.05935">
        <ele>1370.594</ele>
      </trkpt>
      <trkpt lat="46.42919" lon="6.05894">
        <ele>1367.192</ele>
      </trkpt>
      <trkpt lat="46.42892" lon="6.05861">
        <ele>1362.58</ele>
      </trkpt>
      <trkpt lat="46.42875" lon="6.05827">
        <ele>1360.408</ele>
      </trkpt>
      <trkpt lat="46.42864" lon="6.058">
        <ele>1358.996</ele>
      </trkpt>
      <trkpt lat="46.42862" lon="6.05781">
        <ele>1358.173</ele>
      </trkpt>
      <trkpt lat="46.42862" lon="6.05759">
        <ele>1358.026</ele>
      </trkpt>
      <trkpt lat="46.42866" lon="6.05726">
        <ele>1358.181</ele>
      </trkpt>
      <trkpt lat="46.42876" lon="6.05694">
        <ele>1358.543</ele>
      </trkpt>
      <trkpt lat="46.42884" lon="6.05649">
        <ele>1358.839</ele>
      </trkpt>
      <trkpt lat="46.42888" lon="6.0562">
        <ele>1358.955</ele>
      </trkpt>
      <trkpt lat="46.42892" lon="6.05589">
        <ele>1359.112</ele>
      </trkpt>
      <trkpt lat="46.42886" lon="6.05556">
        <ele>1358.908</ele>
      </trkpt>
      <trkpt lat="46.4287" lon="6.05513">
        <ele>1358.311</ele>
      </trkpt>
      <trkpt lat="46.42854" lon="6.05468">
        <ele>1358.756</ele>
      </trkpt>
      <trkpt lat="46.42824" lon="6.05418">
        <ele>1358.642</ele>
      </trkpt>
      <trkpt lat="46.42805" lon="6.05375">
        <ele>1358.458</ele>
      </trkpt>
      <trkpt lat="46.42768" lon="6.053">
        <ele>1355.076</ele>
      </trkpt>
      <trkpt lat="46.42752" lon="6.05273">
        <ele>1351.319</ele>
      </trkpt>
      <trkpt lat="46.42736" lon="6.05271">
        <ele>1350.489</ele>
      </trkpt>
      <trkpt lat="46.42714" lon="6.05271">
        <ele>1350</ele>
      </trkpt>
      <trkpt lat="46.427" lon="6.05265">
        <ele>1350</ele>
      </trkpt>
      <trkpt lat="46.42681" lon="6.05255">
        <ele>1350</ele>
      </trkpt>
      <trkpt lat="46.42646" lon="6.05224">
        <ele>1350</ele>
      </trkpt>
      <trkpt lat="46.42616" lon="6.05194">
        <ele>1349.161</ele>
      </trkpt>
      <trkpt lat="46.42583" lon="6.05172">
        <ele>1348.195</ele>
      </trkpt>
      <trkpt lat="46.42545" lon="6.05155">
        <ele>1346.926</ele>
      </trkpt>
      <trkpt lat="46.42522" lon="6.05142">
        <ele>1345.908</ele>
      </trkpt>
      <trkpt lat="46.42498" lon="6.05135">
        <ele>1344.614</ele>
      </trkpt>
      <trkpt lat="46.42479" lon="6.05129">
        <ele>1342.806</ele>
      </trkpt>
      <trkpt lat="46.42454" lon="6.05123">
        <ele>1339.806</ele>
      </trkpt>
      <trkpt lat="46.42439" lon="6.05122">
        <ele>1338.479</ele>
      </trkpt>
      <trkpt lat="46.42422" lon="6.05114">
        <ele>1337.324</ele>
      </trkpt>
      <trkpt lat="46.42407" lon="6.05106">
        <ele>1336.178</ele>
      </trkpt>
      <trkpt lat="46.42392" lon="6.05091">
        <ele>1335.12</ele>
      </trkpt>
      <trkpt lat="46.42371" lon="6.05073">
        <ele>1334.067</ele>
      </trkpt>
      <trkpt lat="46.42357" lon="6.05069">
        <ele>1333.325</ele>
      </trkpt>
      <trkpt lat="46.42352" lon="6.0506">
        <ele>1333.448</ele>
      </trkpt>
      <trkpt lat="46.42357" lon="6.05069">
        <ele>1333.325</ele>
      </trkpt>
      <trkpt lat="46.42346" lon="6.0507">
        <ele>1332.645</ele>
      </trkpt>
      <trkpt lat="46.42318" lon="6.05069">
        <ele>1331.175</ele>
      </trkpt>
      <trkpt lat="46.42281" lon="6.05065">
        <ele>1330.074</ele>
      </trkpt>
      <trkpt lat="46.42251" lon="6.0506">
        <ele>1329.85</ele>
      </trkpt>
      <trkpt lat="46.42198" lon="6.0505">
        <ele>1332.711</ele>
      </trkpt>
      <trkpt lat="46.42142" lon="6.05035">
        <ele>1334.425</ele>
      </trkpt>
      <trkpt lat="46.42108" lon="6.05014">
        <ele>1335.13</ele>
      </trkpt>
      <trkpt lat="46.42075" lon="6.04983">
        <ele>1334.378</ele>
      </trkpt>
      <trkpt lat="46.42064" lon="6.04941">
        <ele>1336.172</ele>
      </trkpt>
      <trkpt lat="46.42062" lon="6.04896">
        <ele>1339.259</ele>
      </trkpt>
      <trkpt lat="46.42057" lon="6.04858">
        <ele>1340.598</ele>
      </trkpt>
      <trkpt lat="46.4205" lon="6.04831">
        <ele>1342.948</ele>
      </trkpt>
      <trkpt lat="46.42041" lon="6.04788">
        <ele>1345.724</ele>
      </trkpt>
      <trkpt lat="46.4202" lon="6.04749">
        <ele>1348.343</ele>
      </trkpt>
      <trkpt lat="46.41988" lon="6.04724">
        <ele>1350.841</ele>
      </trkpt>
      <trkpt lat="46.41956" lon="6.04698">
        <ele>1353.704</ele>
      </trkpt>
      <trkpt lat="46.41931" lon="6.04673">
        <ele>1355.406</ele>
      </trkpt>
      <trkpt lat="46.41921" lon="6.0465">
        <ele>1356.694</ele>
      </trkpt>
      <trkpt lat="46.41918" lon="6.04606">
        <ele>1358.266</ele>
      </trkpt>
      <trkpt lat="46.41918" lon="6.04567">
        <ele>1359.707</ele>
      </trkpt>
      <trkpt lat="46.41917" lon="6.04532">
        <ele>1360.834</ele>
      </trkpt>
      <trkpt lat="46.41914" lon="6.04514">
        <ele>1361.623</ele>
      </trkpt>
      <trkpt lat="46.41914" lon="6.04488">
        <ele>1362.982</ele>
      </trkpt>
      <trkpt lat="46.41913" lon="6.04467">
        <ele>1363.989</ele>
      </trkpt>
      <trkpt lat="46.4191" lon="6.04442">
        <ele>1365.354</ele>
      </trkpt>
      <trkpt lat="46.41907" lon="6.04418">
        <ele>1366.404</ele>
      </trkpt>
      <trkpt lat="46.41903" lon="6.04391">
        <ele>1365.634</ele>
      </trkpt>
      <trkpt lat="46.41899" lon="6.04365">
        <ele>1364.355</ele>
      </trkpt>
      <trkpt lat="46.41897" lon="6.04347">
        <ele>1363.705</ele>
      </trkpt>
      <trkpt lat="46.419" lon="6.04328">
        <ele>1364.419</ele>
      </trkpt>
      <trkpt lat="46.41908" lon="6.0431">
        <ele>1366.662</ele>
      </trkpt>
      <trkpt lat="46.41922" lon="6.0429">
        <ele>1368.851</ele>
      </trkpt>
      <trkpt lat="46.41934" lon="6.0427">
        <ele>1369.083</ele>
      </trkpt>
      <trkpt lat="46.41966" lon="6.04215">
        <ele>1372.314</ele>
      </trkpt>
      <trkpt lat="46.41974" lon="6.04183">
        <ele>1373.718</ele>
      </trkpt>
      <trkpt lat="46.41949" lon="6.04186">
        <ele>1369.004</ele>
      </trkpt>
      <trkpt lat="46.41926" lon="6.04191">
        <ele>1366.638</ele>
      </trkpt>
      <trkpt lat="46.41893" lon="6.04168">
        <ele>1362.523</ele>
      </trkpt>
      <trkpt lat="46.41858" lon="6.04103">
        <ele>1359.884</ele>
      </trkpt>
      <trkpt lat="46.41809" lon="6.0404">
        <ele>1356.991</ele>
      </trkpt>
      <trkpt lat="46.4178" lon="6.03986">
        <ele>1354.82</ele>
      </trkpt>
      <trkpt lat="46.41732" lon="6.03935">
        <ele>1349.666</ele>
      </trkpt>
      <trkpt lat="46.41729" lon="6.03916">
        <ele>1349.686</ele>
      </trkpt>
      <trkpt lat="46.41713" lon="6.03859">
        <ele>1349.706</ele>
      </trkpt>
      <trkpt lat="46.41683" lon="6.03764">
        <ele>1349.579</ele>
      </trkpt>
      <trkpt lat="46.41652" lon="6.03748">
        <ele>1349.137</ele>
      </trkpt>
      <trkpt lat="46.41614" lon="6.03704">
        <ele>1353.199</ele>
      </trkpt>
      <trkpt lat="46.41582" lon="6.03655">
        <ele>1358.851</ele>
      </trkpt>
      <trkpt lat="46.41558" lon="6.03626">
        <ele>1360.961</ele>
      </trkpt>
      <trkpt lat="46.41557" lon="6.0363">
        <ele>1360.615</ele>
      </trkpt>
      <trkpt lat="46.41553" lon="6.03627">
        <ele>1360.902</ele>
      </trkpt>
      <trkpt lat="46.41549" lon="6.03635">
        <ele>1360.342</ele>
      </trkpt>
      <trkpt lat="46.41543" lon="6.03647">
        <ele>1359.395</ele>
      </trkpt>
      <trkpt lat="46.41537" lon="6.0367">
        <ele>1357.707</ele>
      </trkpt>
      <trkpt lat="46.41537" lon="6.03681">
        <ele>1356.611</ele>
      </trkpt>
      <trkpt lat="46.41537" lon="6.03688">
        <ele>1355.98</ele>
      </trkpt>
      <trkpt lat="46.41528" lon="6.03682">
        <ele>1356.333</ele>
      </trkpt>
      <trkpt lat="46.41517" lon="6.03668">
        <ele>1358.23</ele>
      </trkpt>
      <trkpt lat="46.41508" lon="6.03656">
        <ele>1359.699</ele>
      </trkpt>
      <trkpt lat="46.41501" lon="6.03645">
        <ele>1361.341</ele>
      </trkpt>
      <trkpt lat="46.41488" lon="6.03634">
        <ele>1362.808</ele>
      </trkpt>
      <trkpt lat="46.41477" lon="6.03623">
        <ele>1363.958</ele>
      </trkpt>
      <trkpt lat="46.41469" lon="6.03615">
        <ele>1364.747</ele>
      </trkpt>
      <trkpt lat="46.41459" lon="6.03607">
        <ele>1365.203</ele>
      </trkpt>
      <trkpt lat="46.41452" lon="6.03604">
        <ele>1365.337</ele>
      </trkpt>
      <trkpt lat="46.41441" lon="6.03608">
        <ele>1365.118</ele>
      </trkpt>
      <trkpt lat="46.41433" lon="6.03612">
        <ele>1364.954</ele>
      </trkpt>
      <trkpt lat="46.41422" lon="6.03616">
        <ele>1364.93</ele>
      </trkpt>
      <trkpt lat="46.41413" lon="6.03619">
        <ele>1365.14</ele>
      </trkpt>
      <trkpt lat="46.41404" lon="6.03618">
        <ele>1365.464</ele>
      </trkpt>
      <trkpt lat="46.41394" lon="6.03623">
        <ele>1365.833</ele>
      </trkpt>
      <trkpt lat="46.41379" lon="6.03622">
        <ele>1366.718</ele>
      </trkpt>
      <trkpt lat="46.41369" lon="6.03614">
        <ele>1367.431</ele>
      </trkpt>
      <trkpt lat="46.41359" lon="6.03607">
        <ele>1368.143</ele>
      </trkpt>
      <trkpt lat="46.41347" lon="6.03603">
        <ele>1369.025</ele>
      </trkpt>
      <trkpt lat="46.41336" lon="6.03593">
        <ele>1369.811</ele>
      </trkpt>
      <trkpt lat="46.41327" lon="6.03581">
        <ele>1370.532</ele>
      </trkpt>
      <trkpt lat="46.41319" lon="6.03575">
        <ele>1371.365</ele>
      </trkpt>
      <trkpt lat="46.4131" lon="6.03573">
        <ele>1372.089</ele>
      </trkpt>
      <trkpt lat="46.41293" lon="6.03568">
        <ele>1374.123</ele>
      </trkpt>
      <trkpt lat="46.41274" lon="6.0357">
        <ele>1376.448</ele>
      </trkpt>
      <trkpt lat="46.4126" lon="6.03563">
        <ele>1377.881</ele>
      </trkpt>
      <trkpt lat="46.41247" lon="6.03552">
        <ele>1379.291</ele>
      </trkpt>
      <trkpt lat="46.41231" lon="6.03541">
        <ele>1380.734</ele>
      </trkpt>
      <trkpt lat="46.41214" lon="6.03524">
        <ele>1381.678</ele>
      </trkpt>
      <trkpt lat="46.41204" lon="6.03505">
        <ele>1381.659</ele>
      </trkpt>
      <trkpt lat="46.41195" lon="6.03489">
        <ele>1381.543</ele>
      </trkpt>
      <trkpt lat="46.41189" lon="6.03478">
        <ele>1381.671</ele>
      </trkpt>
      <trkpt lat="46.41185" lon="6.03463">
        <ele>1381.585</ele>
      </trkpt>
      <trkpt lat="46.41176" lon="6.03448">
        <ele>1381.742</ele>
      </trkpt>
      <trkpt lat="46.41154" lon="6.03427">
        <ele>1383.062</ele>
      </trkpt>
      <trkpt lat="46.41136" lon="6.03413">
        <ele>1384.112</ele>
      </trkpt>
      <trkpt lat="46.41112" lon="6.03389">
        <ele>1384.976</ele>
      </trkpt>
      <trkpt lat="46.4109" lon="6.03369">
        <ele>1385</ele>
      </trkpt>
      <trkpt lat="46.41073" lon="6.0335">
        <ele>1385</ele>
      </trkpt>
      <trkpt lat="46.41056" lon="6.03331">
        <ele>1385</ele>
      </trkpt>
      <trkpt lat="46.41035" lon="6.03318">
        <ele>1385.331</ele>
      </trkpt>
      <trkpt lat="46.41022" lon="6.03301">
        <ele>1385.492</ele>
      </trkpt>
      <trkpt lat="46.41007" lon="6.03276">
        <ele>1385</ele>
      </trkpt>
      <trkpt lat="46.40993" lon="6.03249">
        <ele>1384.946</ele>
      </trkpt>
      <trkpt lat="46.40979" lon="6.03228">
        <ele>1384.209</ele>
      </trkpt>
      <trkpt lat="46.40967" lon="6.03206">
        <ele>1383.499</ele>
      </trkpt>
      <trkpt lat="46.40961" lon="6.03189">
        <ele>1382.924</ele>
      </trkpt>
      <trkpt lat="46.40956" lon="6.03181">
        <ele>1382.724</ele>
      </trkpt>
      <trkpt lat="46.4094" lon="6.03162">
        <ele>1381.958</ele>
      </trkpt>
      <trkpt lat="46.40919" lon="6.03143">
        <ele>1381.255</ele>
      </trkpt>
      <trkpt lat="46.40909" lon="6.03124">
        <ele>1380.331</ele>
      </trkpt>
      <trkpt lat="46.40891" lon="6.03105">
        <ele>1380</ele>
      </trkpt>
      <trkpt lat="46.40878" lon="6.03088">
        <ele>1380</ele>
      </trkpt>
      <trkpt lat="46.4087" lon="6.03073">
        <ele>1380</ele>
      </trkpt>
      <trkpt lat="46.40853" lon="6.03062">
        <ele>1380</ele>
      </trkpt>
      <trkpt lat="46.40841" lon="6.03049">
        <ele>1380</ele>
      </trkpt>
      <trkpt lat="46.40827" lon="6.03042">
        <ele>1379.771</ele>
      </trkpt>
      <trkpt lat="46.40818" lon="6.03038">
        <ele>1379.451</ele>
      </trkpt>
      <trkpt lat="46.40797" lon="6.03024">
        <ele>1379</ele>
      </trkpt>
      <trkpt lat="46.40784" lon="6.03002">
        <ele>1379</ele>
      </trkpt>
      <trkpt lat="46.40764" lon="6.02974">
        <ele>1379</ele>
      </trkpt>
      <trkpt lat="46.4075" lon="6.02952">
        <ele>1379</ele>
      </trkpt>
      <trkpt lat="46.40728" lon="6.02926">
        <ele>1378.342</ele>
      </trkpt>
      <trkpt lat="46.40705" lon="6.02897">
        <ele>1378</ele>
      </trkpt>
      <trkpt lat="46.40683" lon="6.02874">
        <ele>1378.2</ele>
      </trkpt>
      <trkpt lat="46.40657" lon="6.02843">
        <ele>1377.408</ele>
      </trkpt>
      <trkpt lat="46.40634" lon="6.02817">
        <ele>1374.298</ele>
      </trkpt>
      <trkpt lat="46.40612" lon="6.02798">
        <ele>1370.834</ele>
      </trkpt>
      <trkpt lat="46.4059" lon="6.02775">
        <ele>1368.378</ele>
      </trkpt>
      <trkpt lat="46.40568" lon="6.02757">
        <ele>1363.968</ele>
      </trkpt>
      <trkpt lat="46.40545" lon="6.02723">
        <ele>1359.644</ele>
      </trkpt>
      <trkpt lat="46.40501" lon="6.02667">
        <ele>1354.098</ele>
      </trkpt>
      <trkpt lat="46.40477" lon="6.02637">
        <ele>1350.045</ele>
      </trkpt>
      <trkpt lat="46.40456" lon="6.02612">
        <ele>1348.025</ele>
      </trkpt>
      <trkpt lat="46.40436" lon="6.02582">
        <ele>1345.911</ele>
      </trkpt>
      <trkpt lat="46.40403" lon="6.02536">
        <ele>1341.393</ele>
      </trkpt>
      <trkpt lat="46.40376" lon="6.02502">
        <ele>1339.687</ele>
      </trkpt>
      <trkpt lat="46.40368" lon="6.02485">
        <ele>1338.941</ele>
      </trkpt>
      <trkpt lat="46.4036" lon="6.02468">
        <ele>1337.738</ele>
      </trkpt>
      <trkpt lat="46.4035" lon="6.0245">
        <ele>1336.451</ele>
      </trkpt>
      <trkpt lat="46.40346" lon="6.02432">
        <ele>1335.066</ele>
      </trkpt>
      <trkpt lat="46.40342" lon="6.02418">
        <ele>1334.109</ele>
      </trkpt>
      <trkpt lat="46.40346" lon="6.02397">
        <ele>1332.221</ele>
      </trkpt>
      <trkpt lat="46.40345" lon="6.02394">
        <ele>1331.885</ele>
      </trkpt>
      <trkpt lat="46.40326" lon="6.02372">
        <ele>1330.004</ele>
      </trkpt>
      <trkpt lat="46.40307" lon="6.02352">
        <ele>1329.036</ele>
      </trkpt>
      <trkpt lat="46.40279" lon="6.02331">
        <ele>1323.924</ele>
      </trkpt>
      <trkpt lat="46.40228" lon="6.02311">
        <ele>1318.788</ele>
      </trkpt>
      <trkpt lat="46.40192" lon="6.02286">
        <ele>1315.464</ele>
      </trkpt>
      <trkpt lat="46.40152" lon="6.0227">
        <ele>1311.426</ele>
      </trkpt>
      <trkpt lat="46.40126" lon="6.02262">
        <ele>1309.448</ele>
      </trkpt>
      <trkpt lat="46.40108" lon="6.02251">
        <ele>1308.888</ele>
      </trkpt>
      <trkpt lat="46.40086" lon="6.02233">
        <ele>1306.945</ele>
      </trkpt>
      <trkpt lat="46.4006" lon="6.02215">
        <ele>1303.814</ele>
      </trkpt>
      <trkpt lat="46.4004" lon="6.02204">
        <ele>1302.318</ele>
      </trkpt>
      <trkpt lat="46.40038" lon="6.02181">
        <ele>1301.071</ele>
      </trkpt>
      <trkpt lat="46.4001" lon="6.02134">
        <ele>1300</ele>
      </trkpt>
      <trkpt lat="46.39983" lon="6.02083">
        <ele>1300</ele>
      </trkpt>
      <trkpt lat="46.39951" lon="6.02019">
        <ele>1299.761</ele>
      </trkpt>
      <trkpt lat="46.39912" lon="6.01964">
        <ele>1293.958</ele>
      </trkpt>
      <trkpt lat="46.3988" lon="6.01917">
        <ele>1290.045</ele>
      </trkpt>
      <trkpt lat="46.3985" lon="6.01863">
        <ele>1285.29</ele>
      </trkpt>
      <trkpt lat="46.39833" lon="6.01829">
        <ele>1281.84</ele>
      </trkpt>
      <trkpt lat="46.39818" lon="6.01805">
        <ele>1279.903</ele>
      </trkpt>
      <trkpt lat="46.39795" lon="6.01771">
        <ele>1277.849</ele>
      </trkpt>
      <trkpt lat="46.39764" lon="6.01733">
        <ele>1277.87</ele>
      </trkpt>
      <trkpt lat="46.39741" lon="6.01689">
        <ele>1278.131</ele>
      </trkpt>
      <trkpt lat="46.39718" lon="6.01639">
        <ele>1277.15</ele>
      </trkpt>
      <trkpt lat="46.39683" lon="6.01597">
        <ele>1276.908</ele>
      </trkpt>
      <trkpt lat="46.39659" lon="6.0157">
        <ele>1276.509</ele>
      </trkpt>
      <trkpt lat="46.39621" lon="6.01492">
        <ele>1272.09</ele>
      </trkpt>
      <trkpt lat="46.39601" lon="6.01442">
        <ele>1268.477</ele>
      </trkpt>
      <trkpt lat="46.39573" lon="6.01391">
        <ele>1265.522</ele>
      </trkpt>
      <trkpt lat="46.39541" lon="6.01344">
        <ele>1264.618</ele>
      </trkpt>
      <trkpt lat="46.39512" lon="6.01309">
        <ele>1264.682</ele>
      </trkpt>
      <trkpt lat="46.39491" lon="6.01278">
        <ele>1264.669</ele>
      </trkpt>
      <trkpt lat="46.39469" lon="6.01254">
        <ele>1264.595</ele>
      </trkpt>
      <trkpt lat="46.39459" lon="6.01224">
        <ele>1264.471</ele>
      </trkpt>
      <trkpt lat="46.39453" lon="6.01191">
        <ele>1264.913</ele>
      </trkpt>
      <trkpt lat="46.39461" lon="6.0115">
        <ele>1260.992</ele>
      </trkpt>
      <trkpt lat="46.39463" lon="6.01111">
        <ele>1260</ele>
      </trkpt>
      <trkpt lat="46.39459" lon="6.01071">
        <ele>1260</ele>
      </trkpt>
      <trkpt lat="46.39454" lon="6.01032">
        <ele>1260</ele>
      </trkpt>
      <trkpt lat="46.3944" lon="6.00985">
        <ele>1260</ele>
      </trkpt>
      <trkpt lat="46.39421" lon="6.00932">
        <ele>1260</ele>
      </trkpt>
      <trkpt lat="46.39404" lon="6.00895">
        <ele>1260</ele>
      </trkpt>
      <trkpt lat="46.39383" lon="6.00861">
        <ele>1260</ele>
      </trkpt>
      <trkpt lat="46.39375" lon="6.00838">
        <ele>1260</ele>
      </trkpt>
      <trkpt lat="46.39362" lon="6.00821">
        <ele>1260</ele>
      </trkpt>
      <trkpt lat="46.39338" lon="6.00799">
        <ele>1260</ele>
      </trkpt>
      <trkpt lat="46.39317" lon="6.00795">
        <ele>1260</ele>
      </trkpt>
      <trkpt lat="46.39305" lon="6.00771">
        <ele>1260</ele>
      </trkpt>
      <trkpt lat="46.39295" lon="6.00738">
        <ele>1260.261</ele>
      </trkpt>
      <trkpt lat="46.39273" lon="6.0072">
        <ele>1260.206</ele>
      </trkpt>
      <trkpt lat="46.39248" lon="6.00719">
        <ele>1260.5</ele>
      </trkpt>
      <trkpt lat="46.39224" lon="6.0073">
        <ele>1262.305</ele>
      </trkpt>
      <trkpt lat="46.39208" lon="6.00729">
        <ele>1263.152</ele>
      </trkpt>
      <trkpt lat="46.39184" lon="6.00724">
        <ele>1264.727</ele>
      </trkpt>
      <trkpt lat="46.39165" lon="6.00729">
        <ele>1265.846</ele>
      </trkpt>
      <trkpt lat="46.39145" lon="6.00738">
        <ele>1267.023</ele>
      </trkpt>
      <trkpt lat="46.39108" lon="6.00751">
        <ele>1269.152</ele>
      </trkpt>
      <trkpt lat="46.39108" lon="6.00751">
        <ele>1269.152</ele>
      </trkpt>
      <trkpt lat="46.39088" lon="6.00753">
        <ele>1270.548</ele>
      </trkpt>
      <trkpt lat="46.39071" lon="6.00733">
        <ele>1271.287</ele>
      </trkpt>
      <trkpt lat="46.39047" lon="6.00702">
        <ele>1272.426</ele>
      </trkpt>
      <trkpt lat="46.39016" lon="6.00693">
        <ele>1271.146</ele>
      </trkpt>
      <trkpt lat="46.38975" lon="6.00694">
        <ele>1270.003</ele>
      </trkpt>
      <trkpt lat="46.38939" lon="6.00691">
        <ele>1270</ele>
      </trkpt>
      <trkpt lat="46.38902" lon="6.00666">
        <ele>1270.013</ele>
      </trkpt>
      <trkpt lat="46.38875" lon="6.00645">
        <ele>1270</ele>
      </trkpt>
      <trkpt lat="46.38856" lon="6.00611">
        <ele>1269.997</ele>
      </trkpt>
      <trkpt lat="46.38841" lon="6.00603">
        <ele>1269.789</ele>
      </trkpt>
      <trkpt lat="46.38825" lon="6.00599">
        <ele>1269.259</ele>
      </trkpt>
      <trkpt lat="46.38798" lon="6.00607">
        <ele>1268.281</ele>
      </trkpt>
      <trkpt lat="46.38765" lon="6.00579">
        <ele>1265.244</ele>
      </trkpt>
      <trkpt lat="46.3873" lon="6.0055">
        <ele>1263.739</ele>
      </trkpt>
      <trkpt lat="46.38697" lon="6.00515">
        <ele>1262.192</ele>
      </trkpt>
      <trkpt lat="46.38682" lon="6.00495">
        <ele>1261.208</ele>
      </trkpt>
      <trkpt lat="46.3867" lon="6.00465">
        <ele>1260.547</ele>
      </trkpt>
      <trkpt lat="46.38659" lon="6.00432">
        <ele>1261.077</ele>
      </trkpt>
      <trkpt lat="46.38647" lon="6.00408">
        <ele>1260.639</ele>
      </trkpt>
      <trkpt lat="46.38621" lon="6.00377">
        <ele>1262.914</ele>
      </trkpt>
      <trkpt lat="46.38584" lon="6.00339">
        <ele>1269.806</ele>
      </trkpt>
      <trkpt lat="46.38558" lon="6.00308">
        <ele>1272.793</ele>
      </trkpt>
      <trkpt lat="46.38536" lon="6.00283">
        <ele>1274.287</ele>
      </trkpt>
      <trkpt lat="46.38526" lon="6.0025">
        <ele>1275.08</ele>
      </trkpt>
      <trkpt lat="46.38515" lon="6.0022">
        <ele>1275</ele>
      </trkpt>
      <trkpt lat="46.38505" lon="6.0019">
        <ele>1275.158</ele>
      </trkpt>
      <trkpt lat="46.38503" lon="6.00174">
        <ele>1275.748</ele>
      </trkpt>
      <trkpt lat="46.38495" lon="6.0016">
        <ele>1276</ele>
      </trkpt>
      <trkpt lat="46.38491" lon="6.0015">
        <ele>1276</ele>
      </trkpt>
      <trkpt lat="46.38485" lon="6.0012">
        <ele>1276.667</ele>
      </trkpt>
      <trkpt lat="46.38454" lon="6.00109">
        <ele>1277</ele>
      </trkpt>
      <trkpt lat="46.38411" lon="6.00099">
        <ele>1277</ele>
      </trkpt>
      <trkpt lat="46.3834" lon="6.00085">
        <ele>1277</ele>
      </trkpt>
      <trkpt lat="46.38319" lon="6.00083">
        <ele>1277</ele>
      </trkpt>
      <trkpt lat="46.38304" lon="6.00082">
        <ele>1277</ele>
      </trkpt>
      <trkpt lat="46.38295" lon="6.0006">
        <ele>1277</ele>
      </trkpt>
      <trkpt lat="46.38284" lon="6.0004">
        <ele>1277.557</ele>
      </trkpt>
      <trkpt lat="46.38271" lon="6.00029">
        <ele>1277.709</ele>
      </trkpt>
      <trkpt lat="46.3825" lon="6.0001">
        <ele>1277.011</ele>
      </trkpt>
      <trkpt lat="46.38232" lon="5.99994">
        <ele>1273.776</ele>
      </trkpt>
      <trkpt lat="46.38209" lon="5.99972">
        <ele>1272.606</ele>
      </trkpt>
      <trkpt lat="46.38191" lon="5.99954">
        <ele>1270.576</ele>
      </trkpt>
      <trkpt lat="46.38156" lon="5.99937">
        <ele>1269.107</ele>
      </trkpt>
      <trkpt lat="46.3813" lon="5.99927">
        <ele>1266.24</ele>
      </trkpt>
      <trkpt lat="46.38115" lon="5.99915">
        <ele>1263.47</ele>
      </trkpt>
      <trkpt lat="46.38096" lon="5.99891">
        <ele>1261.046</ele>
      </trkpt>
      <trkpt lat="46.38088" lon="5.99879">
        <ele>1259.35</ele>
      </trkpt>
      <trkpt lat="46.38049" lon="5.99871">
        <ele>1258.982</ele>
      </trkpt>
      <trkpt lat="46.3802" lon="5.99878">
        <ele>1260.88</ele>
      </trkpt>
      <trkpt lat="46.38011" lon="5.99874">
        <ele>1261.349</ele>
      </trkpt>
      <trkpt lat="46.38011" lon="5.9982">
        <ele>1253.996</ele>
      </trkpt>
      <trkpt lat="46.38009" lon="5.99796">
        <ele>1249.965</ele>
      </trkpt>
      <trkpt lat="46.38" lon="5.9974">
        <ele>1241.872</ele>
      </trkpt>
      <trkpt lat="46.37984" lon="5.99719">
        <ele>1242.633</ele>
      </trkpt>
      <trkpt lat="46.37957" lon="5.99672">
        <ele>1242.048</ele>
      </trkpt>
      <trkpt lat="46.37932" lon="5.9967">
        <ele>1244.544</ele>
      </trkpt>
      <trkpt lat="46.37891" lon="5.99674">
        <ele>1248.089</ele>
      </trkpt>
      <trkpt lat="46.37864" lon="5.99672">
        <ele>1247.298</ele>
      </trkpt>
      <trkpt lat="46.37842" lon="5.99657">
        <ele>1243.481</ele>
      </trkpt>
      <trkpt lat="46.37818" lon="5.99643">
        <ele>1240.886</ele>
      </trkpt>
      <trkpt lat="46.37787" lon="5.99628">
        <ele>1240</ele>
      </trkpt>
      <trkpt lat="46.37771" lon="5.99617">
        <ele>1240</ele>
      </trkpt>
      <trkpt lat="46.37759" lon="5.99593">
        <ele>1240</ele>
      </trkpt>
      <trkpt lat="46.37746" lon="5.99573">
        <ele>1239.943</ele>
      </trkpt>
      <trkpt lat="46.37724" lon="5.99542">
        <ele>1239.524</ele>
      </trkpt>
      <trkpt lat="46.37711" lon="5.99538">
        <ele>1238.969</ele>
      </trkpt>
      <trkpt lat="46.37681" lon="5.99549">
        <ele>1238</ele>
      </trkpt>
      <trkpt lat="46.37671" lon="5.99522">
        <ele>1238</ele>
      </trkpt>
      <trkpt lat="46.37672" lon="5.99477">
        <ele>1237.163</ele>
      </trkpt>
      <trkpt lat="46.37694" lon="5.99439">
        <ele>1237</ele>
      </trkpt>
      <trkpt lat="46.37721" lon="5.99369">
        <ele>1238.184</ele>
      </trkpt>
      <trkpt lat="46.37756" lon="5.99336">
        <ele>1240</ele>
      </trkpt>
      <trkpt lat="46.3779" lon="5.99306">
        <ele>1240</ele>
      </trkpt>
      <trkpt lat="46.37811" lon="5.99291">
        <ele>1240</ele>
      </trkpt>
      <trkpt lat="46.37844" lon="5.99244">
        <ele>1240</ele>
      </trkpt>
      <trkpt lat="46.37878" lon="5.99175">
        <ele>1240</ele>
      </trkpt>
      <trkpt lat="46.37918" lon="5.99122">
        <ele>1240.073</ele>
      </trkpt>
      <trkpt lat="46.37933" lon="5.99088">
        <ele>1241.991</ele>
      </trkpt>
      <trkpt lat="46.3794" lon="5.99062">
        <ele>1242.809</ele>
      </trkpt>
      <trkpt lat="46.37921" lon="5.99025">
        <ele>1243.158</ele>
      </trkpt>
      <trkpt lat="46.37911" lon="5.99002">
        <ele>1242.78</ele>
      </trkpt>
      <trkpt lat="46.37903" lon="5.98959">
        <ele>1241.265</ele>
      </trkpt>
      <trkpt lat="46.37895" lon="5.98932">
        <ele>1240.331</ele>
      </trkpt>
      <trkpt lat="46.37895" lon="5.98913">
        <ele>1239.98</ele>
      </trkpt>
      <trkpt lat="46.37905" lon="5.98884">
        <ele>1238.939</ele>
      </trkpt>
      <trkpt lat="46.37913" lon="5.98859">
        <ele>1238.422</ele>
      </trkpt>
      <trkpt lat="46.37916" lon="5.98823">
        <ele>1236.228</ele>
      </trkpt>
      <trkpt lat="46.37917" lon="5.98807">
        <ele>1235.109</ele>
      </trkpt>
      <trkpt lat="46.3792" lon="5.98778">
        <ele>1233.475</ele>
      </trkpt>
      <trkpt lat="46.37923" lon="5.98762">
        <ele>1232.716</ele>
      </trkpt>
      <trkpt lat="46.37934" lon="5.98772">
        <ele>1235.044</ele>
      </trkpt>
      <trkpt lat="46.37943" lon="5.9876">
        <ele>1235.507</ele>
      </trkpt>
      <trkpt lat="46.37942" lon="5.98737">
        <ele>1234.165</ele>
      </trkpt>
      <trkpt lat="46.37935" lon="5.98723">
        <ele>1233.038</ele>
      </trkpt>
      <trkpt lat="46.37939" lon="5.98694">
        <ele>1234.143</ele>
      </trkpt>
      <trkpt lat="46.37944" lon="5.98675">
        <ele>1235.571</ele>
      </trkpt>
      <trkpt lat="46.37947" lon="5.9864">
        <ele>1237.249</ele>
      </trkpt>
      <trkpt lat="46.37946" lon="5.98607">
        <ele>1238.223</ele>
      </trkpt>
      <trkpt lat="46.37944" lon="5.98594">
        <ele>1238.55</ele>
      </trkpt>
      <trkpt lat="46.3794" lon="5.98568">
        <ele>1236.783</ele>
      </trkpt>
      <trkpt lat="46.37937" lon="5.98538">
        <ele>1233.626</ele>
      </trkpt>
      <trkpt lat="46.37939" lon="5.98525">
        <ele>1232.558</ele>
      </trkpt>
      <trkpt lat="46.37945" lon="5.98496">
        <ele>1230.002</ele>
      </trkpt>
      <trkpt lat="46.37955" lon="5.98461">
        <ele>1230.379</ele>
      </trkpt>
      <trkpt lat="46.37965" lon="5.98433">
        <ele>1231.051</ele>
      </trkpt>
      <trkpt lat="46.37977" lon="5.98398">
        <ele>1233.413</ele>
      </trkpt>
      <trkpt lat="46.3798" lon="5.98375">
        <ele>1235.009</ele>
      </trkpt>
      <trkpt lat="46.37981" lon="5.98365">
        <ele>1235.645</ele>
      </trkpt>
      <trkpt lat="46.37968" lon="5.98335">
        <ele>1235.48</ele>
      </trkpt>
      <trkpt lat="46.37956" lon="5.98302">
        <ele>1235.419</ele>
      </trkpt>
      <trkpt lat="46.37947" lon="5.98282">
        <ele>1235.93</ele>
      </trkpt>
      <trkpt lat="46.37946" lon="5.98256">
        <ele>1236.896</ele>
      </trkpt>
      <trkpt lat="46.37947" lon="5.98213">
        <ele>1236.165</ele>
      </trkpt>
      <trkpt lat="46.37951" lon="5.98158">
        <ele>1234.944</ele>
      </trkpt>
      <trkpt lat="46.37953" lon="5.98116">
        <ele>1234.291</ele>
      </trkpt>
      <trkpt lat="46.37942" lon="5.98083">
        <ele>1232.912</ele>
      </trkpt>
      <trkpt lat="46.37921" lon="5.98036">
        <ele>1231.414</ele>
      </trkpt>
      <trkpt lat="46.379" lon="5.97989">
        <ele>1230.412</ele>
      </trkpt>
      <trkpt lat="46.37894" lon="5.97963">
        <ele>1230.13</ele>
      </trkpt>
      <trkpt lat="46.37876" lon="5.97906">
        <ele>1230</ele>
      </trkpt>
      <trkpt lat="46.37864" lon="5.97853">
        <ele>1230</ele>
      </trkpt>
      <trkpt lat="46.37859" lon="5.97794">
        <ele>1228.049</ele>
      </trkpt>
      <trkpt lat="46.37855" lon="5.97729">
        <ele>1224.428</ele>
      </trkpt>
      <trkpt lat="46.37856" lon="5.9769">
        <ele>1221.84</ele>
      </trkpt>
      <trkpt lat="46.37861" lon="5.97658">
        <ele>1220.675</ele>
      </trkpt>
      <trkpt lat="46.37862" lon="5.97629">
        <ele>1220.017</ele>
      </trkpt>
      <trkpt lat="46.37852" lon="5.97605">
        <ele>1219.595</ele>
      </trkpt>
      <trkpt lat="46.37844" lon="5.97575">
        <ele>1218.574</ele>
      </trkpt>
      <trkpt lat="46.37829" lon="5.97542">
        <ele>1215.822</ele>
      </trkpt>
      <trkpt lat="46.37819" lon="5.97509">
        <ele>1212.356</ele>
      </trkpt>
      <trkpt lat="46.37814" lon="5.97463">
        <ele>1207.859</ele>
      </trkpt>
      <trkpt lat="46.37813" lon="5.97432">
        <ele>1205.028</ele>
      </trkpt>
      <trkpt lat="46.37813" lon="5.97412">
        <ele>1203.421</ele>
      </trkpt>
      <trkpt lat="46.37807" lon="5.97379">
        <ele>1200.421</ele>
      </trkpt>
      <trkpt lat="46.37806" lon="5.97356">
        <ele>1198.717</ele>
      </trkpt>
      <trkpt lat="46.37809" lon="5.97337">
        <ele>1197.422</ele>
      </trkpt>
      <trkpt lat="46.37818" lon="5.9731">
        <ele>1195.77</ele>
      </trkpt>
      <trkpt lat="46.37823" lon="5.97288">
        <ele>1193.932</ele>
      </trkpt>
      <trkpt lat="46.37829" lon="5.97257">
        <ele>1190.762</ele>
      </trkpt>
      <trkpt lat="46.37829" lon="5.97234">
        <ele>1189.436</ele>
      </trkpt>
      <trkpt lat="46.3783" lon="5.97215">
        <ele>1188.704</ele>
      </trkpt>
      <trkpt lat="46.37835" lon="5.97194">
        <ele>1188.055</ele>
      </trkpt>
      <trkpt lat="46.37837" lon="5.9718">
        <ele>1187.656</ele>
      </trkpt>
      <trkpt lat="46.37834" lon="5.97153">
        <ele>1186.588</ele>
      </trkpt>
      <trkpt lat="46.37829" lon="5.9713">
        <ele>1185.404</ele>
      </trkpt>
      <trkpt lat="46.37822" lon="5.97107">
        <ele>1184.202</ele>
      </trkpt>
      <trkpt lat="46.37812" lon="5.9709">
        <ele>1183.431</ele>
      </trkpt>
      <trkpt lat="46.37801" lon="5.97078">
        <ele>1182.452</ele>
      </trkpt>
      <trkpt lat="46.37792" lon="5.97069">
        <ele>1181.51</ele>
      </trkpt>
      <trkpt lat="46.37789" lon="5.9705">
        <ele>1180.732</ele>
      </trkpt>
      <trkpt lat="46.3779" lon="5.97022">
        <ele>1180.349</ele>
      </trkpt>
      <trkpt lat="46.37798" lon="5.96998">
        <ele>1180</ele>
      </trkpt>
      <trkpt lat="46.37801" lon="5.96989">
        <ele>1180</ele>
      </trkpt>
      <trkpt lat="46.37806" lon="5.96976">
        <ele>1180.046</ele>
      </trkpt>
      <trkpt lat="46.37791" lon="5.96963">
        <ele>1180</ele>
      </trkpt>
      <trkpt lat="46.37781" lon="5.96958">
        <ele>1180</ele>
      </trkpt>
      <trkpt lat="46.37768" lon="5.9695">
        <ele>1179.712</ele>
      </trkpt>
      <trkpt lat="46.37757" lon="5.96943">
        <ele>1179.191</ele>
      </trkpt>
      <trkpt lat="46.3775" lon="5.96931">
        <ele>1178.536</ele>
      </trkpt>
      <trkpt lat="46.37737" lon="5.96914">
        <ele>1177.96</ele>
      </trkpt>
      <trkpt lat="46.37729" lon="5.96897">
        <ele>1177.47</ele>
      </trkpt>
      <trkpt lat="46.37723" lon="5.96882">
        <ele>1177.007</ele>
      </trkpt>
      <trkpt lat="46.37713" lon="5.96865">
        <ele>1178.007</ele>
      </trkpt>
      <trkpt lat="46.37703" lon="5.96847">
        <ele>1178.873</ele>
      </trkpt>
      <trkpt lat="46.37697" lon="5.96834">
        <ele>1179.627</ele>
      </trkpt>
      <trkpt lat="46.37691" lon="5.96812">
        <ele>1179.971</ele>
      </trkpt>
      <trkpt lat="46.3769" lon="5.96786">
        <ele>1180</ele>
      </trkpt>
      <trkpt lat="46.37692" lon="5.96776">
        <ele>1180</ele>
      </trkpt>
      <trkpt lat="46.37677" lon="5.96792">
        <ele>1180</ele>
      </trkpt>
      <trkpt lat="46.37659" lon="5.96813">
        <ele>1179.539</ele>
      </trkpt>
      <trkpt lat="46.37645" lon="5.9684">
        <ele>1179</ele>
      </trkpt>
      <trkpt lat="46.37628" lon="5.96868">
        <ele>1178.622</ele>
      </trkpt>
      <trkpt lat="46.37616" lon="5.96901">
        <ele>1178.099</ele>
      </trkpt>
      <trkpt lat="46.37603" lon="5.96928">
        <ele>1177.415</ele>
      </trkpt>
      <trkpt lat="46.37596" lon="5.96945">
        <ele>1177</ele>
      </trkpt>
      <trkpt lat="46.37587" lon="5.96964">
        <ele>1177</ele>
      </trkpt>
      <trkpt lat="46.37576" lon="5.96996">
        <ele>1175.869</ele>
      </trkpt>
      <trkpt lat="46.37567" lon="5.97023">
        <ele>1176.253</ele>
      </trkpt>
      <trkpt lat="46.37559" lon="5.97063">
        <ele>1176.163</ele>
      </trkpt>
      <trkpt lat="46.37553" lon="5.97089">
        <ele>1175.971</ele>
      </trkpt>
      <trkpt lat="46.37548" lon="5.97123">
        <ele>1176.203</ele>
      </trkpt>
      <trkpt lat="46.37545" lon="5.97145">
        <ele>1175.881</ele>
      </trkpt>
      <trkpt lat="46.37535" lon="5.97176">
        <ele>1174.891</ele>
      </trkpt>
      <trkpt lat="46.37525" lon="5.97208">
        <ele>1174.524</ele>
      </trkpt>
      <trkpt lat="46.37507" lon="5.97247">
        <ele>1176.717</ele>
      </trkpt>
      <trkpt lat="46.37492" lon="5.97277">
        <ele>1178.628</ele>
      </trkpt>
      <trkpt lat="46.37482" lon="5.97304">
        <ele>1179.221</ele>
      </trkpt>
    </trkseg>
  </trk>
  <trk>
    <name><![CDATA[GTJ Labergement &gt; Bellegarde_6]]></name>
    <trkseg>
      <trkpt lat="46.37482" lon="5.97304">
        <ele>1179.221</ele>
      </trkpt>
      <trkpt lat="46.37482" lon="5.97304">
        <ele>1179.221</ele>
      </trkpt>
      <trkpt lat="46.37473" lon="5.97336">
        <ele>1179.067</ele>
      </trkpt>
      <trkpt lat="46.37469" lon="5.97394">
        <ele>1178.604</ele>
      </trkpt>
      <trkpt lat="46.37462" lon="5.97447">
        <ele>1177.934</ele>
      </trkpt>
      <trkpt lat="46.37454" lon="5.97513">
        <ele>1177.3</ele>
      </trkpt>
      <trkpt lat="46.3745" lon="5.97542">
        <ele>1176.314</ele>
      </trkpt>
      <trkpt lat="46.37446" lon="5.97562">
        <ele>1175.281</ele>
      </trkpt>
      <trkpt lat="46.37446" lon="5.97578">
        <ele>1175.23</ele>
      </trkpt>
      <trkpt lat="46.37432" lon="5.97579">
        <ele>1172.878</ele>
      </trkpt>
      <trkpt lat="46.37421" lon="5.97578">
        <ele>1170.947</ele>
      </trkpt>
      <trkpt lat="46.37407" lon="5.97559">
        <ele>1170.569</ele>
      </trkpt>
      <trkpt lat="46.37393" lon="5.97542">
        <ele>1170.144</ele>
      </trkpt>
      <trkpt lat="46.37375" lon="5.97511">
        <ele>1170</ele>
      </trkpt>
      <trkpt lat="46.37359" lon="5.97492">
        <ele>1170</ele>
      </trkpt>
      <trkpt lat="46.37346" lon="5.9747">
        <ele>1170</ele>
      </trkpt>
      <trkpt lat="46.37339" lon="5.97462">
        <ele>1170</ele>
      </trkpt>
      <trkpt lat="46.37334" lon="5.97444">
        <ele>1170</ele>
      </trkpt>
      <trkpt lat="46.37328" lon="5.97419">
        <ele>1170</ele>
      </trkpt>
      <trkpt lat="46.37327" lon="5.97396">
        <ele>1170</ele>
      </trkpt>
      <trkpt lat="46.37321" lon="5.97371">
        <ele>1170</ele>
      </trkpt>
      <trkpt lat="46.37317" lon="5.97356">
        <ele>1170</ele>
      </trkpt>
      <trkpt lat="46.37307" lon="5.9733">
        <ele>1170</ele>
      </trkpt>
      <trkpt lat="46.37287" lon="5.97307">
        <ele>1170</ele>
      </trkpt>
      <trkpt lat="46.3727" lon="5.97283">
        <ele>1170</ele>
      </trkpt>
      <trkpt lat="46.3724" lon="5.97252">
        <ele>1170</ele>
      </trkpt>
      <trkpt lat="46.37212" lon="5.97213">
        <ele>1170</ele>
      </trkpt>
      <trkpt lat="46.37198" lon="5.97195">
        <ele>1170</ele>
      </trkpt>
      <trkpt lat="46.37175" lon="5.97166">
        <ele>1170.309</ele>
      </trkpt>
      <trkpt lat="46.3715" lon="5.97134">
        <ele>1170</ele>
      </trkpt>
      <trkpt lat="46.37125" lon="5.97099">
        <ele>1171.555</ele>
      </trkpt>
      <trkpt lat="46.37096" lon="5.97057">
        <ele>1175.279</ele>
      </trkpt>
      <trkpt lat="46.37077" lon="5.9703">
        <ele>1174.891</ele>
      </trkpt>
      <trkpt lat="46.37069" lon="5.97011">
        <ele>1173.559</ele>
      </trkpt>
      <trkpt lat="46.37064" lon="5.96993">
        <ele>1172.331</ele>
      </trkpt>
      <trkpt lat="46.37053" lon="5.96968">
        <ele>1170.77</ele>
      </trkpt>
      <trkpt lat="46.37046" lon="5.96953">
        <ele>1170.192</ele>
      </trkpt>
      <trkpt lat="46.37029" lon="5.96934">
        <ele>1169.618</ele>
      </trkpt>
      <trkpt lat="46.37013" lon="5.96918">
        <ele>1167.996</ele>
      </trkpt>
      <trkpt lat="46.36986" lon="5.96897">
        <ele>1165.621</ele>
      </trkpt>
      <trkpt lat="46.36966" lon="5.96877">
        <ele>1165</ele>
      </trkpt>
      <trkpt lat="46.3694" lon="5.96851">
        <ele>1165</ele>
      </trkpt>
      <trkpt lat="46.36929" lon="5.96836">
        <ele>1165</ele>
      </trkpt>
      <trkpt lat="46.36921" lon="5.96824">
        <ele>1165</ele>
      </trkpt>
      <trkpt lat="46.36904" lon="5.96813">
        <ele>1165.246</ele>
      </trkpt>
      <trkpt lat="46.36894" lon="5.96799">
        <ele>1164.821</ele>
      </trkpt>
      <trkpt lat="46.36879" lon="5.96776">
        <ele>1163.282</ele>
      </trkpt>
      <trkpt lat="46.36869" lon="5.96752">
        <ele>1161.884</ele>
      </trkpt>
      <trkpt lat="46.36862" lon="5.96721">
        <ele>1160.086</ele>
      </trkpt>
      <trkpt lat="46.36846" lon="5.9666">
        <ele>1160</ele>
      </trkpt>
      <trkpt lat="46.36836" lon="5.96609">
        <ele>1160</ele>
      </trkpt>
      <trkpt lat="46.36826" lon="5.96562">
        <ele>1160</ele>
      </trkpt>
      <trkpt lat="46.36817" lon="5.96518">
        <ele>1161.038</ele>
      </trkpt>
      <trkpt lat="46.36809" lon="5.96478">
        <ele>1162.642</ele>
      </trkpt>
      <trkpt lat="46.36804" lon="5.96457">
        <ele>1163.735</ele>
      </trkpt>
      <trkpt lat="46.36799" lon="5.96432">
        <ele>1164.698</ele>
      </trkpt>
      <trkpt lat="46.36795" lon="5.96393">
        <ele>1166.035</ele>
      </trkpt>
      <trkpt lat="46.36795" lon="5.96362">
        <ele>1166.185</ele>
      </trkpt>
      <trkpt lat="46.36792" lon="5.96332">
        <ele>1167.448</ele>
      </trkpt>
      <trkpt lat="46.36785" lon="5.96311">
        <ele>1168.225</ele>
      </trkpt>
      <trkpt lat="46.36774" lon="5.96289">
        <ele>1169.651</ele>
      </trkpt>
      <trkpt lat="46.36755" lon="5.96249">
        <ele>1171.858</ele>
      </trkpt>
      <trkpt lat="46.3674" lon="5.96212">
        <ele>1173.519</ele>
      </trkpt>
      <trkpt lat="46.36724" lon="5.96191">
        <ele>1175.075</ele>
      </trkpt>
      <trkpt lat="46.36698" lon="5.96167">
        <ele>1176</ele>
      </trkpt>
      <trkpt lat="46.36664" lon="5.96129">
        <ele>1180.891</ele>
      </trkpt>
      <trkpt lat="46.3663" lon="5.96099">
        <ele>1180.895</ele>
      </trkpt>
      <trkpt lat="46.36587" lon="5.96063">
        <ele>1182.014</ele>
      </trkpt>
      <trkpt lat="46.36555" lon="5.96038">
        <ele>1186.086</ele>
      </trkpt>
      <trkpt lat="46.36525" lon="5.96019">
        <ele>1188.211</ele>
      </trkpt>
      <trkpt lat="46.36508" lon="5.96008">
        <ele>1188.651</ele>
      </trkpt>
      <trkpt lat="46.36497" lon="5.95992">
        <ele>1190.811</ele>
      </trkpt>
      <trkpt lat="46.36478" lon="5.95958">
        <ele>1197.768</ele>
      </trkpt>
      <trkpt lat="46.36455" lon="5.95926">
        <ele>1202.824</ele>
      </trkpt>
      <trkpt lat="46.36437" lon="5.959">
        <ele>1206.252</ele>
      </trkpt>
      <trkpt lat="46.3642" lon="5.95881">
        <ele>1208.002</ele>
      </trkpt>
      <trkpt lat="46.36402" lon="5.95864">
        <ele>1208.463</ele>
      </trkpt>
      <trkpt lat="46.36389" lon="5.95844">
        <ele>1209.265</ele>
      </trkpt>
      <trkpt lat="46.36381" lon="5.95824">
        <ele>1210.373</ele>
      </trkpt>
      <trkpt lat="46.36378" lon="5.95804">
        <ele>1211.872</ele>
      </trkpt>
      <trkpt lat="46.36382" lon="5.9577">
        <ele>1212.537</ele>
      </trkpt>
      <trkpt lat="46.36395" lon="5.95735">
        <ele>1211.156</ele>
      </trkpt>
      <trkpt lat="46.36402" lon="5.95716">
        <ele>1210.183</ele>
      </trkpt>
      <trkpt lat="46.36412" lon="5.95697">
        <ele>1209.112</ele>
      </trkpt>
      <trkpt lat="46.36423" lon="5.95675">
        <ele>1210.251</ele>
      </trkpt>
      <trkpt lat="46.36435" lon="5.95665">
        <ele>1210.593</ele>
      </trkpt>
      <trkpt lat="46.36448" lon="5.95665">
        <ele>1210.145</ele>
      </trkpt>
      <trkpt lat="46.36458" lon="5.95664">
        <ele>1210.247</ele>
      </trkpt>
      <trkpt lat="46.3646" lon="5.95655">
        <ele>1211.283</ele>
      </trkpt>
      <trkpt lat="46.36461" lon="5.9564">
        <ele>1212.86</ele>
      </trkpt>
      <trkpt lat="46.36448" lon="5.95618">
        <ele>1215.887</ele>
      </trkpt>
      <trkpt lat="46.3643" lon="5.95602">
        <ele>1219.11</ele>
      </trkpt>
      <trkpt lat="46.36397" lon="5.95592">
        <ele>1220.552</ele>
      </trkpt>
      <trkpt lat="46.36365" lon="5.9558">
        <ele>1224.088</ele>
      </trkpt>
      <trkpt lat="46.36326" lon="5.95566">
        <ele>1226.752</ele>
      </trkpt>
      <trkpt lat="46.36281" lon="5.95552">
        <ele>1228.405</ele>
      </trkpt>
      <trkpt lat="46.36242" lon="5.95538">
        <ele>1230.195</ele>
      </trkpt>
      <trkpt lat="46.36213" lon="5.95536">
        <ele>1229.513</ele>
      </trkpt>
      <trkpt lat="46.36188" lon="5.95531">
        <ele>1229.909</ele>
      </trkpt>
      <trkpt lat="46.36168" lon="5.95526">
        <ele>1230.149</ele>
      </trkpt>
      <trkpt lat="46.3615" lon="5.95515">
        <ele>1232.298</ele>
      </trkpt>
      <trkpt lat="46.36129" lon="5.95503">
        <ele>1235.716</ele>
      </trkpt>
      <trkpt lat="46.36099" lon="5.9548">
        <ele>1239</ele>
      </trkpt>
      <trkpt lat="46.36076" lon="5.95457">
        <ele>1239.554</ele>
      </trkpt>
      <trkpt lat="46.36054" lon="5.95441">
        <ele>1240.126</ele>
      </trkpt>
      <trkpt lat="46.36031" lon="5.95425">
        <ele>1240.078</ele>
      </trkpt>
      <trkpt lat="46.36002" lon="5.95402">
        <ele>1241.179</ele>
      </trkpt>
      <trkpt lat="46.35968" lon="5.95385">
        <ele>1240.283</ele>
      </trkpt>
      <trkpt lat="46.35965" lon="5.95376">
        <ele>1240.974</ele>
      </trkpt>
      <trkpt lat="46.35964" lon="5.95362">
        <ele>1242.37</ele>
      </trkpt>
      <trkpt lat="46.35964" lon="5.95347">
        <ele>1244.414</ele>
      </trkpt>
      <trkpt lat="46.35963" lon="5.95323">
        <ele>1247.905</ele>
      </trkpt>
      <trkpt lat="46.35959" lon="5.953">
        <ele>1251.284</ele>
      </trkpt>
      <trkpt lat="46.35955" lon="5.95281">
        <ele>1254.495</ele>
      </trkpt>
      <trkpt lat="46.35948" lon="5.95271">
        <ele>1256.059</ele>
      </trkpt>
      <trkpt lat="46.35931" lon="5.95264">
        <ele>1256.18</ele>
      </trkpt>
      <trkpt lat="46.35914" lon="5.95254">
        <ele>1256.629</ele>
      </trkpt>
      <trkpt lat="46.35898" lon="5.95243">
        <ele>1257.425</ele>
      </trkpt>
      <trkpt lat="46.35888" lon="5.95235">
        <ele>1258.246</ele>
      </trkpt>
      <trkpt lat="46.35884" lon="5.95231">
        <ele>1258.427</ele>
      </trkpt>
      <trkpt lat="46.35868" lon="5.9522">
        <ele>1258.496</ele>
      </trkpt>
      <trkpt lat="46.35855" lon="5.95213">
        <ele>1258.376</ele>
      </trkpt>
      <trkpt lat="46.3584" lon="5.95209">
        <ele>1257.615</ele>
      </trkpt>
      <trkpt lat="46.35823" lon="5.95204">
        <ele>1255.99</ele>
      </trkpt>
      <trkpt lat="46.35811" lon="5.95194">
        <ele>1256.097</ele>
      </trkpt>
      <trkpt lat="46.35802" lon="5.9518">
        <ele>1257.676</ele>
      </trkpt>
      <trkpt lat="46.35794" lon="5.95163">
        <ele>1260.384</ele>
      </trkpt>
      <trkpt lat="46.35778" lon="5.95156">
        <ele>1260.4</ele>
      </trkpt>
      <trkpt lat="46.35763" lon="5.95145">
        <ele>1260.411</ele>
      </trkpt>
      <trkpt lat="46.3575" lon="5.95131">
        <ele>1261.355</ele>
      </trkpt>
      <trkpt lat="46.35736" lon="5.95111">
        <ele>1263.011</ele>
      </trkpt>
      <trkpt lat="46.35723" lon="5.951">
        <ele>1262.646</ele>
      </trkpt>
      <trkpt lat="46.35708" lon="5.95096">
        <ele>1260.196</ele>
      </trkpt>
      <trkpt lat="46.357" lon="5.95095">
        <ele>1258.632</ele>
      </trkpt>
      <trkpt lat="46.35691" lon="5.95077">
        <ele>1260.6</ele>
      </trkpt>
      <trkpt lat="46.35682" lon="5.95055">
        <ele>1263.487</ele>
      </trkpt>
      <trkpt lat="46.35682" lon="5.95034">
        <ele>1267.89</ele>
      </trkpt>
      <trkpt lat="46.35683" lon="5.95013">
        <ele>1272.831</ele>
      </trkpt>
      <trkpt lat="46.35679" lon="5.94995">
        <ele>1276.141</ele>
      </trkpt>
      <trkpt lat="46.35676" lon="5.94978">
        <ele>1278.833</ele>
      </trkpt>
      <trkpt lat="46.35666" lon="5.9496">
        <ele>1281.654</ele>
      </trkpt>
      <trkpt lat="46.35647" lon="5.94939">
        <ele>1283.408</ele>
      </trkpt>
      <trkpt lat="46.35624" lon="5.94908">
        <ele>1286.364</ele>
      </trkpt>
      <trkpt lat="46.35598" lon="5.9488">
        <ele>1287.812</ele>
      </trkpt>
      <trkpt lat="46.35578" lon="5.94856">
        <ele>1289.856</ele>
      </trkpt>
      <trkpt lat="46.35558" lon="5.94834">
        <ele>1291.134</ele>
      </trkpt>
      <trkpt lat="46.35537" lon="5.94806">
        <ele>1292.186</ele>
      </trkpt>
      <trkpt lat="46.35521" lon="5.94784">
        <ele>1293.36</ele>
      </trkpt>
      <trkpt lat="46.35499" lon="5.94758">
        <ele>1297.118</ele>
      </trkpt>
      <trkpt lat="46.35483" lon="5.94736">
        <ele>1298.888</ele>
      </trkpt>
      <trkpt lat="46.35471" lon="5.94719">
        <ele>1299.828</ele>
      </trkpt>
      <trkpt lat="46.35463" lon="5.94699">
        <ele>1299.335</ele>
      </trkpt>
      <trkpt lat="46.35451" lon="5.94684">
        <ele>1299.857</ele>
      </trkpt>
      <trkpt lat="46.35447" lon="5.94667">
        <ele>1299.999</ele>
      </trkpt>
      <trkpt lat="46.35451" lon="5.94653">
        <ele>1300</ele>
      </trkpt>
      <trkpt lat="46.3546" lon="5.94627">
        <ele>1300.646</ele>
      </trkpt>
      <trkpt lat="46.35472" lon="5.94602">
        <ele>1302.637</ele>
      </trkpt>
      <trkpt lat="46.3548" lon="5.94578">
        <ele>1304.418</ele>
      </trkpt>
      <trkpt lat="46.35487" lon="5.94558">
        <ele>1304.966</ele>
      </trkpt>
      <trkpt lat="46.3549" lon="5.94546">
        <ele>1305</ele>
      </trkpt>
      <trkpt lat="46.35489" lon="5.94528">
        <ele>1305</ele>
      </trkpt>
      <trkpt lat="46.35483" lon="5.94505">
        <ele>1304.188</ele>
      </trkpt>
      <trkpt lat="46.35474" lon="5.94488">
        <ele>1304</ele>
      </trkpt>
      <trkpt lat="46.35453" lon="5.94471">
        <ele>1304</ele>
      </trkpt>
      <trkpt lat="46.35435" lon="5.94458">
        <ele>1304</ele>
      </trkpt>
      <trkpt lat="46.35416" lon="5.94454">
        <ele>1304.014</ele>
      </trkpt>
      <trkpt lat="46.35399" lon="5.94444">
        <ele>1304.002</ele>
      </trkpt>
      <trkpt lat="46.35378" lon="5.94432">
        <ele>1304.462</ele>
      </trkpt>
      <trkpt lat="46.35364" lon="5.94421">
        <ele>1304.847</ele>
      </trkpt>
      <trkpt lat="46.35352" lon="5.94412">
        <ele>1305.793</ele>
      </trkpt>
      <trkpt lat="46.35334" lon="5.94398">
        <ele>1307.35</ele>
      </trkpt>
      <trkpt lat="46.35319" lon="5.94385">
        <ele>1308.125</ele>
      </trkpt>
      <trkpt lat="46.35307" lon="5.94368">
        <ele>1308.739</ele>
      </trkpt>
      <trkpt lat="46.35294" lon="5.94356">
        <ele>1308.674</ele>
      </trkpt>
      <trkpt lat="46.35285" lon="5.94343">
        <ele>1308.438</ele>
      </trkpt>
      <trkpt lat="46.35266" lon="5.94327">
        <ele>1307.521</ele>
      </trkpt>
      <trkpt lat="46.35256" lon="5.94318">
        <ele>1307.4</ele>
      </trkpt>
      <trkpt lat="46.35245" lon="5.94307">
        <ele>1307.872</ele>
      </trkpt>
      <trkpt lat="46.35235" lon="5.943">
        <ele>1308.495</ele>
      </trkpt>
      <trkpt lat="46.35225" lon="5.94291">
        <ele>1309.483</ele>
      </trkpt>
      <trkpt lat="46.35222" lon="5.94273">
        <ele>1311.301</ele>
      </trkpt>
      <trkpt lat="46.35223" lon="5.94251">
        <ele>1312.956</ele>
      </trkpt>
      <trkpt lat="46.35227" lon="5.94235">
        <ele>1313.728</ele>
      </trkpt>
      <trkpt lat="46.35233" lon="5.94222">
        <ele>1314.756</ele>
      </trkpt>
      <trkpt lat="46.35238" lon="5.94198">
        <ele>1316</ele>
      </trkpt>
      <trkpt lat="46.35238" lon="5.94188">
        <ele>1316.149</ele>
      </trkpt>
      <trkpt lat="46.35233" lon="5.94167">
        <ele>1315.793</ele>
      </trkpt>
      <trkpt lat="46.35231" lon="5.94128">
        <ele>1314.23</ele>
      </trkpt>
      <trkpt lat="46.35232" lon="5.94094">
        <ele>1311.451</ele>
      </trkpt>
      <trkpt lat="46.3523" lon="5.94071">
        <ele>1309.488</ele>
      </trkpt>
      <trkpt lat="46.35233" lon="5.94046">
        <ele>1307.958</ele>
      </trkpt>
      <trkpt lat="46.3524" lon="5.94024">
        <ele>1307.743</ele>
      </trkpt>
      <trkpt lat="46.35249" lon="5.94">
        <ele>1307.818</ele>
      </trkpt>
      <trkpt lat="46.35262" lon="5.93983">
        <ele>1308.417</ele>
      </trkpt>
      <trkpt lat="46.35254" lon="5.93967">
        <ele>1307.979</ele>
      </trkpt>
      <trkpt lat="46.35242" lon="5.9395">
        <ele>1305.812</ele>
      </trkpt>
      <trkpt lat="46.35233" lon="5.93934">
        <ele>1305.314</ele>
      </trkpt>
      <trkpt lat="46.35216" lon="5.9393">
        <ele>1303.939</ele>
      </trkpt>
      <trkpt lat="46.35199" lon="5.93924">
        <ele>1302.828</ele>
      </trkpt>
      <trkpt lat="46.35183" lon="5.93918">
        <ele>1301.644</ele>
      </trkpt>
      <trkpt lat="46.35169" lon="5.93907">
        <ele>1301.346</ele>
      </trkpt>
      <trkpt lat="46.35149" lon="5.93893">
        <ele>1300.888</ele>
      </trkpt>
      <trkpt lat="46.35134" lon="5.93879">
        <ele>1300.956</ele>
      </trkpt>
      <trkpt lat="46.35119" lon="5.9387">
        <ele>1301.07</ele>
      </trkpt>
      <trkpt lat="46.3511" lon="5.93863">
        <ele>1301.022</ele>
      </trkpt>
      <trkpt lat="46.35102" lon="5.93848">
        <ele>1302.991</ele>
      </trkpt>
      <trkpt lat="46.35096" lon="5.93833">
        <ele>1304.602</ele>
      </trkpt>
      <trkpt lat="46.35096" lon="5.9381">
        <ele>1306.63</ele>
      </trkpt>
      <trkpt lat="46.35094" lon="5.93792">
        <ele>1307.994</ele>
      </trkpt>
      <trkpt lat="46.35086" lon="5.93777">
        <ele>1309.044</ele>
      </trkpt>
      <trkpt lat="46.3508" lon="5.93768">
        <ele>1309.418</ele>
      </trkpt>
      <trkpt lat="46.35072" lon="5.93746">
        <ele>1310.053</ele>
      </trkpt>
      <trkpt lat="46.35066" lon="5.9372">
        <ele>1310.668</ele>
      </trkpt>
      <trkpt lat="46.35064" lon="5.93695">
        <ele>1311.398</ele>
      </trkpt>
      <trkpt lat="46.3506" lon="5.93671">
        <ele>1312.411</ele>
      </trkpt>
      <trkpt lat="46.35056" lon="5.93641">
        <ele>1312.008</ele>
      </trkpt>
      <trkpt lat="46.35048" lon="5.93616">
        <ele>1310.308</ele>
      </trkpt>
      <trkpt lat="46.35038" lon="5.93591">
        <ele>1310.336</ele>
      </trkpt>
      <trkpt lat="46.35022" lon="5.93566">
        <ele>1312.204</ele>
      </trkpt>
      <trkpt lat="46.34998" lon="5.9354">
        <ele>1311.738</ele>
      </trkpt>
      <trkpt lat="46.34975" lon="5.93517">
        <ele>1311.058</ele>
      </trkpt>
      <trkpt lat="46.34957" lon="5.93503">
        <ele>1310.871</ele>
      </trkpt>
      <trkpt lat="46.34919" lon="5.9347">
        <ele>1310.178</ele>
      </trkpt>
      <trkpt lat="46.34881" lon="5.93441">
        <ele>1309.578</ele>
      </trkpt>
      <trkpt lat="46.3485" lon="5.93411">
        <ele>1306.432</ele>
      </trkpt>
      <trkpt lat="46.34826" lon="5.93389">
        <ele>1303.182</ele>
      </trkpt>
      <trkpt lat="46.3479" lon="5.93364">
        <ele>1300.917</ele>
      </trkpt>
      <trkpt lat="46.3475" lon="5.93333">
        <ele>1299.986</ele>
      </trkpt>
      <trkpt lat="46.34727" lon="5.93319">
        <ele>1298.628</ele>
      </trkpt>
      <trkpt lat="46.34712" lon="5.93311">
        <ele>1297.916</ele>
      </trkpt>
      <trkpt lat="46.34688" lon="5.93293">
        <ele>1296.865</ele>
      </trkpt>
      <trkpt lat="46.34672" lon="5.93278">
        <ele>1295.529</ele>
      </trkpt>
      <trkpt lat="46.34661" lon="5.93264">
        <ele>1295.176</ele>
      </trkpt>
      <trkpt lat="46.3465" lon="5.93247">
        <ele>1294.777</ele>
      </trkpt>
      <trkpt lat="46.34631" lon="5.9323">
        <ele>1293.134</ele>
      </trkpt>
      <trkpt lat="46.34614" lon="5.93217">
        <ele>1291.754</ele>
      </trkpt>
      <trkpt lat="46.34593" lon="5.93201">
        <ele>1290.469</ele>
      </trkpt>
      <trkpt lat="46.34574" lon="5.93184">
        <ele>1290</ele>
      </trkpt>
      <trkpt lat="46.34561" lon="5.93166">
        <ele>1290.002</ele>
      </trkpt>
      <trkpt lat="46.34546" lon="5.93154">
        <ele>1289.842</ele>
      </trkpt>
      <trkpt lat="46.34525" lon="5.93136">
        <ele>1288.502</ele>
      </trkpt>
      <trkpt lat="46.34507" lon="5.93121">
        <ele>1283.651</ele>
      </trkpt>
      <trkpt lat="46.34483" lon="5.93108">
        <ele>1280.551</ele>
      </trkpt>
      <trkpt lat="46.3447" lon="5.93099">
        <ele>1279.887</ele>
      </trkpt>
      <trkpt lat="46.34452" lon="5.93086">
        <ele>1278.645</ele>
      </trkpt>
      <trkpt lat="46.34444" lon="5.93076">
        <ele>1277.62</ele>
      </trkpt>
      <trkpt lat="46.34435" lon="5.93064">
        <ele>1275.718</ele>
      </trkpt>
      <trkpt lat="46.3443" lon="5.93037">
        <ele>1275.116</ele>
      </trkpt>
      <trkpt lat="46.34431" lon="5.93011">
        <ele>1278.831</ele>
      </trkpt>
      <trkpt lat="46.34432" lon="5.92982">
        <ele>1285.908</ele>
      </trkpt>
      <trkpt lat="46.34433" lon="5.92969">
        <ele>1288.555</ele>
      </trkpt>
      <trkpt lat="46.3444" lon="5.92949">
        <ele>1288.265</ele>
      </trkpt>
      <trkpt lat="46.34446" lon="5.9293">
        <ele>1287.016</ele>
      </trkpt>
      <trkpt lat="46.34453" lon="5.92907">
        <ele>1285.508</ele>
      </trkpt>
      <trkpt lat="46.34453" lon="5.92881">
        <ele>1283.449</ele>
      </trkpt>
      <trkpt lat="46.34444" lon="5.92866">
        <ele>1282.378</ele>
      </trkpt>
      <trkpt lat="46.34428" lon="5.92852">
        <ele>1281.92</ele>
      </trkpt>
      <trkpt lat="46.34415" lon="5.92837">
        <ele>1281.274</ele>
      </trkpt>
      <trkpt lat="46.34401" lon="5.92821">
        <ele>1280.464</ele>
      </trkpt>
      <trkpt lat="46.34393" lon="5.92806">
        <ele>1279.741</ele>
      </trkpt>
      <trkpt lat="46.34383" lon="5.92782">
        <ele>1276.191</ele>
      </trkpt>
      <trkpt lat="46.34369" lon="5.92764">
        <ele>1273.336</ele>
      </trkpt>
      <trkpt lat="46.34357" lon="5.92747">
        <ele>1270.518</ele>
      </trkpt>
      <trkpt lat="46.34345" lon="5.92739">
        <ele>1269.847</ele>
      </trkpt>
      <trkpt lat="46.34334" lon="5.92727">
        <ele>1268.633</ele>
      </trkpt>
      <trkpt lat="46.34334" lon="5.92716">
        <ele>1266.565</ele>
      </trkpt>
      <trkpt lat="46.34347" lon="5.9271">
        <ele>1264.587</ele>
      </trkpt>
      <trkpt lat="46.34361" lon="5.92713">
        <ele>1264.286</ele>
      </trkpt>
      <trkpt lat="46.34379" lon="5.92717">
        <ele>1266.161</ele>
      </trkpt>
      <trkpt lat="46.34389" lon="5.92718">
        <ele>1266.824</ele>
      </trkpt>
      <trkpt lat="46.34396" lon="5.92705">
        <ele>1267.289</ele>
      </trkpt>
      <trkpt lat="46.34391" lon="5.92695">
        <ele>1266.256</ele>
      </trkpt>
      <trkpt lat="46.34385" lon="5.9268">
        <ele>1264.396</ele>
      </trkpt>
      <trkpt lat="46.34385" lon="5.92667">
        <ele>1263.413</ele>
      </trkpt>
      <trkpt lat="46.34396" lon="5.92643">
        <ele>1264.597</ele>
      </trkpt>
      <trkpt lat="46.34404" lon="5.92624">
        <ele>1266.315</ele>
      </trkpt>
      <trkpt lat="46.34405" lon="5.92597">
        <ele>1266.609</ele>
      </trkpt>
      <trkpt lat="46.34404" lon="5.92571">
        <ele>1265.744</ele>
      </trkpt>
      <trkpt lat="46.34403" lon="5.92537">
        <ele>1264.47</ele>
      </trkpt>
      <trkpt lat="46.34416" lon="5.92507">
        <ele>1264.563</ele>
      </trkpt>
      <trkpt lat="46.3443" lon="5.92494">
        <ele>1264.153</ele>
      </trkpt>
      <trkpt lat="46.34465" lon="5.92417">
        <ele>1265.712</ele>
      </trkpt>
      <trkpt lat="46.34485" lon="5.92368">
        <ele>1267.825</ele>
      </trkpt>
      <trkpt lat="46.34494" lon="5.92339">
        <ele>1268.741</ele>
      </trkpt>
      <trkpt lat="46.34501" lon="5.92312">
        <ele>1268.258</ele>
      </trkpt>
      <trkpt lat="46.34511" lon="5.92275">
        <ele>1264.043</ele>
      </trkpt>
      <trkpt lat="46.34511" lon="5.92258">
        <ele>1262.569</ele>
      </trkpt>
      <trkpt lat="46.34534" lon="5.92257">
        <ele>1258.821</ele>
      </trkpt>
      <trkpt lat="46.34556" lon="5.92262">
        <ele>1255.119</ele>
      </trkpt>
      <trkpt lat="46.3459" lon="5.92263">
        <ele>1252.902</ele>
      </trkpt>
      <trkpt lat="46.34608" lon="5.92264">
        <ele>1254.722</ele>
      </trkpt>
      <trkpt lat="46.34622" lon="5.9226">
        <ele>1257.958</ele>
      </trkpt>
      <trkpt lat="46.34629" lon="5.92246">
        <ele>1257.926</ele>
      </trkpt>
      <trkpt lat="46.34635" lon="5.92227">
        <ele>1255.945</ele>
      </trkpt>
      <trkpt lat="46.34646" lon="5.92201">
        <ele>1251.307</ele>
      </trkpt>
      <trkpt lat="46.34651" lon="5.92189">
        <ele>1247.412</ele>
      </trkpt>
      <trkpt lat="46.34664" lon="5.92186">
        <ele>1244.373</ele>
      </trkpt>
      <trkpt lat="46.3469" lon="5.92193">
        <ele>1241.315</ele>
      </trkpt>
      <trkpt lat="46.34702" lon="5.92195">
        <ele>1240.456</ele>
      </trkpt>
      <trkpt lat="46.34718" lon="5.92188">
        <ele>1236.427</ele>
      </trkpt>
      <trkpt lat="46.34736" lon="5.92172">
        <ele>1229.527</ele>
      </trkpt>
      <trkpt lat="46.34758" lon="5.92147">
        <ele>1220.554</ele>
      </trkpt>
      <trkpt lat="46.3477" lon="5.92133">
        <ele>1216.087</ele>
      </trkpt>
      <trkpt lat="46.34786" lon="5.92126">
        <ele>1214.422</ele>
      </trkpt>
      <trkpt lat="46.34809" lon="5.92126">
        <ele>1215.77</ele>
      </trkpt>
      <trkpt lat="46.34834" lon="5.92124">
        <ele>1214.735</ele>
      </trkpt>
      <trkpt lat="46.34848" lon="5.92124">
        <ele>1213.64</ele>
      </trkpt>
      <trkpt lat="46.34861" lon="5.92125">
        <ele>1212.936</ele>
      </trkpt>
      <trkpt lat="46.34872" lon="5.92125">
        <ele>1212.432</ele>
      </trkpt>
      <trkpt lat="46.3488" lon="5.92119">
        <ele>1211.282</ele>
      </trkpt>
      <trkpt lat="46.3489" lon="5.92112">
        <ele>1210.076</ele>
      </trkpt>
      <trkpt lat="46.34896" lon="5.92093">
        <ele>1208.676</ele>
      </trkpt>
      <trkpt lat="46.34906" lon="5.92085">
        <ele>1208.14</ele>
      </trkpt>
      <trkpt lat="46.34913" lon="5.92076">
        <ele>1207.471</ele>
      </trkpt>
      <trkpt lat="46.34923" lon="5.92065">
        <ele>1205.689</ele>
      </trkpt>
      <trkpt lat="46.34929" lon="5.92066">
        <ele>1204.599</ele>
      </trkpt>
      <trkpt lat="46.34956" lon="5.92076">
        <ele>1200.939</ele>
      </trkpt>
      <trkpt lat="46.34987" lon="5.92105">
        <ele>1201.372</ele>
      </trkpt>
      <trkpt lat="46.35011" lon="5.92123">
        <ele>1202.287</ele>
      </trkpt>
      <trkpt lat="46.35034" lon="5.92141">
        <ele>1202.375</ele>
      </trkpt>
      <trkpt lat="46.35047" lon="5.92152">
        <ele>1204.742</ele>
      </trkpt>
      <trkpt lat="46.35064" lon="5.92161">
        <ele>1206.682</ele>
      </trkpt>
      <trkpt lat="46.35082" lon="5.92164">
        <ele>1207.522</ele>
      </trkpt>
      <trkpt lat="46.35099" lon="5.9216">
        <ele>1204.789</ele>
      </trkpt>
      <trkpt lat="46.35126" lon="5.92152">
        <ele>1200.577</ele>
      </trkpt>
      <trkpt lat="46.35142" lon="5.92146">
        <ele>1199.051</ele>
      </trkpt>
      <trkpt lat="46.35163" lon="5.92133">
        <ele>1197.084</ele>
      </trkpt>
      <trkpt lat="46.35181" lon="5.92121">
        <ele>1196.365</ele>
      </trkpt>
      <trkpt lat="46.35197" lon="5.92113">
        <ele>1196.047</ele>
      </trkpt>
      <trkpt lat="46.35213" lon="5.92104">
        <ele>1195.914</ele>
      </trkpt>
      <trkpt lat="46.35226" lon="5.92088">
        <ele>1196.133</ele>
      </trkpt>
      <trkpt lat="46.35243" lon="5.92075">
        <ele>1196.682</ele>
      </trkpt>
      <trkpt lat="46.35257" lon="5.92069">
        <ele>1197.374</ele>
      </trkpt>
      <trkpt lat="46.35266" lon="5.92064">
        <ele>1197.994</ele>
      </trkpt>
      <trkpt lat="46.35273" lon="5.92059">
        <ele>1198.552</ele>
      </trkpt>
      <trkpt lat="46.35278" lon="5.92058">
        <ele>1198.906</ele>
      </trkpt>
      <trkpt lat="46.35278" lon="5.92046">
        <ele>1199.004</ele>
      </trkpt>
      <trkpt lat="46.35275" lon="5.9203">
        <ele>1198.803</ele>
      </trkpt>
      <trkpt lat="46.35272" lon="5.92">
        <ele>1199.307</ele>
      </trkpt>
      <trkpt lat="46.35271" lon="5.91981">
        <ele>1199.433</ele>
      </trkpt>
      <trkpt lat="46.35272" lon="5.9196">
        <ele>1199.656</ele>
      </trkpt>
      <trkpt lat="46.3527" lon="5.91942">
        <ele>1199.718</ele>
      </trkpt>
      <trkpt lat="46.35271" lon="5.91917">
        <ele>1199.746</ele>
      </trkpt>
      <trkpt lat="46.3527" lon="5.91906">
        <ele>1199.826</ele>
      </trkpt>
      <trkpt lat="46.35258" lon="5.91896">
        <ele>1199.831</ele>
      </trkpt>
      <trkpt lat="46.35235" lon="5.91884">
        <ele>1199.54</ele>
      </trkpt>
      <trkpt lat="46.35217" lon="5.91872">
        <ele>1199.362</ele>
      </trkpt>
      <trkpt lat="46.35204" lon="5.91866">
        <ele>1199.046</ele>
      </trkpt>
      <trkpt lat="46.35185" lon="5.9185">
        <ele>1198.857</ele>
      </trkpt>
      <trkpt lat="46.35172" lon="5.91835">
        <ele>1199.115</ele>
      </trkpt>
      <trkpt lat="46.35158" lon="5.91821">
        <ele>1198.184</ele>
      </trkpt>
      <trkpt lat="46.35149" lon="5.91804">
        <ele>1197.585</ele>
      </trkpt>
      <trkpt lat="46.35139" lon="5.91779">
        <ele>1197.931</ele>
      </trkpt>
      <trkpt lat="46.35132" lon="5.91759">
        <ele>1197.804</ele>
      </trkpt>
      <trkpt lat="46.35122" lon="5.91742">
        <ele>1196.957</ele>
      </trkpt>
      <trkpt lat="46.35103" lon="5.91726">
        <ele>1196.388</ele>
      </trkpt>
      <trkpt lat="46.35088" lon="5.91709">
        <ele>1196.475</ele>
      </trkpt>
      <trkpt lat="46.35071" lon="5.91696">
        <ele>1196.402</ele>
      </trkpt>
      <trkpt lat="46.35052" lon="5.9168">
        <ele>1194.676</ele>
      </trkpt>
      <trkpt lat="46.35028" lon="5.91658">
        <ele>1194.329</ele>
      </trkpt>
      <trkpt lat="46.35015" lon="5.91641">
        <ele>1193.989</ele>
      </trkpt>
      <trkpt lat="46.34998" lon="5.9162">
        <ele>1192.136</ele>
      </trkpt>
      <trkpt lat="46.34985" lon="5.91596">
        <ele>1190.903</ele>
      </trkpt>
      <trkpt lat="46.3497" lon="5.91577">
        <ele>1190</ele>
      </trkpt>
      <trkpt lat="46.34956" lon="5.9155">
        <ele>1190</ele>
      </trkpt>
      <trkpt lat="46.34928" lon="5.91511">
        <ele>1189.761</ele>
      </trkpt>
      <trkpt lat="46.34906" lon="5.91467">
        <ele>1188.381</ele>
      </trkpt>
      <trkpt lat="46.34887" lon="5.91434">
        <ele>1185.071</ele>
      </trkpt>
      <trkpt lat="46.3488" lon="5.91414">
        <ele>1184.25</ele>
      </trkpt>
      <trkpt lat="46.34874" lon="5.91396">
        <ele>1183.387</ele>
      </trkpt>
      <trkpt lat="46.34866" lon="5.91374">
        <ele>1182.633</ele>
      </trkpt>
      <trkpt lat="46.34856" lon="5.91357">
        <ele>1182.42</ele>
      </trkpt>
      <trkpt lat="46.34845" lon="5.91343">
        <ele>1182.546</ele>
      </trkpt>
      <trkpt lat="46.34835" lon="5.91325">
        <ele>1182.789</ele>
      </trkpt>
      <trkpt lat="46.34828" lon="5.91311">
        <ele>1183.912</ele>
      </trkpt>
      <trkpt lat="46.3482" lon="5.91298">
        <ele>1185.451</ele>
      </trkpt>
      <trkpt lat="46.34813" lon="5.91274">
        <ele>1187.056</ele>
      </trkpt>
      <trkpt lat="46.34808" lon="5.9125">
        <ele>1186.591</ele>
      </trkpt>
      <trkpt lat="46.34799" lon="5.91228">
        <ele>1187.373</ele>
      </trkpt>
      <trkpt lat="46.3479" lon="5.91208">
        <ele>1189.339</ele>
      </trkpt>
      <trkpt lat="46.34781" lon="5.91198">
        <ele>1191.896</ele>
      </trkpt>
      <trkpt lat="46.34776" lon="5.91181">
        <ele>1192.635</ele>
      </trkpt>
      <trkpt lat="46.34772" lon="5.91158">
        <ele>1192.914</ele>
      </trkpt>
      <trkpt lat="46.34768" lon="5.91125">
        <ele>1194.349</ele>
      </trkpt>
      <trkpt lat="46.34769" lon="5.91085">
        <ele>1195.757</ele>
      </trkpt>
      <trkpt lat="46.3477" lon="5.91054">
        <ele>1196.017</ele>
      </trkpt>
      <trkpt lat="46.34771" lon="5.91028">
        <ele>1196.512</ele>
      </trkpt>
      <trkpt lat="46.34775" lon="5.91">
        <ele>1196.483</ele>
      </trkpt>
      <trkpt lat="46.34773" lon="5.90981">
        <ele>1197.845</ele>
      </trkpt>
      <trkpt lat="46.34761" lon="5.90948">
        <ele>1199.023</ele>
      </trkpt>
      <trkpt lat="46.34753" lon="5.90916">
        <ele>1198.19</ele>
      </trkpt>
      <trkpt lat="46.34744" lon="5.90889">
        <ele>1197.479</ele>
      </trkpt>
      <trkpt lat="46.34744" lon="5.90859">
        <ele>1196.143</ele>
      </trkpt>
      <trkpt lat="46.34742" lon="5.90824">
        <ele>1194.953</ele>
      </trkpt>
      <trkpt lat="46.34743" lon="5.90798">
        <ele>1193.794</ele>
      </trkpt>
      <trkpt lat="46.34749" lon="5.90753">
        <ele>1191.155</ele>
      </trkpt>
      <trkpt lat="46.34757" lon="5.90723">
        <ele>1191.004</ele>
      </trkpt>
      <trkpt lat="46.34766" lon="5.90691">
        <ele>1189.617</ele>
      </trkpt>
      <trkpt lat="46.34782" lon="5.90653">
        <ele>1185.553</ele>
      </trkpt>
      <trkpt lat="46.34797" lon="5.9063">
        <ele>1184.736</ele>
      </trkpt>
      <trkpt lat="46.34812" lon="5.90603">
        <ele>1183.309</ele>
      </trkpt>
      <trkpt lat="46.34822" lon="5.90578">
        <ele>1180.737</ele>
      </trkpt>
      <trkpt lat="46.34829" lon="5.90529">
        <ele>1178.054</ele>
      </trkpt>
      <trkpt lat="46.34828" lon="5.90503">
        <ele>1176.404</ele>
      </trkpt>
      <trkpt lat="46.34822" lon="5.9047">
        <ele>1175.293</ele>
      </trkpt>
      <trkpt lat="46.34818" lon="5.90436">
        <ele>1173.826</ele>
      </trkpt>
      <trkpt lat="46.34811" lon="5.90401">
        <ele>1172.966</ele>
      </trkpt>
      <trkpt lat="46.34803" lon="5.9037">
        <ele>1172.415</ele>
      </trkpt>
      <trkpt lat="46.34789" lon="5.90346">
        <ele>1172.387</ele>
      </trkpt>
      <trkpt lat="46.34774" lon="5.90334">
        <ele>1173.309</ele>
      </trkpt>
      <trkpt lat="46.34757" lon="5.90321">
        <ele>1174.173</ele>
      </trkpt>
      <trkpt lat="46.34737" lon="5.90315">
        <ele>1175.287</ele>
      </trkpt>
      <trkpt lat="46.34719" lon="5.90311">
        <ele>1176.393</ele>
      </trkpt>
      <trkpt lat="46.34702" lon="5.9031">
        <ele>1177.483</ele>
      </trkpt>
      <trkpt lat="46.34685" lon="5.90307">
        <ele>1178.326</ele>
      </trkpt>
      <trkpt lat="46.34672" lon="5.90317">
        <ele>1178.824</ele>
      </trkpt>
      <trkpt lat="46.34662" lon="5.90335">
        <ele>1179</ele>
      </trkpt>
      <trkpt lat="46.3465" lon="5.90358">
        <ele>1179</ele>
      </trkpt>
      <trkpt lat="46.34642" lon="5.90374">
        <ele>1179</ele>
      </trkpt>
      <trkpt lat="46.3463" lon="5.90398">
        <ele>1179</ele>
      </trkpt>
      <trkpt lat="46.34615" lon="5.90413">
        <ele>1179</ele>
      </trkpt>
      <trkpt lat="46.34601" lon="5.90427">
        <ele>1179</ele>
      </trkpt>
      <trkpt lat="46.34583" lon="5.90435">
        <ele>1179</ele>
      </trkpt>
      <trkpt lat="46.34566" lon="5.90441">
        <ele>1179</ele>
      </trkpt>
      <trkpt lat="46.3455" lon="5.90439">
        <ele>1179</ele>
      </trkpt>
      <trkpt lat="46.34534" lon="5.90438">
        <ele>1179</ele>
      </trkpt>
      <trkpt lat="46.34524" lon="5.90433">
        <ele>1178.94</ele>
      </trkpt>
      <trkpt lat="46.34505" lon="5.90417">
        <ele>1178.196</ele>
      </trkpt>
      <trkpt lat="46.34484" lon="5.90388">
        <ele>1177.374</ele>
      </trkpt>
      <trkpt lat="46.34464" lon="5.90362">
        <ele>1175.458</ele>
      </trkpt>
      <trkpt lat="46.34447" lon="5.90332">
        <ele>1173.189</ele>
      </trkpt>
      <trkpt lat="46.34438" lon="5.90313">
        <ele>1172.501</ele>
      </trkpt>
      <trkpt lat="46.34422" lon="5.90304">
        <ele>1171.434</ele>
      </trkpt>
      <trkpt lat="46.34414" lon="5.90296">
        <ele>1171.249</ele>
      </trkpt>
      <trkpt lat="46.34406" lon="5.90289">
        <ele>1170.973</ele>
      </trkpt>
      <trkpt lat="46.34392" lon="5.90268">
        <ele>1170.199</ele>
      </trkpt>
      <trkpt lat="46.34383" lon="5.90251">
        <ele>1168.972</ele>
      </trkpt>
      <trkpt lat="46.3438" lon="5.90233">
        <ele>1168.466</ele>
      </trkpt>
      <trkpt lat="46.3438" lon="5.90196">
        <ele>1168.556</ele>
      </trkpt>
      <trkpt lat="46.34379" lon="5.90178">
        <ele>1168.075</ele>
      </trkpt>
      <trkpt lat="46.34377" lon="5.90163">
        <ele>1167.56</ele>
      </trkpt>
      <trkpt lat="46.3437" lon="5.90137">
        <ele>1165.721</ele>
      </trkpt>
      <trkpt lat="46.34364" lon="5.90109">
        <ele>1166.709</ele>
      </trkpt>
      <trkpt lat="46.34363" lon="5.90097">
        <ele>1166.925</ele>
      </trkpt>
      <trkpt lat="46.34355" lon="5.90069">
        <ele>1164.581</ele>
      </trkpt>
      <trkpt lat="46.34349" lon="5.90052">
        <ele>1162.623</ele>
      </trkpt>
      <trkpt lat="46.34342" lon="5.90034">
        <ele>1160.481</ele>
      </trkpt>
      <trkpt lat="46.34331" lon="5.90027">
        <ele>1158.47</ele>
      </trkpt>
      <trkpt lat="46.34317" lon="5.90021">
        <ele>1156.001</ele>
      </trkpt>
      <trkpt lat="46.34302" lon="5.9001">
        <ele>1153.461</ele>
      </trkpt>
      <trkpt lat="46.34291" lon="5.90003">
        <ele>1151.873</ele>
      </trkpt>
      <trkpt lat="46.34275" lon="5.89997">
        <ele>1150.01</ele>
      </trkpt>
      <trkpt lat="46.34266" lon="5.89992">
        <ele>1149.889</ele>
      </trkpt>
      <trkpt lat="46.34254" lon="5.89984">
        <ele>1149.714</ele>
      </trkpt>
      <trkpt lat="46.34244" lon="5.89985">
        <ele>1148.987</ele>
      </trkpt>
      <trkpt lat="46.34244" lon="5.89995">
        <ele>1148.687</ele>
      </trkpt>
      <trkpt lat="46.34256" lon="5.90004">
        <ele>1149.211</ele>
      </trkpt>
      <trkpt lat="46.3426" lon="5.90019">
        <ele>1149.356</ele>
      </trkpt>
      <trkpt lat="46.3426" lon="5.90032">
        <ele>1149.341</ele>
      </trkpt>
      <trkpt lat="46.34251" lon="5.90043">
        <ele>1149.045</ele>
      </trkpt>
      <trkpt lat="46.34242" lon="5.90049">
        <ele>1148.429</ele>
      </trkpt>
      <trkpt lat="46.34226" lon="5.90048">
        <ele>1147.297</ele>
      </trkpt>
      <trkpt lat="46.34213" lon="5.90048">
        <ele>1146.573</ele>
      </trkpt>
      <trkpt lat="46.34198" lon="5.90047">
        <ele>1145.88</ele>
      </trkpt>
      <trkpt lat="46.34186" lon="5.9005">
        <ele>1145.166</ele>
      </trkpt>
      <trkpt lat="46.34174" lon="5.90052">
        <ele>1144.441</ele>
      </trkpt>
      <trkpt lat="46.34158" lon="5.90059">
        <ele>1143.841</ele>
      </trkpt>
      <trkpt lat="46.34149" lon="5.90067">
        <ele>1143.779</ele>
      </trkpt>
      <trkpt lat="46.34142" lon="5.90075">
        <ele>1143.804</ele>
      </trkpt>
      <trkpt lat="46.3413" lon="5.90074">
        <ele>1142.891</ele>
      </trkpt>
      <trkpt lat="46.34117" lon="5.90075">
        <ele>1141.896</ele>
      </trkpt>
      <trkpt lat="46.341" lon="5.90082">
        <ele>1141.097</ele>
      </trkpt>
      <trkpt lat="46.34083" lon="5.90089">
        <ele>1140.37</ele>
      </trkpt>
      <trkpt lat="46.34064" lon="5.90096">
        <ele>1139.47</ele>
      </trkpt>
      <trkpt lat="46.34047" lon="5.90106">
        <ele>1139.032</ele>
      </trkpt>
      <trkpt lat="46.34037" lon="5.90117">
        <ele>1139.011</ele>
      </trkpt>
      <trkpt lat="46.34019" lon="5.90133">
        <ele>1138.86</ele>
      </trkpt>
      <trkpt lat="46.34004" lon="5.9015">
        <ele>1139.557</ele>
      </trkpt>
      <trkpt lat="46.3399" lon="5.90165">
        <ele>1139.596</ele>
      </trkpt>
      <trkpt lat="46.33972" lon="5.90177">
        <ele>1139.008</ele>
      </trkpt>
      <trkpt lat="46.3396" lon="5.90185">
        <ele>1139</ele>
      </trkpt>
      <trkpt lat="46.33948" lon="5.90185">
        <ele>1139</ele>
      </trkpt>
      <trkpt lat="46.33938" lon="5.90185">
        <ele>1139</ele>
      </trkpt>
      <trkpt lat="46.33931" lon="5.90179">
        <ele>1139</ele>
      </trkpt>
      <trkpt lat="46.33942" lon="5.90148">
        <ele>1139</ele>
      </trkpt>
      <trkpt lat="46.33947" lon="5.90124">
        <ele>1139</ele>
      </trkpt>
      <trkpt lat="46.33951" lon="5.90093">
        <ele>1139</ele>
      </trkpt>
      <trkpt lat="46.33958" lon="5.90067">
        <ele>1139</ele>
      </trkpt>
      <trkpt lat="46.33957" lon="5.90032">
        <ele>1139.484</ele>
      </trkpt>
      <trkpt lat="46.33962" lon="5.90009">
        <ele>1139.123</ele>
      </trkpt>
      <trkpt lat="46.33966" lon="5.89975">
        <ele>1139</ele>
      </trkpt>
      <trkpt lat="46.33971" lon="5.89946">
        <ele>1139</ele>
      </trkpt>
      <trkpt lat="46.33973" lon="5.89934">
        <ele>1138.874</ele>
      </trkpt>
      <trkpt lat="46.33975" lon="5.89916">
        <ele>1138.606</ele>
      </trkpt>
      <trkpt lat="46.33978" lon="5.89895">
        <ele>1138.031</ele>
      </trkpt>
      <trkpt lat="46.33984" lon="5.89864">
        <ele>1135.53</ele>
      </trkpt>
      <trkpt lat="46.33988" lon="5.89839">
        <ele>1133.889</ele>
      </trkpt>
      <trkpt lat="46.33989" lon="5.89801">
        <ele>1132.476</ele>
      </trkpt>
      <trkpt lat="46.33971" lon="5.8972">
        <ele>1131.057</ele>
      </trkpt>
      <trkpt lat="46.33962" lon="5.89684">
        <ele>1129.866</ele>
      </trkpt>
      <trkpt lat="46.3395" lon="5.89643">
        <ele>1129.662</ele>
      </trkpt>
      <trkpt lat="46.33941" lon="5.89608">
        <ele>1128.331</ele>
      </trkpt>
      <trkpt lat="46.33932" lon="5.89588">
        <ele>1126.902</ele>
      </trkpt>
      <trkpt lat="46.33916" lon="5.89585">
        <ele>1129.566</ele>
      </trkpt>
      <trkpt lat="46.3389" lon="5.896">
        <ele>1137.086</ele>
      </trkpt>
      <trkpt lat="46.33866" lon="5.89601">
        <ele>1139.029</ele>
      </trkpt>
      <trkpt lat="46.33834" lon="5.89603">
        <ele>1141.643</ele>
      </trkpt>
      <trkpt lat="46.33806" lon="5.89593">
        <ele>1144.931</ele>
      </trkpt>
      <trkpt lat="46.33779" lon="5.89586">
        <ele>1149.642</ele>
      </trkpt>
      <trkpt lat="46.33757" lon="5.89578">
        <ele>1151.667</ele>
      </trkpt>
      <trkpt lat="46.33736" lon="5.89575">
        <ele>1154.31</ele>
      </trkpt>
      <trkpt lat="46.33708" lon="5.89578">
        <ele>1159.046</ele>
      </trkpt>
      <trkpt lat="46.33669" lon="5.89576">
        <ele>1164.256</ele>
      </trkpt>
      <trkpt lat="46.33647" lon="5.89566">
        <ele>1168.077</ele>
      </trkpt>
      <trkpt lat="46.33628" lon="5.89558">
        <ele>1169.774</ele>
      </trkpt>
      <trkpt lat="46.33607" lon="5.89549">
        <ele>1170</ele>
      </trkpt>
      <trkpt lat="46.33578" lon="5.89532">
        <ele>1169.971</ele>
      </trkpt>
      <trkpt lat="46.33564" lon="5.89518">
        <ele>1169.894</ele>
      </trkpt>
      <trkpt lat="46.33531" lon="5.89501">
        <ele>1170.842</ele>
      </trkpt>
      <trkpt lat="46.33518" lon="5.89488">
        <ele>1172.127</ele>
      </trkpt>
      <trkpt lat="46.33501" lon="5.89464">
        <ele>1174.016</ele>
      </trkpt>
      <trkpt lat="46.33475" lon="5.89441">
        <ele>1170.802</ele>
      </trkpt>
      <trkpt lat="46.33458" lon="5.89425">
        <ele>1169.654</ele>
      </trkpt>
      <trkpt lat="46.33439" lon="5.89414">
        <ele>1168.185</ele>
      </trkpt>
      <trkpt lat="46.33419" lon="5.89405">
        <ele>1162.654</ele>
      </trkpt>
      <trkpt lat="46.33399" lon="5.89395">
        <ele>1156.5</ele>
      </trkpt>
      <trkpt lat="46.3338" lon="5.89399">
        <ele>1151.727</ele>
      </trkpt>
      <trkpt lat="46.33363" lon="5.8939">
        <ele>1145.711</ele>
      </trkpt>
      <trkpt lat="46.33354" lon="5.89386">
        <ele>1142.407</ele>
      </trkpt>
      <trkpt lat="46.33345" lon="5.89377">
        <ele>1138.266</ele>
      </trkpt>
      <trkpt lat="46.33328" lon="5.89381">
        <ele>1134.43</ele>
      </trkpt>
      <trkpt lat="46.33325" lon="5.89391">
        <ele>1134.01</ele>
      </trkpt>
      <trkpt lat="46.33329" lon="5.89415">
        <ele>1131.252</ele>
      </trkpt>
      <trkpt lat="46.33338" lon="5.89439">
        <ele>1128.511</ele>
      </trkpt>
      <trkpt lat="46.33346" lon="5.8946">
        <ele>1125.752</ele>
      </trkpt>
      <trkpt lat="46.33354" lon="5.89483">
        <ele>1121.682</ele>
      </trkpt>
      <trkpt lat="46.33361" lon="5.89507">
        <ele>1117.031</ele>
      </trkpt>
      <trkpt lat="46.33368" lon="5.89527">
        <ele>1113.365</ele>
      </trkpt>
      <trkpt lat="46.33374" lon="5.89551">
        <ele>1111.109</ele>
      </trkpt>
      <trkpt lat="46.33381" lon="5.8957">
        <ele>1110.357</ele>
      </trkpt>
      <trkpt lat="46.33385" lon="5.89589">
        <ele>1110</ele>
      </trkpt>
      <trkpt lat="46.33381" lon="5.89607">
        <ele>1110</ele>
      </trkpt>
      <trkpt lat="46.33367" lon="5.89606">
        <ele>1110</ele>
      </trkpt>
      <trkpt lat="46.33348" lon="5.89602">
        <ele>1110</ele>
      </trkpt>
      <trkpt lat="46.33332" lon="5.89601">
        <ele>1110.098</ele>
      </trkpt>
      <trkpt lat="46.33304" lon="5.89599">
        <ele>1111.987</ele>
      </trkpt>
      <trkpt lat="46.33279" lon="5.89591">
        <ele>1115.068</ele>
      </trkpt>
      <trkpt lat="46.33252" lon="5.89587">
        <ele>1121.378</ele>
      </trkpt>
      <trkpt lat="46.33225" lon="5.89576">
        <ele>1127.853</ele>
      </trkpt>
      <trkpt lat="46.33203" lon="5.89561">
        <ele>1132.373</ele>
      </trkpt>
      <trkpt lat="46.33154" lon="5.89506">
        <ele>1137.075</ele>
      </trkpt>
      <trkpt lat="46.3312" lon="5.89471">
        <ele>1135.04</ele>
      </trkpt>
      <trkpt lat="46.331" lon="5.89454">
        <ele>1138.981</ele>
      </trkpt>
      <trkpt lat="46.33086" lon="5.8944">
        <ele>1143.026</ele>
      </trkpt>
      <trkpt lat="46.33062" lon="5.89424">
        <ele>1147.942</ele>
      </trkpt>
      <trkpt lat="46.33047" lon="5.894">
        <ele>1151.452</ele>
      </trkpt>
      <trkpt lat="46.33018" lon="5.89351">
        <ele>1158.487</ele>
      </trkpt>
      <trkpt lat="46.32988" lon="5.89308">
        <ele>1160.044</ele>
      </trkpt>
      <trkpt lat="46.32966" lon="5.89273">
        <ele>1160.4</ele>
      </trkpt>
      <trkpt lat="46.32937" lon="5.89232">
        <ele>1161.733</ele>
      </trkpt>
      <trkpt lat="46.32905" lon="5.89199">
        <ele>1159.756</ele>
      </trkpt>
      <trkpt lat="46.32866" lon="5.89169">
        <ele>1157.146</ele>
      </trkpt>
      <trkpt lat="46.32839" lon="5.89152">
        <ele>1156.777</ele>
      </trkpt>
      <trkpt lat="46.32798" lon="5.89148">
        <ele>1158</ele>
      </trkpt>
      <trkpt lat="46.32759" lon="5.89147">
        <ele>1154.521</ele>
      </trkpt>
      <trkpt lat="46.3274" lon="5.89156">
        <ele>1151.584</ele>
      </trkpt>
      <trkpt lat="46.32728" lon="5.89171">
        <ele>1150.176</ele>
      </trkpt>
      <trkpt lat="46.32711" lon="5.89185">
        <ele>1148.833</ele>
      </trkpt>
      <trkpt lat="46.32696" lon="5.89197">
        <ele>1147.317</ele>
      </trkpt>
      <trkpt lat="46.32674" lon="5.89192">
        <ele>1146.163</ele>
      </trkpt>
      <trkpt lat="46.32661" lon="5.89181">
        <ele>1145.526</ele>
      </trkpt>
      <trkpt lat="46.3264" lon="5.8916">
        <ele>1145</ele>
      </trkpt>
      <trkpt lat="46.32623" lon="5.89151">
        <ele>1145.5</ele>
      </trkpt>
      <trkpt lat="46.32607" lon="5.89147">
        <ele>1145.527</ele>
      </trkpt>
      <trkpt lat="46.32592" lon="5.89151">
        <ele>1145.557</ele>
      </trkpt>
      <trkpt lat="46.32577" lon="5.89161">
        <ele>1145.612</ele>
      </trkpt>
      <trkpt lat="46.32561" lon="5.89162">
        <ele>1145.161</ele>
      </trkpt>
      <trkpt lat="46.32548" lon="5.89161">
        <ele>1145.29</ele>
      </trkpt>
      <trkpt lat="46.32534" lon="5.8916">
        <ele>1145.775</ele>
      </trkpt>
    </trkseg>
  </trk>
  <trk>
    <name><![CDATA[GTJ Labergement &gt; Bellegarde_7]]></name>
    <trkseg>
      <trkpt lat="46.32534" lon="5.8916">
        <ele>1145.775</ele>
      </trkpt>
      <trkpt lat="46.32534" lon="5.8916">
        <ele>1145.775</ele>
      </trkpt>
      <trkpt lat="46.32526" lon="5.89158">
        <ele>1146.018</ele>
      </trkpt>
      <trkpt lat="46.32518" lon="5.89154">
        <ele>1146.152</ele>
      </trkpt>
      <trkpt lat="46.3251" lon="5.8915">
        <ele>1146.387</ele>
      </trkpt>
      <trkpt lat="46.32511" lon="5.89131">
        <ele>1146.594</ele>
      </trkpt>
      <trkpt lat="46.32512" lon="5.89113">
        <ele>1146.574</ele>
      </trkpt>
      <trkpt lat="46.32516" lon="5.89099">
        <ele>1146.883</ele>
      </trkpt>
      <trkpt lat="46.32523" lon="5.8908">
        <ele>1147.194</ele>
      </trkpt>
      <trkpt lat="46.32536" lon="5.89063">
        <ele>1146.412</ele>
      </trkpt>
      <trkpt lat="46.32551" lon="5.89038">
        <ele>1146.494</ele>
      </trkpt>
      <trkpt lat="46.32567" lon="5.89019">
        <ele>1147.601</ele>
      </trkpt>
      <trkpt lat="46.32581" lon="5.89002">
        <ele>1148.121</ele>
      </trkpt>
      <trkpt lat="46.32589" lon="5.88985">
        <ele>1148.661</ele>
      </trkpt>
      <trkpt lat="46.32598" lon="5.88976">
        <ele>1148.265</ele>
      </trkpt>
      <trkpt lat="46.32611" lon="5.88946">
        <ele>1148.04</ele>
      </trkpt>
      <trkpt lat="46.32617" lon="5.88928">
        <ele>1148.167</ele>
      </trkpt>
      <trkpt lat="46.3263" lon="5.889">
        <ele>1147.369</ele>
      </trkpt>
      <trkpt lat="46.32641" lon="5.88881">
        <ele>1145.263</ele>
      </trkpt>
      <trkpt lat="46.32652" lon="5.88869">
        <ele>1142.877</ele>
      </trkpt>
      <trkpt lat="46.32664" lon="5.88857">
        <ele>1139.754</ele>
      </trkpt>
      <trkpt lat="46.3267" lon="5.88834">
        <ele>1135.212</ele>
      </trkpt>
      <trkpt lat="46.3268" lon="5.88806">
        <ele>1130.049</ele>
      </trkpt>
      <trkpt lat="46.32689" lon="5.88788">
        <ele>1128.836</ele>
      </trkpt>
      <trkpt lat="46.32697" lon="5.88763">
        <ele>1128.277</ele>
      </trkpt>
      <trkpt lat="46.32712" lon="5.88736">
        <ele>1127.451</ele>
      </trkpt>
      <trkpt lat="46.32721" lon="5.88732">
        <ele>1126.775</ele>
      </trkpt>
      <trkpt lat="46.32742" lon="5.88709">
        <ele>1127.483</ele>
      </trkpt>
      <trkpt lat="46.32755" lon="5.88692">
        <ele>1128.265</ele>
      </trkpt>
      <trkpt lat="46.32767" lon="5.88681">
        <ele>1129.102</ele>
      </trkpt>
      <trkpt lat="46.32779" lon="5.88669">
        <ele>1130.008</ele>
      </trkpt>
      <trkpt lat="46.32791" lon="5.88645">
        <ele>1131.721</ele>
      </trkpt>
      <trkpt lat="46.32802" lon="5.88622">
        <ele>1133.517</ele>
      </trkpt>
      <trkpt lat="46.32808" lon="5.88606">
        <ele>1134.604</ele>
      </trkpt>
      <trkpt lat="46.32816" lon="5.88576">
        <ele>1137.185</ele>
      </trkpt>
      <trkpt lat="46.32819" lon="5.88547">
        <ele>1139.888</ele>
      </trkpt>
      <trkpt lat="46.32823" lon="5.88514">
        <ele>1142.234</ele>
      </trkpt>
      <trkpt lat="46.32825" lon="5.88495">
        <ele>1143.621</ele>
      </trkpt>
      <trkpt lat="46.32833" lon="5.88481">
        <ele>1143.383</ele>
      </trkpt>
      <trkpt lat="46.32842" lon="5.88465">
        <ele>1143.911</ele>
      </trkpt>
      <trkpt lat="46.32845" lon="5.88443">
        <ele>1145.281</ele>
      </trkpt>
      <trkpt lat="46.32842" lon="5.88418">
        <ele>1146.624</ele>
      </trkpt>
      <trkpt lat="46.32835" lon="5.88396">
        <ele>1148.406</ele>
      </trkpt>
      <trkpt lat="46.32826" lon="5.88371">
        <ele>1152.407</ele>
      </trkpt>
      <trkpt lat="46.32825" lon="5.88355">
        <ele>1154.445</ele>
      </trkpt>
      <trkpt lat="46.32831" lon="5.88338">
        <ele>1155.809</ele>
      </trkpt>
      <trkpt lat="46.32835" lon="5.8833">
        <ele>1156.679</ele>
      </trkpt>
      <trkpt lat="46.32858" lon="5.88335">
        <ele>1153.998</ele>
      </trkpt>
      <trkpt lat="46.32879" lon="5.88341">
        <ele>1155.293</ele>
      </trkpt>
      <trkpt lat="46.32893" lon="5.88347">
        <ele>1156.382</ele>
      </trkpt>
      <trkpt lat="46.32913" lon="5.88354">
        <ele>1159.163</ele>
      </trkpt>
      <trkpt lat="46.32936" lon="5.88359">
        <ele>1161.402</ele>
      </trkpt>
      <trkpt lat="46.32948" lon="5.88357">
        <ele>1162.876</ele>
      </trkpt>
      <trkpt lat="46.32968" lon="5.88345">
        <ele>1166.039</ele>
      </trkpt>
      <trkpt lat="46.3298" lon="5.88341">
        <ele>1167.383</ele>
      </trkpt>
      <trkpt lat="46.32992" lon="5.88338">
        <ele>1168.573</ele>
      </trkpt>
      <trkpt lat="46.33017" lon="5.88343">
        <ele>1169.806</ele>
      </trkpt>
      <trkpt lat="46.33029" lon="5.88347">
        <ele>1170.113</ele>
      </trkpt>
      <trkpt lat="46.33049" lon="5.88341">
        <ele>1173.413</ele>
      </trkpt>
      <trkpt lat="46.33073" lon="5.88334">
        <ele>1175.567</ele>
      </trkpt>
      <trkpt lat="46.33093" lon="5.88329">
        <ele>1176.673</ele>
      </trkpt>
      <trkpt lat="46.3311" lon="5.8832">
        <ele>1177.916</ele>
      </trkpt>
      <trkpt lat="46.33122" lon="5.8831">
        <ele>1179.028</ele>
      </trkpt>
      <trkpt lat="46.33128" lon="5.883">
        <ele>1180.285</ele>
      </trkpt>
      <trkpt lat="46.33131" lon="5.88289">
        <ele>1182.111</ele>
      </trkpt>
      <trkpt lat="46.33128" lon="5.88279">
        <ele>1183.804</ele>
      </trkpt>
      <trkpt lat="46.33109" lon="5.88262">
        <ele>1186.173</ele>
      </trkpt>
      <trkpt lat="46.33087" lon="5.8825">
        <ele>1185.374</ele>
      </trkpt>
      <trkpt lat="46.33069" lon="5.88241">
        <ele>1185.809</ele>
      </trkpt>
      <trkpt lat="46.33054" lon="5.88232">
        <ele>1186.858</ele>
      </trkpt>
      <trkpt lat="46.33037" lon="5.88221">
        <ele>1186.801</ele>
      </trkpt>
      <trkpt lat="46.33022" lon="5.88212">
        <ele>1186.688</ele>
      </trkpt>
      <trkpt lat="46.33015" lon="5.88207">
        <ele>1186.787</ele>
      </trkpt>
      <trkpt lat="46.33009" lon="5.88192">
        <ele>1187.822</ele>
      </trkpt>
      <trkpt lat="46.32995" lon="5.88171">
        <ele>1188.138</ele>
      </trkpt>
      <trkpt lat="46.32988" lon="5.88156">
        <ele>1188.214</ele>
      </trkpt>
      <trkpt lat="46.3298" lon="5.88147">
        <ele>1188.03</ele>
      </trkpt>
      <trkpt lat="46.32967" lon="5.88134">
        <ele>1187.236</ele>
      </trkpt>
      <trkpt lat="46.32947" lon="5.88119">
        <ele>1184.184</ele>
      </trkpt>
      <trkpt lat="46.32943" lon="5.88111">
        <ele>1184.122</ele>
      </trkpt>
      <trkpt lat="46.3294" lon="5.88098">
        <ele>1184.889</ele>
      </trkpt>
      <trkpt lat="46.32943" lon="5.88072">
        <ele>1185.573</ele>
      </trkpt>
      <trkpt lat="46.32943" lon="5.88026">
        <ele>1187.178</ele>
      </trkpt>
      <trkpt lat="46.32944" lon="5.87989">
        <ele>1188.394</ele>
      </trkpt>
      <trkpt lat="46.32938" lon="5.87974">
        <ele>1189.191</ele>
      </trkpt>
      <trkpt lat="46.32932" lon="5.87957">
        <ele>1189.452</ele>
      </trkpt>
      <trkpt lat="46.32922" lon="5.87947">
        <ele>1189.805</ele>
      </trkpt>
      <trkpt lat="46.32904" lon="5.87939">
        <ele>1191.171</ele>
      </trkpt>
      <trkpt lat="46.32864" lon="5.87925">
        <ele>1194.013</ele>
      </trkpt>
      <trkpt lat="46.3283" lon="5.87917">
        <ele>1198.134</ele>
      </trkpt>
      <trkpt lat="46.32793" lon="5.87906">
        <ele>1199</ele>
      </trkpt>
      <trkpt lat="46.32752" lon="5.87895">
        <ele>1199</ele>
      </trkpt>
      <trkpt lat="46.32727" lon="5.87889">
        <ele>1199.002</ele>
      </trkpt>
      <trkpt lat="46.32712" lon="5.87883">
        <ele>1199.212</ele>
      </trkpt>
      <trkpt lat="46.32696" lon="5.87875">
        <ele>1199.485</ele>
      </trkpt>
      <trkpt lat="46.32684" lon="5.87867">
        <ele>1197.171</ele>
      </trkpt>
      <trkpt lat="46.32679" lon="5.8785">
        <ele>1196.002</ele>
      </trkpt>
      <trkpt lat="46.32673" lon="5.87841">
        <ele>1194.651</ele>
      </trkpt>
      <trkpt lat="46.32664" lon="5.87834">
        <ele>1193.25</ele>
      </trkpt>
      <trkpt lat="46.32654" lon="5.87831">
        <ele>1194.22</ele>
      </trkpt>
      <trkpt lat="46.32638" lon="5.87829">
        <ele>1195.98</ele>
      </trkpt>
      <trkpt lat="46.32626" lon="5.87829">
        <ele>1196.959</ele>
      </trkpt>
      <trkpt lat="46.32616" lon="5.8783">
        <ele>1197.991</ele>
      </trkpt>
      <trkpt lat="46.32603" lon="5.87832">
        <ele>1198.805</ele>
      </trkpt>
      <trkpt lat="46.3259" lon="5.87831">
        <ele>1198.689</ele>
      </trkpt>
      <trkpt lat="46.32579" lon="5.87827">
        <ele>1198.303</ele>
      </trkpt>
      <trkpt lat="46.32567" lon="5.87823">
        <ele>1198.345</ele>
      </trkpt>
      <trkpt lat="46.32555" lon="5.87816">
        <ele>1198.152</ele>
      </trkpt>
      <trkpt lat="46.32541" lon="5.8781">
        <ele>1198.347</ele>
      </trkpt>
      <trkpt lat="46.32527" lon="5.87809">
        <ele>1199.231</ele>
      </trkpt>
      <trkpt lat="46.32519" lon="5.87814">
        <ele>1200.077</ele>
      </trkpt>
      <trkpt lat="46.32507" lon="5.87824">
        <ele>1200.903</ele>
      </trkpt>
      <trkpt lat="46.32504" lon="5.87834">
        <ele>1200.875</ele>
      </trkpt>
      <trkpt lat="46.32499" lon="5.87845">
        <ele>1201.158</ele>
      </trkpt>
      <trkpt lat="46.3249" lon="5.87856">
        <ele>1201.829</ele>
      </trkpt>
      <trkpt lat="46.32481" lon="5.8786">
        <ele>1202.411</ele>
      </trkpt>
      <trkpt lat="46.32471" lon="5.87867">
        <ele>1202.677</ele>
      </trkpt>
      <trkpt lat="46.32456" lon="5.87881">
        <ele>1202.501</ele>
      </trkpt>
      <trkpt lat="46.32438" lon="5.87888">
        <ele>1203.369</ele>
      </trkpt>
      <trkpt lat="46.32416" lon="5.87901">
        <ele>1205.777</ele>
      </trkpt>
      <trkpt lat="46.32396" lon="5.8791">
        <ele>1206.956</ele>
      </trkpt>
      <trkpt lat="46.32382" lon="5.87914">
        <ele>1207.315</ele>
      </trkpt>
      <trkpt lat="46.32365" lon="5.87916">
        <ele>1207.08</ele>
      </trkpt>
      <trkpt lat="46.32347" lon="5.87913">
        <ele>1206.315</ele>
      </trkpt>
      <trkpt lat="46.32322" lon="5.87905">
        <ele>1205.89</ele>
      </trkpt>
      <trkpt lat="46.32294" lon="5.87901">
        <ele>1204.845</ele>
      </trkpt>
      <trkpt lat="46.32276" lon="5.87897">
        <ele>1203.932</ele>
      </trkpt>
      <trkpt lat="46.32263" lon="5.87878">
        <ele>1203.705</ele>
      </trkpt>
      <trkpt lat="46.32245" lon="5.87853">
        <ele>1202.959</ele>
      </trkpt>
      <trkpt lat="46.3222" lon="5.87825">
        <ele>1201.958</ele>
      </trkpt>
      <trkpt lat="46.32203" lon="5.878">
        <ele>1201.191</ele>
      </trkpt>
      <trkpt lat="46.32172" lon="5.87768">
        <ele>1198.771</ele>
      </trkpt>
      <trkpt lat="46.32152" lon="5.87736">
        <ele>1197.584</ele>
      </trkpt>
      <trkpt lat="46.32126" lon="5.87697">
        <ele>1198.721</ele>
      </trkpt>
      <trkpt lat="46.32089" lon="5.87654">
        <ele>1201.487</ele>
      </trkpt>
      <trkpt lat="46.32057" lon="5.87619">
        <ele>1203.836</ele>
      </trkpt>
      <trkpt lat="46.32015" lon="5.87576">
        <ele>1205.283</ele>
      </trkpt>
      <trkpt lat="46.31987" lon="5.87538">
        <ele>1206.116</ele>
      </trkpt>
      <trkpt lat="46.31961" lon="5.87506">
        <ele>1206.53</ele>
      </trkpt>
      <trkpt lat="46.31935" lon="5.87473">
        <ele>1207.816</ele>
      </trkpt>
      <trkpt lat="46.31901" lon="5.87442">
        <ele>1208.642</ele>
      </trkpt>
      <trkpt lat="46.31856" lon="5.87403">
        <ele>1209.882</ele>
      </trkpt>
      <trkpt lat="46.31829" lon="5.87372">
        <ele>1209.841</ele>
      </trkpt>
      <trkpt lat="46.3179" lon="5.87337">
        <ele>1209</ele>
      </trkpt>
      <trkpt lat="46.31763" lon="5.87311">
        <ele>1208.478</ele>
      </trkpt>
      <trkpt lat="46.31727" lon="5.87283">
        <ele>1207.172</ele>
      </trkpt>
      <trkpt lat="46.31699" lon="5.8727">
        <ele>1206.755</ele>
      </trkpt>
      <trkpt lat="46.31673" lon="5.87253">
        <ele>1205.424</ele>
      </trkpt>
      <trkpt lat="46.31653" lon="5.87239">
        <ele>1204.506</ele>
      </trkpt>
      <trkpt lat="46.31621" lon="5.87222">
        <ele>1203.351</ele>
      </trkpt>
      <trkpt lat="46.316" lon="5.87216">
        <ele>1202.945</ele>
      </trkpt>
      <trkpt lat="46.31585" lon="5.87215">
        <ele>1202.337</ele>
      </trkpt>
      <trkpt lat="46.31577" lon="5.87231">
        <ele>1201.592</ele>
      </trkpt>
      <trkpt lat="46.31568" lon="5.87248">
        <ele>1201.418</ele>
      </trkpt>
      <trkpt lat="46.31561" lon="5.87262">
        <ele>1201.197</ele>
      </trkpt>
      <trkpt lat="46.31555" lon="5.87265">
        <ele>1200.996</ele>
      </trkpt>
      <trkpt lat="46.31544" lon="5.87253">
        <ele>1200.642</ele>
      </trkpt>
      <trkpt lat="46.31515" lon="5.87225">
        <ele>1197.789</ele>
      </trkpt>
      <trkpt lat="46.31506" lon="5.87218">
        <ele>1196.679</ele>
      </trkpt>
      <trkpt lat="46.31489" lon="5.87191">
        <ele>1192.962</ele>
      </trkpt>
      <trkpt lat="46.31471" lon="5.87167">
        <ele>1190.1</ele>
      </trkpt>
      <trkpt lat="46.31458" lon="5.87147">
        <ele>1190.146</ele>
      </trkpt>
      <trkpt lat="46.31436" lon="5.87131">
        <ele>1190</ele>
      </trkpt>
      <trkpt lat="46.31408" lon="5.87113">
        <ele>1190</ele>
      </trkpt>
      <trkpt lat="46.31392" lon="5.871">
        <ele>1190</ele>
      </trkpt>
      <trkpt lat="46.31375" lon="5.87089">
        <ele>1190</ele>
      </trkpt>
      <trkpt lat="46.3137" lon="5.87078">
        <ele>1190</ele>
      </trkpt>
      <trkpt lat="46.31361" lon="5.87059">
        <ele>1190</ele>
      </trkpt>
      <trkpt lat="46.31356" lon="5.87041">
        <ele>1190</ele>
      </trkpt>
      <trkpt lat="46.31345" lon="5.87011">
        <ele>1190</ele>
      </trkpt>
      <trkpt lat="46.31328" lon="5.86986">
        <ele>1189.687</ele>
      </trkpt>
      <trkpt lat="46.31298" lon="5.86946">
        <ele>1185.8</ele>
      </trkpt>
      <trkpt lat="46.31264" lon="5.86902">
        <ele>1181.53</ele>
      </trkpt>
      <trkpt lat="46.31245" lon="5.86883">
        <ele>1180</ele>
      </trkpt>
      <trkpt lat="46.31219" lon="5.86857">
        <ele>1180</ele>
      </trkpt>
      <trkpt lat="46.31187" lon="5.86825">
        <ele>1180</ele>
      </trkpt>
      <trkpt lat="46.31155" lon="5.86797">
        <ele>1179.695</ele>
      </trkpt>
      <trkpt lat="46.31117" lon="5.86767">
        <ele>1179.518</ele>
      </trkpt>
      <trkpt lat="46.31097" lon="5.86761">
        <ele>1179.607</ele>
      </trkpt>
      <trkpt lat="46.31085" lon="5.86754">
        <ele>1179.869</ele>
      </trkpt>
      <trkpt lat="46.31074" lon="5.86746">
        <ele>1180</ele>
      </trkpt>
      <trkpt lat="46.3106" lon="5.86726">
        <ele>1180</ele>
      </trkpt>
      <trkpt lat="46.31044" lon="5.86709">
        <ele>1179.357</ele>
      </trkpt>
      <trkpt lat="46.3103" lon="5.86708">
        <ele>1178.607</ele>
      </trkpt>
      <trkpt lat="46.31009" lon="5.86705">
        <ele>1176.577</ele>
      </trkpt>
      <trkpt lat="46.30993" lon="5.86704">
        <ele>1174.672</ele>
      </trkpt>
      <trkpt lat="46.30977" lon="5.86693">
        <ele>1171.719</ele>
      </trkpt>
      <trkpt lat="46.30959" lon="5.86682">
        <ele>1170.977</ele>
      </trkpt>
      <trkpt lat="46.30942" lon="5.86671">
        <ele>1170</ele>
      </trkpt>
      <trkpt lat="46.30928" lon="5.86666">
        <ele>1170.017</ele>
      </trkpt>
      <trkpt lat="46.30912" lon="5.86661">
        <ele>1170</ele>
      </trkpt>
      <trkpt lat="46.30898" lon="5.86649">
        <ele>1170</ele>
      </trkpt>
      <trkpt lat="46.30874" lon="5.86628">
        <ele>1170.327</ele>
      </trkpt>
      <trkpt lat="46.3086" lon="5.86608">
        <ele>1170.04</ele>
      </trkpt>
      <trkpt lat="46.3084" lon="5.86593">
        <ele>1170.269</ele>
      </trkpt>
      <trkpt lat="46.30824" lon="5.86574">
        <ele>1170.233</ele>
      </trkpt>
      <trkpt lat="46.30805" lon="5.86554">
        <ele>1170.083</ele>
      </trkpt>
      <trkpt lat="46.30785" lon="5.8653">
        <ele>1170.276</ele>
      </trkpt>
      <trkpt lat="46.30763" lon="5.86497">
        <ele>1170.141</ele>
      </trkpt>
      <trkpt lat="46.30749" lon="5.86472">
        <ele>1170</ele>
      </trkpt>
      <trkpt lat="46.30729" lon="5.8645">
        <ele>1170</ele>
      </trkpt>
      <trkpt lat="46.30713" lon="5.86436">
        <ele>1169.246</ele>
      </trkpt>
      <trkpt lat="46.30687" lon="5.86414">
        <ele>1166.047</ele>
      </trkpt>
      <trkpt lat="46.30664" lon="5.864">
        <ele>1162.005</ele>
      </trkpt>
      <trkpt lat="46.30638" lon="5.8638">
        <ele>1157.688</ele>
      </trkpt>
      <trkpt lat="46.30616" lon="5.86368">
        <ele>1152.659</ele>
      </trkpt>
      <trkpt lat="46.30591" lon="5.86355">
        <ele>1150.156</ele>
      </trkpt>
      <trkpt lat="46.30563" lon="5.86341">
        <ele>1147.723</ele>
      </trkpt>
      <trkpt lat="46.30542" lon="5.86332">
        <ele>1144.012</ele>
      </trkpt>
      <trkpt lat="46.3051" lon="5.86314">
        <ele>1137.323</ele>
      </trkpt>
      <trkpt lat="46.30484" lon="5.86305">
        <ele>1131.723</ele>
      </trkpt>
      <trkpt lat="46.30467" lon="5.86304">
        <ele>1128.895</ele>
      </trkpt>
      <trkpt lat="46.30455" lon="5.86308">
        <ele>1126.484</ele>
      </trkpt>
      <trkpt lat="46.30442" lon="5.86319">
        <ele>1124.547</ele>
      </trkpt>
      <trkpt lat="46.30431" lon="5.86339">
        <ele>1123.618</ele>
      </trkpt>
      <trkpt lat="46.30423" lon="5.86358">
        <ele>1122.646</ele>
      </trkpt>
      <trkpt lat="46.30417" lon="5.86364">
        <ele>1121.474</ele>
      </trkpt>
      <trkpt lat="46.30427" lon="5.86311">
        <ele>1121.582</ele>
      </trkpt>
      <trkpt lat="46.30433" lon="5.86283">
        <ele>1121.39</ele>
      </trkpt>
      <trkpt lat="46.30436" lon="5.86262">
        <ele>1120.989</ele>
      </trkpt>
      <trkpt lat="46.30436" lon="5.86232">
        <ele>1121.128</ele>
      </trkpt>
      <trkpt lat="46.30424" lon="5.86207">
        <ele>1120.398</ele>
      </trkpt>
      <trkpt lat="46.30412" lon="5.86194">
        <ele>1120.333</ele>
      </trkpt>
      <trkpt lat="46.30397" lon="5.86191">
        <ele>1121.727</ele>
      </trkpt>
      <trkpt lat="46.30381" lon="5.86198">
        <ele>1122.942</ele>
      </trkpt>
      <trkpt lat="46.30371" lon="5.86209">
        <ele>1123.512</ele>
      </trkpt>
      <trkpt lat="46.30357" lon="5.86221">
        <ele>1124.365</ele>
      </trkpt>
      <trkpt lat="46.30344" lon="5.86225">
        <ele>1125.124</ele>
      </trkpt>
      <trkpt lat="46.30329" lon="5.86222">
        <ele>1126.298</ele>
      </trkpt>
      <trkpt lat="46.3031" lon="5.86211">
        <ele>1128.046</ele>
      </trkpt>
      <trkpt lat="46.30297" lon="5.86197">
        <ele>1130.048</ele>
      </trkpt>
      <trkpt lat="46.30286" lon="5.86185">
        <ele>1132.081</ele>
      </trkpt>
      <trkpt lat="46.30277" lon="5.8618">
        <ele>1133.761</ele>
      </trkpt>
      <trkpt lat="46.3026" lon="5.86176">
        <ele>1136.932</ele>
      </trkpt>
      <trkpt lat="46.30247" lon="5.86181">
        <ele>1138.735</ele>
      </trkpt>
      <trkpt lat="46.30236" lon="5.86195">
        <ele>1139.558</ele>
      </trkpt>
      <trkpt lat="46.30225" lon="5.86203">
        <ele>1140.657</ele>
      </trkpt>
      <trkpt lat="46.3021" lon="5.86206">
        <ele>1142.708</ele>
      </trkpt>
      <trkpt lat="46.30195" lon="5.86202">
        <ele>1144.959</ele>
      </trkpt>
      <trkpt lat="46.30186" lon="5.86185">
        <ele>1145.654</ele>
      </trkpt>
      <trkpt lat="46.30173" lon="5.86163">
        <ele>1147.027</ele>
      </trkpt>
      <trkpt lat="46.30166" lon="5.86145">
        <ele>1148.095</ele>
      </trkpt>
      <trkpt lat="46.30158" lon="5.8613">
        <ele>1150.067</ele>
      </trkpt>
      <trkpt lat="46.30146" lon="5.86115">
        <ele>1153.321</ele>
      </trkpt>
      <trkpt lat="46.30129" lon="5.8611">
        <ele>1156.816</ele>
      </trkpt>
      <trkpt lat="46.30114" lon="5.86129">
        <ele>1158.841</ele>
      </trkpt>
      <trkpt lat="46.30094" lon="5.86149">
        <ele>1162.146</ele>
      </trkpt>
      <trkpt lat="46.30076" lon="5.86175">
        <ele>1164.335</ele>
      </trkpt>
      <trkpt lat="46.30054" lon="5.86201">
        <ele>1166.549</ele>
      </trkpt>
      <trkpt lat="46.30032" lon="5.86224">
        <ele>1168.051</ele>
      </trkpt>
      <trkpt lat="46.3001" lon="5.86249">
        <ele>1168.124</ele>
      </trkpt>
      <trkpt lat="46.29981" lon="5.86273">
        <ele>1169.551</ele>
      </trkpt>
      <trkpt lat="46.29959" lon="5.86292">
        <ele>1170.865</ele>
      </trkpt>
      <trkpt lat="46.29935" lon="5.8631">
        <ele>1172.708</ele>
      </trkpt>
      <trkpt lat="46.29912" lon="5.86327">
        <ele>1174.015</ele>
      </trkpt>
      <trkpt lat="46.29886" lon="5.86341">
        <ele>1175.888</ele>
      </trkpt>
      <trkpt lat="46.29867" lon="5.86356">
        <ele>1176.76</ele>
      </trkpt>
      <trkpt lat="46.29853" lon="5.86362">
        <ele>1177.543</ele>
      </trkpt>
      <trkpt lat="46.29827" lon="5.86364">
        <ele>1179.135</ele>
      </trkpt>
      <trkpt lat="46.298" lon="5.86357">
        <ele>1180.185</ele>
      </trkpt>
      <trkpt lat="46.2978" lon="5.86352">
        <ele>1180.91</ele>
      </trkpt>
      <trkpt lat="46.29763" lon="5.86338">
        <ele>1181.99</ele>
      </trkpt>
      <trkpt lat="46.29745" lon="5.86322">
        <ele>1183.346</ele>
      </trkpt>
      <trkpt lat="46.29733" lon="5.86304">
        <ele>1184.259</ele>
      </trkpt>
      <trkpt lat="46.29724" lon="5.86287">
        <ele>1185.558</ele>
      </trkpt>
      <trkpt lat="46.2972" lon="5.86271">
        <ele>1186.591</ele>
      </trkpt>
      <trkpt lat="46.29724" lon="5.86243">
        <ele>1186.822</ele>
      </trkpt>
      <trkpt lat="46.29723" lon="5.86198">
        <ele>1186.9</ele>
      </trkpt>
      <trkpt lat="46.29721" lon="5.86162">
        <ele>1184.673</ele>
      </trkpt>
      <trkpt lat="46.29721" lon="5.86141">
        <ele>1183.064</ele>
      </trkpt>
      <trkpt lat="46.29721" lon="5.8612">
        <ele>1181.535</ele>
      </trkpt>
      <trkpt lat="46.29722" lon="5.86095">
        <ele>1179.827</ele>
      </trkpt>
      <trkpt lat="46.29727" lon="5.86068">
        <ele>1178.449</ele>
      </trkpt>
      <trkpt lat="46.2974" lon="5.86035">
        <ele>1178.45</ele>
      </trkpt>
      <trkpt lat="46.29755" lon="5.85989">
        <ele>1176.793</ele>
      </trkpt>
      <trkpt lat="46.29769" lon="5.85946">
        <ele>1173.234</ele>
      </trkpt>
      <trkpt lat="46.29786" lon="5.85896">
        <ele>1170.457</ele>
      </trkpt>
      <trkpt lat="46.29792" lon="5.8588">
        <ele>1170.221</ele>
      </trkpt>
      <trkpt lat="46.29799" lon="5.85845">
        <ele>1168.879</ele>
      </trkpt>
      <trkpt lat="46.29809" lon="5.85808">
        <ele>1166.959</ele>
      </trkpt>
      <trkpt lat="46.29816" lon="5.85783">
        <ele>1166.829</ele>
      </trkpt>
      <trkpt lat="46.2982" lon="5.85759">
        <ele>1166.025</ele>
      </trkpt>
      <trkpt lat="46.29821" lon="5.85725">
        <ele>1165.052</ele>
      </trkpt>
      <trkpt lat="46.29823" lon="5.85676">
        <ele>1165</ele>
      </trkpt>
      <trkpt lat="46.29819" lon="5.85658">
        <ele>1165</ele>
      </trkpt>
      <trkpt lat="46.2981" lon="5.85649">
        <ele>1165</ele>
      </trkpt>
      <trkpt lat="46.29784" lon="5.8563">
        <ele>1165</ele>
      </trkpt>
      <trkpt lat="46.29761" lon="5.85619">
        <ele>1165</ele>
      </trkpt>
      <trkpt lat="46.29738" lon="5.85603">
        <ele>1165</ele>
      </trkpt>
      <trkpt lat="46.29708" lon="5.85592">
        <ele>1166.008</ele>
      </trkpt>
      <trkpt lat="46.29692" lon="5.85588">
        <ele>1167.215</ele>
      </trkpt>
      <trkpt lat="46.29676" lon="5.85581">
        <ele>1168.365</ele>
      </trkpt>
      <trkpt lat="46.29657" lon="5.85573">
        <ele>1169</ele>
      </trkpt>
      <trkpt lat="46.29641" lon="5.85572">
        <ele>1169</ele>
      </trkpt>
      <trkpt lat="46.29629" lon="5.85581">
        <ele>1169.034</ele>
      </trkpt>
      <trkpt lat="46.29612" lon="5.85599">
        <ele>1169</ele>
      </trkpt>
      <trkpt lat="46.29603" lon="5.8562">
        <ele>1169.404</ele>
      </trkpt>
      <trkpt lat="46.29591" lon="5.85648">
        <ele>1171.743</ele>
      </trkpt>
      <trkpt lat="46.29584" lon="5.85664">
        <ele>1173.675</ele>
      </trkpt>
      <trkpt lat="46.29577" lon="5.85686">
        <ele>1177.74</ele>
      </trkpt>
      <trkpt lat="46.29572" lon="5.85702">
        <ele>1180.41</ele>
      </trkpt>
      <trkpt lat="46.29559" lon="5.85719">
        <ele>1182.725</ele>
      </trkpt>
      <trkpt lat="46.29547" lon="5.85732">
        <ele>1184.425</ele>
      </trkpt>
      <trkpt lat="46.29532" lon="5.85745">
        <ele>1187.186</ele>
      </trkpt>
      <trkpt lat="46.2952" lon="5.85752">
        <ele>1188.429</ele>
      </trkpt>
      <trkpt lat="46.29494" lon="5.85759">
        <ele>1189.754</ele>
      </trkpt>
      <trkpt lat="46.29475" lon="5.85758">
        <ele>1189.977</ele>
      </trkpt>
      <trkpt lat="46.29453" lon="5.85755">
        <ele>1190</ele>
      </trkpt>
      <trkpt lat="46.29431" lon="5.85755">
        <ele>1189.507</ele>
      </trkpt>
      <trkpt lat="46.29422" lon="5.85754">
        <ele>1189.183</ele>
      </trkpt>
      <trkpt lat="46.29386" lon="5.8576">
        <ele>1187.282</ele>
      </trkpt>
      <trkpt lat="46.29357" lon="5.85761">
        <ele>1186.821</ele>
      </trkpt>
      <trkpt lat="46.29333" lon="5.85761">
        <ele>1186.838</ele>
      </trkpt>
      <trkpt lat="46.29311" lon="5.8576">
        <ele>1187.231</ele>
      </trkpt>
      <trkpt lat="46.29266" lon="5.85764">
        <ele>1189</ele>
      </trkpt>
      <trkpt lat="46.29248" lon="5.85763">
        <ele>1189.111</ele>
      </trkpt>
      <trkpt lat="46.29238" lon="5.85763">
        <ele>1189.671</ele>
      </trkpt>
      <trkpt lat="46.29226" lon="5.85763">
        <ele>1190.437</ele>
      </trkpt>
      <trkpt lat="46.29206" lon="5.85781">
        <ele>1192.634</ele>
      </trkpt>
      <trkpt lat="46.29189" lon="5.85793">
        <ele>1196.356</ele>
      </trkpt>
      <trkpt lat="46.29168" lon="5.85801">
        <ele>1198.985</ele>
      </trkpt>
      <trkpt lat="46.29135" lon="5.8581">
        <ele>1202.335</ele>
      </trkpt>
      <trkpt lat="46.29101" lon="5.85826">
        <ele>1209.405</ele>
      </trkpt>
      <trkpt lat="46.29074" lon="5.85837">
        <ele>1212.844</ele>
      </trkpt>
      <trkpt lat="46.29033" lon="5.85849">
        <ele>1216.69</ele>
      </trkpt>
      <trkpt lat="46.2901" lon="5.85861">
        <ele>1219.267</ele>
      </trkpt>
      <trkpt lat="46.2899" lon="5.85873">
        <ele>1220</ele>
      </trkpt>
      <trkpt lat="46.28979" lon="5.85881">
        <ele>1220</ele>
      </trkpt>
      <trkpt lat="46.28969" lon="5.85904">
        <ele>1220</ele>
      </trkpt>
      <trkpt lat="46.28964" lon="5.85916">
        <ele>1220</ele>
      </trkpt>
      <trkpt lat="46.2896" lon="5.85929">
        <ele>1220</ele>
      </trkpt>
      <trkpt lat="46.28954" lon="5.85942">
        <ele>1220</ele>
      </trkpt>
      <trkpt lat="46.28947" lon="5.85951">
        <ele>1220</ele>
      </trkpt>
      <trkpt lat="46.28927" lon="5.85953">
        <ele>1220</ele>
      </trkpt>
      <trkpt lat="46.289" lon="5.85948">
        <ele>1220</ele>
      </trkpt>
      <trkpt lat="46.28888" lon="5.85945">
        <ele>1220</ele>
      </trkpt>
      <trkpt lat="46.28868" lon="5.85939">
        <ele>1220</ele>
      </trkpt>
      <trkpt lat="46.28856" lon="5.8593">
        <ele>1220</ele>
      </trkpt>
      <trkpt lat="46.28845" lon="5.85926">
        <ele>1220</ele>
      </trkpt>
      <trkpt lat="46.28821" lon="5.85928">
        <ele>1220</ele>
      </trkpt>
      <trkpt lat="46.28797" lon="5.85927">
        <ele>1219.507</ele>
      </trkpt>
      <trkpt lat="46.28774" lon="5.85923">
        <ele>1218.354</ele>
      </trkpt>
      <trkpt lat="46.28758" lon="5.85927">
        <ele>1218.826</ele>
      </trkpt>
      <trkpt lat="46.28741" lon="5.85928">
        <ele>1219</ele>
      </trkpt>
      <trkpt lat="46.2873" lon="5.85929">
        <ele>1219</ele>
      </trkpt>
      <trkpt lat="46.28717" lon="5.8593">
        <ele>1219</ele>
      </trkpt>
      <trkpt lat="46.28701" lon="5.8593">
        <ele>1219</ele>
      </trkpt>
      <trkpt lat="46.28685" lon="5.85932">
        <ele>1219</ele>
      </trkpt>
      <trkpt lat="46.28665" lon="5.85934">
        <ele>1219.095</ele>
      </trkpt>
      <trkpt lat="46.28645" lon="5.85925">
        <ele>1219.678</ele>
      </trkpt>
      <trkpt lat="46.28628" lon="5.85916">
        <ele>1219.391</ele>
      </trkpt>
      <trkpt lat="46.2862" lon="5.8591">
        <ele>1219.525</ele>
      </trkpt>
      <trkpt lat="46.28609" lon="5.85901">
        <ele>1219.557</ele>
      </trkpt>
      <trkpt lat="46.28596" lon="5.85886">
        <ele>1219</ele>
      </trkpt>
      <trkpt lat="46.28586" lon="5.85876">
        <ele>1219</ele>
      </trkpt>
      <trkpt lat="46.28577" lon="5.85869">
        <ele>1219.174</ele>
      </trkpt>
      <trkpt lat="46.28563" lon="5.85858">
        <ele>1219</ele>
      </trkpt>
      <trkpt lat="46.28551" lon="5.85844">
        <ele>1219.189</ele>
      </trkpt>
      <trkpt lat="46.28543" lon="5.85829">
        <ele>1219</ele>
      </trkpt>
      <trkpt lat="46.28537" lon="5.85814">
        <ele>1219</ele>
      </trkpt>
      <trkpt lat="46.28537" lon="5.8579">
        <ele>1219</ele>
      </trkpt>
      <trkpt lat="46.2854" lon="5.85769">
        <ele>1219</ele>
      </trkpt>
      <trkpt lat="46.28543" lon="5.85746">
        <ele>1219</ele>
      </trkpt>
      <trkpt lat="46.28547" lon="5.8573">
        <ele>1219</ele>
      </trkpt>
      <trkpt lat="46.28551" lon="5.85704">
        <ele>1219</ele>
      </trkpt>
      <trkpt lat="46.28553" lon="5.85693">
        <ele>1219</ele>
      </trkpt>
      <trkpt lat="46.28552" lon="5.85672">
        <ele>1219</ele>
      </trkpt>
      <trkpt lat="46.28546" lon="5.85644">
        <ele>1219</ele>
      </trkpt>
      <trkpt lat="46.28537" lon="5.85622">
        <ele>1219.188</ele>
      </trkpt>
      <trkpt lat="46.28518" lon="5.85592">
        <ele>1218.423</ele>
      </trkpt>
      <trkpt lat="46.28497" lon="5.85569">
        <ele>1217.125</ele>
      </trkpt>
      <trkpt lat="46.28461" lon="5.85541">
        <ele>1213.867</ele>
      </trkpt>
      <trkpt lat="46.2842" lon="5.85511">
        <ele>1209.536</ele>
      </trkpt>
      <trkpt lat="46.28394" lon="5.85486">
        <ele>1207.1</ele>
      </trkpt>
      <trkpt lat="46.28375" lon="5.85474">
        <ele>1205.539</ele>
      </trkpt>
      <trkpt lat="46.28365" lon="5.8547">
        <ele>1204.975</ele>
      </trkpt>
      <trkpt lat="46.28356" lon="5.85479">
        <ele>1205.764</ele>
      </trkpt>
      <trkpt lat="46.28341" lon="5.85509">
        <ele>1208.605</ele>
      </trkpt>
      <trkpt lat="46.28335" lon="5.85528">
        <ele>1209.931</ele>
      </trkpt>
      <trkpt lat="46.28325" lon="5.8555">
        <ele>1211.975</ele>
      </trkpt>
      <trkpt lat="46.28323" lon="5.85563">
        <ele>1212.629</ele>
      </trkpt>
      <trkpt lat="46.28323" lon="5.85591">
        <ele>1213.652</ele>
      </trkpt>
      <trkpt lat="46.28322" lon="5.85613">
        <ele>1214.494</ele>
      </trkpt>
      <trkpt lat="46.28324" lon="5.85631">
        <ele>1215.08</ele>
      </trkpt>
      <trkpt lat="46.28323" lon="5.85647">
        <ele>1215.681</ele>
      </trkpt>
      <trkpt lat="46.28322" lon="5.85669">
        <ele>1216.503</ele>
      </trkpt>
      <trkpt lat="46.28321" lon="5.85678">
        <ele>1217.09</ele>
      </trkpt>
      <trkpt lat="46.28317" lon="5.85686">
        <ele>1217.57</ele>
      </trkpt>
      <trkpt lat="46.28304" lon="5.85692">
        <ele>1217.964</ele>
      </trkpt>
      <trkpt lat="46.28281" lon="5.85703">
        <ele>1218.961</ele>
      </trkpt>
      <trkpt lat="46.28267" lon="5.85707">
        <ele>1217.733</ele>
      </trkpt>
      <trkpt lat="46.28262" lon="5.85718">
        <ele>1216.045</ele>
      </trkpt>
      <trkpt lat="46.28269" lon="5.85727">
        <ele>1217.743</ele>
      </trkpt>
      <trkpt lat="46.28275" lon="5.85742">
        <ele>1220.792</ele>
      </trkpt>
      <trkpt lat="46.28278" lon="5.8575">
        <ele>1222.012</ele>
      </trkpt>
      <trkpt lat="46.28274" lon="5.85781">
        <ele>1226.341</ele>
      </trkpt>
      <trkpt lat="46.28271" lon="5.85805">
        <ele>1229.41</ele>
      </trkpt>
      <trkpt lat="46.28253" lon="5.85833">
        <ele>1236.58</ele>
      </trkpt>
      <trkpt lat="46.28234" lon="5.85853">
        <ele>1243.225</ele>
      </trkpt>
      <trkpt lat="46.28217" lon="5.85874">
        <ele>1248.502</ele>
      </trkpt>
      <trkpt lat="46.28207" lon="5.85882">
        <ele>1250.406</ele>
      </trkpt>
      <trkpt lat="46.28198" lon="5.85888">
        <ele>1251.626</ele>
      </trkpt>
      <trkpt lat="46.28186" lon="5.85882">
        <ele>1251.812</ele>
      </trkpt>
      <trkpt lat="46.28168" lon="5.85879">
        <ele>1252.257</ele>
      </trkpt>
      <trkpt lat="46.28153" lon="5.8589">
        <ele>1253.064</ele>
      </trkpt>
      <trkpt lat="46.28142" lon="5.85917">
        <ele>1255</ele>
      </trkpt>
      <trkpt lat="46.28132" lon="5.85932">
        <ele>1255.975</ele>
      </trkpt>
      <trkpt lat="46.28122" lon="5.85946">
        <ele>1256.428</ele>
      </trkpt>
      <trkpt lat="46.28112" lon="5.85963">
        <ele>1256.032</ele>
      </trkpt>
      <trkpt lat="46.281" lon="5.85977">
        <ele>1255.088</ele>
      </trkpt>
      <trkpt lat="46.28088" lon="5.85994">
        <ele>1254.209</ele>
      </trkpt>
      <trkpt lat="46.2808" lon="5.86005">
        <ele>1253.656</ele>
      </trkpt>
      <trkpt lat="46.28073" lon="5.86021">
        <ele>1253.14</ele>
      </trkpt>
      <trkpt lat="46.28062" lon="5.86035">
        <ele>1252.924</ele>
      </trkpt>
      <trkpt lat="46.28051" lon="5.86042">
        <ele>1252.865</ele>
      </trkpt>
      <trkpt lat="46.2804" lon="5.86048">
        <ele>1252.913</ele>
      </trkpt>
      <trkpt lat="46.28029" lon="5.86052">
        <ele>1252.801</ele>
      </trkpt>
      <trkpt lat="46.2802" lon="5.86061">
        <ele>1252.331</ele>
      </trkpt>
      <trkpt lat="46.28011" lon="5.86075">
        <ele>1251.939</ele>
      </trkpt>
      <trkpt lat="46.28008" lon="5.86101">
        <ele>1252.086</ele>
      </trkpt>
      <trkpt lat="46.28008" lon="5.86116">
        <ele>1251.453</ele>
      </trkpt>
      <trkpt lat="46.2801" lon="5.86132">
        <ele>1249.35</ele>
      </trkpt>
      <trkpt lat="46.2801" lon="5.8614">
        <ele>1248.331</ele>
      </trkpt>
      <trkpt lat="46.28008" lon="5.86148">
        <ele>1247.034</ele>
      </trkpt>
      <trkpt lat="46.27986" lon="5.86137">
        <ele>1245.21</ele>
      </trkpt>
      <trkpt lat="46.27961" lon="5.86124">
        <ele>1243.748</ele>
      </trkpt>
      <trkpt lat="46.2794" lon="5.86113">
        <ele>1242.381</ele>
      </trkpt>
      <trkpt lat="46.27919" lon="5.86105">
        <ele>1241.149</ele>
      </trkpt>
      <trkpt lat="46.27901" lon="5.86099">
        <ele>1240.775</ele>
      </trkpt>
      <trkpt lat="46.27886" lon="5.86097">
        <ele>1240</ele>
      </trkpt>
      <trkpt lat="46.27872" lon="5.86092">
        <ele>1240</ele>
      </trkpt>
      <trkpt lat="46.27854" lon="5.86075">
        <ele>1240</ele>
      </trkpt>
      <trkpt lat="46.27839" lon="5.86055">
        <ele>1240</ele>
      </trkpt>
      <trkpt lat="46.27822" lon="5.86037">
        <ele>1240</ele>
      </trkpt>
      <trkpt lat="46.27801" lon="5.8602">
        <ele>1240</ele>
      </trkpt>
      <trkpt lat="46.27777" lon="5.86005">
        <ele>1240</ele>
      </trkpt>
      <trkpt lat="46.27749" lon="5.85992">
        <ele>1240</ele>
      </trkpt>
      <trkpt lat="46.27728" lon="5.85982">
        <ele>1240</ele>
      </trkpt>
      <trkpt lat="46.2771" lon="5.85965">
        <ele>1240</ele>
      </trkpt>
      <trkpt lat="46.27692" lon="5.85943">
        <ele>1240</ele>
      </trkpt>
      <trkpt lat="46.27671" lon="5.8593">
        <ele>1240</ele>
      </trkpt>
      <trkpt lat="46.27655" lon="5.85927">
        <ele>1240.268</ele>
      </trkpt>
      <trkpt lat="46.27637" lon="5.85929">
        <ele>1240.8</ele>
      </trkpt>
      <trkpt lat="46.27619" lon="5.85923">
        <ele>1242.942</ele>
      </trkpt>
      <trkpt lat="46.27609" lon="5.85913">
        <ele>1244.526</ele>
      </trkpt>
      <trkpt lat="46.27597" lon="5.85898">
        <ele>1246.884</ele>
      </trkpt>
      <trkpt lat="46.27593" lon="5.85883">
        <ele>1247.841</ele>
      </trkpt>
      <trkpt lat="46.2759" lon="5.85862">
        <ele>1248.998</ele>
      </trkpt>
      <trkpt lat="46.27575" lon="5.85856">
        <ele>1250.429</ele>
      </trkpt>
      <trkpt lat="46.27565" lon="5.85855">
        <ele>1251.133</ele>
      </trkpt>
      <trkpt lat="46.27549" lon="5.85852">
        <ele>1252.675</ele>
      </trkpt>
      <trkpt lat="46.27539" lon="5.85858">
        <ele>1255.179</ele>
      </trkpt>
      <trkpt lat="46.27533" lon="5.85864">
        <ele>1257.369</ele>
      </trkpt>
      <trkpt lat="46.27528" lon="5.85879">
        <ele>1260.515</ele>
      </trkpt>
      <trkpt lat="46.27529" lon="5.85898">
        <ele>1262.885</ele>
      </trkpt>
      <trkpt lat="46.27536" lon="5.85913">
        <ele>1263.004</ele>
      </trkpt>
      <trkpt lat="46.27537" lon="5.85931">
        <ele>1264.451</ele>
      </trkpt>
      <trkpt lat="46.27533" lon="5.85941">
        <ele>1267.023</ele>
      </trkpt>
      <trkpt lat="46.27522" lon="5.85951">
        <ele>1269.349</ele>
      </trkpt>
      <trkpt lat="46.27515" lon="5.85969">
        <ele>1269.525</ele>
      </trkpt>
      <trkpt lat="46.27512" lon="5.85981">
        <ele>1269.252</ele>
      </trkpt>
      <trkpt lat="46.27512" lon="5.85996">
        <ele>1268.926</ele>
      </trkpt>
      <trkpt lat="46.27513" lon="5.86007">
        <ele>1268.899</ele>
      </trkpt>
      <trkpt lat="46.27519" lon="5.86021">
        <ele>1269.355</ele>
      </trkpt>
      <trkpt lat="46.27519" lon="5.86031">
        <ele>1269.3</ele>
      </trkpt>
      <trkpt lat="46.27507" lon="5.86051">
        <ele>1268.912</ele>
      </trkpt>
      <trkpt lat="46.27496" lon="5.86066">
        <ele>1270.008</ele>
      </trkpt>
      <trkpt lat="46.27488" lon="5.86076">
        <ele>1271.713</ele>
      </trkpt>
      <trkpt lat="46.27478" lon="5.86078">
        <ele>1273.263</ele>
      </trkpt>
      <trkpt lat="46.27464" lon="5.86076">
        <ele>1273.729</ele>
      </trkpt>
      <trkpt lat="46.27453" lon="5.86073">
        <ele>1273.793</ele>
      </trkpt>
      <trkpt lat="46.27442" lon="5.86081">
        <ele>1275.853</ele>
      </trkpt>
      <trkpt lat="46.27424" lon="5.86102">
        <ele>1280.627</ele>
      </trkpt>
      <trkpt lat="46.2741" lon="5.86115">
        <ele>1283.191</ele>
      </trkpt>
      <trkpt lat="46.27397" lon="5.86118">
        <ele>1285.238</ele>
      </trkpt>
      <trkpt lat="46.27381" lon="5.86119">
        <ele>1286.734</ele>
      </trkpt>
      <trkpt lat="46.27364" lon="5.86118">
        <ele>1287.79</ele>
      </trkpt>
      <trkpt lat="46.27347" lon="5.86123">
        <ele>1289.051</ele>
      </trkpt>
      <trkpt lat="46.27334" lon="5.8614">
        <ele>1291.212</ele>
      </trkpt>
      <trkpt lat="46.27323" lon="5.86164">
        <ele>1294.654</ele>
      </trkpt>
      <trkpt lat="46.27313" lon="5.86183">
        <ele>1296.751</ele>
      </trkpt>
      <trkpt lat="46.27302" lon="5.862">
        <ele>1298.824</ele>
      </trkpt>
      <trkpt lat="46.27293" lon="5.86209">
        <ele>1300.354</ele>
      </trkpt>
      <trkpt lat="46.27277" lon="5.86224">
        <ele>1303.523</ele>
      </trkpt>
      <trkpt lat="46.2726" lon="5.86244">
        <ele>1309.211</ele>
      </trkpt>
      <trkpt lat="46.27247" lon="5.86261">
        <ele>1311.655</ele>
      </trkpt>
      <trkpt lat="46.27234" lon="5.86282">
        <ele>1312.085</ele>
      </trkpt>
      <trkpt lat="46.27227" lon="5.86299">
        <ele>1312.305</ele>
      </trkpt>
      <trkpt lat="46.27226" lon="5.86312">
        <ele>1312.587</ele>
      </trkpt>
      <trkpt lat="46.27247" lon="5.86372">
        <ele>1311.043</ele>
      </trkpt>
      <trkpt lat="46.27261" lon="5.86399">
        <ele>1308.954</ele>
      </trkpt>
      <trkpt lat="46.27276" lon="5.86424">
        <ele>1307.051</ele>
      </trkpt>
      <trkpt lat="46.27292" lon="5.86441">
        <ele>1305.913</ele>
      </trkpt>
      <trkpt lat="46.27307" lon="5.86455">
        <ele>1304.909</ele>
      </trkpt>
      <trkpt lat="46.27318" lon="5.86466">
        <ele>1303.923</ele>
      </trkpt>
      <trkpt lat="46.27317" lon="5.86475">
        <ele>1302.734</ele>
      </trkpt>
      <trkpt lat="46.27301" lon="5.86484">
        <ele>1301.126</ele>
      </trkpt>
      <trkpt lat="46.27292" lon="5.86497">
        <ele>1299.036</ele>
      </trkpt>
      <trkpt lat="46.27284" lon="5.86514">
        <ele>1295.304</ele>
      </trkpt>
      <trkpt lat="46.2728" lon="5.86531">
        <ele>1291.208</ele>
      </trkpt>
      <trkpt lat="46.27274" lon="5.86546">
        <ele>1289.443</ele>
      </trkpt>
      <trkpt lat="46.27265" lon="5.8656">
        <ele>1287.755</ele>
      </trkpt>
      <trkpt lat="46.27256" lon="5.86561">
        <ele>1287.03</ele>
      </trkpt>
      <trkpt lat="46.27243" lon="5.86552">
        <ele>1286.799</ele>
      </trkpt>
      <trkpt lat="46.27232" lon="5.86554">
        <ele>1285.802</ele>
      </trkpt>
      <trkpt lat="46.27225" lon="5.86573">
        <ele>1283.904</ele>
      </trkpt>
      <trkpt lat="46.27213" lon="5.86584">
        <ele>1282.369</ele>
      </trkpt>
      <trkpt lat="46.27198" lon="5.86593">
        <ele>1281.895</ele>
      </trkpt>
      <trkpt lat="46.27187" lon="5.86603">
        <ele>1283.04</ele>
      </trkpt>
      <trkpt lat="46.27184" lon="5.86624">
        <ele>1286.402</ele>
      </trkpt>
      <trkpt lat="46.27176" lon="5.86645">
        <ele>1291.815</ele>
      </trkpt>
      <trkpt lat="46.27167" lon="5.86662">
        <ele>1298.639</ele>
      </trkpt>
      <trkpt lat="46.27155" lon="5.86673">
        <ele>1303.593</ele>
      </trkpt>
      <trkpt lat="46.27138" lon="5.8668">
        <ele>1307.959</ele>
      </trkpt>
      <trkpt lat="46.27124" lon="5.86685">
        <ele>1310.066</ele>
      </trkpt>
      <trkpt lat="46.27111" lon="5.86681">
        <ele>1311.042</ele>
      </trkpt>
      <trkpt lat="46.27094" lon="5.86687">
        <ele>1311.43</ele>
      </trkpt>
      <trkpt lat="46.27083" lon="5.86694">
        <ele>1311.961</ele>
      </trkpt>
      <trkpt lat="46.27072" lon="5.86705">
        <ele>1312.216</ele>
      </trkpt>
      <trkpt lat="46.27063" lon="5.8672">
        <ele>1312.232</ele>
      </trkpt>
      <trkpt lat="46.27045" lon="5.86737">
        <ele>1311.777</ele>
      </trkpt>
      <trkpt lat="46.27035" lon="5.86748">
        <ele>1311.408</ele>
      </trkpt>
      <trkpt lat="46.27028" lon="5.86749">
        <ele>1310.962</ele>
      </trkpt>
      <trkpt lat="46.2702" lon="5.86747">
        <ele>1309.307</ele>
      </trkpt>
      <trkpt lat="46.27008" lon="5.86735">
        <ele>1307.365</ele>
      </trkpt>
      <trkpt lat="46.27001" lon="5.86723">
        <ele>1307.024</ele>
      </trkpt>
      <trkpt lat="46.26987" lon="5.86722">
        <ele>1303.725</ele>
      </trkpt>
      <trkpt lat="46.26977" lon="5.86729">
        <ele>1300.403</ele>
      </trkpt>
      <trkpt lat="46.26967" lon="5.8674">
        <ele>1296.268</ele>
      </trkpt>
      <trkpt lat="46.26959" lon="5.86754">
        <ele>1291.258</ele>
      </trkpt>
      <trkpt lat="46.26956" lon="5.86765">
        <ele>1288.776</ele>
      </trkpt>
      <trkpt lat="46.26955" lon="5.86777">
        <ele>1286.692</ele>
      </trkpt>
      <trkpt lat="46.26969" lon="5.86803">
        <ele>1289.724</ele>
      </trkpt>
      <trkpt lat="46.26974" lon="5.86831">
        <ele>1286.992</ele>
      </trkpt>
      <trkpt lat="46.26976" lon="5.86862">
        <ele>1284.718</ele>
      </trkpt>
      <trkpt lat="46.26975" lon="5.86877">
        <ele>1282.854</ele>
      </trkpt>
      <trkpt lat="46.26977" lon="5.869">
        <ele>1281.639</ele>
      </trkpt>
      <trkpt lat="46.26979" lon="5.86916">
        <ele>1281.379</ele>
      </trkpt>
      <trkpt lat="46.26981" lon="5.86928">
        <ele>1281.549</ele>
      </trkpt>
      <trkpt lat="46.2698" lon="5.86949">
        <ele>1280.655</ele>
      </trkpt>
      <trkpt lat="46.26977" lon="5.86961">
        <ele>1280.263</ele>
      </trkpt>
      <trkpt lat="46.26974" lon="5.86971">
        <ele>1280.065</ele>
      </trkpt>
      <trkpt lat="46.26968" lon="5.86971">
        <ele>1279.931</ele>
      </trkpt>
      <trkpt lat="46.26957" lon="5.86962">
        <ele>1279.416</ele>
      </trkpt>
      <trkpt lat="46.26948" lon="5.86955">
        <ele>1278.823</ele>
      </trkpt>
      <trkpt lat="46.26944" lon="5.86945">
        <ele>1277.961</ele>
      </trkpt>
      <trkpt lat="46.26935" lon="5.86934">
        <ele>1275.968</ele>
      </trkpt>
      <trkpt lat="46.26928" lon="5.86926">
        <ele>1274.252</ele>
      </trkpt>
      <trkpt lat="46.26919" lon="5.86924">
        <ele>1272.807</ele>
      </trkpt>
      <trkpt lat="46.26905" lon="5.86932">
        <ele>1271.822</ele>
      </trkpt>
      <trkpt lat="46.26892" lon="5.86945">
        <ele>1270.489</ele>
      </trkpt>
      <trkpt lat="46.26876" lon="5.86965">
        <ele>1270</ele>
      </trkpt>
      <trkpt lat="46.2686" lon="5.8698">
        <ele>1269.976</ele>
      </trkpt>
      <trkpt lat="46.26848" lon="5.86989">
        <ele>1270.089</ele>
      </trkpt>
      <trkpt lat="46.2683" lon="5.86993">
        <ele>1270.96</ele>
      </trkpt>
      <trkpt lat="46.26815" lon="5.8699">
        <ele>1272.789</ele>
      </trkpt>
      <trkpt lat="46.26796" lon="5.86987">
        <ele>1275.315</ele>
      </trkpt>
      <trkpt lat="46.26786" lon="5.86986">
        <ele>1277.017</ele>
      </trkpt>
      <trkpt lat="46.26773" lon="5.86976">
        <ele>1277.629</ele>
      </trkpt>
      <trkpt lat="46.26763" lon="5.86964">
        <ele>1278.206</ele>
      </trkpt>
      <trkpt lat="46.26756" lon="5.86949">
        <ele>1278.177</ele>
      </trkpt>
      <trkpt lat="46.26752" lon="5.86942">
        <ele>1278.458</ele>
      </trkpt>
      <trkpt lat="46.26742" lon="5.8693">
        <ele>1279.123</ele>
      </trkpt>
      <trkpt lat="46.26718" lon="5.86925">
        <ele>1281.845</ele>
      </trkpt>
      <trkpt lat="46.26679" lon="5.86921">
        <ele>1284.259</ele>
      </trkpt>
      <trkpt lat="46.26638" lon="5.86917">
        <ele>1287.047</ele>
      </trkpt>
      <trkpt lat="46.26606" lon="5.86918">
        <ele>1288.705</ele>
      </trkpt>
      <trkpt lat="46.26576" lon="5.86919">
        <ele>1291.154</ele>
      </trkpt>
      <trkpt lat="46.2655" lon="5.86921">
        <ele>1290.841</ele>
      </trkpt>
      <trkpt lat="46.26533" lon="5.86923">
        <ele>1289.851</ele>
      </trkpt>
      <trkpt lat="46.26518" lon="5.86932">
        <ele>1288.095</ele>
      </trkpt>
      <trkpt lat="46.26503" lon="5.86944">
        <ele>1287.928</ele>
      </trkpt>
      <trkpt lat="46.26487" lon="5.86959">
        <ele>1286.467</ele>
      </trkpt>
      <trkpt lat="46.26484" lon="5.86972">
        <ele>1286.274</ele>
      </trkpt>
      <trkpt lat="46.26482" lon="5.86989">
        <ele>1284.788</ele>
      </trkpt>
      <trkpt lat="46.26488" lon="5.87017">
        <ele>1285.527</ele>
      </trkpt>
      <trkpt lat="46.26496" lon="5.87042">
        <ele>1287.169</ele>
      </trkpt>
      <trkpt lat="46.26502" lon="5.87083">
        <ele>1289.913</ele>
      </trkpt>
      <trkpt lat="46.26508" lon="5.87108">
        <ele>1292.824</ele>
      </trkpt>
      <trkpt lat="46.26513" lon="5.87137">
        <ele>1295.119</ele>
      </trkpt>
      <trkpt lat="46.26518" lon="5.87165">
        <ele>1296.635</ele>
      </trkpt>
      <trkpt lat="46.2652" lon="5.87187">
        <ele>1295.625</ele>
      </trkpt>
      <trkpt lat="46.2652" lon="5.87208">
        <ele>1294.475</ele>
      </trkpt>
      <trkpt lat="46.26529" lon="5.87239">
        <ele>1295.459</ele>
      </trkpt>
      <trkpt lat="46.26541" lon="5.87261">
        <ele>1297.468</ele>
      </trkpt>
      <trkpt lat="46.26559" lon="5.87288">
        <ele>1299.264</ele>
      </trkpt>
      <trkpt lat="46.26571" lon="5.873">
        <ele>1302.316</ele>
      </trkpt>
      <trkpt lat="46.26581" lon="5.87317">
        <ele>1304.084</ele>
      </trkpt>
      <trkpt lat="46.2659" lon="5.87336">
        <ele>1304.488</ele>
      </trkpt>
      <trkpt lat="46.26595" lon="5.87352">
        <ele>1303.575</ele>
      </trkpt>
      <trkpt lat="46.26602" lon="5.87367">
        <ele>1304.499</ele>
      </trkpt>
      <trkpt lat="46.26605" lon="5.87382">
        <ele>1305.685</ele>
      </trkpt>
      <trkpt lat="46.26606" lon="5.87397">
        <ele>1306.963</ele>
      </trkpt>
      <trkpt lat="46.26605" lon="5.87416">
        <ele>1309.001</ele>
      </trkpt>
      <trkpt lat="46.26605" lon="5.87426">
        <ele>1309.819</ele>
      </trkpt>
      <trkpt lat="46.26607" lon="5.87439">
        <ele>1311.262</ele>
      </trkpt>
      <trkpt lat="46.26608" lon="5.87465">
        <ele>1315.909</ele>
      </trkpt>
      <trkpt lat="46.26609" lon="5.87483">
        <ele>1317.905</ele>
      </trkpt>
      <trkpt lat="46.26616" lon="5.87503">
        <ele>1319.332</ele>
      </trkpt>
      <trkpt lat="46.26628" lon="5.87517">
        <ele>1317.022</ele>
      </trkpt>
      <trkpt lat="46.26636" lon="5.87524">
        <ele>1316.966</ele>
      </trkpt>
      <trkpt lat="46.2664" lon="5.87532">
        <ele>1318.085</ele>
      </trkpt>
      <trkpt lat="46.26642" lon="5.8754">
        <ele>1320.087</ele>
      </trkpt>
      <trkpt lat="46.26639" lon="5.87552">
        <ele>1322.133</ele>
      </trkpt>
      <trkpt lat="46.26636" lon="5.87559">
        <ele>1322.623</ele>
      </trkpt>
      <trkpt lat="46.26632" lon="5.87569">
        <ele>1322.438</ele>
      </trkpt>
      <trkpt lat="46.26631" lon="5.87575">
        <ele>1322.476</ele>
      </trkpt>
      <trkpt lat="46.2663" lon="5.87588">
        <ele>1322.438</ele>
      </trkpt>
      <trkpt lat="46.26638" lon="5.87602">
        <ele>1323.619</ele>
      </trkpt>
      <trkpt lat="46.26648" lon="5.8762">
        <ele>1324.834</ele>
      </trkpt>
      <trkpt lat="46.26653" lon="5.87625">
        <ele>1325.671</ele>
      </trkpt>
      <trkpt lat="46.26662" lon="5.87639">
        <ele>1327.593</ele>
      </trkpt>
      <trkpt lat="46.26674" lon="5.87654">
        <ele>1329.901</ele>
      </trkpt>
      <trkpt lat="46.26685" lon="5.8767">
        <ele>1332.093</ele>
      </trkpt>
      <trkpt lat="46.26696" lon="5.87688">
        <ele>1335.321</ele>
      </trkpt>
      <trkpt lat="46.26701" lon="5.87703">
        <ele>1337.812</ele>
      </trkpt>
      <trkpt lat="46.267" lon="5.87718">
        <ele>1340.123</ele>
      </trkpt>
      <trkpt lat="46.267" lon="5.87739">
        <ele>1341.105</ele>
      </trkpt>
      <trkpt lat="46.26701" lon="5.87758">
        <ele>1342.429</ele>
      </trkpt>
      <trkpt lat="46.26702" lon="5.87768">
        <ele>1343.371</ele>
      </trkpt>
      <trkpt lat="46.26702" lon="5.8778">
        <ele>1344.615</ele>
      </trkpt>
      <trkpt lat="46.26696" lon="5.87787">
        <ele>1346.544</ele>
      </trkpt>
      <trkpt lat="46.2668" lon="5.87785">
        <ele>1346.743</ele>
      </trkpt>
      <trkpt lat="46.26663" lon="5.87784">
        <ele>1347.905</ele>
      </trkpt>
      <trkpt lat="46.26647" lon="5.87786">
        <ele>1349.321</ele>
      </trkpt>
      <trkpt lat="46.2664" lon="5.87793">
        <ele>1349.463</ele>
      </trkpt>
      <trkpt lat="46.26632" lon="5.87816">
        <ele>1346.288</ele>
      </trkpt>
      <trkpt lat="46.2663" lon="5.8784">
        <ele>1343.54</ele>
      </trkpt>
      <trkpt lat="46.26633" lon="5.8786">
        <ele>1343.377</ele>
      </trkpt>
      <trkpt lat="46.26632" lon="5.87881">
        <ele>1340.997</ele>
      </trkpt>
      <trkpt lat="46.26636" lon="5.87907">
        <ele>1336.929</ele>
      </trkpt>
      <trkpt lat="46.26652" lon="5.87934">
        <ele>1335.015</ele>
      </trkpt>
      <trkpt lat="46.26663" lon="5.87947">
        <ele>1334.184</ele>
      </trkpt>
      <trkpt lat="46.2668" lon="5.87968">
        <ele>1334.313</ele>
      </trkpt>
      <trkpt lat="46.26695" lon="5.87987">
        <ele>1333.713</ele>
      </trkpt>
      <trkpt lat="46.26705" lon="5.88007">
        <ele>1332.306</ele>
      </trkpt>
      <trkpt lat="46.26711" lon="5.88016">
        <ele>1332.613</ele>
      </trkpt>
      <trkpt lat="46.26715" lon="5.88029">
        <ele>1331.003</ele>
      </trkpt>
      <trkpt lat="46.26719" lon="5.8805">
        <ele>1331.262</ele>
      </trkpt>
      <trkpt lat="46.26722" lon="5.88084">
        <ele>1330.682</ele>
      </trkpt>
      <trkpt lat="46.26724" lon="5.88111">
        <ele>1328.616</ele>
      </trkpt>
      <trkpt lat="46.26726" lon="5.88133">
        <ele>1327.297</ele>
      </trkpt>
      <trkpt lat="46.26728" lon="5.88158">
        <ele>1325.246</ele>
      </trkpt>
      <trkpt lat="46.26732" lon="5.88182">
        <ele>1321.954</ele>
      </trkpt>
      <trkpt lat="46.26736" lon="5.88202">
        <ele>1318.683</ele>
      </trkpt>
      <trkpt lat="46.26751" lon="5.88231">
        <ele>1317.853</ele>
      </trkpt>
      <trkpt lat="46.26769" lon="5.88271">
        <ele>1314.231</ele>
      </trkpt>
      <trkpt lat="46.26793" lon="5.88302">
        <ele>1313.015</ele>
      </trkpt>
      <trkpt lat="46.26807" lon="5.88332">
        <ele>1309.288</ele>
      </trkpt>
      <trkpt lat="46.26822" lon="5.88373">
        <ele>1300.614</ele>
      </trkpt>
      <trkpt lat="46.26841" lon="5.88409">
        <ele>1298.286</ele>
      </trkpt>
      <trkpt lat="46.26876" lon="5.88469">
        <ele>1296.927</ele>
      </trkpt>
      <trkpt lat="46.26899" lon="5.88503">
        <ele>1294.849</ele>
      </trkpt>
      <trkpt lat="46.26933" lon="5.88546">
        <ele>1289.943</ele>
      </trkpt>
      <trkpt lat="46.26956" lon="5.88572">
        <ele>1285.746</ele>
      </trkpt>
      <trkpt lat="46.26981" lon="5.886">
        <ele>1280.983</ele>
      </trkpt>
      <trkpt lat="46.27008" lon="5.88631">
        <ele>1276.038</ele>
      </trkpt>
      <trkpt lat="46.27043" lon="5.88667">
        <ele>1269.991</ele>
      </trkpt>
      <trkpt lat="46.27076" lon="5.887">
        <ele>1266.125</ele>
      </trkpt>
      <trkpt lat="46.27098" lon="5.88719">
        <ele>1264.083</ele>
      </trkpt>
      <trkpt lat="46.27127" lon="5.88739">
        <ele>1262.452</ele>
      </trkpt>
      <trkpt lat="46.27153" lon="5.88757">
        <ele>1258.886</ele>
      </trkpt>
      <trkpt lat="46.27179" lon="5.88764">
        <ele>1257.381</ele>
      </trkpt>
      <trkpt lat="46.27207" lon="5.88762">
        <ele>1256.239</ele>
      </trkpt>
      <trkpt lat="46.27228" lon="5.88767">
        <ele>1254.512</ele>
      </trkpt>
      <trkpt lat="46.27243" lon="5.88768">
        <ele>1255.576</ele>
      </trkpt>
      <trkpt lat="46.27266" lon="5.88782">
        <ele>1255.256</ele>
      </trkpt>
      <trkpt lat="46.27294" lon="5.88797">
        <ele>1255.996</ele>
      </trkpt>
      <trkpt lat="46.27328" lon="5.88815">
        <ele>1255.444</ele>
      </trkpt>
      <trkpt lat="46.27369" lon="5.88849">
        <ele>1253.062</ele>
      </trkpt>
      <trkpt lat="46.27398" lon="5.8887">
        <ele>1252.916</ele>
      </trkpt>
      <trkpt lat="46.27434" lon="5.88899">
        <ele>1254.877</ele>
      </trkpt>
      <trkpt lat="46.27464" lon="5.88933">
        <ele>1257.919</ele>
      </trkpt>
      <trkpt lat="46.2748" lon="5.88952">
        <ele>1259.649</ele>
      </trkpt>
      <trkpt lat="46.27495" lon="5.88981">
        <ele>1261.651</ele>
      </trkpt>
      <trkpt lat="46.27502" lon="5.89002">
        <ele>1262.744</ele>
      </trkpt>
      <trkpt lat="46.27507" lon="5.89022">
        <ele>1262.536</ele>
      </trkpt>
      <trkpt lat="46.27503" lon="5.89046">
        <ele>1260.526</ele>
      </trkpt>
      <trkpt lat="46.27496" lon="5.8906">
        <ele>1257.43</ele>
      </trkpt>
      <trkpt lat="46.27493" lon="5.89076">
        <ele>1253.245</ele>
      </trkpt>
      <trkpt lat="46.27493" lon="5.89091">
        <ele>1250.8</ele>
      </trkpt>
      <trkpt lat="46.275" lon="5.89108">
        <ele>1250.282</ele>
      </trkpt>
      <trkpt lat="46.27504" lon="5.89126">
        <ele>1249.145</ele>
      </trkpt>
      <trkpt lat="46.27504" lon="5.89139">
        <ele>1247.43</ele>
      </trkpt>
      <trkpt lat="46.27501" lon="5.89148">
        <ele>1248.422</ele>
      </trkpt>
      <trkpt lat="46.27487" lon="5.89152">
        <ele>1248.216</ele>
      </trkpt>
      <trkpt lat="46.27474" lon="5.89156">
        <ele>1248.177</ele>
      </trkpt>
      <trkpt lat="46.2746" lon="5.89167">
        <ele>1247.78</ele>
      </trkpt>
      <trkpt lat="46.27453" lon="5.89182">
        <ele>1246.822</ele>
      </trkpt>
      <trkpt lat="46.27445" lon="5.89206">
        <ele>1246.013</ele>
      </trkpt>
      <trkpt lat="46.27437" lon="5.89215">
        <ele>1245.708</ele>
      </trkpt>
      <trkpt lat="46.27432" lon="5.89243">
        <ele>1249.238</ele>
      </trkpt>
      <trkpt lat="46.2743" lon="5.89257">
        <ele>1250.99</ele>
      </trkpt>
      <trkpt lat="46.27431" lon="5.89269">
        <ele>1251.863</ele>
      </trkpt>
      <trkpt lat="46.27434" lon="5.89292">
        <ele>1252.626</ele>
      </trkpt>
      <trkpt lat="46.27434" lon="5.89306">
        <ele>1252.537</ele>
      </trkpt>
      <trkpt lat="46.27436" lon="5.89327">
        <ele>1253.24</ele>
      </trkpt>
      <trkpt lat="46.27433" lon="5.89343">
        <ele>1253.624</ele>
      </trkpt>
      <trkpt lat="46.27425" lon="5.89364">
        <ele>1254.967</ele>
      </trkpt>
      <trkpt lat="46.27414" lon="5.89383">
        <ele>1257.81</ele>
      </trkpt>
      <trkpt lat="46.27403" lon="5.89395">
        <ele>1260.765</ele>
      </trkpt>
      <trkpt lat="46.27395" lon="5.89411">
        <ele>1261.983</ele>
      </trkpt>
      <trkpt lat="46.27392" lon="5.89443">
        <ele>1259.438</ele>
      </trkpt>
      <trkpt lat="46.2739" lon="5.89454">
        <ele>1259.455</ele>
      </trkpt>
      <trkpt lat="46.27388" lon="5.89477">
        <ele>1260.308</ele>
      </trkpt>
      <trkpt lat="46.27384" lon="5.89493">
        <ele>1261.203</ele>
      </trkpt>
      <trkpt lat="46.27378" lon="5.8951">
        <ele>1261.233</ele>
      </trkpt>
      <trkpt lat="46.27373" lon="5.89526">
        <ele>1260.873</ele>
      </trkpt>
      <trkpt lat="46.27367" lon="5.89536">
        <ele>1260.042</ele>
      </trkpt>
      <trkpt lat="46.27363" lon="5.89552">
        <ele>1259.169</ele>
      </trkpt>
      <trkpt lat="46.27363" lon="5.89571">
        <ele>1259</ele>
      </trkpt>
      <trkpt lat="46.27359" lon="5.8959">
        <ele>1259.146</ele>
      </trkpt>
      <trkpt lat="46.2735" lon="5.89611">
        <ele>1259.035</ele>
      </trkpt>
      <trkpt lat="46.27343" lon="5.89631">
        <ele>1257.699</ele>
      </trkpt>
      <trkpt lat="46.27337" lon="5.89652">
        <ele>1255.15</ele>
      </trkpt>
      <trkpt lat="46.27333" lon="5.89666">
        <ele>1251.705</ele>
      </trkpt>
      <trkpt lat="46.27332" lon="5.89683">
        <ele>1247.352</ele>
      </trkpt>
      <trkpt lat="46.27332" lon="5.89702">
        <ele>1243.486</ele>
      </trkpt>
      <trkpt lat="46.27339" lon="5.89724">
        <ele>1245.627</ele>
      </trkpt>
      <trkpt lat="46.27345" lon="5.89735">
        <ele>1247.184</ele>
      </trkpt>
      <trkpt lat="46.27348" lon="5.89755">
        <ele>1246.07</ele>
      </trkpt>
      <trkpt lat="46.27347" lon="5.89776">
        <ele>1244.647</ele>
      </trkpt>
      <trkpt lat="46.27347" lon="5.89796">
        <ele>1244.668</ele>
      </trkpt>
      <trkpt lat="46.27343" lon="5.89808">
        <ele>1243.709</ele>
      </trkpt>
      <trkpt lat="46.27337" lon="5.89824">
        <ele>1241.844</ele>
      </trkpt>
      <trkpt lat="46.27334" lon="5.89843">
        <ele>1241.134</ele>
      </trkpt>
      <trkpt lat="46.27333" lon="5.89869">
        <ele>1240.363</ele>
      </trkpt>
      <trkpt lat="46.27343" lon="5.89893">
        <ele>1239.369</ele>
      </trkpt>
      <trkpt lat="46.27355" lon="5.89916">
        <ele>1233.911</ele>
      </trkpt>
      <trkpt lat="46.27365" lon="5.8993">
        <ele>1233.348</ele>
      </trkpt>
      <trkpt lat="46.27375" lon="5.89948">
        <ele>1233.497</ele>
      </trkpt>
      <trkpt lat="46.27385" lon="5.8998">
        <ele>1231.75</ele>
      </trkpt>
      <trkpt lat="46.27397" lon="5.90028">
        <ele>1232.287</ele>
      </trkpt>
      <trkpt lat="46.27411" lon="5.90071">
        <ele>1226.693</ele>
      </trkpt>
      <trkpt lat="46.27426" lon="5.90117">
        <ele>1218.6</ele>
      </trkpt>
      <trkpt lat="46.2744" lon="5.90141">
        <ele>1219.922</ele>
      </trkpt>
      <trkpt lat="46.2746" lon="5.9018">
        <ele>1217.703</ele>
      </trkpt>
      <trkpt lat="46.2748" lon="5.90217">
        <ele>1215.084</ele>
      </trkpt>
      <trkpt lat="46.27504" lon="5.90249">
        <ele>1211.708</ele>
      </trkpt>
      <trkpt lat="46.27526" lon="5.90277">
        <ele>1207.975</ele>
      </trkpt>
      <trkpt lat="46.27548" lon="5.90302">
        <ele>1203.155</ele>
      </trkpt>
      <trkpt lat="46.2757" lon="5.90331">
        <ele>1198.257</ele>
      </trkpt>
      <trkpt lat="46.27589" lon="5.90354">
        <ele>1195.055</ele>
      </trkpt>
      <trkpt lat="46.27594" lon="5.9037">
        <ele>1192.197</ele>
      </trkpt>
      <trkpt lat="46.27601" lon="5.9039">
        <ele>1189.216</ele>
      </trkpt>
      <trkpt lat="46.27607" lon="5.90412">
        <ele>1189.082</ele>
      </trkpt>
      <trkpt lat="46.27612" lon="5.90448">
        <ele>1188.35</ele>
      </trkpt>
      <trkpt lat="46.27612" lon="5.90459">
        <ele>1188.149</ele>
      </trkpt>
      <trkpt lat="46.27604" lon="5.90463">
        <ele>1187.833</ele>
      </trkpt>
      <trkpt lat="46.27595" lon="5.90455">
        <ele>1187.273</ele>
      </trkpt>
      <trkpt lat="46.27583" lon="5.90439">
        <ele>1185.237</ele>
      </trkpt>
      <trkpt lat="46.27579" lon="5.90429">
        <ele>1183.041</ele>
      </trkpt>
      <trkpt lat="46.27578" lon="5.90429">
        <ele>1182.828</ele>
      </trkpt>
      <trkpt lat="46.27572" lon="5.90424">
        <ele>1181.092</ele>
      </trkpt>
      <trkpt lat="46.27569" lon="5.90424">
        <ele>1180.453</ele>
      </trkpt>
      <trkpt lat="46.27562" lon="5.90432">
        <ele>1180.297</ele>
      </trkpt>
      <trkpt lat="46.27556" lon="5.90454">
        <ele>1181.365</ele>
      </trkpt>
      <trkpt lat="46.27559" lon="5.90465">
        <ele>1182.407</ele>
      </trkpt>
      <trkpt lat="46.27566" lon="5.90487">
        <ele>1180.733</ele>
      </trkpt>
      <trkpt lat="46.27576" lon="5.90499">
        <ele>1180.314</ele>
      </trkpt>
      <trkpt lat="46.2759" lon="5.90505">
        <ele>1181.743</ele>
      </trkpt>
      <trkpt lat="46.27604" lon="5.90506">
        <ele>1183.356</ele>
      </trkpt>
      <trkpt lat="46.27616" lon="5.90511">
        <ele>1182.442</ele>
      </trkpt>
      <trkpt lat="46.27625" lon="5.9052">
        <ele>1179.067</ele>
      </trkpt>
      <trkpt lat="46.27636" lon="5.90547">
        <ele>1172.845</ele>
      </trkpt>
      <trkpt lat="46.27646" lon="5.90578">
        <ele>1173.243</ele>
      </trkpt>
      <trkpt lat="46.2766" lon="5.90608">
        <ele>1168.659</ele>
      </trkpt>
      <trkpt lat="46.27678" lon="5.90637">
        <ele>1162.589</ele>
      </trkpt>
      <trkpt lat="46.27693" lon="5.90663">
        <ele>1156.325</ele>
      </trkpt>
      <trkpt lat="46.27713" lon="5.90688">
        <ele>1154.354</ele>
      </trkpt>
      <trkpt lat="46.27731" lon="5.90706">
        <ele>1154.734</ele>
      </trkpt>
      <trkpt lat="46.27751" lon="5.90725">
        <ele>1154.215</ele>
      </trkpt>
      <trkpt lat="46.27765" lon="5.90734">
        <ele>1153.728</ele>
      </trkpt>
      <trkpt lat="46.27782" lon="5.9075">
        <ele>1150.635</ele>
      </trkpt>
      <trkpt lat="46.27793" lon="5.90765">
        <ele>1146.074</ele>
      </trkpt>
      <trkpt lat="46.27815" lon="5.90791">
        <ele>1144.2</ele>
      </trkpt>
      <trkpt lat="46.27828" lon="5.90809">
        <ele>1142.145</ele>
      </trkpt>
      <trkpt lat="46.27847" lon="5.90825">
        <ele>1139.705</ele>
      </trkpt>
      <trkpt lat="46.27864" lon="5.90833">
        <ele>1140.809</ele>
      </trkpt>
      <trkpt lat="46.27885" lon="5.90836">
        <ele>1138.001</ele>
      </trkpt>
      <trkpt lat="46.27907" lon="5.90844">
        <ele>1136.338</ele>
      </trkpt>
      <trkpt lat="46.27923" lon="5.90851">
        <ele>1135.375</ele>
      </trkpt>
      <trkpt lat="46.27941" lon="5.90872">
        <ele>1131.396</ele>
      </trkpt>
      <trkpt lat="46.27952" lon="5.90882">
        <ele>1130.259</ele>
      </trkpt>
      <trkpt lat="46.27962" lon="5.90898">
        <ele>1127.835</ele>
      </trkpt>
      <trkpt lat="46.27977" lon="5.90926">
        <ele>1122.025</ele>
      </trkpt>
      <trkpt lat="46.27995" lon="5.90962">
        <ele>1111.336</ele>
      </trkpt>
      <trkpt lat="46.28" lon="5.90972">
        <ele>1108.22</ele>
      </trkpt>
      <trkpt lat="46.28003" lon="5.9098">
        <ele>1105.273</ele>
      </trkpt>
      <trkpt lat="46.28023" lon="5.90989">
        <ele>1103.696</ele>
      </trkpt>
      <trkpt lat="46.28037" lon="5.90994">
        <ele>1102.849</ele>
      </trkpt>
      <trkpt lat="46.2804" lon="5.91005">
        <ele>1099.876</ele>
      </trkpt>
      <trkpt lat="46.28021" lon="5.91017">
        <ele>1095.321</ele>
      </trkpt>
      <trkpt lat="46.28005" lon="5.91026">
        <ele>1092.614</ele>
      </trkpt>
      <trkpt lat="46.27979" lon="5.9105">
        <ele>1085.904</ele>
      </trkpt>
      <trkpt lat="46.27968" lon="5.91069">
        <ele>1082.558</ele>
      </trkpt>
      <trkpt lat="46.2796" lon="5.91089">
        <ele>1079.255</ele>
      </trkpt>
      <trkpt lat="46.27955" lon="5.91105">
        <ele>1074.497</ele>
      </trkpt>
      <trkpt lat="46.27954" lon="5.91128">
        <ele>1071.849</ele>
      </trkpt>
      <trkpt lat="46.27948" lon="5.91145">
        <ele>1068.206</ele>
      </trkpt>
      <trkpt lat="46.27942" lon="5.91163">
        <ele>1062.79</ele>
      </trkpt>
      <trkpt lat="46.27932" lon="5.91183">
        <ele>1056.519</ele>
      </trkpt>
      <trkpt lat="46.27922" lon="5.91204">
        <ele>1049.115</ele>
      </trkpt>
      <trkpt lat="46.27912" lon="5.91221">
        <ele>1045.869</ele>
      </trkpt>
      <trkpt lat="46.27905" lon="5.91241">
        <ele>1046.08</ele>
      </trkpt>
      <trkpt lat="46.27905" lon="5.9128">
        <ele>1039.272</ele>
      </trkpt>
      <trkpt lat="46.27908" lon="5.91318">
        <ele>1031.611</ele>
      </trkpt>
      <trkpt lat="46.27911" lon="5.91351">
        <ele>1022.262</ele>
      </trkpt>
      <trkpt lat="46.27914" lon="5.91385">
        <ele>1005.09</ele>
      </trkpt>
      <trkpt lat="46.27915" lon="5.91424">
        <ele>991.093</ele>
      </trkpt>
      <trkpt lat="46.27914" lon="5.91455">
        <ele>982.843</ele>
      </trkpt>
      <trkpt lat="46.27918" lon="5.91484">
        <ele>974.828</ele>
      </trkpt>
      <trkpt lat="46.27931" lon="5.91511">
        <ele>970.369</ele>
      </trkpt>
      <trkpt lat="46.27951" lon="5.91533">
        <ele>971.316</ele>
      </trkpt>
      <trkpt lat="46.27966" lon="5.91551">
        <ele>967.592</ele>
      </trkpt>
      <trkpt lat="46.27985" lon="5.91565">
        <ele>966.585</ele>
      </trkpt>
      <trkpt lat="46.28015" lon="5.91588">
        <ele>963.51</ele>
      </trkpt>
      <trkpt lat="46.28037" lon="5.91601">
        <ele>960.802</ele>
      </trkpt>
      <trkpt lat="46.28055" lon="5.91613">
        <ele>955.014</ele>
      </trkpt>
      <trkpt lat="46.28074" lon="5.91629">
        <ele>953.446</ele>
      </trkpt>
      <trkpt lat="46.28086" lon="5.91641">
        <ele>950.111</ele>
      </trkpt>
      <trkpt lat="46.28111" lon="5.91671">
        <ele>940.874</ele>
      </trkpt>
      <trkpt lat="46.28128" lon="5.91691">
        <ele>937.929</ele>
      </trkpt>
      <trkpt lat="46.28147" lon="5.91712">
        <ele>934.754</ele>
      </trkpt>
      <trkpt lat="46.28167" lon="5.91741">
        <ele>923.346</ele>
      </trkpt>
      <trkpt lat="46.28193" lon="5.91769">
        <ele>917.833</ele>
      </trkpt>
      <trkpt lat="46.28213" lon="5.91793">
        <ele>909.216</ele>
      </trkpt>
      <trkpt lat="46.28237" lon="5.91817">
        <ele>899.389</ele>
      </trkpt>
      <trkpt lat="46.28263" lon="5.91848">
        <ele>886.344</ele>
      </trkpt>
      <trkpt lat="46.28285" lon="5.91875">
        <ele>875.552</ele>
      </trkpt>
      <trkpt lat="46.28309" lon="5.91891">
        <ele>871.265</ele>
      </trkpt>
      <trkpt lat="46.28319" lon="5.91907">
        <ele>866.544</ele>
      </trkpt>
      <trkpt lat="46.2833" lon="5.9193">
        <ele>860.761</ele>
      </trkpt>
      <trkpt lat="46.28338" lon="5.91944">
        <ele>858.157</ele>
      </trkpt>
      <trkpt lat="46.28356" lon="5.9195">
        <ele>857.303</ele>
      </trkpt>
      <trkpt lat="46.28384" lon="5.91961">
        <ele>856.362</ele>
      </trkpt>
      <trkpt lat="46.28416" lon="5.91983">
        <ele>854.629</ele>
      </trkpt>
      <trkpt lat="46.28447" lon="5.91996">
        <ele>854.737</ele>
      </trkpt>
      <trkpt lat="46.28471" lon="5.92011">
        <ele>854.175</ele>
      </trkpt>
      <trkpt lat="46.28499" lon="5.92027">
        <ele>852.157</ele>
      </trkpt>
      <trkpt lat="46.28536" lon="5.92044">
        <ele>854.18</ele>
      </trkpt>
      <trkpt lat="46.2855" lon="5.9205">
        <ele>854.105</ele>
      </trkpt>
      <trkpt lat="46.28568" lon="5.92063">
        <ele>853.31</ele>
      </trkpt>
      <trkpt lat="46.28579" lon="5.92059">
        <ele>855.025</ele>
      </trkpt>
      <trkpt lat="46.28593" lon="5.92053">
        <ele>856.982</ele>
      </trkpt>
      <trkpt lat="46.2861" lon="5.92056">
        <ele>855.963</ele>
      </trkpt>
      <trkpt lat="46.28625" lon="5.92067">
        <ele>855.331</ele>
      </trkpt>
      <trkpt lat="46.28639" lon="5.92079">
        <ele>854.904</ele>
      </trkpt>
      <trkpt lat="46.28652" lon="5.92091">
        <ele>855.887</ele>
      </trkpt>
      <trkpt lat="46.28666" lon="5.92097">
        <ele>856.964</ele>
      </trkpt>
      <trkpt lat="46.2868" lon="5.92095">
        <ele>856.998</ele>
      </trkpt>
      <trkpt lat="46.287" lon="5.92088">
        <ele>857.753</ele>
      </trkpt>
      <trkpt lat="46.28721" lon="5.92086">
        <ele>857.5</ele>
      </trkpt>
      <trkpt lat="46.28737" lon="5.92092">
        <ele>857.602</ele>
      </trkpt>
      <trkpt lat="46.28746" lon="5.92105">
        <ele>855.173</ele>
      </trkpt>
      <trkpt lat="46.28757" lon="5.92122">
        <ele>854.979</ele>
      </trkpt>
      <trkpt lat="46.28769" lon="5.92144">
        <ele>855.358</ele>
      </trkpt>
      <trkpt lat="46.28782" lon="5.92161">
        <ele>856.494</ele>
      </trkpt>
      <trkpt lat="46.28794" lon="5.9217">
        <ele>857.545</ele>
      </trkpt>
      <trkpt lat="46.28825" lon="5.92182">
        <ele>859.233</ele>
      </trkpt>
      <trkpt lat="46.2885" lon="5.92202">
        <ele>859.633</ele>
      </trkpt>
      <trkpt lat="46.28876" lon="5.92223">
        <ele>860.566</ele>
      </trkpt>
      <trkpt lat="46.28918" lon="5.92258">
        <ele>861.49</ele>
      </trkpt>
      <trkpt lat="46.28949" lon="5.92278">
        <ele>860.996</ele>
      </trkpt>
      <trkpt lat="46.28971" lon="5.92289">
        <ele>860.189</ele>
      </trkpt>
      <trkpt lat="46.29001" lon="5.92306">
        <ele>858.995</ele>
      </trkpt>
      <trkpt lat="46.29033" lon="5.92326">
        <ele>856.892</ele>
      </trkpt>
      <trkpt lat="46.29068" lon="5.92338">
        <ele>856.066</ele>
      </trkpt>
      <trkpt lat="46.29082" lon="5.92345">
        <ele>855.711</ele>
      </trkpt>
      <trkpt lat="46.29099" lon="5.92359">
        <ele>855.515</ele>
      </trkpt>
      <trkpt lat="46.29117" lon="5.9238">
        <ele>854.528</ele>
      </trkpt>
      <trkpt lat="46.2914" lon="5.92412">
        <ele>852.798</ele>
      </trkpt>
      <trkpt lat="46.29158" lon="5.92448">
        <ele>853.111</ele>
      </trkpt>
      <trkpt lat="46.29182" lon="5.9248">
        <ele>854.094</ele>
      </trkpt>
      <trkpt lat="46.29206" lon="5.92514">
        <ele>852.136</ele>
      </trkpt>
      <trkpt lat="46.29232" lon="5.92535">
        <ele>852.988</ele>
      </trkpt>
      <trkpt lat="46.29255" lon="5.92558">
        <ele>852.23</ele>
      </trkpt>
      <trkpt lat="46.29276" lon="5.92579">
        <ele>852.273</ele>
      </trkpt>
      <trkpt lat="46.29312" lon="5.92601">
        <ele>853.066</ele>
      </trkpt>
      <trkpt lat="46.2938" lon="5.92649">
        <ele>853.318</ele>
      </trkpt>
      <trkpt lat="46.29412" lon="5.92674">
        <ele>852.746</ele>
      </trkpt>
      <trkpt lat="46.2944" lon="5.92689">
        <ele>852.387</ele>
      </trkpt>
      <trkpt lat="46.29478" lon="5.92715">
        <ele>851.8</ele>
      </trkpt>
      <trkpt lat="46.29509" lon="5.9274">
        <ele>851.133</ele>
      </trkpt>
      <trkpt lat="46.29545" lon="5.92759">
        <ele>851.313</ele>
      </trkpt>
      <trkpt lat="46.29575" lon="5.92774">
        <ele>851.243</ele>
      </trkpt>
      <trkpt lat="46.29614" lon="5.92802">
        <ele>851.445</ele>
      </trkpt>
      <trkpt lat="46.29637" lon="5.9284">
        <ele>851.73</ele>
      </trkpt>
      <trkpt lat="46.2967" lon="5.92899">
        <ele>851.306</ele>
      </trkpt>
      <trkpt lat="46.29697" lon="5.92939">
        <ele>851.554</ele>
      </trkpt>
      <trkpt lat="46.29719" lon="5.92973">
        <ele>850.995</ele>
      </trkpt>
      <trkpt lat="46.29735" lon="5.92992">
        <ele>851.383</ele>
      </trkpt>
      <trkpt lat="46.29754" lon="5.93007">
        <ele>851.535</ele>
      </trkpt>
      <trkpt lat="46.29769" lon="5.93022">
        <ele>852.213</ele>
      </trkpt>
      <trkpt lat="46.29783" lon="5.93044">
        <ele>852.15</ele>
      </trkpt>
      <trkpt lat="46.29795" lon="5.93063">
        <ele>852</ele>
      </trkpt>
      <trkpt lat="46.29812" lon="5.9308">
        <ele>852.289</ele>
      </trkpt>
      <trkpt lat="46.29834" lon="5.93093">
        <ele>853.072</ele>
      </trkpt>
      <trkpt lat="46.29876" lon="5.93114">
        <ele>854.456</ele>
      </trkpt>
      <trkpt lat="46.29905" lon="5.93122">
        <ele>855.198</ele>
      </trkpt>
      <trkpt lat="46.29935" lon="5.93147">
        <ele>854.806</ele>
      </trkpt>
      <trkpt lat="46.29952" lon="5.93167">
        <ele>854.679</ele>
      </trkpt>
      <trkpt lat="46.29967" lon="5.9319">
        <ele>853.887</ele>
      </trkpt>
      <trkpt lat="46.29978" lon="5.9321">
        <ele>852.715</ele>
      </trkpt>
      <trkpt lat="46.29988" lon="5.93253">
        <ele>852.959</ele>
      </trkpt>
      <trkpt lat="46.29995" lon="5.93292">
        <ele>852.802</ele>
      </trkpt>
      <trkpt lat="46.30002" lon="5.93335">
        <ele>853.125</ele>
      </trkpt>
      <trkpt lat="46.30013" lon="5.93371">
        <ele>854</ele>
      </trkpt>
      <trkpt lat="46.3002" lon="5.93404">
        <ele>854.55</ele>
      </trkpt>
      <trkpt lat="46.30034" lon="5.93442">
        <ele>855</ele>
      </trkpt>
      <trkpt lat="46.30043" lon="5.93471">
        <ele>855.943</ele>
      </trkpt>
      <trkpt lat="46.30047" lon="5.93499">
        <ele>856.945</ele>
      </trkpt>
      <trkpt lat="46.30052" lon="5.93533">
        <ele>858.473</ele>
      </trkpt>
      <trkpt lat="46.30055" lon="5.93574">
        <ele>860.661</ele>
      </trkpt>
      <trkpt lat="46.30062" lon="5.936">
        <ele>862.367</ele>
      </trkpt>
      <trkpt lat="46.30067" lon="5.93614">
        <ele>863.532</ele>
      </trkpt>
      <trkpt lat="46.30073" lon="5.9365">
        <ele>865.777</ele>
      </trkpt>
      <trkpt lat="46.30081" lon="5.93678">
        <ele>867.431</ele>
      </trkpt>
      <trkpt lat="46.30092" lon="5.93705">
        <ele>868.918</ele>
      </trkpt>
      <trkpt lat="46.30102" lon="5.9373">
        <ele>870.529</ele>
      </trkpt>
      <trkpt lat="46.30109" lon="5.93738">
        <ele>871.144</ele>
      </trkpt>
      <trkpt lat="46.30113" lon="5.93758">
        <ele>872.246</ele>
      </trkpt>
      <trkpt lat="46.3011" lon="5.93777">
        <ele>873.028</ele>
      </trkpt>
      <trkpt lat="46.30108" lon="5.93797">
        <ele>874.618</ele>
      </trkpt>
      <trkpt lat="46.30111" lon="5.93818">
        <ele>876.368</ele>
      </trkpt>
      <trkpt lat="46.30122" lon="5.93846">
        <ele>878.81</ele>
      </trkpt>
      <trkpt lat="46.30127" lon="5.93864">
        <ele>880.03</ele>
      </trkpt>
      <trkpt lat="46.30131" lon="5.93878">
        <ele>880.578</ele>
      </trkpt>
      <trkpt lat="46.30131" lon="5.93889">
        <ele>881.298</ele>
      </trkpt>
      <trkpt lat="46.30137" lon="5.93912">
        <ele>882.805</ele>
      </trkpt>
      <trkpt lat="46.30144" lon="5.93937">
        <ele>884.279</ele>
      </trkpt>
      <trkpt lat="46.30151" lon="5.93972">
        <ele>886.523</ele>
      </trkpt>
      <trkpt lat="46.30152" lon="5.93981">
        <ele>887.049</ele>
      </trkpt>
      <trkpt lat="46.30155" lon="5.93991">
        <ele>887.415</ele>
      </trkpt>
      <trkpt lat="46.3018" lon="5.94014">
        <ele>888.014</ele>
      </trkpt>
      <trkpt lat="46.30202" lon="5.94035">
        <ele>889.453</ele>
      </trkpt>
      <trkpt lat="46.30217" lon="5.94049">
        <ele>889.861</ele>
      </trkpt>
      <trkpt lat="46.30228" lon="5.94064">
        <ele>890.888</ele>
      </trkpt>
      <trkpt lat="46.30233" lon="5.94083">
        <ele>892.546</ele>
      </trkpt>
    </trkseg>
  </trk>
  <trk>
    <name><![CDATA[GTJ Labergement &gt; Bellegarde_8]]></name>
    <trkseg>
      <trkpt lat="46.30233" lon="5.94083">
        <ele>892.546</ele>
      </trkpt>
      <trkpt lat="46.30233" lon="5.94083">
        <ele>892.546</ele>
      </trkpt>
      <trkpt lat="46.30233" lon="5.94089">
        <ele>893.295</ele>
      </trkpt>
      <trkpt lat="46.30212" lon="5.94104">
        <ele>896.984</ele>
      </trkpt>
      <trkpt lat="46.30193" lon="5.94112">
        <ele>900.554</ele>
      </trkpt>
      <trkpt lat="46.30178" lon="5.9412">
        <ele>904.056</ele>
      </trkpt>
      <trkpt lat="46.3016" lon="5.94123">
        <ele>907.096</ele>
      </trkpt>
      <trkpt lat="46.30146" lon="5.94126">
        <ele>909.199</ele>
      </trkpt>
      <trkpt lat="46.30129" lon="5.94126">
        <ele>911.245</ele>
      </trkpt>
      <trkpt lat="46.30116" lon="5.94127">
        <ele>912.893</ele>
      </trkpt>
      <trkpt lat="46.30107" lon="5.94133">
        <ele>915.236</ele>
      </trkpt>
      <trkpt lat="46.30102" lon="5.94149">
        <ele>919.254</ele>
      </trkpt>
      <trkpt lat="46.30105" lon="5.94173">
        <ele>923.887</ele>
      </trkpt>
      <trkpt lat="46.30108" lon="5.94186">
        <ele>925.971</ele>
      </trkpt>
      <trkpt lat="46.30112" lon="5.94203">
        <ele>928.688</ele>
      </trkpt>
      <trkpt lat="46.30116" lon="5.94219">
        <ele>931.389</ele>
      </trkpt>
      <trkpt lat="46.30117" lon="5.94237">
        <ele>934.454</ele>
      </trkpt>
      <trkpt lat="46.30113" lon="5.94253">
        <ele>937.88</ele>
      </trkpt>
      <trkpt lat="46.30109" lon="5.94263">
        <ele>939.663</ele>
      </trkpt>
      <trkpt lat="46.301" lon="5.94264">
        <ele>942.838</ele>
      </trkpt>
      <trkpt lat="46.3009" lon="5.94258">
        <ele>945.08</ele>
      </trkpt>
      <trkpt lat="46.30075" lon="5.94256">
        <ele>947.813</ele>
      </trkpt>
      <trkpt lat="46.30058" lon="5.94258">
        <ele>951.207</ele>
      </trkpt>
      <trkpt lat="46.30043" lon="5.9426">
        <ele>954.802</ele>
      </trkpt>
      <trkpt lat="46.30032" lon="5.94263">
        <ele>957.354</ele>
      </trkpt>
      <trkpt lat="46.30022" lon="5.94265">
        <ele>960.263</ele>
      </trkpt>
      <trkpt lat="46.30015" lon="5.9427">
        <ele>963.003</ele>
      </trkpt>
      <trkpt lat="46.30012" lon="5.94276">
        <ele>965.252</ele>
      </trkpt>
      <trkpt lat="46.30015" lon="5.94294">
        <ele>971.843</ele>
      </trkpt>
      <trkpt lat="46.30022" lon="5.94309">
        <ele>976.994</ele>
      </trkpt>
      <trkpt lat="46.30026" lon="5.94322">
        <ele>980.717</ele>
      </trkpt>
      <trkpt lat="46.30029" lon="5.94336">
        <ele>984.286</ele>
      </trkpt>
      <trkpt lat="46.30027" lon="5.9435">
        <ele>988.295</ele>
      </trkpt>
      <trkpt lat="46.30021" lon="5.94363">
        <ele>992.978</ele>
      </trkpt>
      <trkpt lat="46.30012" lon="5.9437">
        <ele>996.859</ele>
      </trkpt>
      <trkpt lat="46.30002" lon="5.94376">
        <ele>1000.292</ele>
      </trkpt>
      <trkpt lat="46.29993" lon="5.94375">
        <ele>1001.732</ele>
      </trkpt>
      <trkpt lat="46.29981" lon="5.94362">
        <ele>1000.847</ele>
      </trkpt>
      <trkpt lat="46.29973" lon="5.94353">
        <ele>999.767</ele>
      </trkpt>
      <trkpt lat="46.29959" lon="5.94344">
        <ele>1001.439</ele>
      </trkpt>
      <trkpt lat="46.29944" lon="5.94336">
        <ele>1002.308</ele>
      </trkpt>
      <trkpt lat="46.29929" lon="5.94331">
        <ele>1004.761</ele>
      </trkpt>
      <trkpt lat="46.29912" lon="5.94329">
        <ele>1009.357</ele>
      </trkpt>
      <trkpt lat="46.29896" lon="5.9433">
        <ele>1014.114</ele>
      </trkpt>
      <trkpt lat="46.29876" lon="5.94327">
        <ele>1019.21</ele>
      </trkpt>
      <trkpt lat="46.29863" lon="5.9432">
        <ele>1021.081</ele>
      </trkpt>
      <trkpt lat="46.2985" lon="5.94309">
        <ele>1022.219</ele>
      </trkpt>
      <trkpt lat="46.29838" lon="5.94292">
        <ele>1021.445</ele>
      </trkpt>
      <trkpt lat="46.29824" lon="5.94276">
        <ele>1021.861</ele>
      </trkpt>
      <trkpt lat="46.2981" lon="5.94261">
        <ele>1024.548</ele>
      </trkpt>
      <trkpt lat="46.29793" lon="5.94252">
        <ele>1028.442</ele>
      </trkpt>
      <trkpt lat="46.29773" lon="5.94244">
        <ele>1034.152</ele>
      </trkpt>
      <trkpt lat="46.29761" lon="5.94243">
        <ele>1039.437</ele>
      </trkpt>
      <trkpt lat="46.29746" lon="5.94242">
        <ele>1045.771</ele>
      </trkpt>
      <trkpt lat="46.29734" lon="5.9424">
        <ele>1051.175</ele>
      </trkpt>
      <trkpt lat="46.29723" lon="5.94234">
        <ele>1054.495</ele>
      </trkpt>
      <trkpt lat="46.2971" lon="5.94225">
        <ele>1057.138</ele>
      </trkpt>
      <trkpt lat="46.29703" lon="5.94218">
        <ele>1058.078</ele>
      </trkpt>
      <trkpt lat="46.29687" lon="5.94214">
        <ele>1063.487</ele>
      </trkpt>
      <trkpt lat="46.29676" lon="5.94205">
        <ele>1064.406</ele>
      </trkpt>
      <trkpt lat="46.29662" lon="5.94199">
        <ele>1068.19</ele>
      </trkpt>
      <trkpt lat="46.2965" lon="5.94195">
        <ele>1071.696</ele>
      </trkpt>
      <trkpt lat="46.29633" lon="5.94192">
        <ele>1077.281</ele>
      </trkpt>
      <trkpt lat="46.29614" lon="5.94189">
        <ele>1082.743</ele>
      </trkpt>
      <trkpt lat="46.29593" lon="5.9419">
        <ele>1088.128</ele>
      </trkpt>
      <trkpt lat="46.29583" lon="5.94192">
        <ele>1091.902</ele>
      </trkpt>
      <trkpt lat="46.29577" lon="5.94195">
        <ele>1093.679</ele>
      </trkpt>
      <trkpt lat="46.29578" lon="5.94211">
        <ele>1099.832</ele>
      </trkpt>
      <trkpt lat="46.2959" lon="5.94219">
        <ele>1100.864</ele>
      </trkpt>
      <trkpt lat="46.29601" lon="5.94234">
        <ele>1105.189</ele>
      </trkpt>
      <trkpt lat="46.29611" lon="5.94246">
        <ele>1108.604</ele>
      </trkpt>
      <trkpt lat="46.2962" lon="5.94258">
        <ele>1109.44</ele>
      </trkpt>
      <trkpt lat="46.29618" lon="5.94271">
        <ele>1113.307</ele>
      </trkpt>
      <trkpt lat="46.2961" lon="5.94269">
        <ele>1114.265</ele>
      </trkpt>
      <trkpt lat="46.296" lon="5.9426">
        <ele>1113.65</ele>
      </trkpt>
      <trkpt lat="46.2959" lon="5.94254">
        <ele>1113.063</ele>
      </trkpt>
      <trkpt lat="46.29582" lon="5.94251">
        <ele>1112.495</ele>
      </trkpt>
      <trkpt lat="46.29574" lon="5.94253">
        <ele>1115.58</ele>
      </trkpt>
      <trkpt lat="46.29579" lon="5.94265">
        <ele>1119.149</ele>
      </trkpt>
      <trkpt lat="46.29584" lon="5.94272">
        <ele>1120.525</ele>
      </trkpt>
      <trkpt lat="46.29586" lon="5.94282">
        <ele>1123.895</ele>
      </trkpt>
      <trkpt lat="46.29575" lon="5.94281">
        <ele>1126.494</ele>
      </trkpt>
      <trkpt lat="46.29562" lon="5.94279">
        <ele>1128.615</ele>
      </trkpt>
      <trkpt lat="46.29551" lon="5.94281">
        <ele>1132.72</ele>
      </trkpt>
      <trkpt lat="46.29553" lon="5.94294">
        <ele>1137.858</ele>
      </trkpt>
      <trkpt lat="46.29565" lon="5.94311">
        <ele>1141.872</ele>
      </trkpt>
      <trkpt lat="46.29573" lon="5.94331">
        <ele>1147.809</ele>
      </trkpt>
      <trkpt lat="46.29585" lon="5.94353">
        <ele>1152.377</ele>
      </trkpt>
      <trkpt lat="46.29597" lon="5.94373">
        <ele>1155.924</ele>
      </trkpt>
      <trkpt lat="46.29609" lon="5.94392">
        <ele>1158.302</ele>
      </trkpt>
      <trkpt lat="46.29622" lon="5.94416">
        <ele>1160.144</ele>
      </trkpt>
      <trkpt lat="46.29634" lon="5.94436">
        <ele>1161.227</ele>
      </trkpt>
      <trkpt lat="46.29638" lon="5.94454">
        <ele>1164.014</ele>
      </trkpt>
      <trkpt lat="46.29637" lon="5.94467">
        <ele>1166.482</ele>
      </trkpt>
      <trkpt lat="46.29637" lon="5.94482">
        <ele>1169.907</ele>
      </trkpt>
      <trkpt lat="46.29641" lon="5.94505">
        <ele>1174.681</ele>
      </trkpt>
      <trkpt lat="46.29657" lon="5.94538">
        <ele>1179.974</ele>
      </trkpt>
      <trkpt lat="46.29671" lon="5.94557">
        <ele>1181.501</ele>
      </trkpt>
      <trkpt lat="46.29677" lon="5.94575">
        <ele>1184.523</ele>
      </trkpt>
      <trkpt lat="46.2968" lon="5.94592">
        <ele>1187.838</ele>
      </trkpt>
      <trkpt lat="46.29681" lon="5.94611">
        <ele>1192.355</ele>
      </trkpt>
      <trkpt lat="46.29681" lon="5.94632">
        <ele>1196.316</ele>
      </trkpt>
      <trkpt lat="46.29687" lon="5.94649">
        <ele>1197.746</ele>
      </trkpt>
      <trkpt lat="46.29695" lon="5.94676">
        <ele>1200.445</ele>
      </trkpt>
      <trkpt lat="46.29707" lon="5.94691">
        <ele>1199.793</ele>
      </trkpt>
      <trkpt lat="46.29713" lon="5.94706">
        <ele>1200.556</ele>
      </trkpt>
      <trkpt lat="46.29719" lon="5.94723">
        <ele>1201.768</ele>
      </trkpt>
      <trkpt lat="46.29721" lon="5.94734">
        <ele>1202.561</ele>
      </trkpt>
      <trkpt lat="46.29723" lon="5.94757">
        <ele>1205.155</ele>
      </trkpt>
      <trkpt lat="46.29722" lon="5.9477">
        <ele>1207.563</ele>
      </trkpt>
      <trkpt lat="46.2971" lon="5.94768">
        <ele>1210.816</ele>
      </trkpt>
      <trkpt lat="46.29698" lon="5.94755">
        <ele>1212.622</ele>
      </trkpt>
      <trkpt lat="46.29691" lon="5.94752">
        <ele>1213.998</ele>
      </trkpt>
      <trkpt lat="46.29682" lon="5.94746">
        <ele>1215.636</ele>
      </trkpt>
      <trkpt lat="46.29677" lon="5.94746">
        <ele>1216.744</ele>
      </trkpt>
      <trkpt lat="46.29672" lon="5.94767">
        <ele>1221.093</ele>
      </trkpt>
      <trkpt lat="46.29671" lon="5.94786">
        <ele>1224.098</ele>
      </trkpt>
      <trkpt lat="46.29673" lon="5.94811">
        <ele>1227.239</ele>
      </trkpt>
      <trkpt lat="46.29678" lon="5.94829">
        <ele>1228.114</ele>
      </trkpt>
      <trkpt lat="46.29683" lon="5.94855">
        <ele>1231.036</ele>
      </trkpt>
      <trkpt lat="46.29685" lon="5.94881">
        <ele>1234.977</ele>
      </trkpt>
      <trkpt lat="46.29692" lon="5.94909">
        <ele>1239.002</ele>
      </trkpt>
      <trkpt lat="46.29699" lon="5.94936">
        <ele>1243.109</ele>
      </trkpt>
      <trkpt lat="46.29705" lon="5.94957">
        <ele>1246.164</ele>
      </trkpt>
      <trkpt lat="46.29715" lon="5.94987">
        <ele>1250.307</ele>
      </trkpt>
      <trkpt lat="46.29725" lon="5.95012">
        <ele>1252.905</ele>
      </trkpt>
      <trkpt lat="46.29734" lon="5.95037">
        <ele>1254.538</ele>
      </trkpt>
      <trkpt lat="46.29741" lon="5.9506">
        <ele>1258.085</ele>
      </trkpt>
      <trkpt lat="46.29748" lon="5.95084">
        <ele>1262.385</ele>
      </trkpt>
      <trkpt lat="46.29758" lon="5.95109">
        <ele>1265.766</ele>
      </trkpt>
      <trkpt lat="46.29762" lon="5.95132">
        <ele>1268.754</ele>
      </trkpt>
      <trkpt lat="46.29766" lon="5.95153">
        <ele>1271.567</ele>
      </trkpt>
      <trkpt lat="46.29771" lon="5.95178">
        <ele>1275.047</ele>
      </trkpt>
      <trkpt lat="46.29774" lon="5.95204">
        <ele>1278.624</ele>
      </trkpt>
      <trkpt lat="46.29775" lon="5.95228">
        <ele>1281.292</ele>
      </trkpt>
      <trkpt lat="46.29777" lon="5.95246">
        <ele>1283.573</ele>
      </trkpt>
      <trkpt lat="46.29778" lon="5.95259">
        <ele>1285.344</ele>
      </trkpt>
      <trkpt lat="46.2978" lon="5.95281">
        <ele>1288.023</ele>
      </trkpt>
      <trkpt lat="46.29789" lon="5.95307">
        <ele>1290.668</ele>
      </trkpt>
      <trkpt lat="46.29804" lon="5.95331">
        <ele>1291.926</ele>
      </trkpt>
      <trkpt lat="46.29813" lon="5.95354">
        <ele>1293.474</ele>
      </trkpt>
      <trkpt lat="46.29816" lon="5.95366">
        <ele>1294.319</ele>
      </trkpt>
      <trkpt lat="46.29815" lon="5.95387">
        <ele>1297.001</ele>
      </trkpt>
      <trkpt lat="46.29813" lon="5.95414">
        <ele>1301.016</ele>
      </trkpt>
      <trkpt lat="46.29811" lon="5.95445">
        <ele>1305.238</ele>
      </trkpt>
      <trkpt lat="46.29808" lon="5.95471">
        <ele>1307.619</ele>
      </trkpt>
      <trkpt lat="46.29806" lon="5.95495">
        <ele>1311.179</ele>
      </trkpt>
      <trkpt lat="46.29805" lon="5.95521">
        <ele>1313.542</ele>
      </trkpt>
      <trkpt lat="46.29805" lon="5.95549">
        <ele>1316.463</ele>
      </trkpt>
      <trkpt lat="46.29807" lon="5.95581">
        <ele>1320.377</ele>
      </trkpt>
      <trkpt lat="46.29808" lon="5.95602">
        <ele>1321.798</ele>
      </trkpt>
      <trkpt lat="46.29804" lon="5.95615">
        <ele>1323.527</ele>
      </trkpt>
      <trkpt lat="46.29791" lon="5.95624">
        <ele>1326.362</ele>
      </trkpt>
      <trkpt lat="46.29773" lon="5.95623">
        <ele>1329.699</ele>
      </trkpt>
      <trkpt lat="46.29747" lon="5.95621">
        <ele>1333.97</ele>
      </trkpt>
      <trkpt lat="46.29732" lon="5.95628">
        <ele>1337.673</ele>
      </trkpt>
      <trkpt lat="46.29714" lon="5.95627">
        <ele>1340.736</ele>
      </trkpt>
      <trkpt lat="46.29703" lon="5.95623">
        <ele>1342.165</ele>
      </trkpt>
      <trkpt lat="46.29697" lon="5.9561">
        <ele>1341.581</ele>
      </trkpt>
      <trkpt lat="46.29695" lon="5.95595">
        <ele>1341.885</ele>
      </trkpt>
      <trkpt lat="46.29686" lon="5.95589">
        <ele>1343.636</ele>
      </trkpt>
      <trkpt lat="46.29673" lon="5.95589">
        <ele>1346.222</ele>
      </trkpt>
      <trkpt lat="46.29659" lon="5.95586">
        <ele>1348.268</ele>
      </trkpt>
      <trkpt lat="46.29647" lon="5.95587">
        <ele>1350.113</ele>
      </trkpt>
      <trkpt lat="46.29641" lon="5.9559">
        <ele>1351.143</ele>
      </trkpt>
      <trkpt lat="46.29637" lon="5.95599">
        <ele>1352.419</ele>
      </trkpt>
      <trkpt lat="46.29638" lon="5.95619">
        <ele>1353.784</ele>
      </trkpt>
      <trkpt lat="46.29634" lon="5.9564">
        <ele>1356.477</ele>
      </trkpt>
      <trkpt lat="46.29631" lon="5.9566">
        <ele>1357.852</ele>
      </trkpt>
      <trkpt lat="46.29632" lon="5.95677">
        <ele>1359.378</ele>
      </trkpt>
      <trkpt lat="46.29634" lon="5.95695">
        <ele>1361.672</ele>
      </trkpt>
      <trkpt lat="46.29634" lon="5.95709">
        <ele>1362.36</ele>
      </trkpt>
      <trkpt lat="46.29631" lon="5.95719">
        <ele>1363.217</ele>
      </trkpt>
      <trkpt lat="46.29618" lon="5.95712">
        <ele>1365.084</ele>
      </trkpt>
      <trkpt lat="46.29608" lon="5.95703">
        <ele>1366.46</ele>
      </trkpt>
      <trkpt lat="46.29597" lon="5.95694">
        <ele>1369.483</ele>
      </trkpt>
      <trkpt lat="46.29587" lon="5.95682">
        <ele>1372.152</ele>
      </trkpt>
      <trkpt lat="46.29582" lon="5.95672">
        <ele>1373.567</ele>
      </trkpt>
      <trkpt lat="46.29576" lon="5.95654">
        <ele>1375.737</ele>
      </trkpt>
      <trkpt lat="46.29568" lon="5.95643">
        <ele>1378.227</ele>
      </trkpt>
      <trkpt lat="46.29557" lon="5.95636">
        <ele>1381.27</ele>
      </trkpt>
      <trkpt lat="46.29545" lon="5.95634">
        <ele>1383.039</ele>
      </trkpt>
      <trkpt lat="46.29533" lon="5.95631">
        <ele>1384.818</ele>
      </trkpt>
      <trkpt lat="46.29524" lon="5.95631">
        <ele>1386.709</ele>
      </trkpt>
      <trkpt lat="46.29515" lon="5.9563">
        <ele>1389.233</ele>
      </trkpt>
      <trkpt lat="46.29507" lon="5.95618">
        <ele>1391.846</ele>
      </trkpt>
      <trkpt lat="46.29499" lon="5.956">
        <ele>1396.552</ele>
      </trkpt>
      <trkpt lat="46.29491" lon="5.95576">
        <ele>1401.617</ele>
      </trkpt>
      <trkpt lat="46.29484" lon="5.95565">
        <ele>1402.684</ele>
      </trkpt>
      <trkpt lat="46.29477" lon="5.95558">
        <ele>1403.547</ele>
      </trkpt>
      <trkpt lat="46.29465" lon="5.95554">
        <ele>1405.058</ele>
      </trkpt>
      <trkpt lat="46.29449" lon="5.95549">
        <ele>1407.909</ele>
      </trkpt>
      <trkpt lat="46.29432" lon="5.95543">
        <ele>1411.37</ele>
      </trkpt>
      <trkpt lat="46.29419" lon="5.95541">
        <ele>1414.784</ele>
      </trkpt>
      <trkpt lat="46.29405" lon="5.9554">
        <ele>1416.712</ele>
      </trkpt>
      <trkpt lat="46.29392" lon="5.95539">
        <ele>1418.433</ele>
      </trkpt>
      <trkpt lat="46.29386" lon="5.95534">
        <ele>1418.893</ele>
      </trkpt>
      <trkpt lat="46.2938" lon="5.95524">
        <ele>1419.879</ele>
      </trkpt>
      <trkpt lat="46.29368" lon="5.95505">
        <ele>1422.326</ele>
      </trkpt>
      <trkpt lat="46.29355" lon="5.95493">
        <ele>1425.195</ele>
      </trkpt>
      <trkpt lat="46.29345" lon="5.95486">
        <ele>1427.222</ele>
      </trkpt>
      <trkpt lat="46.29334" lon="5.95483">
        <ele>1429.529</ele>
      </trkpt>
      <trkpt lat="46.29323" lon="5.95478">
        <ele>1430.818</ele>
      </trkpt>
      <trkpt lat="46.29306" lon="5.95476">
        <ele>1432.527</ele>
      </trkpt>
      <trkpt lat="46.29297" lon="5.95476">
        <ele>1432.695</ele>
      </trkpt>
      <trkpt lat="46.29282" lon="5.95475">
        <ele>1432.876</ele>
      </trkpt>
      <trkpt lat="46.29268" lon="5.95467">
        <ele>1433.52</ele>
      </trkpt>
      <trkpt lat="46.29254" lon="5.95455">
        <ele>1433.491</ele>
      </trkpt>
      <trkpt lat="46.29242" lon="5.95445">
        <ele>1434.225</ele>
      </trkpt>
      <trkpt lat="46.29229" lon="5.95429">
        <ele>1435.614</ele>
      </trkpt>
      <trkpt lat="46.29217" lon="5.95415">
        <ele>1436.173</ele>
      </trkpt>
      <trkpt lat="46.29201" lon="5.95401">
        <ele>1438.901</ele>
      </trkpt>
      <trkpt lat="46.29186" lon="5.95391">
        <ele>1439.092</ele>
      </trkpt>
      <trkpt lat="46.2917" lon="5.95381">
        <ele>1439</ele>
      </trkpt>
      <trkpt lat="46.29155" lon="5.95372">
        <ele>1440.697</ele>
      </trkpt>
      <trkpt lat="46.2914" lon="5.9537">
        <ele>1442.793</ele>
      </trkpt>
      <trkpt lat="46.29125" lon="5.95365">
        <ele>1444.098</ele>
      </trkpt>
      <trkpt lat="46.29105" lon="5.95364">
        <ele>1445.078</ele>
      </trkpt>
      <trkpt lat="46.29089" lon="5.95363">
        <ele>1445.013</ele>
      </trkpt>
      <trkpt lat="46.2908" lon="5.95364">
        <ele>1445.026</ele>
      </trkpt>
      <trkpt lat="46.29068" lon="5.95358">
        <ele>1444.838</ele>
      </trkpt>
      <trkpt lat="46.29058" lon="5.9535">
        <ele>1444.194</ele>
      </trkpt>
      <trkpt lat="46.29044" lon="5.95324">
        <ele>1444.634</ele>
      </trkpt>
      <trkpt lat="46.2903" lon="5.9531">
        <ele>1447.6</ele>
      </trkpt>
      <trkpt lat="46.29015" lon="5.95298">
        <ele>1450.948</ele>
      </trkpt>
      <trkpt lat="46.29" lon="5.95284">
        <ele>1454.76</ele>
      </trkpt>
      <trkpt lat="46.28989" lon="5.95275">
        <ele>1455.275</ele>
      </trkpt>
      <trkpt lat="46.28978" lon="5.95258">
        <ele>1455.464</ele>
      </trkpt>
      <trkpt lat="46.28967" lon="5.9524">
        <ele>1457.466</ele>
      </trkpt>
      <trkpt lat="46.28957" lon="5.95237">
        <ele>1459.996</ele>
      </trkpt>
      <trkpt lat="46.28947" lon="5.95232">
        <ele>1462.165</ele>
      </trkpt>
      <trkpt lat="46.28938" lon="5.95223">
        <ele>1463.727</ele>
      </trkpt>
      <trkpt lat="46.28929" lon="5.95219">
        <ele>1465.627</ele>
      </trkpt>
      <trkpt lat="46.28918" lon="5.95209">
        <ele>1467.651</ele>
      </trkpt>
      <trkpt lat="46.28909" lon="5.95197">
        <ele>1467.968</ele>
      </trkpt>
      <trkpt lat="46.28901" lon="5.95186">
        <ele>1468.183</ele>
      </trkpt>
      <trkpt lat="46.28891" lon="5.95184">
        <ele>1469.386</ele>
      </trkpt>
      <trkpt lat="46.28882" lon="5.95184">
        <ele>1471.104</ele>
      </trkpt>
      <trkpt lat="46.28878" lon="5.95193">
        <ele>1471.945</ele>
      </trkpt>
      <trkpt lat="46.28875" lon="5.95204">
        <ele>1473.31</ele>
      </trkpt>
      <trkpt lat="46.28873" lon="5.95211">
        <ele>1474.274</ele>
      </trkpt>
      <trkpt lat="46.28866" lon="5.95215">
        <ele>1475.717</ele>
      </trkpt>
      <trkpt lat="46.28855" lon="5.95214">
        <ele>1476.588</ele>
      </trkpt>
      <trkpt lat="46.28848" lon="5.95202">
        <ele>1477.068</ele>
      </trkpt>
      <trkpt lat="46.28837" lon="5.95198">
        <ele>1478.833</ele>
      </trkpt>
      <trkpt lat="46.28823" lon="5.95196">
        <ele>1479.457</ele>
      </trkpt>
      <trkpt lat="46.28814" lon="5.95195">
        <ele>1479.221</ele>
      </trkpt>
      <trkpt lat="46.28802" lon="5.95186">
        <ele>1479.373</ele>
      </trkpt>
      <trkpt lat="46.28792" lon="5.95173">
        <ele>1479.584</ele>
      </trkpt>
      <trkpt lat="46.28786" lon="5.95156">
        <ele>1479.876</ele>
      </trkpt>
      <trkpt lat="46.28777" lon="5.95147">
        <ele>1477.94</ele>
      </trkpt>
      <trkpt lat="46.28768" lon="5.95139">
        <ele>1477.732</ele>
      </trkpt>
      <trkpt lat="46.28762" lon="5.95138">
        <ele>1477.637</ele>
      </trkpt>
      <trkpt lat="46.28752" lon="5.95149">
        <ele>1475.748</ele>
      </trkpt>
      <trkpt lat="46.2874" lon="5.95158">
        <ele>1474.631</ele>
      </trkpt>
      <trkpt lat="46.28731" lon="5.95167">
        <ele>1473.022</ele>
      </trkpt>
      <trkpt lat="46.28719" lon="5.95173">
        <ele>1472.4</ele>
      </trkpt>
      <trkpt lat="46.2871" lon="5.95177">
        <ele>1470.52</ele>
      </trkpt>
      <trkpt lat="46.28701" lon="5.9518">
        <ele>1468.429</ele>
      </trkpt>
      <trkpt lat="46.28687" lon="5.95179">
        <ele>1468.414</ele>
      </trkpt>
      <trkpt lat="46.28674" lon="5.9516">
        <ele>1468.513</ele>
      </trkpt>
      <trkpt lat="46.28666" lon="5.95148">
        <ele>1465.998</ele>
      </trkpt>
      <trkpt lat="46.28658" lon="5.95136">
        <ele>1467.214</ele>
      </trkpt>
      <trkpt lat="46.28646" lon="5.95129">
        <ele>1471.429</ele>
      </trkpt>
      <trkpt lat="46.2863" lon="5.95123">
        <ele>1475.478</ele>
      </trkpt>
      <trkpt lat="46.28621" lon="5.95114">
        <ele>1477.536</ele>
      </trkpt>
      <trkpt lat="46.28611" lon="5.95109">
        <ele>1479.578</ele>
      </trkpt>
      <trkpt lat="46.28603" lon="5.95113">
        <ele>1481.53</ele>
      </trkpt>
      <trkpt lat="46.28594" lon="5.95119">
        <ele>1485.018</ele>
      </trkpt>
      <trkpt lat="46.28585" lon="5.95118">
        <ele>1487.483</ele>
      </trkpt>
      <trkpt lat="46.28579" lon="5.95123">
        <ele>1490.817</ele>
      </trkpt>
      <trkpt lat="46.28577" lon="5.95137">
        <ele>1495.597</ele>
      </trkpt>
      <trkpt lat="46.2858" lon="5.95152">
        <ele>1498.696</ele>
      </trkpt>
      <trkpt lat="46.28589" lon="5.95172">
        <ele>1501.009</ele>
      </trkpt>
      <trkpt lat="46.286" lon="5.95189">
        <ele>1503.194</ele>
      </trkpt>
      <trkpt lat="46.28611" lon="5.95205">
        <ele>1505.446</ele>
      </trkpt>
      <trkpt lat="46.28625" lon="5.95223">
        <ele>1506.415</ele>
      </trkpt>
      <trkpt lat="46.28629" lon="5.95235">
        <ele>1508.104</ele>
      </trkpt>
      <trkpt lat="46.28635" lon="5.95253">
        <ele>1510.651</ele>
      </trkpt>
      <trkpt lat="46.28637" lon="5.95266">
        <ele>1512.983</ele>
      </trkpt>
      <trkpt lat="46.28629" lon="5.95284">
        <ele>1519.534</ele>
      </trkpt>
      <trkpt lat="46.28615" lon="5.95296">
        <ele>1526.021</ele>
      </trkpt>
      <trkpt lat="46.28603" lon="5.95308">
        <ele>1531.309</ele>
      </trkpt>
      <trkpt lat="46.28595" lon="5.95311">
        <ele>1534.643</ele>
      </trkpt>
      <trkpt lat="46.28589" lon="5.9531">
        <ele>1536.881</ele>
      </trkpt>
      <trkpt lat="46.28582" lon="5.95308">
        <ele>1539.785</ele>
      </trkpt>
      <trkpt lat="46.28574" lon="5.95308">
        <ele>1542.539</ele>
      </trkpt>
      <trkpt lat="46.28567" lon="5.95323">
        <ele>1545.561</ele>
      </trkpt>
      <trkpt lat="46.28558" lon="5.95336">
        <ele>1548.3</ele>
      </trkpt>
      <trkpt lat="46.2855" lon="5.95343">
        <ele>1550.467</ele>
      </trkpt>
      <trkpt lat="46.28539" lon="5.95346">
        <ele>1552.803</ele>
      </trkpt>
      <trkpt lat="46.28531" lon="5.95337">
        <ele>1554.285</ele>
      </trkpt>
      <trkpt lat="46.28525" lon="5.9533">
        <ele>1556.006</ele>
      </trkpt>
      <trkpt lat="46.28507" lon="5.95318">
        <ele>1561.306</ele>
      </trkpt>
      <trkpt lat="46.28501" lon="5.95311">
        <ele>1563.047</ele>
      </trkpt>
      <trkpt lat="46.28489" lon="5.95309">
        <ele>1566.388</ele>
      </trkpt>
      <trkpt lat="46.28477" lon="5.95304">
        <ele>1569.467</ele>
      </trkpt>
      <trkpt lat="46.28466" lon="5.95292">
        <ele>1570.536</ele>
      </trkpt>
      <trkpt lat="46.28454" lon="5.95283">
        <ele>1571.086</ele>
      </trkpt>
      <trkpt lat="46.28439" lon="5.95274">
        <ele>1571.228</ele>
      </trkpt>
      <trkpt lat="46.28424" lon="5.95267">
        <ele>1571.185</ele>
      </trkpt>
      <trkpt lat="46.28405" lon="5.95262">
        <ele>1570.361</ele>
      </trkpt>
      <trkpt lat="46.28399" lon="5.9526">
        <ele>1569.708</ele>
      </trkpt>
      <trkpt lat="46.28389" lon="5.95245">
        <ele>1566.822</ele>
      </trkpt>
      <trkpt lat="46.28386" lon="5.95225">
        <ele>1567.775</ele>
      </trkpt>
      <trkpt lat="46.28386" lon="5.95206">
        <ele>1569.246</ele>
      </trkpt>
      <trkpt lat="46.28383" lon="5.95189">
        <ele>1572.143</ele>
      </trkpt>
      <trkpt lat="46.28382" lon="5.95172">
        <ele>1573.147</ele>
      </trkpt>
      <trkpt lat="46.28381" lon="5.95162">
        <ele>1574.027</ele>
      </trkpt>
      <trkpt lat="46.2838" lon="5.95152">
        <ele>1575.637</ele>
      </trkpt>
      <trkpt lat="46.28374" lon="5.9514">
        <ele>1579.464</ele>
      </trkpt>
      <trkpt lat="46.28371" lon="5.9513">
        <ele>1581.946</ele>
      </trkpt>
      <trkpt lat="46.28369" lon="5.95117">
        <ele>1583.609</ele>
      </trkpt>
      <trkpt lat="46.28364" lon="5.95102">
        <ele>1585.986</ele>
      </trkpt>
      <trkpt lat="46.28361" lon="5.95087">
        <ele>1586.228</ele>
      </trkpt>
      <trkpt lat="46.28353" lon="5.95069">
        <ele>1589.333</ele>
      </trkpt>
      <trkpt lat="46.28348" lon="5.95054">
        <ele>1590.586</ele>
      </trkpt>
      <trkpt lat="46.28345" lon="5.95044">
        <ele>1590.615</ele>
      </trkpt>
      <trkpt lat="46.28339" lon="5.95039">
        <ele>1592.178</ele>
      </trkpt>
      <trkpt lat="46.28326" lon="5.95027">
        <ele>1594.744</ele>
      </trkpt>
      <trkpt lat="46.28314" lon="5.95024">
        <ele>1597.751</ele>
      </trkpt>
      <trkpt lat="46.28298" lon="5.95033">
        <ele>1603.245</ele>
      </trkpt>
      <trkpt lat="46.2829" lon="5.95042">
        <ele>1606.652</ele>
      </trkpt>
      <trkpt lat="46.28274" lon="5.95041">
        <ele>1607.793</ele>
      </trkpt>
      <trkpt lat="46.28269" lon="5.95045">
        <ele>1608.404</ele>
      </trkpt>
      <trkpt lat="46.2826" lon="5.95051">
        <ele>1608.909</ele>
      </trkpt>
      <trkpt lat="46.2825" lon="5.95047">
        <ele>1606.651</ele>
      </trkpt>
      <trkpt lat="46.28242" lon="5.95047">
        <ele>1606.501</ele>
      </trkpt>
      <trkpt lat="46.28234" lon="5.95055">
        <ele>1608.684</ele>
      </trkpt>
      <trkpt lat="46.28226" lon="5.95065">
        <ele>1611.672</ele>
      </trkpt>
      <trkpt lat="46.28218" lon="5.95068">
        <ele>1612.24</ele>
      </trkpt>
      <trkpt lat="46.28209" lon="5.95066">
        <ele>1612.008</ele>
      </trkpt>
      <trkpt lat="46.28198" lon="5.95065">
        <ele>1612.254</ele>
      </trkpt>
      <trkpt lat="46.28188" lon="5.95064">
        <ele>1612.665</ele>
      </trkpt>
      <trkpt lat="46.28179" lon="5.95064">
        <ele>1613.031</ele>
      </trkpt>
      <trkpt lat="46.28162" lon="5.95066">
        <ele>1614.58</ele>
      </trkpt>
      <trkpt lat="46.28149" lon="5.9507">
        <ele>1616.27</ele>
      </trkpt>
      <trkpt lat="46.28138" lon="5.95077">
        <ele>1618.712</ele>
      </trkpt>
      <trkpt lat="46.28127" lon="5.95083">
        <ele>1621.634</ele>
      </trkpt>
      <trkpt lat="46.28124" lon="5.95094">
        <ele>1623.614</ele>
      </trkpt>
      <trkpt lat="46.28115" lon="5.951">
        <ele>1624.132</ele>
      </trkpt>
      <trkpt lat="46.28105" lon="5.95106">
        <ele>1624.608</ele>
      </trkpt>
      <trkpt lat="46.28097" lon="5.95107">
        <ele>1625.43</ele>
      </trkpt>
      <trkpt lat="46.28091" lon="5.951">
        <ele>1625.918</ele>
      </trkpt>
      <trkpt lat="46.28079" lon="5.95088">
        <ele>1626.141</ele>
      </trkpt>
      <trkpt lat="46.28058" lon="5.95075">
        <ele>1623.888</ele>
      </trkpt>
      <trkpt lat="46.28045" lon="5.95063">
        <ele>1623.577</ele>
      </trkpt>
      <trkpt lat="46.28033" lon="5.95053">
        <ele>1622.95</ele>
      </trkpt>
      <trkpt lat="46.28021" lon="5.95047">
        <ele>1623.275</ele>
      </trkpt>
      <trkpt lat="46.28007" lon="5.95051">
        <ele>1626.041</ele>
      </trkpt>
      <trkpt lat="46.27998" lon="5.95062">
        <ele>1629.334</ele>
      </trkpt>
      <trkpt lat="46.27986" lon="5.95067">
        <ele>1631.161</ele>
      </trkpt>
      <trkpt lat="46.27976" lon="5.9507">
        <ele>1632.422</ele>
      </trkpt>
      <trkpt lat="46.27963" lon="5.95069">
        <ele>1634.769</ele>
      </trkpt>
      <trkpt lat="46.27948" lon="5.95068">
        <ele>1638.807</ele>
      </trkpt>
      <trkpt lat="46.27931" lon="5.95072">
        <ele>1644.056</ele>
      </trkpt>
      <trkpt lat="46.27913" lon="5.9508">
        <ele>1650.133</ele>
      </trkpt>
      <trkpt lat="46.27901" lon="5.95091">
        <ele>1652.122</ele>
      </trkpt>
      <trkpt lat="46.2789" lon="5.95106">
        <ele>1657.306</ele>
      </trkpt>
      <trkpt lat="46.27885" lon="5.95119">
        <ele>1661.044</ele>
      </trkpt>
      <trkpt lat="46.27879" lon="5.95132">
        <ele>1663.992</ele>
      </trkpt>
      <trkpt lat="46.27867" lon="5.95139">
        <ele>1665.19</ele>
      </trkpt>
      <trkpt lat="46.27854" lon="5.95145">
        <ele>1667.034</ele>
      </trkpt>
      <trkpt lat="46.27843" lon="5.95149">
        <ele>1668.675</ele>
      </trkpt>
      <trkpt lat="46.27831" lon="5.95148">
        <ele>1669.138</ele>
      </trkpt>
      <trkpt lat="46.27819" lon="5.95152">
        <ele>1671.141</ele>
      </trkpt>
      <trkpt lat="46.2781" lon="5.95163">
        <ele>1673.981</ele>
      </trkpt>
      <trkpt lat="46.27801" lon="5.9517">
        <ele>1676.366</ele>
      </trkpt>
      <trkpt lat="46.27788" lon="5.95173">
        <ele>1678.999</ele>
      </trkpt>
      <trkpt lat="46.27773" lon="5.95173">
        <ele>1680.215</ele>
      </trkpt>
      <trkpt lat="46.27767" lon="5.95168">
        <ele>1679.253</ele>
      </trkpt>
      <trkpt lat="46.27759" lon="5.95159">
        <ele>1677.953</ele>
      </trkpt>
      <trkpt lat="46.27744" lon="5.95141">
        <ele>1675.906</ele>
      </trkpt>
      <trkpt lat="46.27733" lon="5.95127">
        <ele>1673.454</ele>
      </trkpt>
      <trkpt lat="46.27718" lon="5.95111">
        <ele>1673.343</ele>
      </trkpt>
      <trkpt lat="46.27701" lon="5.95086">
        <ele>1674.26</ele>
      </trkpt>
      <trkpt lat="46.27688" lon="5.95067">
        <ele>1674.346</ele>
      </trkpt>
      <trkpt lat="46.27672" lon="5.9505">
        <ele>1674.156</ele>
      </trkpt>
      <trkpt lat="46.27655" lon="5.95029">
        <ele>1674.076</ele>
      </trkpt>
      <trkpt lat="46.2764" lon="5.95009">
        <ele>1672.997</ele>
      </trkpt>
      <trkpt lat="46.27631" lon="5.94993">
        <ele>1672.284</ele>
      </trkpt>
      <trkpt lat="46.27625" lon="5.9498">
        <ele>1672.446</ele>
      </trkpt>
      <trkpt lat="46.2762" lon="5.94967">
        <ele>1672.639</ele>
      </trkpt>
      <trkpt lat="46.27616" lon="5.94949">
        <ele>1672.757</ele>
      </trkpt>
      <trkpt lat="46.27616" lon="5.94926">
        <ele>1672.063</ele>
      </trkpt>
      <trkpt lat="46.27611" lon="5.94898">
        <ele>1670.498</ele>
      </trkpt>
      <trkpt lat="46.27608" lon="5.94878">
        <ele>1669.047</ele>
      </trkpt>
      <trkpt lat="46.27602" lon="5.94865">
        <ele>1666.797</ele>
      </trkpt>
      <trkpt lat="46.27595" lon="5.9484">
        <ele>1669.324</ele>
      </trkpt>
      <trkpt lat="46.27577" lon="5.94819">
        <ele>1673.193</ele>
      </trkpt>
      <trkpt lat="46.27562" lon="5.94804">
        <ele>1678.628</ele>
      </trkpt>
      <trkpt lat="46.27546" lon="5.94786">
        <ele>1684.239</ele>
      </trkpt>
      <trkpt lat="46.27535" lon="5.94768">
        <ele>1688.702</ele>
      </trkpt>
      <trkpt lat="46.27523" lon="5.94743">
        <ele>1692.875</ele>
      </trkpt>
      <trkpt lat="46.27513" lon="5.94731">
        <ele>1696.909</ele>
      </trkpt>
      <trkpt lat="46.27494" lon="5.94721">
        <ele>1701.527</ele>
      </trkpt>
      <trkpt lat="46.27472" lon="5.94718">
        <ele>1703.279</ele>
      </trkpt>
      <trkpt lat="46.27449" lon="5.9471">
        <ele>1705.433</ele>
      </trkpt>
      <trkpt lat="46.27426" lon="5.94699">
        <ele>1708.253</ele>
      </trkpt>
      <trkpt lat="46.27407" lon="5.94685">
        <ele>1710.053</ele>
      </trkpt>
      <trkpt lat="46.27394" lon="5.94669">
        <ele>1711.636</ele>
      </trkpt>
      <trkpt lat="46.27384" lon="5.94654">
        <ele>1710.833</ele>
      </trkpt>
      <trkpt lat="46.2737" lon="5.94638">
        <ele>1711.534</ele>
      </trkpt>
      <trkpt lat="46.27357" lon="5.94628">
        <ele>1709.566</ele>
      </trkpt>
      <trkpt lat="46.27342" lon="5.9462">
        <ele>1709.331</ele>
      </trkpt>
      <trkpt lat="46.2733" lon="5.94616">
        <ele>1709.868</ele>
      </trkpt>
      <trkpt lat="46.27317" lon="5.94611">
        <ele>1708.062</ele>
      </trkpt>
      <trkpt lat="46.27306" lon="5.94605">
        <ele>1705.684</ele>
      </trkpt>
      <trkpt lat="46.27293" lon="5.94578">
        <ele>1700.356</ele>
      </trkpt>
      <trkpt lat="46.27288" lon="5.94557">
        <ele>1700.273</ele>
      </trkpt>
      <trkpt lat="46.27288" lon="5.94529">
        <ele>1702.025</ele>
      </trkpt>
      <trkpt lat="46.27276" lon="5.94489">
        <ele>1703.305</ele>
      </trkpt>
      <trkpt lat="46.27265" lon="5.94453">
        <ele>1705.416</ele>
      </trkpt>
      <trkpt lat="46.27251" lon="5.94418">
        <ele>1708.134</ele>
      </trkpt>
      <trkpt lat="46.27232" lon="5.94382">
        <ele>1705.136</ele>
      </trkpt>
      <trkpt lat="46.27205" lon="5.94334">
        <ele>1700.64</ele>
      </trkpt>
      <trkpt lat="46.2719" lon="5.94297">
        <ele>1700.426</ele>
      </trkpt>
      <trkpt lat="46.27177" lon="5.94268">
        <ele>1697.012</ele>
      </trkpt>
      <trkpt lat="46.27163" lon="5.9423">
        <ele>1700.676</ele>
      </trkpt>
      <trkpt lat="46.27155" lon="5.94189">
        <ele>1700.77</ele>
      </trkpt>
      <trkpt lat="46.2714" lon="5.94157">
        <ele>1703.539</ele>
      </trkpt>
      <trkpt lat="46.2713" lon="5.94122">
        <ele>1704.53</ele>
      </trkpt>
      <trkpt lat="46.27128" lon="5.94122">
        <ele>1704.066</ele>
      </trkpt>
      <trkpt lat="46.27115" lon="5.94061">
        <ele>1710.05</ele>
      </trkpt>
      <trkpt lat="46.27102" lon="5.9402">
        <ele>1711.194</ele>
      </trkpt>
      <trkpt lat="46.27088" lon="5.9398">
        <ele>1707.997</ele>
      </trkpt>
      <trkpt lat="46.27073" lon="5.93948">
        <ele>1709.657</ele>
      </trkpt>
      <trkpt lat="46.27055" lon="5.93932">
        <ele>1702.444</ele>
      </trkpt>
      <trkpt lat="46.27035" lon="5.93921">
        <ele>1698.843</ele>
      </trkpt>
      <trkpt lat="46.27015" lon="5.93905">
        <ele>1696.157</ele>
      </trkpt>
      <trkpt lat="46.26997" lon="5.93891">
        <ele>1693.021</ele>
      </trkpt>
      <trkpt lat="46.26979" lon="5.93869">
        <ele>1692.008</ele>
      </trkpt>
      <trkpt lat="46.26962" lon="5.93844">
        <ele>1690.607</ele>
      </trkpt>
      <trkpt lat="46.26946" lon="5.93825">
        <ele>1689.828</ele>
      </trkpt>
      <trkpt lat="46.26933" lon="5.93799">
        <ele>1688.226</ele>
      </trkpt>
      <trkpt lat="46.26913" lon="5.93785">
        <ele>1684.828</ele>
      </trkpt>
      <trkpt lat="46.26896" lon="5.93764">
        <ele>1682.528</ele>
      </trkpt>
      <trkpt lat="46.26883" lon="5.93749">
        <ele>1681.028</ele>
      </trkpt>
      <trkpt lat="46.2688" lon="5.93733">
        <ele>1679.211</ele>
      </trkpt>
      <trkpt lat="46.26876" lon="5.93718">
        <ele>1676.927</ele>
      </trkpt>
      <trkpt lat="46.26856" lon="5.93703">
        <ele>1675.037</ele>
      </trkpt>
      <trkpt lat="46.26829" lon="5.93689">
        <ele>1673.891</ele>
      </trkpt>
      <trkpt lat="46.26801" lon="5.93675">
        <ele>1676.26</ele>
      </trkpt>
      <trkpt lat="46.26778" lon="5.93651">
        <ele>1677.487</ele>
      </trkpt>
      <trkpt lat="46.26756" lon="5.93624">
        <ele>1675.063</ele>
      </trkpt>
      <trkpt lat="46.2674" lon="5.93593">
        <ele>1673.871</ele>
      </trkpt>
      <trkpt lat="46.26721" lon="5.93571">
        <ele>1676.202</ele>
      </trkpt>
      <trkpt lat="46.26707" lon="5.93551">
        <ele>1675.866</ele>
      </trkpt>
      <trkpt lat="46.26699" lon="5.93529">
        <ele>1675.625</ele>
      </trkpt>
      <trkpt lat="46.26689" lon="5.93509">
        <ele>1672.564</ele>
      </trkpt>
      <trkpt lat="46.26684" lon="5.93497">
        <ele>1672.864</ele>
      </trkpt>
      <trkpt lat="46.26676" lon="5.93482">
        <ele>1676.192</ele>
      </trkpt>
      <trkpt lat="46.26655" lon="5.93469">
        <ele>1680.727</ele>
      </trkpt>
      <trkpt lat="46.2663" lon="5.93445">
        <ele>1680.987</ele>
      </trkpt>
      <trkpt lat="46.266" lon="5.9343">
        <ele>1678.741</ele>
      </trkpt>
      <trkpt lat="46.26576" lon="5.93409">
        <ele>1672.448</ele>
      </trkpt>
      <trkpt lat="46.2655" lon="5.93381">
        <ele>1665.37</ele>
      </trkpt>
      <trkpt lat="46.26534" lon="5.93359">
        <ele>1661.034</ele>
      </trkpt>
      <trkpt lat="46.26508" lon="5.93331">
        <ele>1657.182</ele>
      </trkpt>
      <trkpt lat="46.2649" lon="5.93314">
        <ele>1654.917</ele>
      </trkpt>
      <trkpt lat="46.2647" lon="5.93305">
        <ele>1654.534</ele>
      </trkpt>
      <trkpt lat="46.26441" lon="5.93296">
        <ele>1649.68</ele>
      </trkpt>
      <trkpt lat="46.26405" lon="5.93294">
        <ele>1646.744</ele>
      </trkpt>
      <trkpt lat="46.26375" lon="5.93293">
        <ele>1645.261</ele>
      </trkpt>
      <trkpt lat="46.26354" lon="5.9329">
        <ele>1646.144</ele>
      </trkpt>
      <trkpt lat="46.26335" lon="5.93283">
        <ele>1650.504</ele>
      </trkpt>
      <trkpt lat="46.2631" lon="5.93265">
        <ele>1653.428</ele>
      </trkpt>
      <trkpt lat="46.26289" lon="5.9325">
        <ele>1653.766</ele>
      </trkpt>
      <trkpt lat="46.26264" lon="5.93241">
        <ele>1656.731</ele>
      </trkpt>
      <trkpt lat="46.26238" lon="5.93221">
        <ele>1654.684</ele>
      </trkpt>
      <trkpt lat="46.26213" lon="5.93208">
        <ele>1653.595</ele>
      </trkpt>
      <trkpt lat="46.26198" lon="5.93202">
        <ele>1652.621</ele>
      </trkpt>
      <trkpt lat="46.26189" lon="5.93208">
        <ele>1654.244</ele>
      </trkpt>
      <trkpt lat="46.26176" lon="5.9321">
        <ele>1655.388</ele>
      </trkpt>
      <trkpt lat="46.26161" lon="5.93205">
        <ele>1655.491</ele>
      </trkpt>
      <trkpt lat="46.26143" lon="5.93202">
        <ele>1656.716</ele>
      </trkpt>
      <trkpt lat="46.2612" lon="5.93199">
        <ele>1653.578</ele>
      </trkpt>
      <trkpt lat="46.26092" lon="5.93197">
        <ele>1649.263</ele>
      </trkpt>
      <trkpt lat="46.26069" lon="5.93186">
        <ele>1644.775</ele>
      </trkpt>
      <trkpt lat="46.2604" lon="5.93166">
        <ele>1641.248</ele>
      </trkpt>
      <trkpt lat="46.26014" lon="5.93154">
        <ele>1640.065</ele>
      </trkpt>
      <trkpt lat="46.25985" lon="5.93136">
        <ele>1640.372</ele>
      </trkpt>
      <trkpt lat="46.25959" lon="5.93113">
        <ele>1643.627</ele>
      </trkpt>
      <trkpt lat="46.2594" lon="5.93099">
        <ele>1646.124</ele>
      </trkpt>
      <trkpt lat="46.25931" lon="5.93092">
        <ele>1647.672</ele>
      </trkpt>
      <trkpt lat="46.25919" lon="5.93085">
        <ele>1648.898</ele>
      </trkpt>
      <trkpt lat="46.25898" lon="5.93075">
        <ele>1651.719</ele>
      </trkpt>
      <trkpt lat="46.25871" lon="5.93049">
        <ele>1657.379</ele>
      </trkpt>
      <trkpt lat="46.25843" lon="5.93029">
        <ele>1663.926</ele>
      </trkpt>
      <trkpt lat="46.25817" lon="5.93007">
        <ele>1672.86</ele>
      </trkpt>
      <trkpt lat="46.25797" lon="5.92986">
        <ele>1679.926</ele>
      </trkpt>
      <trkpt lat="46.25774" lon="5.92968">
        <ele>1688.284</ele>
      </trkpt>
      <trkpt lat="46.25762" lon="5.92945">
        <ele>1689.542</ele>
      </trkpt>
      <trkpt lat="46.25751" lon="5.92931">
        <ele>1690.897</ele>
      </trkpt>
      <trkpt lat="46.25737" lon="5.92933">
        <ele>1693.828</ele>
      </trkpt>
      <trkpt lat="46.25724" lon="5.92942">
        <ele>1697.352</ele>
      </trkpt>
      <trkpt lat="46.25712" lon="5.92961">
        <ele>1704.646</ele>
      </trkpt>
      <trkpt lat="46.25704" lon="5.92973">
        <ele>1710.208</ele>
      </trkpt>
      <trkpt lat="46.25695" lon="5.92977">
        <ele>1712.322</ele>
      </trkpt>
      <trkpt lat="46.25684" lon="5.92977">
        <ele>1708.512</ele>
      </trkpt>
      <trkpt lat="46.25676" lon="5.92968">
        <ele>1704.976</ele>
      </trkpt>
      <trkpt lat="46.2567" lon="5.9295">
        <ele>1700.297</ele>
      </trkpt>
      <trkpt lat="46.25658" lon="5.92913">
        <ele>1693.281</ele>
      </trkpt>
      <trkpt lat="46.25646" lon="5.92891">
        <ele>1688.43</ele>
      </trkpt>
      <trkpt lat="46.2563" lon="5.92864">
        <ele>1681.746</ele>
      </trkpt>
      <trkpt lat="46.25615" lon="5.92839">
        <ele>1676.342</ele>
      </trkpt>
      <trkpt lat="46.25607" lon="5.92826">
        <ele>1673</ele>
      </trkpt>
      <trkpt lat="46.25597" lon="5.92802">
        <ele>1667.997</ele>
      </trkpt>
      <trkpt lat="46.25584" lon="5.92775">
        <ele>1662.917</ele>
      </trkpt>
      <trkpt lat="46.25579" lon="5.92762">
        <ele>1661.316</ele>
      </trkpt>
      <trkpt lat="46.25575" lon="5.92736">
        <ele>1658.251</ele>
      </trkpt>
      <trkpt lat="46.25572" lon="5.92711">
        <ele>1655.329</ele>
      </trkpt>
      <trkpt lat="46.25567" lon="5.9269">
        <ele>1653.364</ele>
      </trkpt>
      <trkpt lat="46.25561" lon="5.9267">
        <ele>1652.777</ele>
      </trkpt>
      <trkpt lat="46.25543" lon="5.92657">
        <ele>1652.333</ele>
      </trkpt>
      <trkpt lat="46.25529" lon="5.92642">
        <ele>1654.445</ele>
      </trkpt>
      <trkpt lat="46.25516" lon="5.92631">
        <ele>1655.198</ele>
      </trkpt>
      <trkpt lat="46.25502" lon="5.92626">
        <ele>1655.889</ele>
      </trkpt>
      <trkpt lat="46.25486" lon="5.92624">
        <ele>1656.131</ele>
      </trkpt>
      <trkpt lat="46.25478" lon="5.92611">
        <ele>1659.612</ele>
      </trkpt>
      <trkpt lat="46.2546" lon="5.92577">
        <ele>1666.569</ele>
      </trkpt>
      <trkpt lat="46.25446" lon="5.92547">
        <ele>1671.425</ele>
      </trkpt>
      <trkpt lat="46.25438" lon="5.92526">
        <ele>1674.327</ele>
      </trkpt>
      <trkpt lat="46.25424" lon="5.9251">
        <ele>1674.425</ele>
      </trkpt>
      <trkpt lat="46.254" lon="5.92502">
        <ele>1670.623</ele>
      </trkpt>
      <trkpt lat="46.25379" lon="5.92494">
        <ele>1668.566</ele>
      </trkpt>
      <trkpt lat="46.25343" lon="5.92484">
        <ele>1666.523</ele>
      </trkpt>
      <trkpt lat="46.25317" lon="5.92477">
        <ele>1665.811</ele>
      </trkpt>
      <trkpt lat="46.2529" lon="5.92466">
        <ele>1665.329</ele>
      </trkpt>
      <trkpt lat="46.25268" lon="5.92453">
        <ele>1665.198</ele>
      </trkpt>
      <trkpt lat="46.25247" lon="5.92438">
        <ele>1665.503</ele>
      </trkpt>
      <trkpt lat="46.25227" lon="5.92419">
        <ele>1665.586</ele>
      </trkpt>
      <trkpt lat="46.25209" lon="5.924">
        <ele>1664.503</ele>
      </trkpt>
      <trkpt lat="46.252" lon="5.92391">
        <ele>1662.762</ele>
      </trkpt>
      <trkpt lat="46.2518" lon="5.92377">
        <ele>1661.271</ele>
      </trkpt>
      <trkpt lat="46.25157" lon="5.92356">
        <ele>1659.752</ele>
      </trkpt>
      <trkpt lat="46.25131" lon="5.9234">
        <ele>1659.242</ele>
      </trkpt>
      <trkpt lat="46.25095" lon="5.92331">
        <ele>1660.335</ele>
      </trkpt>
      <trkpt lat="46.25072" lon="5.92325">
        <ele>1658.437</ele>
      </trkpt>
      <trkpt lat="46.25052" lon="5.92322">
        <ele>1656.089</ele>
      </trkpt>
      <trkpt lat="46.25026" lon="5.92322">
        <ele>1652.891</ele>
      </trkpt>
      <trkpt lat="46.25011" lon="5.92327">
        <ele>1653.321</ele>
      </trkpt>
      <trkpt lat="46.24991" lon="5.92336">
        <ele>1654.058</ele>
      </trkpt>
      <trkpt lat="46.24962" lon="5.9235">
        <ele>1653.579</ele>
      </trkpt>
      <trkpt lat="46.24936" lon="5.92358">
        <ele>1655.925</ele>
      </trkpt>
      <trkpt lat="46.24913" lon="5.92369">
        <ele>1659.239</ele>
      </trkpt>
      <trkpt lat="46.24899" lon="5.92378">
        <ele>1661.908</ele>
      </trkpt>
      <trkpt lat="46.24885" lon="5.92398">
        <ele>1662.104</ele>
      </trkpt>
      <trkpt lat="46.24876" lon="5.92403">
        <ele>1664.135</ele>
      </trkpt>
      <trkpt lat="46.2487" lon="5.92404">
        <ele>1665.73</ele>
      </trkpt>
      <trkpt lat="46.24853" lon="5.92404">
        <ele>1669.485</ele>
      </trkpt>
      <trkpt lat="46.24832" lon="5.92416">
        <ele>1669.277</ele>
      </trkpt>
      <trkpt lat="46.24824" lon="5.92432">
        <ele>1665.911</ele>
      </trkpt>
      <trkpt lat="46.24807" lon="5.9244">
        <ele>1667.481</ele>
      </trkpt>
      <trkpt lat="46.24791" lon="5.92446">
        <ele>1666.224</ele>
      </trkpt>
      <trkpt lat="46.24775" lon="5.92445">
        <ele>1665.787</ele>
      </trkpt>
      <trkpt lat="46.24755" lon="5.92448">
        <ele>1663.451</ele>
      </trkpt>
      <trkpt lat="46.24731" lon="5.92443">
        <ele>1660.883</ele>
      </trkpt>
      <trkpt lat="46.24714" lon="5.92431">
        <ele>1660.88</ele>
      </trkpt>
      <trkpt lat="46.24695" lon="5.92418">
        <ele>1660.798</ele>
      </trkpt>
      <trkpt lat="46.24676" lon="5.92409">
        <ele>1661.186</ele>
      </trkpt>
      <trkpt lat="46.24655" lon="5.9239">
        <ele>1662.656</ele>
      </trkpt>
      <trkpt lat="46.24636" lon="5.92375">
        <ele>1662.159</ele>
      </trkpt>
      <trkpt lat="46.24614" lon="5.92376">
        <ele>1660.195</ele>
      </trkpt>
      <trkpt lat="46.24583" lon="5.92374">
        <ele>1659.678</ele>
      </trkpt>
      <trkpt lat="46.24549" lon="5.92362">
        <ele>1656.557</ele>
      </trkpt>
      <trkpt lat="46.24517" lon="5.92346">
        <ele>1652.801</ele>
      </trkpt>
      <trkpt lat="46.24487" lon="5.92332">
        <ele>1647.606</ele>
      </trkpt>
      <trkpt lat="46.24469" lon="5.92317">
        <ele>1644.333</ele>
      </trkpt>
      <trkpt lat="46.24434" lon="5.92284">
        <ele>1637.938</ele>
      </trkpt>
      <trkpt lat="46.24403" lon="5.92256">
        <ele>1629.818</ele>
      </trkpt>
      <trkpt lat="46.24385" lon="5.92239">
        <ele>1624.959</ele>
      </trkpt>
      <trkpt lat="46.24368" lon="5.92213">
        <ele>1621.173</ele>
      </trkpt>
      <trkpt lat="46.24344" lon="5.92197">
        <ele>1615.896</ele>
      </trkpt>
      <trkpt lat="46.24323" lon="5.92181">
        <ele>1613.461</ele>
      </trkpt>
      <trkpt lat="46.2429" lon="5.92169">
        <ele>1607.677</ele>
      </trkpt>
      <trkpt lat="46.24269" lon="5.92158">
        <ele>1604.437</ele>
      </trkpt>
      <trkpt lat="46.24241" lon="5.92142">
        <ele>1604.478</ele>
      </trkpt>
      <trkpt lat="46.24219" lon="5.92127">
        <ele>1605</ele>
      </trkpt>
      <trkpt lat="46.24189" lon="5.92107">
        <ele>1606.903</ele>
      </trkpt>
      <trkpt lat="46.24164" lon="5.92096">
        <ele>1608.812</ele>
      </trkpt>
      <trkpt lat="46.24143" lon="5.92087">
        <ele>1611.865</ele>
      </trkpt>
      <trkpt lat="46.24122" lon="5.92085">
        <ele>1611.881</ele>
      </trkpt>
      <trkpt lat="46.24106" lon="5.92084">
        <ele>1611.805</ele>
      </trkpt>
      <trkpt lat="46.24093" lon="5.92085">
        <ele>1611.571</ele>
      </trkpt>
      <trkpt lat="46.24076" lon="5.92077">
        <ele>1613.021</ele>
      </trkpt>
      <trkpt lat="46.24058" lon="5.92065">
        <ele>1614.845</ele>
      </trkpt>
      <trkpt lat="46.24036" lon="5.9206">
        <ele>1616.326</ele>
      </trkpt>
      <trkpt lat="46.24017" lon="5.92062">
        <ele>1616.475</ele>
      </trkpt>
      <trkpt lat="46.24001" lon="5.92066">
        <ele>1615.85</ele>
      </trkpt>
      <trkpt lat="46.23982" lon="5.9207">
        <ele>1614.484</ele>
      </trkpt>
      <trkpt lat="46.23972" lon="5.92072">
        <ele>1613.22</ele>
      </trkpt>
      <trkpt lat="46.23948" lon="5.92066">
        <ele>1611.764</ele>
      </trkpt>
      <trkpt lat="46.23927" lon="5.92058">
        <ele>1609.904</ele>
      </trkpt>
      <trkpt lat="46.23899" lon="5.92041">
        <ele>1611.209</ele>
      </trkpt>
      <trkpt lat="46.23882" lon="5.92035">
        <ele>1610.411</ele>
      </trkpt>
      <trkpt lat="46.23862" lon="5.92024">
        <ele>1611.14</ele>
      </trkpt>
      <trkpt lat="46.23844" lon="5.92012">
        <ele>1609.179</ele>
      </trkpt>
      <trkpt lat="46.23824" lon="5.91988">
        <ele>1609.331</ele>
      </trkpt>
      <trkpt lat="46.238" lon="5.91965">
        <ele>1609.023</ele>
      </trkpt>
      <trkpt lat="46.23782" lon="5.91959">
        <ele>1608.34</ele>
      </trkpt>
      <trkpt lat="46.23757" lon="5.91951">
        <ele>1605.959</ele>
      </trkpt>
      <trkpt lat="46.23733" lon="5.91948">
        <ele>1604.179</ele>
      </trkpt>
      <trkpt lat="46.23699" lon="5.91944">
        <ele>1598.278</ele>
      </trkpt>
      <trkpt lat="46.2367" lon="5.91939">
        <ele>1591.37</ele>
      </trkpt>
      <trkpt lat="46.23646" lon="5.91934">
        <ele>1586.738</ele>
      </trkpt>
      <trkpt lat="46.23628" lon="5.91923">
        <ele>1582.599</ele>
      </trkpt>
      <trkpt lat="46.23609" lon="5.91909">
        <ele>1577.1</ele>
      </trkpt>
      <trkpt lat="46.23597" lon="5.91898">
        <ele>1574.217</ele>
      </trkpt>
      <trkpt lat="46.23581" lon="5.91891">
        <ele>1570.12</ele>
      </trkpt>
      <trkpt lat="46.23557" lon="5.91881">
        <ele>1561.941</ele>
      </trkpt>
      <trkpt lat="46.23532" lon="5.91879">
        <ele>1546.127</ele>
      </trkpt>
      <trkpt lat="46.2352" lon="5.91883">
        <ele>1539.092</ele>
      </trkpt>
      <trkpt lat="46.23506" lon="5.91894">
        <ele>1532.092</ele>
      </trkpt>
      <trkpt lat="46.23494" lon="5.91901">
        <ele>1526.148</ele>
      </trkpt>
      <trkpt lat="46.23483" lon="5.91912">
        <ele>1521.036</ele>
      </trkpt>
      <trkpt lat="46.23474" lon="5.91916">
        <ele>1516.648</ele>
      </trkpt>
      <trkpt lat="46.23468" lon="5.91911">
        <ele>1513.175</ele>
      </trkpt>
      <trkpt lat="46.23459" lon="5.91891">
        <ele>1504.985</ele>
      </trkpt>
      <trkpt lat="46.23449" lon="5.91872">
        <ele>1497.707</ele>
      </trkpt>
      <trkpt lat="46.23444" lon="5.91856">
        <ele>1493.202</ele>
      </trkpt>
      <trkpt lat="46.23441" lon="5.91839">
        <ele>1490.273</ele>
      </trkpt>
      <trkpt lat="46.23441" lon="5.9182">
        <ele>1490.244</ele>
      </trkpt>
      <trkpt lat="46.23442" lon="5.91792">
        <ele>1489.814</ele>
      </trkpt>
      <trkpt lat="46.23442" lon="5.91773">
        <ele>1487.451</ele>
      </trkpt>
      <trkpt lat="46.23445" lon="5.91741">
        <ele>1482.635</ele>
      </trkpt>
      <trkpt lat="46.23436" lon="5.91706">
        <ele>1474.661</ele>
      </trkpt>
      <trkpt lat="46.23426" lon="5.91678">
        <ele>1471.083</ele>
      </trkpt>
      <trkpt lat="46.23412" lon="5.91656">
        <ele>1469.028</ele>
      </trkpt>
      <trkpt lat="46.2339" lon="5.91628">
        <ele>1467.537</ele>
      </trkpt>
      <trkpt lat="46.2336" lon="5.91594">
        <ele>1464.01</ele>
      </trkpt>
      <trkpt lat="46.23321" lon="5.9156">
        <ele>1463.833</ele>
      </trkpt>
      <trkpt lat="46.2329" lon="5.91518">
        <ele>1464.785</ele>
      </trkpt>
      <trkpt lat="46.2326" lon="5.91496">
        <ele>1469.93</ele>
      </trkpt>
      <trkpt lat="46.23236" lon="5.91467">
        <ele>1476.332</ele>
      </trkpt>
      <trkpt lat="46.23211" lon="5.91443">
        <ele>1480.445</ele>
      </trkpt>
      <trkpt lat="46.23188" lon="5.91424">
        <ele>1479.06</ele>
      </trkpt>
      <trkpt lat="46.23169" lon="5.914">
        <ele>1477.609</ele>
      </trkpt>
      <trkpt lat="46.23142" lon="5.91367">
        <ele>1474.168</ele>
      </trkpt>
      <trkpt lat="46.23124" lon="5.91338">
        <ele>1471.443</ele>
      </trkpt>
      <trkpt lat="46.23097" lon="5.91311">
        <ele>1471.351</ele>
      </trkpt>
      <trkpt lat="46.23065" lon="5.91284">
        <ele>1471.799</ele>
      </trkpt>
      <trkpt lat="46.23037" lon="5.91255">
        <ele>1473.407</ele>
      </trkpt>
      <trkpt lat="46.23018" lon="5.91232">
        <ele>1470.607</ele>
      </trkpt>
      <trkpt lat="46.23007" lon="5.91225">
        <ele>1468.686</ele>
      </trkpt>
      <trkpt lat="46.22982" lon="5.91189">
        <ele>1462.797</ele>
      </trkpt>
      <trkpt lat="46.22948" lon="5.91165">
        <ele>1455.642</ele>
      </trkpt>
      <trkpt lat="46.22887" lon="5.91104">
        <ele>1450.056</ele>
      </trkpt>
      <trkpt lat="46.22859" lon="5.91069">
        <ele>1459.221</ele>
      </trkpt>
      <trkpt lat="46.2281" lon="5.91035">
        <ele>1471.841</ele>
      </trkpt>
      <trkpt lat="46.22793" lon="5.91012">
        <ele>1478.782</ele>
      </trkpt>
      <trkpt lat="46.22762" lon="5.90972">
        <ele>1483.745</ele>
      </trkpt>
      <trkpt lat="46.22735" lon="5.9093">
        <ele>1487.836</ele>
      </trkpt>
      <trkpt lat="46.22712" lon="5.90912">
        <ele>1490.014</ele>
      </trkpt>
      <trkpt lat="46.22691" lon="5.90885">
        <ele>1490.007</ele>
      </trkpt>
      <trkpt lat="46.22659" lon="5.90844">
        <ele>1485.566</ele>
      </trkpt>
      <trkpt lat="46.22641" lon="5.90826">
        <ele>1480.603</ele>
      </trkpt>
      <trkpt lat="46.22611" lon="5.90794">
        <ele>1488.129</ele>
      </trkpt>
      <trkpt lat="46.22575" lon="5.9076">
        <ele>1483.215</ele>
      </trkpt>
      <trkpt lat="46.22556" lon="5.90741">
        <ele>1480.253</ele>
      </trkpt>
      <trkpt lat="46.22542" lon="5.90726">
        <ele>1484.589</ele>
      </trkpt>
      <trkpt lat="46.22513" lon="5.90693">
        <ele>1482.364</ele>
      </trkpt>
      <trkpt lat="46.22495" lon="5.90648">
        <ele>1484.086</ele>
      </trkpt>
      <trkpt lat="46.22479" lon="5.90626">
        <ele>1483.621</ele>
      </trkpt>
      <trkpt lat="46.22459" lon="5.90605">
        <ele>1485.088</ele>
      </trkpt>
      <trkpt lat="46.2244" lon="5.90594">
        <ele>1488.43</ele>
      </trkpt>
      <trkpt lat="46.22413" lon="5.90593">
        <ele>1491.117</ele>
      </trkpt>
      <trkpt lat="46.22388" lon="5.9058">
        <ele>1492.446</ele>
      </trkpt>
      <trkpt lat="46.22366" lon="5.9056">
        <ele>1490.499</ele>
      </trkpt>
      <trkpt lat="46.22355" lon="5.90547">
        <ele>1485.567</ele>
      </trkpt>
      <trkpt lat="46.22352" lon="5.90532">
        <ele>1482.515</ele>
      </trkpt>
      <trkpt lat="46.22348" lon="5.90507">
        <ele>1478.496</ele>
      </trkpt>
      <trkpt lat="46.22343" lon="5.90491">
        <ele>1475.491</ele>
      </trkpt>
      <trkpt lat="46.22336" lon="5.90474">
        <ele>1473.482</ele>
      </trkpt>
      <trkpt lat="46.22319" lon="5.90447">
        <ele>1475.517</ele>
      </trkpt>
      <trkpt lat="46.2229" lon="5.90419">
        <ele>1479.934</ele>
      </trkpt>
      <trkpt lat="46.22278" lon="5.904">
        <ele>1488.04</ele>
      </trkpt>
      <trkpt lat="46.22255" lon="5.90373">
        <ele>1493.66</ele>
      </trkpt>
      <trkpt lat="46.22218" lon="5.90338">
        <ele>1500.224</ele>
      </trkpt>
      <trkpt lat="46.22198" lon="5.90314">
        <ele>1500.312</ele>
      </trkpt>
      <trkpt lat="46.22182" lon="5.90295">
        <ele>1498.694</ele>
      </trkpt>
      <trkpt lat="46.22163" lon="5.90284">
        <ele>1495.881</ele>
      </trkpt>
      <trkpt lat="46.22146" lon="5.90272">
        <ele>1489.972</ele>
      </trkpt>
      <trkpt lat="46.22127" lon="5.90261">
        <ele>1483.959</ele>
      </trkpt>
      <trkpt lat="46.22119" lon="5.90249">
        <ele>1479.895</ele>
      </trkpt>
      <trkpt lat="46.22105" lon="5.90217">
        <ele>1469.747</ele>
      </trkpt>
      <trkpt lat="46.22086" lon="5.90177">
        <ele>1458.207</ele>
      </trkpt>
      <trkpt lat="46.22072" lon="5.90149">
        <ele>1449.187</ele>
      </trkpt>
      <trkpt lat="46.22048" lon="5.90131">
        <ele>1440.704</ele>
      </trkpt>
      <trkpt lat="46.22023" lon="5.90124">
        <ele>1433.49</ele>
      </trkpt>
      <trkpt lat="46.21997" lon="5.90127">
        <ele>1426.31</ele>
      </trkpt>
      <trkpt lat="46.21978" lon="5.90128">
        <ele>1421.235</ele>
      </trkpt>
      <trkpt lat="46.21951" lon="5.90118">
        <ele>1418.813</ele>
      </trkpt>
      <trkpt lat="46.21916" lon="5.90106">
        <ele>1420.372</ele>
      </trkpt>
      <trkpt lat="46.219" lon="5.90105">
        <ele>1423.544</ele>
      </trkpt>
      <trkpt lat="46.21881" lon="5.90097">
        <ele>1425.847</ele>
      </trkpt>
      <trkpt lat="46.21864" lon="5.9009">
        <ele>1425.086</ele>
      </trkpt>
      <trkpt lat="46.21855" lon="5.90079">
        <ele>1426.208</ele>
      </trkpt>
      <trkpt lat="46.21847" lon="5.90059">
        <ele>1427.654</ele>
      </trkpt>
      <trkpt lat="46.21835" lon="5.90037">
        <ele>1427.047</ele>
      </trkpt>
      <trkpt lat="46.21826" lon="5.90019">
        <ele>1430.309</ele>
      </trkpt>
      <trkpt lat="46.21815" lon="5.89999">
        <ele>1436.46</ele>
      </trkpt>
      <trkpt lat="46.21795" lon="5.8998">
        <ele>1435.732</ele>
      </trkpt>
      <trkpt lat="46.21776" lon="5.89962">
        <ele>1431.966</ele>
      </trkpt>
      <trkpt lat="46.21749" lon="5.89941">
        <ele>1428.874</ele>
      </trkpt>
      <trkpt lat="46.21723" lon="5.89928">
        <ele>1423.499</ele>
      </trkpt>
      <trkpt lat="46.21704" lon="5.89912">
        <ele>1416.849</ele>
      </trkpt>
      <trkpt lat="46.21682" lon="5.89901">
        <ele>1413.415</ele>
      </trkpt>
      <trkpt lat="46.21671" lon="5.89892">
        <ele>1412.511</ele>
      </trkpt>
      <trkpt lat="46.21656" lon="5.89881">
        <ele>1414.975</ele>
      </trkpt>
      <trkpt lat="46.21634" lon="5.89864">
        <ele>1416.477</ele>
      </trkpt>
      <trkpt lat="46.21621" lon="5.89855">
        <ele>1416.741</ele>
      </trkpt>
      <trkpt lat="46.21604" lon="5.89839">
        <ele>1415.946</ele>
      </trkpt>
      <trkpt lat="46.21587" lon="5.89835">
        <ele>1414.52</ele>
      </trkpt>
      <trkpt lat="46.2157" lon="5.8983">
        <ele>1417.548</ele>
      </trkpt>
      <trkpt lat="46.21556" lon="5.89828">
        <ele>1420.932</ele>
      </trkpt>
      <trkpt lat="46.21541" lon="5.89827">
        <ele>1422.761</ele>
      </trkpt>
      <trkpt lat="46.21523" lon="5.89832">
        <ele>1423.978</ele>
      </trkpt>
      <trkpt lat="46.21511" lon="5.89839">
        <ele>1426.355</ele>
      </trkpt>
      <trkpt lat="46.21495" lon="5.89846">
        <ele>1429.511</ele>
      </trkpt>
      <trkpt lat="46.21482" lon="5.89852">
        <ele>1430.969</ele>
      </trkpt>
      <trkpt lat="46.2147" lon="5.89851">
        <ele>1431.839</ele>
      </trkpt>
      <trkpt lat="46.21457" lon="5.89847">
        <ele>1432.806</ele>
      </trkpt>
      <trkpt lat="46.2145" lon="5.8984">
        <ele>1433.928</ele>
      </trkpt>
      <trkpt lat="46.21437" lon="5.89826">
        <ele>1434.471</ele>
      </trkpt>
      <trkpt lat="46.21427" lon="5.89813">
        <ele>1434.31</ele>
      </trkpt>
      <trkpt lat="46.2142" lon="5.89791">
        <ele>1434.732</ele>
      </trkpt>
      <trkpt lat="46.21417" lon="5.8977">
        <ele>1435.024</ele>
      </trkpt>
      <trkpt lat="46.21411" lon="5.89745">
        <ele>1436.801</ele>
      </trkpt>
      <trkpt lat="46.21402" lon="5.89722">
        <ele>1438.955</ele>
      </trkpt>
      <trkpt lat="46.21394" lon="5.89705">
        <ele>1440.83</ele>
      </trkpt>
      <trkpt lat="46.21377" lon="5.89681">
        <ele>1442.295</ele>
      </trkpt>
      <trkpt lat="46.2137" lon="5.89663">
        <ele>1444.318</ele>
      </trkpt>
      <trkpt lat="46.21361" lon="5.89642">
        <ele>1444.893</ele>
      </trkpt>
      <trkpt lat="46.21344" lon="5.89621">
        <ele>1438.977</ele>
      </trkpt>
      <trkpt lat="46.21312" lon="5.89601">
        <ele>1431.67</ele>
      </trkpt>
      <trkpt lat="46.21291" lon="5.89583">
        <ele>1432.518</ele>
      </trkpt>
      <trkpt lat="46.2127" lon="5.89567">
        <ele>1431.476</ele>
      </trkpt>
      <trkpt lat="46.21253" lon="5.89557">
        <ele>1431.825</ele>
      </trkpt>
      <trkpt lat="46.21236" lon="5.8956">
        <ele>1432.786</ele>
      </trkpt>
      <trkpt lat="46.21221" lon="5.89571">
        <ele>1434.733</ele>
      </trkpt>
      <trkpt lat="46.21207" lon="5.89578">
        <ele>1435.509</ele>
      </trkpt>
      <trkpt lat="46.21198" lon="5.89571">
        <ele>1436.129</ele>
      </trkpt>
      <trkpt lat="46.21187" lon="5.89557">
        <ele>1439.34</ele>
      </trkpt>
      <trkpt lat="46.2117" lon="5.89543">
        <ele>1441.691</ele>
      </trkpt>
      <trkpt lat="46.21152" lon="5.89537">
        <ele>1442.926</ele>
      </trkpt>
      <trkpt lat="46.21131" lon="5.89536">
        <ele>1445.294</ele>
      </trkpt>
      <trkpt lat="46.2111" lon="5.89529">
        <ele>1448.23</ele>
      </trkpt>
      <trkpt lat="46.21086" lon="5.8952">
        <ele>1453.994</ele>
      </trkpt>
      <trkpt lat="46.21057" lon="5.89508">
        <ele>1453.517</ele>
      </trkpt>
      <trkpt lat="46.21036" lon="5.895">
        <ele>1455.38</ele>
      </trkpt>
      <trkpt lat="46.21013" lon="5.89486">
        <ele>1453.312</ele>
      </trkpt>
      <trkpt lat="46.20985" lon="5.89468">
        <ele>1452.884</ele>
      </trkpt>
      <trkpt lat="46.20963" lon="5.89445">
        <ele>1450.069</ele>
      </trkpt>
      <trkpt lat="46.2095" lon="5.8943">
        <ele>1446.275</ele>
      </trkpt>
      <trkpt lat="46.20936" lon="5.894">
        <ele>1438.489</ele>
      </trkpt>
      <trkpt lat="46.2092" lon="5.89381">
        <ele>1435.027</ele>
      </trkpt>
      <trkpt lat="46.20903" lon="5.89365">
        <ele>1430.425</ele>
      </trkpt>
      <trkpt lat="46.20879" lon="5.89346">
        <ele>1423.09</ele>
      </trkpt>
      <trkpt lat="46.20859" lon="5.89333">
        <ele>1416.083</ele>
      </trkpt>
      <trkpt lat="46.20841" lon="5.89312">
        <ele>1416.708</ele>
      </trkpt>
      <trkpt lat="46.20831" lon="5.89299">
        <ele>1417.144</ele>
      </trkpt>
      <trkpt lat="46.20821" lon="5.89288">
        <ele>1418.849</ele>
      </trkpt>
      <trkpt lat="46.20815" lon="5.89273">
        <ele>1420.631</ele>
      </trkpt>
      <trkpt lat="46.20808" lon="5.89265">
        <ele>1421.949</ele>
      </trkpt>
      <trkpt lat="46.20794" lon="5.89259">
        <ele>1422.445</ele>
      </trkpt>
      <trkpt lat="46.20772" lon="5.89258">
        <ele>1422.002</ele>
      </trkpt>
      <trkpt lat="46.20757" lon="5.89257">
        <ele>1421.141</ele>
      </trkpt>
      <trkpt lat="46.20744" lon="5.89253">
        <ele>1420.021</ele>
      </trkpt>
      <trkpt lat="46.20732" lon="5.89244">
        <ele>1418.352</ele>
      </trkpt>
      <trkpt lat="46.20715" lon="5.8923">
        <ele>1412.891</ele>
      </trkpt>
      <trkpt lat="46.20699" lon="5.89216">
        <ele>1409.165</ele>
      </trkpt>
      <trkpt lat="46.20678" lon="5.89201">
        <ele>1402.936</ele>
      </trkpt>
      <trkpt lat="46.2066" lon="5.89179">
        <ele>1399.322</ele>
      </trkpt>
      <trkpt lat="46.20635" lon="5.89164">
        <ele>1402.832</ele>
      </trkpt>
      <trkpt lat="46.2061" lon="5.89155">
        <ele>1403.382</ele>
      </trkpt>
      <trkpt lat="46.20592" lon="5.89154">
        <ele>1400.485</ele>
      </trkpt>
      <trkpt lat="46.20568" lon="5.89145">
        <ele>1391.248</ele>
      </trkpt>
      <trkpt lat="46.20543" lon="5.89145">
        <ele>1384.803</ele>
      </trkpt>
      <trkpt lat="46.20528" lon="5.89136">
        <ele>1382.08</ele>
      </trkpt>
      <trkpt lat="46.20507" lon="5.89107">
        <ele>1378.188</ele>
      </trkpt>
      <trkpt lat="46.20499" lon="5.89086">
        <ele>1376.864</ele>
      </trkpt>
      <trkpt lat="46.20492" lon="5.89064">
        <ele>1378.454</ele>
      </trkpt>
      <trkpt lat="46.20485" lon="5.89048">
        <ele>1381.093</ele>
      </trkpt>
      <trkpt lat="46.20461" lon="5.89028">
        <ele>1383.385</ele>
      </trkpt>
      <trkpt lat="46.20434" lon="5.8901">
        <ele>1380.854</ele>
      </trkpt>
      <trkpt lat="46.20419" lon="5.8899">
        <ele>1378.39</ele>
      </trkpt>
      <trkpt lat="46.20411" lon="5.88967">
        <ele>1374.613</ele>
      </trkpt>
      <trkpt lat="46.20405" lon="5.88935">
        <ele>1372.985</ele>
      </trkpt>
      <trkpt lat="46.20401" lon="5.88908">
        <ele>1370.094</ele>
      </trkpt>
      <trkpt lat="46.20399" lon="5.8888">
        <ele>1369.892</ele>
      </trkpt>
      <trkpt lat="46.204" lon="5.88869">
        <ele>1370.682</ele>
      </trkpt>
      <trkpt lat="46.204" lon="5.88838">
        <ele>1373.353</ele>
      </trkpt>
      <trkpt lat="46.20396" lon="5.88823">
        <ele>1374.363</ele>
      </trkpt>
      <trkpt lat="46.20388" lon="5.88798">
        <ele>1375.675</ele>
      </trkpt>
      <trkpt lat="46.20379" lon="5.8878">
        <ele>1375.415</ele>
      </trkpt>
      <trkpt lat="46.20364" lon="5.88767">
        <ele>1374.238</ele>
      </trkpt>
      <trkpt lat="46.20345" lon="5.88766">
        <ele>1371.351</ele>
      </trkpt>
      <trkpt lat="46.20323" lon="5.88773">
        <ele>1368.116</ele>
      </trkpt>
      <trkpt lat="46.20299" lon="5.88781">
        <ele>1363.256</ele>
      </trkpt>
      <trkpt lat="46.20278" lon="5.88786">
        <ele>1360.951</ele>
      </trkpt>
      <trkpt lat="46.2026" lon="5.88782">
        <ele>1363.383</ele>
      </trkpt>
      <trkpt lat="46.20238" lon="5.88774">
        <ele>1369.609</ele>
      </trkpt>
      <trkpt lat="46.20204" lon="5.8877">
        <ele>1379.408</ele>
      </trkpt>
      <trkpt lat="46.20152" lon="5.88778">
        <ele>1384.507</ele>
      </trkpt>
      <trkpt lat="46.20126" lon="5.88781">
        <ele>1382.387</ele>
      </trkpt>
      <trkpt lat="46.20095" lon="5.88784">
        <ele>1378.591</ele>
      </trkpt>
      <trkpt lat="46.20069" lon="5.88779">
        <ele>1375.792</ele>
      </trkpt>
      <trkpt lat="46.20037" lon="5.88777">
        <ele>1370.367</ele>
      </trkpt>
      <trkpt lat="46.20014" lon="5.88775">
        <ele>1368.14</ele>
      </trkpt>
      <trkpt lat="46.19977" lon="5.8876">
        <ele>1371.019</ele>
      </trkpt>
      <trkpt lat="46.19952" lon="5.88742">
        <ele>1371.82</ele>
      </trkpt>
      <trkpt lat="46.19918" lon="5.88714">
        <ele>1369.694</ele>
      </trkpt>
      <trkpt lat="46.19892" lon="5.88696">
        <ele>1367.437</ele>
      </trkpt>
      <trkpt lat="46.19871" lon="5.88677">
        <ele>1369.315</ele>
      </trkpt>
      <trkpt lat="46.19852" lon="5.88672">
        <ele>1370.587</ele>
      </trkpt>
      <trkpt lat="46.19818" lon="5.8867">
        <ele>1370.381</ele>
      </trkpt>
      <trkpt lat="46.198" lon="5.88664">
        <ele>1369.411</ele>
      </trkpt>
      <trkpt lat="46.19777" lon="5.8865">
        <ele>1367.101</ele>
      </trkpt>
      <trkpt lat="46.19753" lon="5.88642">
        <ele>1366.1</ele>
      </trkpt>
      <trkpt lat="46.19736" lon="5.88626">
        <ele>1367.465</ele>
      </trkpt>
      <trkpt lat="46.19723" lon="5.88594">
        <ele>1373.278</ele>
      </trkpt>
      <trkpt lat="46.1971" lon="5.8854">
        <ele>1377.549</ele>
      </trkpt>
      <trkpt lat="46.19699" lon="5.88512">
        <ele>1376.884</ele>
      </trkpt>
      <trkpt lat="46.19697" lon="5.88473">
        <ele>1376.656</ele>
      </trkpt>
      <trkpt lat="46.19691" lon="5.8843">
        <ele>1385.734</ele>
      </trkpt>
      <trkpt lat="46.19682" lon="5.884">
        <ele>1389.592</ele>
      </trkpt>
      <trkpt lat="46.19654" lon="5.8833">
        <ele>1406.639</ele>
      </trkpt>
      <trkpt lat="46.19643" lon="5.88291">
        <ele>1414.17</ele>
      </trkpt>
      <trkpt lat="46.19629" lon="5.88241">
        <ele>1418.921</ele>
      </trkpt>
      <trkpt lat="46.19618" lon="5.88203">
        <ele>1428.09</ele>
      </trkpt>
      <trkpt lat="46.19606" lon="5.88167">
        <ele>1433.464</ele>
      </trkpt>
      <trkpt lat="46.19592" lon="5.88133">
        <ele>1427.763</ele>
      </trkpt>
      <trkpt lat="46.19575" lon="5.88115">
        <ele>1424.706</ele>
      </trkpt>
      <trkpt lat="46.19548" lon="5.88098">
        <ele>1427.878</ele>
      </trkpt>
      <trkpt lat="46.19535" lon="5.8808">
        <ele>1426.012</ele>
      </trkpt>
      <trkpt lat="46.19516" lon="5.88059">
        <ele>1425.216</ele>
      </trkpt>
      <trkpt lat="46.19502" lon="5.8805">
        <ele>1421.688</ele>
      </trkpt>
      <trkpt lat="46.1949" lon="5.88047">
        <ele>1419.158</ele>
      </trkpt>
      <trkpt lat="46.19476" lon="5.88048">
        <ele>1417.423</ele>
      </trkpt>
      <trkpt lat="46.19463" lon="5.88044">
        <ele>1416.039</ele>
      </trkpt>
      <trkpt lat="46.19443" lon="5.88028">
        <ele>1414.986</ele>
      </trkpt>
      <trkpt lat="46.19419" lon="5.88004">
        <ele>1409.99</ele>
      </trkpt>
      <trkpt lat="46.194" lon="5.87995">
        <ele>1412.535</ele>
      </trkpt>
      <trkpt lat="46.19378" lon="5.87969">
        <ele>1410.55</ele>
      </trkpt>
      <trkpt lat="46.19367" lon="5.87952">
        <ele>1407.743</ele>
      </trkpt>
      <trkpt lat="46.1936" lon="5.87939">
        <ele>1409.472</ele>
      </trkpt>
      <trkpt lat="46.19345" lon="5.87929">
        <ele>1415.477</ele>
      </trkpt>
      <trkpt lat="46.19327" lon="5.87919">
        <ele>1421.036</ele>
      </trkpt>
      <trkpt lat="46.19312" lon="5.87905">
        <ele>1419.758</ele>
      </trkpt>
      <trkpt lat="46.19299" lon="5.87896">
        <ele>1418.154</ele>
      </trkpt>
      <trkpt lat="46.19287" lon="5.87877">
        <ele>1419.013</ele>
      </trkpt>
      <trkpt lat="46.19277" lon="5.87867">
        <ele>1419.23</ele>
      </trkpt>
      <trkpt lat="46.19265" lon="5.87856">
        <ele>1421.525</ele>
      </trkpt>
      <trkpt lat="46.19259" lon="5.8784">
        <ele>1425.951</ele>
      </trkpt>
      <trkpt lat="46.19247" lon="5.87832">
        <ele>1427.629</ele>
      </trkpt>
      <trkpt lat="46.19232" lon="5.87822">
        <ele>1422.499</ele>
      </trkpt>
      <trkpt lat="46.19221" lon="5.87813">
        <ele>1419.323</ele>
      </trkpt>
      <trkpt lat="46.19191" lon="5.87808">
        <ele>1415.754</ele>
      </trkpt>
      <trkpt lat="46.19169" lon="5.87801">
        <ele>1417.557</ele>
      </trkpt>
      <trkpt lat="46.19144" lon="5.87795">
        <ele>1417.594</ele>
      </trkpt>
      <trkpt lat="46.19116" lon="5.87798">
        <ele>1414.815</ele>
      </trkpt>
      <trkpt lat="46.191" lon="5.878">
        <ele>1412.649</ele>
      </trkpt>
      <trkpt lat="46.19081" lon="5.87802">
        <ele>1410.581</ele>
      </trkpt>
      <trkpt lat="46.1907" lon="5.878">
        <ele>1410.19</ele>
      </trkpt>
      <trkpt lat="46.1906" lon="5.87784">
        <ele>1412.247</ele>
      </trkpt>
      <trkpt lat="46.19047" lon="5.87767">
        <ele>1415.52</ele>
      </trkpt>
      <trkpt lat="46.19037" lon="5.87754">
        <ele>1419.018</ele>
      </trkpt>
      <trkpt lat="46.19028" lon="5.87745">
        <ele>1419.816</ele>
      </trkpt>
      <trkpt lat="46.19016" lon="5.87739">
        <ele>1417.503</ele>
      </trkpt>
      <trkpt lat="46.19004" lon="5.87737">
        <ele>1413.824</ele>
      </trkpt>
      <trkpt lat="46.18986" lon="5.87733">
        <ele>1411.075</ele>
      </trkpt>
      <trkpt lat="46.1898" lon="5.87727">
        <ele>1412.361</ele>
      </trkpt>
      <trkpt lat="46.18967" lon="5.87715">
        <ele>1415.187</ele>
      </trkpt>
      <trkpt lat="46.18954" lon="5.87695">
        <ele>1417.199</ele>
      </trkpt>
      <trkpt lat="46.18948" lon="5.87685">
        <ele>1417.759</ele>
      </trkpt>
      <trkpt lat="46.18942" lon="5.87659">
        <ele>1420.464</ele>
      </trkpt>
      <trkpt lat="46.18939" lon="5.87629">
        <ele>1422.755</ele>
      </trkpt>
      <trkpt lat="46.1894" lon="5.87587">
        <ele>1428.054</ele>
      </trkpt>
      <trkpt lat="46.18938" lon="5.87551">
        <ele>1428.376</ele>
      </trkpt>
      <trkpt lat="46.18939" lon="5.87514">
        <ele>1426.627</ele>
      </trkpt>
      <trkpt lat="46.18939" lon="5.87465">
        <ele>1423.791</ele>
      </trkpt>
      <trkpt lat="46.18935" lon="5.8742">
        <ele>1424.074</ele>
      </trkpt>
      <trkpt lat="46.18927" lon="5.87384">
        <ele>1423.237</ele>
      </trkpt>
      <trkpt lat="46.18919" lon="5.87351">
        <ele>1426.247</ele>
      </trkpt>
      <trkpt lat="46.18913" lon="5.87331">
        <ele>1429.779</ele>
      </trkpt>
      <trkpt lat="46.18893" lon="5.87307">
        <ele>1437.926</ele>
      </trkpt>
      <trkpt lat="46.18865" lon="5.87295">
        <ele>1438.658</ele>
      </trkpt>
      <trkpt lat="46.18848" lon="5.87278">
        <ele>1440.976</ele>
      </trkpt>
      <trkpt lat="46.18833" lon="5.87258">
        <ele>1440.999</ele>
      </trkpt>
      <trkpt lat="46.18826" lon="5.87233">
        <ele>1440.694</ele>
      </trkpt>
      <trkpt lat="46.18821" lon="5.87211">
        <ele>1440.772</ele>
      </trkpt>
      <trkpt lat="46.1881" lon="5.87183">
        <ele>1441.973</ele>
      </trkpt>
      <trkpt lat="46.18802" lon="5.87166">
        <ele>1442.68</ele>
      </trkpt>
      <trkpt lat="46.18796" lon="5.87147">
        <ele>1442.963</ele>
      </trkpt>
      <trkpt lat="46.18789" lon="5.87125">
        <ele>1442.532</ele>
      </trkpt>
      <trkpt lat="46.18788" lon="5.87101">
        <ele>1442.987</ele>
      </trkpt>
      <trkpt lat="46.18792" lon="5.87083">
        <ele>1443.52</ele>
      </trkpt>
      <trkpt lat="46.18799" lon="5.87058">
        <ele>1445.624</ele>
      </trkpt>
      <trkpt lat="46.18802" lon="5.87045">
        <ele>1446.251</ele>
      </trkpt>
      <trkpt lat="46.18806" lon="5.87014">
        <ele>1447.573</ele>
      </trkpt>
      <trkpt lat="46.18806" lon="5.86983">
        <ele>1448.042</ele>
      </trkpt>
      <trkpt lat="46.18807" lon="5.86954">
        <ele>1447.458</ele>
      </trkpt>
      <trkpt lat="46.18809" lon="5.86925">
        <ele>1447.477</ele>
      </trkpt>
      <trkpt lat="46.18811" lon="5.86899">
        <ele>1450.414</ele>
      </trkpt>
      <trkpt lat="46.18813" lon="5.86867">
        <ele>1455.034</ele>
      </trkpt>
      <trkpt lat="46.18805" lon="5.86844">
        <ele>1454.248</ele>
      </trkpt>
      <trkpt lat="46.18793" lon="5.86806">
        <ele>1451.443</ele>
      </trkpt>
      <trkpt lat="46.18787" lon="5.86773">
        <ele>1452.995</ele>
      </trkpt>
      <trkpt lat="46.18781" lon="5.86735">
        <ele>1459.357</ele>
      </trkpt>
      <trkpt lat="46.18773" lon="5.86698">
        <ele>1462.482</ele>
      </trkpt>
      <trkpt lat="46.18761" lon="5.86671">
        <ele>1461.535</ele>
      </trkpt>
      <trkpt lat="46.18747" lon="5.86639">
        <ele>1462.424</ele>
      </trkpt>
      <trkpt lat="46.18727" lon="5.8661">
        <ele>1459.286</ele>
      </trkpt>
      <trkpt lat="46.1871" lon="5.86588">
        <ele>1459.505</ele>
      </trkpt>
      <trkpt lat="46.187" lon="5.86584">
        <ele>1461.677</ele>
      </trkpt>
      <trkpt lat="46.18683" lon="5.86569">
        <ele>1461.33</ele>
      </trkpt>
      <trkpt lat="46.18659" lon="5.86556">
        <ele>1461.545</ele>
      </trkpt>
      <trkpt lat="46.18636" lon="5.86543">
        <ele>1461.211</ele>
      </trkpt>
      <trkpt lat="46.18622" lon="5.86542">
        <ele>1463.666</ele>
      </trkpt>
      <trkpt lat="46.18604" lon="5.8653">
        <ele>1462.638</ele>
      </trkpt>
      <trkpt lat="46.18587" lon="5.86522">
        <ele>1457.789</ele>
      </trkpt>
      <trkpt lat="46.18567" lon="5.86522">
        <ele>1454.843</ele>
      </trkpt>
      <trkpt lat="46.18546" lon="5.86526">
        <ele>1449.943</ele>
      </trkpt>
      <trkpt lat="46.18523" lon="5.86528">
        <ele>1444.598</ele>
      </trkpt>
      <trkpt lat="46.18499" lon="5.86542">
        <ele>1445.366</ele>
      </trkpt>
      <trkpt lat="46.18493" lon="5.86553">
        <ele>1443.963</ele>
      </trkpt>
      <trkpt lat="46.18481" lon="5.86575">
        <ele>1442.74</ele>
      </trkpt>
      <trkpt lat="46.1847" lon="5.86605">
        <ele>1437.87</ele>
      </trkpt>
      <trkpt lat="46.18461" lon="5.86616">
        <ele>1436.895</ele>
      </trkpt>
      <trkpt lat="46.18448" lon="5.8662">
        <ele>1436.181</ele>
      </trkpt>
      <trkpt lat="46.18433" lon="5.86621">
        <ele>1436.356</ele>
      </trkpt>
      <trkpt lat="46.18417" lon="5.86616">
        <ele>1438.306</ele>
      </trkpt>
      <trkpt lat="46.18405" lon="5.86606">
        <ele>1435.729</ele>
      </trkpt>
      <trkpt lat="46.18393" lon="5.86589">
        <ele>1431.034</ele>
      </trkpt>
      <trkpt lat="46.18383" lon="5.86564">
        <ele>1428.199</ele>
      </trkpt>
      <trkpt lat="46.18385" lon="5.86543">
        <ele>1426.167</ele>
      </trkpt>
      <trkpt lat="46.18385" lon="5.86514">
        <ele>1424.218</ele>
      </trkpt>
      <trkpt lat="46.18383" lon="5.86496">
        <ele>1423.935</ele>
      </trkpt>
      <trkpt lat="46.18379" lon="5.86473">
        <ele>1423.706</ele>
      </trkpt>
      <trkpt lat="46.1837" lon="5.8645">
        <ele>1417.419</ele>
      </trkpt>
      <trkpt lat="46.18359" lon="5.86426">
        <ele>1405.428</ele>
      </trkpt>
      <trkpt lat="46.18342" lon="5.86409">
        <ele>1397.721</ele>
      </trkpt>
      <trkpt lat="46.18329" lon="5.86402">
        <ele>1394.047</ele>
      </trkpt>
      <trkpt lat="46.18313" lon="5.86391">
        <ele>1389.509</ele>
      </trkpt>
      <trkpt lat="46.18303" lon="5.86384">
        <ele>1387.321</ele>
      </trkpt>
      <trkpt lat="46.18295" lon="5.86372">
        <ele>1385.272</ele>
      </trkpt>
      <trkpt lat="46.18292" lon="5.86355">
        <ele>1383.209</ele>
      </trkpt>
      <trkpt lat="46.1829" lon="5.86336">
        <ele>1381.927</ele>
      </trkpt>
      <trkpt lat="46.18287" lon="5.86328">
        <ele>1380.354</ele>
      </trkpt>
      <trkpt lat="46.18283" lon="5.86311">
        <ele>1377.241</ele>
      </trkpt>
      <trkpt lat="46.18277" lon="5.86301">
        <ele>1376.263</ele>
      </trkpt>
      <trkpt lat="46.18269" lon="5.86297">
        <ele>1377.137</ele>
      </trkpt>
      <trkpt lat="46.18258" lon="5.86287">
        <ele>1379.075</ele>
      </trkpt>
      <trkpt lat="46.18239" lon="5.86284">
        <ele>1381.543</ele>
      </trkpt>
      <trkpt lat="46.1822" lon="5.86287">
        <ele>1383.112</ele>
      </trkpt>
      <trkpt lat="46.18195" lon="5.86294">
        <ele>1384.398</ele>
      </trkpt>
      <trkpt lat="46.18174" lon="5.86296">
        <ele>1386.768</ele>
      </trkpt>
      <trkpt lat="46.18154" lon="5.86299">
        <ele>1388.201</ele>
      </trkpt>
      <trkpt lat="46.18143" lon="5.86302">
        <ele>1388.466</ele>
      </trkpt>
      <trkpt lat="46.18121" lon="5.86304">
        <ele>1388.444</ele>
      </trkpt>
      <trkpt lat="46.18102" lon="5.86314">
        <ele>1388.357</ele>
      </trkpt>
      <trkpt lat="46.18082" lon="5.86329">
        <ele>1385.989</ele>
      </trkpt>
      <trkpt lat="46.18064" lon="5.86334">
        <ele>1383.29</ele>
      </trkpt>
      <trkpt lat="46.18048" lon="5.86336">
        <ele>1382.237</ele>
      </trkpt>
      <trkpt lat="46.18038" lon="5.86342">
        <ele>1382.345</ele>
      </trkpt>
      <trkpt lat="46.18025" lon="5.86348">
        <ele>1381.86</ele>
      </trkpt>
      <trkpt lat="46.18014" lon="5.86355">
        <ele>1380.813</ele>
      </trkpt>
      <trkpt lat="46.18006" lon="5.86361">
        <ele>1379.624</ele>
      </trkpt>
      <trkpt lat="46.17999" lon="5.86364">
        <ele>1379.509</ele>
      </trkpt>
      <trkpt lat="46.17988" lon="5.86365">
        <ele>1378.611</ele>
      </trkpt>
      <trkpt lat="46.17981" lon="5.86366">
        <ele>1378.067</ele>
      </trkpt>
      <trkpt lat="46.17976" lon="5.86363">
        <ele>1377.389</ele>
      </trkpt>
      <trkpt lat="46.17976" lon="5.8635">
        <ele>1377.041</ele>
      </trkpt>
      <trkpt lat="46.17976" lon="5.8633">
        <ele>1376.914</ele>
      </trkpt>
      <trkpt lat="46.17979" lon="5.86317">
        <ele>1377.332</ele>
      </trkpt>
      <trkpt lat="46.17979" lon="5.86309">
        <ele>1377.285</ele>
      </trkpt>
      <trkpt lat="46.1798" lon="5.86295">
        <ele>1376.193</ele>
      </trkpt>
      <trkpt lat="46.17976" lon="5.8628">
        <ele>1374.452</ele>
      </trkpt>
      <trkpt lat="46.17971" lon="5.86271">
        <ele>1373.541</ele>
      </trkpt>
      <trkpt lat="46.17966" lon="5.86266">
        <ele>1373.165</ele>
      </trkpt>
      <trkpt lat="46.17956" lon="5.86261">
        <ele>1372.769</ele>
      </trkpt>
      <trkpt lat="46.17947" lon="5.8625">
        <ele>1372.028</ele>
      </trkpt>
      <trkpt lat="46.17945" lon="5.86242">
        <ele>1371.461</ele>
      </trkpt>
      <trkpt lat="46.17941" lon="5.86235">
        <ele>1370.949</ele>
      </trkpt>
      <trkpt lat="46.17933" lon="5.86233">
        <ele>1370.796</ele>
      </trkpt>
      <trkpt lat="46.17922" lon="5.86233">
        <ele>1370.744</ele>
      </trkpt>
      <trkpt lat="46.17908" lon="5.86238">
        <ele>1370.626</ele>
      </trkpt>
      <trkpt lat="46.17892" lon="5.86252">
        <ele>1369.54</ele>
      </trkpt>
      <trkpt lat="46.17871" lon="5.8627">
        <ele>1370.415</ele>
      </trkpt>
      <trkpt lat="46.17857" lon="5.8628">
        <ele>1370.065</ele>
      </trkpt>
      <trkpt lat="46.17844" lon="5.86292">
        <ele>1369.861</ele>
      </trkpt>
      <trkpt lat="46.17832" lon="5.86308">
        <ele>1368.94</ele>
      </trkpt>
      <trkpt lat="46.17824" lon="5.86317">
        <ele>1368.507</ele>
      </trkpt>
      <trkpt lat="46.17816" lon="5.86321">
        <ele>1368</ele>
      </trkpt>
      <trkpt lat="46.1781" lon="5.863">
        <ele>1368.348</ele>
      </trkpt>
      <trkpt lat="46.17802" lon="5.86277">
        <ele>1369.513</ele>
      </trkpt>
      <trkpt lat="46.17797" lon="5.86262">
        <ele>1370.316</ele>
      </trkpt>
      <trkpt lat="46.17794" lon="5.86249">
        <ele>1370.043</ele>
      </trkpt>
      <trkpt lat="46.17792" lon="5.86236">
        <ele>1368.515</ele>
      </trkpt>
      <trkpt lat="46.178" lon="5.86217">
        <ele>1367.311</ele>
      </trkpt>
      <trkpt lat="46.17805" lon="5.86209">
        <ele>1366.495</ele>
      </trkpt>
      <trkpt lat="46.17806" lon="5.86194">
        <ele>1364.076</ele>
      </trkpt>
      <trkpt lat="46.17806" lon="5.86186">
        <ele>1363.524</ele>
      </trkpt>
      <trkpt lat="46.17806" lon="5.86176">
        <ele>1362.703</ele>
      </trkpt>
      <trkpt lat="46.17806" lon="5.86159">
        <ele>1362.042</ele>
      </trkpt>
      <trkpt lat="46.17813" lon="5.86145">
        <ele>1362.388</ele>
      </trkpt>
      <trkpt lat="46.17821" lon="5.8614">
        <ele>1362.616</ele>
      </trkpt>
      <trkpt lat="46.17833" lon="5.86133">
        <ele>1362.997</ele>
      </trkpt>
      <trkpt lat="46.17849" lon="5.86123">
        <ele>1363.456</ele>
      </trkpt>
      <trkpt lat="46.17858" lon="5.86117">
        <ele>1363.351</ele>
      </trkpt>
      <trkpt lat="46.17863" lon="5.86114">
        <ele>1363.46</ele>
      </trkpt>
      <trkpt lat="46.17863" lon="5.86104">
        <ele>1363.256</ele>
      </trkpt>
      <trkpt lat="46.17863" lon="5.86093">
        <ele>1363.18</ele>
      </trkpt>
      <trkpt lat="46.17861" lon="5.86083">
        <ele>1363.027</ele>
      </trkpt>
      <trkpt lat="46.17855" lon="5.86068">
        <ele>1364.34</ele>
      </trkpt>
      <trkpt lat="46.17845" lon="5.86061">
        <ele>1366.014</ele>
      </trkpt>
      <trkpt lat="46.17834" lon="5.8606">
        <ele>1367.609</ele>
      </trkpt>
      <trkpt lat="46.17821" lon="5.86056">
        <ele>1367.541</ele>
      </trkpt>
      <trkpt lat="46.17806" lon="5.86053">
        <ele>1367.177</ele>
      </trkpt>
      <trkpt lat="46.17793" lon="5.86046">
        <ele>1367.693</ele>
      </trkpt>
      <trkpt lat="46.17776" lon="5.8604">
        <ele>1368.215</ele>
      </trkpt>
      <trkpt lat="46.17759" lon="5.86037">
        <ele>1369.215</ele>
      </trkpt>
      <trkpt lat="46.17746" lon="5.86048">
        <ele>1369.279</ele>
      </trkpt>
      <trkpt lat="46.17725" lon="5.8605">
        <ele>1369.212</ele>
      </trkpt>
      <trkpt lat="46.17709" lon="5.86052">
        <ele>1369.132</ele>
      </trkpt>
      <trkpt lat="46.17691" lon="5.86056">
        <ele>1368.879</ele>
      </trkpt>
      <trkpt lat="46.17672" lon="5.86054">
        <ele>1368.163</ele>
      </trkpt>
      <trkpt lat="46.17654" lon="5.86058">
        <ele>1367.336</ele>
      </trkpt>
      <trkpt lat="46.17644" lon="5.86049">
        <ele>1366.324</ele>
      </trkpt>
      <trkpt lat="46.17626" lon="5.86042">
        <ele>1365.771</ele>
      </trkpt>
      <trkpt lat="46.17613" lon="5.86041">
        <ele>1365.44</ele>
      </trkpt>
      <trkpt lat="46.17597" lon="5.86041">
        <ele>1365.731</ele>
      </trkpt>
      <trkpt lat="46.17586" lon="5.86042">
        <ele>1366.005</ele>
      </trkpt>
      <trkpt lat="46.17569" lon="5.86041">
        <ele>1365.931</ele>
      </trkpt>
      <trkpt lat="46.17556" lon="5.86036">
        <ele>1364.661</ele>
      </trkpt>
      <trkpt lat="46.17544" lon="5.86032">
        <ele>1363.699</ele>
      </trkpt>
      <trkpt lat="46.17527" lon="5.86022">
        <ele>1362.371</ele>
      </trkpt>
      <trkpt lat="46.17521" lon="5.86019">
        <ele>1361.855</ele>
      </trkpt>
      <trkpt lat="46.17499" lon="5.86008">
        <ele>1360.445</ele>
      </trkpt>
      <trkpt lat="46.17479" lon="5.85998">
        <ele>1357.523</ele>
      </trkpt>
      <trkpt lat="46.17465" lon="5.85991">
        <ele>1356.459</ele>
      </trkpt>
      <trkpt lat="46.17451" lon="5.85988">
        <ele>1357.133</ele>
      </trkpt>
      <trkpt lat="46.17441" lon="5.85989">
        <ele>1357.359</ele>
      </trkpt>
      <trkpt lat="46.17426" lon="5.86003">
        <ele>1356.765</ele>
      </trkpt>
      <trkpt lat="46.17403" lon="5.86009">
        <ele>1355.533</ele>
      </trkpt>
      <trkpt lat="46.17391" lon="5.8601">
        <ele>1354.848</ele>
      </trkpt>
      <trkpt lat="46.17376" lon="5.86009">
        <ele>1352.99</ele>
      </trkpt>
      <trkpt lat="46.17359" lon="5.86007">
        <ele>1350.46</ele>
      </trkpt>
      <trkpt lat="46.17339" lon="5.86004">
        <ele>1347.239</ele>
      </trkpt>
      <trkpt lat="46.17324" lon="5.85996">
        <ele>1344.058</ele>
      </trkpt>
      <trkpt lat="46.17312" lon="5.85996">
        <ele>1342.336</ele>
      </trkpt>
      <trkpt lat="46.17304" lon="5.8599">
        <ele>1340.45</ele>
      </trkpt>
      <trkpt lat="46.17288" lon="5.86021">
        <ele>1343.333</ele>
      </trkpt>
      <trkpt lat="46.17271" lon="5.86048">
        <ele>1343.692</ele>
      </trkpt>
      <trkpt lat="46.1725" lon="5.86076">
        <ele>1345.267</ele>
      </trkpt>
      <trkpt lat="46.17227" lon="5.86113">
        <ele>1348.225</ele>
      </trkpt>
      <trkpt lat="46.17213" lon="5.86146">
        <ele>1353.778</ele>
      </trkpt>
      <trkpt lat="46.172" lon="5.86171">
        <ele>1353.633</ele>
      </trkpt>
      <trkpt lat="46.17187" lon="5.86196">
        <ele>1355.629</ele>
      </trkpt>
      <trkpt lat="46.17173" lon="5.86231">
        <ele>1354.58</ele>
      </trkpt>
      <trkpt lat="46.17162" lon="5.86265">
        <ele>1351.236</ele>
      </trkpt>
      <trkpt lat="46.17147" lon="5.86298">
        <ele>1349.131</ele>
      </trkpt>
      <trkpt lat="46.17134" lon="5.86328">
        <ele>1345.767</ele>
      </trkpt>
      <trkpt lat="46.17124" lon="5.86351">
        <ele>1341.587</ele>
      </trkpt>
      <trkpt lat="46.17111" lon="5.86383">
        <ele>1333.139</ele>
      </trkpt>
      <trkpt lat="46.17103" lon="5.864">
        <ele>1330.72</ele>
      </trkpt>
      <trkpt lat="46.17097" lon="5.86416">
        <ele>1328.046</ele>
      </trkpt>
      <trkpt lat="46.17092" lon="5.86429">
        <ele>1327.215</ele>
      </trkpt>
      <trkpt lat="46.17073" lon="5.86429">
        <ele>1326.169</ele>
      </trkpt>
      <trkpt lat="46.17055" lon="5.86429">
        <ele>1326.511</ele>
      </trkpt>
      <trkpt lat="46.17025" lon="5.86432">
        <ele>1328.101</ele>
      </trkpt>
      <trkpt lat="46.17008" lon="5.86436">
        <ele>1329.227</ele>
      </trkpt>
      <trkpt lat="46.16992" lon="5.86438">
        <ele>1330.31</ele>
      </trkpt>
      <trkpt lat="46.16971" lon="5.86448">
        <ele>1330.528</ele>
      </trkpt>
      <trkpt lat="46.16949" lon="5.86455">
        <ele>1334.288</ele>
      </trkpt>
      <trkpt lat="46.1693" lon="5.86465">
        <ele>1336.598</ele>
      </trkpt>
      <trkpt lat="46.16914" lon="5.8647">
        <ele>1338.247</ele>
      </trkpt>
      <trkpt lat="46.16893" lon="5.86476">
        <ele>1339.906</ele>
      </trkpt>
      <trkpt lat="46.16874" lon="5.86482">
        <ele>1342.35</ele>
      </trkpt>
      <trkpt lat="46.16851" lon="5.86486">
        <ele>1345.044</ele>
      </trkpt>
      <trkpt lat="46.16834" lon="5.86486">
        <ele>1346.883</ele>
      </trkpt>
      <trkpt lat="46.16816" lon="5.86487">
        <ele>1348.799</ele>
      </trkpt>
      <trkpt lat="46.16802" lon="5.86491">
        <ele>1350.327</ele>
      </trkpt>
      <trkpt lat="46.16782" lon="5.86501">
        <ele>1352.516</ele>
      </trkpt>
      <trkpt lat="46.16773" lon="5.86512">
        <ele>1356.204</ele>
      </trkpt>
      <trkpt lat="46.16754" lon="5.86518">
        <ele>1360.99</ele>
      </trkpt>
      <trkpt lat="46.1674" lon="5.86521">
        <ele>1364.023</ele>
      </trkpt>
      <trkpt lat="46.16722" lon="5.86529">
        <ele>1367.371</ele>
      </trkpt>
      <trkpt lat="46.16702" lon="5.86544">
        <ele>1373.464</ele>
      </trkpt>
      <trkpt lat="46.1669" lon="5.86568">
        <ele>1376.749</ele>
      </trkpt>
      <trkpt lat="46.16691" lon="5.86586">
        <ele>1378.531</ele>
      </trkpt>
      <trkpt lat="46.1669" lon="5.86603">
        <ele>1378.404</ele>
      </trkpt>
      <trkpt lat="46.16684" lon="5.86614">
        <ele>1378.629</ele>
      </trkpt>
      <trkpt lat="46.16676" lon="5.86617">
        <ele>1379.105</ele>
      </trkpt>
      <trkpt lat="46.16667" lon="5.86615">
        <ele>1379.827</ele>
      </trkpt>
      <trkpt lat="46.16652" lon="5.86612">
        <ele>1380.505</ele>
      </trkpt>
      <trkpt lat="46.16641" lon="5.86625">
        <ele>1380.441</ele>
      </trkpt>
      <trkpt lat="46.16631" lon="5.86637">
        <ele>1380.704</ele>
      </trkpt>
      <trkpt lat="46.16623" lon="5.8664">
        <ele>1381.147</ele>
      </trkpt>
      <trkpt lat="46.16609" lon="5.86637">
        <ele>1382.196</ele>
      </trkpt>
      <trkpt lat="46.16596" lon="5.86623">
        <ele>1383.057</ele>
      </trkpt>
      <trkpt lat="46.16582" lon="5.86609">
        <ele>1383.059</ele>
      </trkpt>
      <trkpt lat="46.16565" lon="5.86605">
        <ele>1383.075</ele>
      </trkpt>
      <trkpt lat="46.16545" lon="5.86604">
        <ele>1383.773</ele>
      </trkpt>
      <trkpt lat="46.16528" lon="5.86609">
        <ele>1385.003</ele>
      </trkpt>
      <trkpt lat="46.16512" lon="5.86611">
        <ele>1387.282</ele>
      </trkpt>
      <trkpt lat="46.16495" lon="5.86618">
        <ele>1389.227</ele>
      </trkpt>
      <trkpt lat="46.16477" lon="5.86624">
        <ele>1389.544</ele>
      </trkpt>
      <trkpt lat="46.1646" lon="5.86627">
        <ele>1388.788</ele>
      </trkpt>
      <trkpt lat="46.16448" lon="5.86633">
        <ele>1387.757</ele>
      </trkpt>
      <trkpt lat="46.1643" lon="5.86642">
        <ele>1388.568</ele>
      </trkpt>
      <trkpt lat="46.16416" lon="5.86651">
        <ele>1390.052</ele>
      </trkpt>
      <trkpt lat="46.1641" lon="5.86655">
        <ele>1390.512</ele>
      </trkpt>
      <trkpt lat="46.16397" lon="5.86664">
        <ele>1390.945</ele>
      </trkpt>
      <trkpt lat="46.16383" lon="5.86669">
        <ele>1391.129</ele>
      </trkpt>
      <trkpt lat="46.16368" lon="5.86678">
        <ele>1390.873</ele>
      </trkpt>
      <trkpt lat="46.16357" lon="5.86684">
        <ele>1390.105</ele>
      </trkpt>
      <trkpt lat="46.16341" lon="5.86683">
        <ele>1389.526</ele>
      </trkpt>
      <trkpt lat="46.16318" lon="5.86681">
        <ele>1385.543</ele>
      </trkpt>
      <trkpt lat="46.163" lon="5.86684">
        <ele>1382.118</ele>
      </trkpt>
      <trkpt lat="46.16288" lon="5.86684">
        <ele>1381.073</ele>
      </trkpt>
      <trkpt lat="46.16274" lon="5.86688">
        <ele>1380.869</ele>
      </trkpt>
      <trkpt lat="46.16264" lon="5.86693">
        <ele>1381.617</ele>
      </trkpt>
      <trkpt lat="46.16246" lon="5.86691">
        <ele>1381.012</ele>
      </trkpt>
      <trkpt lat="46.1623" lon="5.8669">
        <ele>1379.717</ele>
      </trkpt>
      <trkpt lat="46.16213" lon="5.86689">
        <ele>1380.019</ele>
      </trkpt>
      <trkpt lat="46.162" lon="5.86685">
        <ele>1381.195</ele>
      </trkpt>
      <trkpt lat="46.1617" lon="5.86674">
        <ele>1383.884</ele>
      </trkpt>
      <trkpt lat="46.1615" lon="5.86675">
        <ele>1385.153</ele>
      </trkpt>
      <trkpt lat="46.16138" lon="5.86686">
        <ele>1385.512</ele>
      </trkpt>
      <trkpt lat="46.16121" lon="5.86695">
        <ele>1389.483</ele>
      </trkpt>
      <trkpt lat="46.16105" lon="5.86697">
        <ele>1393.278</ele>
      </trkpt>
      <trkpt lat="46.16091" lon="5.86698">
        <ele>1397.896</ele>
      </trkpt>
      <trkpt lat="46.16076" lon="5.86693">
        <ele>1401.591</ele>
      </trkpt>
      <trkpt lat="46.16058" lon="5.86692">
        <ele>1403.106</ele>
      </trkpt>
      <trkpt lat="46.1604" lon="5.86698">
        <ele>1406.074</ele>
      </trkpt>
      <trkpt lat="46.16021" lon="5.86701">
        <ele>1409.289</ele>
      </trkpt>
      <trkpt lat="46.16006" lon="5.86708">
        <ele>1412.476</ele>
      </trkpt>
      <trkpt lat="46.15998" lon="5.86719">
        <ele>1414.308</ele>
      </trkpt>
      <trkpt lat="46.15994" lon="5.86735">
        <ele>1413.068</ele>
      </trkpt>
      <trkpt lat="46.15983" lon="5.86747">
        <ele>1413.121</ele>
      </trkpt>
      <trkpt lat="46.15971" lon="5.86755">
        <ele>1414.23</ele>
      </trkpt>
      <trkpt lat="46.15951" lon="5.86761">
        <ele>1418.733</ele>
      </trkpt>
      <trkpt lat="46.15931" lon="5.86767">
        <ele>1426.752</ele>
      </trkpt>
      <trkpt lat="46.15904" lon="5.86797">
        <ele>1430.211</ele>
      </trkpt>
      <trkpt lat="46.15884" lon="5.86827">
        <ele>1430.757</ele>
      </trkpt>
      <trkpt lat="46.15864" lon="5.86853">
        <ele>1431.935</ele>
      </trkpt>
      <trkpt lat="46.15844" lon="5.8687">
        <ele>1432.772</ele>
      </trkpt>
      <trkpt lat="46.15823" lon="5.86884">
        <ele>1440.773</ele>
      </trkpt>
      <trkpt lat="46.15803" lon="5.86896">
        <ele>1446.373</ele>
      </trkpt>
      <trkpt lat="46.15775" lon="5.86902">
        <ele>1449.067</ele>
      </trkpt>
      <trkpt lat="46.15751" lon="5.86901">
        <ele>1453.813</ele>
      </trkpt>
      <trkpt lat="46.15727" lon="5.86896">
        <ele>1457.449</ele>
      </trkpt>
      <trkpt lat="46.15711" lon="5.86887">
        <ele>1458.893</ele>
      </trkpt>
      <trkpt lat="46.15685" lon="5.86872">
        <ele>1458.575</ele>
      </trkpt>
      <trkpt lat="46.1567" lon="5.86858">
        <ele>1457.693</ele>
      </trkpt>
      <trkpt lat="46.15658" lon="5.86823">
        <ele>1466.042</ele>
      </trkpt>
      <trkpt lat="46.15655" lon="5.8677">
        <ele>1472.888</ele>
      </trkpt>
      <trkpt lat="46.15653" lon="5.86741">
        <ele>1474.873</ele>
      </trkpt>
      <trkpt lat="46.1565" lon="5.86697">
        <ele>1481.452</ele>
      </trkpt>
      <trkpt lat="46.15645" lon="5.86657">
        <ele>1492.813</ele>
      </trkpt>
      <trkpt lat="46.15645" lon="5.8664">
        <ele>1496.27</ele>
      </trkpt>
      <trkpt lat="46.15644" lon="5.86606">
        <ele>1502.535</ele>
      </trkpt>
      <trkpt lat="46.15631" lon="5.86564">
        <ele>1506.473</ele>
      </trkpt>
      <trkpt lat="46.15626" lon="5.86541">
        <ele>1508.798</ele>
      </trkpt>
      <trkpt lat="46.15618" lon="5.86507">
        <ele>1510.623</ele>
      </trkpt>
      <trkpt lat="46.15612" lon="5.86477">
        <ele>1509.265</ele>
      </trkpt>
      <trkpt lat="46.15612" lon="5.86459">
        <ele>1509.1</ele>
      </trkpt>
      <trkpt lat="46.15604" lon="5.86444">
        <ele>1508.261</ele>
      </trkpt>
      <trkpt lat="46.15587" lon="5.86432">
        <ele>1507.978</ele>
      </trkpt>
      <trkpt lat="46.15574" lon="5.86434">
        <ele>1508.743</ele>
      </trkpt>
      <trkpt lat="46.15555" lon="5.86441">
        <ele>1509.9</ele>
      </trkpt>
      <trkpt lat="46.15536" lon="5.86436">
        <ele>1513.679</ele>
      </trkpt>
      <trkpt lat="46.155" lon="5.86426">
        <ele>1521.644</ele>
      </trkpt>
      <trkpt lat="46.15479" lon="5.86426">
        <ele>1528.539</ele>
      </trkpt>
      <trkpt lat="46.15453" lon="5.8642">
        <ele>1538.572</ele>
      </trkpt>
      <trkpt lat="46.15431" lon="5.86423">
        <ele>1544.346</ele>
      </trkpt>
      <trkpt lat="46.15409" lon="5.86423">
        <ele>1548.211</ele>
      </trkpt>
      <trkpt lat="46.15385" lon="5.86425">
        <ele>1549.097</ele>
      </trkpt>
      <trkpt lat="46.15366" lon="5.86421">
        <ele>1551.514</ele>
      </trkpt>
      <trkpt lat="46.15354" lon="5.86418">
        <ele>1553.601</ele>
      </trkpt>
      <trkpt lat="46.15338" lon="5.86417">
        <ele>1556.16</ele>
      </trkpt>
      <trkpt lat="46.15325" lon="5.8641">
        <ele>1559.606</ele>
      </trkpt>
      <trkpt lat="46.15316" lon="5.86403">
        <ele>1562.159</ele>
      </trkpt>
      <trkpt lat="46.15299" lon="5.86373">
        <ele>1569.929</ele>
      </trkpt>
      <trkpt lat="46.15285" lon="5.86346">
        <ele>1574.446</ele>
      </trkpt>
      <trkpt lat="46.15272" lon="5.86313">
        <ele>1578.857</ele>
      </trkpt>
      <trkpt lat="46.15256" lon="5.86277">
        <ele>1581.646</ele>
      </trkpt>
      <trkpt lat="46.15227" lon="5.86255">
        <ele>1585.919</ele>
      </trkpt>
      <trkpt lat="46.15199" lon="5.86262">
        <ele>1592.996</ele>
      </trkpt>
      <trkpt lat="46.15177" lon="5.86274">
        <ele>1599.169</ele>
      </trkpt>
      <trkpt lat="46.15152" lon="5.86297">
        <ele>1605.026</ele>
      </trkpt>
      <trkpt lat="46.15134" lon="5.86312">
        <ele>1608.003</ele>
      </trkpt>
      <trkpt lat="46.15126" lon="5.86331">
        <ele>1609.232</ele>
      </trkpt>
      <trkpt lat="46.15106" lon="5.86355">
        <ele>1610.671</ele>
      </trkpt>
      <trkpt lat="46.15092" lon="5.86364">
        <ele>1611.352</ele>
      </trkpt>
      <trkpt lat="46.15078" lon="5.86362">
        <ele>1611.657</ele>
      </trkpt>
      <trkpt lat="46.15067" lon="5.86348">
        <ele>1610.874</ele>
      </trkpt>
      <trkpt lat="46.15046" lon="5.86338">
        <ele>1610.436</ele>
      </trkpt>
      <trkpt lat="46.15033" lon="5.86342">
        <ele>1610.768</ele>
      </trkpt>
      <trkpt lat="46.15029" lon="5.86358">
        <ele>1613.513</ele>
      </trkpt>
      <trkpt lat="46.15027" lon="5.86376">
        <ele>1615.669</ele>
      </trkpt>
      <trkpt lat="46.1502" lon="5.86393">
        <ele>1614.067</ele>
      </trkpt>
      <trkpt lat="46.15" lon="5.86408">
        <ele>1608.228</ele>
      </trkpt>
      <trkpt lat="46.14987" lon="5.8643">
        <ele>1599.256</ele>
      </trkpt>
      <trkpt lat="46.14964" lon="5.86468">
        <ele>1586.079</ele>
      </trkpt>
      <trkpt lat="46.14943" lon="5.86497">
        <ele>1571.392</ele>
      </trkpt>
      <trkpt lat="46.14918" lon="5.86534">
        <ele>1559.039</ele>
      </trkpt>
      <trkpt lat="46.14883" lon="5.8659">
        <ele>1550.813</ele>
      </trkpt>
      <trkpt lat="46.14858" lon="5.86621">
        <ele>1546.211</ele>
      </trkpt>
      <trkpt lat="46.14849" lon="5.86658">
        <ele>1543.347</ele>
      </trkpt>
      <trkpt lat="46.14843" lon="5.86682">
        <ele>1540.541</ele>
      </trkpt>
      <trkpt lat="46.14842" lon="5.86704">
        <ele>1538.541</ele>
      </trkpt>
      <trkpt lat="46.14845" lon="5.86717">
        <ele>1537.836</ele>
      </trkpt>
      <trkpt lat="46.14839" lon="5.86733">
        <ele>1537.566</ele>
      </trkpt>
      <trkpt lat="46.14817" lon="5.86764">
        <ele>1537.842</ele>
      </trkpt>
      <trkpt lat="46.1479" lon="5.86788">
        <ele>1539.645</ele>
      </trkpt>
      <trkpt lat="46.14769" lon="5.86816">
        <ele>1539.38</ele>
      </trkpt>
      <trkpt lat="46.14755" lon="5.86823">
        <ele>1539.226</ele>
      </trkpt>
      <trkpt lat="46.14732" lon="5.86832">
        <ele>1534.716</ele>
      </trkpt>
      <trkpt lat="46.14719" lon="5.86823">
        <ele>1537.205</ele>
      </trkpt>
      <trkpt lat="46.1469" lon="5.86816">
        <ele>1540.573</ele>
      </trkpt>
      <trkpt lat="46.14672" lon="5.86815">
        <ele>1540.479</ele>
      </trkpt>
      <trkpt lat="46.14656" lon="5.86814">
        <ele>1540.922</ele>
      </trkpt>
      <trkpt lat="46.14637" lon="5.86816">
        <ele>1541.501</ele>
      </trkpt>
      <trkpt lat="46.14623" lon="5.86821">
        <ele>1542.369</ele>
      </trkpt>
      <trkpt lat="46.14613" lon="5.8683">
        <ele>1541.577</ele>
      </trkpt>
      <trkpt lat="46.14599" lon="5.86839">
        <ele>1540.824</ele>
      </trkpt>
      <trkpt lat="46.14587" lon="5.86848">
        <ele>1540.385</ele>
      </trkpt>
      <trkpt lat="46.14579" lon="5.86851">
        <ele>1540.893</ele>
      </trkpt>
      <trkpt lat="46.14572" lon="5.86849">
        <ele>1541.872</ele>
      </trkpt>
      <trkpt lat="46.14562" lon="5.86837">
        <ele>1543.842</ele>
      </trkpt>
      <trkpt lat="46.14551" lon="5.8683">
        <ele>1544.12</ele>
      </trkpt>
      <trkpt lat="46.14532" lon="5.86822">
        <ele>1542.808</ele>
      </trkpt>
      <trkpt lat="46.14517" lon="5.86819">
        <ele>1541.58</ele>
      </trkpt>
      <trkpt lat="46.14507" lon="5.86815">
        <ele>1541.204</ele>
      </trkpt>
      <trkpt lat="46.14494" lon="5.86807">
        <ele>1541.851</ele>
      </trkpt>
      <trkpt lat="46.14474" lon="5.86795">
        <ele>1543.871</ele>
      </trkpt>
      <trkpt lat="46.14462" lon="5.86787">
        <ele>1545.4</ele>
      </trkpt>
      <trkpt lat="46.1445" lon="5.86778">
        <ele>1546.208</ele>
      </trkpt>
      <trkpt lat="46.14437" lon="5.86764">
        <ele>1546.186</ele>
      </trkpt>
      <trkpt lat="46.14414" lon="5.86751">
        <ele>1544.604</ele>
      </trkpt>
      <trkpt lat="46.14398" lon="5.86737">
        <ele>1543.02</ele>
      </trkpt>
      <trkpt lat="46.14385" lon="5.86722">
        <ele>1541.613</ele>
      </trkpt>
      <trkpt lat="46.1437" lon="5.86716">
        <ele>1539.931</ele>
      </trkpt>
      <trkpt lat="46.14345" lon="5.86721">
        <ele>1536.685</ele>
      </trkpt>
      <trkpt lat="46.14314" lon="5.86727">
        <ele>1532.577</ele>
      </trkpt>
      <trkpt lat="46.14281" lon="5.86731">
        <ele>1529.348</ele>
      </trkpt>
      <trkpt lat="46.14244" lon="5.86739">
        <ele>1525.741</ele>
      </trkpt>
      <trkpt lat="46.14225" lon="5.86737">
        <ele>1524.277</ele>
      </trkpt>
      <trkpt lat="46.1421" lon="5.86728">
        <ele>1521.327</ele>
      </trkpt>
      <trkpt lat="46.14192" lon="5.86712">
        <ele>1517.052</ele>
      </trkpt>
      <trkpt lat="46.14167" lon="5.86688">
        <ele>1511.796</ele>
      </trkpt>
      <trkpt lat="46.14144" lon="5.86662">
        <ele>1512.547</ele>
      </trkpt>
      <trkpt lat="46.14112" lon="5.86633">
        <ele>1516.153</ele>
      </trkpt>
      <trkpt lat="46.14088" lon="5.86612">
        <ele>1516.53</ele>
      </trkpt>
      <trkpt lat="46.14062" lon="5.86591">
        <ele>1518.384</ele>
      </trkpt>
      <trkpt lat="46.14048" lon="5.8658">
        <ele>1518.894</ele>
      </trkpt>
      <trkpt lat="46.14031" lon="5.86568">
        <ele>1517.683</ele>
      </trkpt>
      <trkpt lat="46.14015" lon="5.86565">
        <ele>1515.112</ele>
      </trkpt>
      <trkpt lat="46.14003" lon="5.86571">
        <ele>1513.667</ele>
      </trkpt>
      <trkpt lat="46.1399" lon="5.86576">
        <ele>1513.196</ele>
      </trkpt>
      <trkpt lat="46.13977" lon="5.86574">
        <ele>1511.98</ele>
      </trkpt>
      <trkpt lat="46.13945" lon="5.86556">
        <ele>1512.98</ele>
      </trkpt>
      <trkpt lat="46.13924" lon="5.8654">
        <ele>1511.632</ele>
      </trkpt>
      <trkpt lat="46.13901" lon="5.86528">
        <ele>1506.78</ele>
      </trkpt>
      <trkpt lat="46.13879" lon="5.86521">
        <ele>1504.232</ele>
      </trkpt>
      <trkpt lat="46.13863" lon="5.86513">
        <ele>1502.706</ele>
      </trkpt>
      <trkpt lat="46.13836" lon="5.86502">
        <ele>1503.146</ele>
      </trkpt>
      <trkpt lat="46.1382" lon="5.86499">
        <ele>1502.847</ele>
      </trkpt>
      <trkpt lat="46.13804" lon="5.86491">
        <ele>1501.117</ele>
      </trkpt>
      <trkpt lat="46.1378" lon="5.86475">
        <ele>1493.844</ele>
      </trkpt>
      <trkpt lat="46.13761" lon="5.86463">
        <ele>1486.526</ele>
      </trkpt>
      <trkpt lat="46.13742" lon="5.86449">
        <ele>1480.801</ele>
      </trkpt>
      <trkpt lat="46.13726" lon="5.86431">
        <ele>1475.322</ele>
      </trkpt>
      <trkpt lat="46.13703" lon="5.86412">
        <ele>1465.589</ele>
      </trkpt>
      <trkpt lat="46.13688" lon="5.86398">
        <ele>1459.049</ele>
      </trkpt>
      <trkpt lat="46.13659" lon="5.86383">
        <ele>1451.707</ele>
      </trkpt>
      <trkpt lat="46.13643" lon="5.86376">
        <ele>1449.039</ele>
      </trkpt>
      <trkpt lat="46.13622" lon="5.86366">
        <ele>1446.456</ele>
      </trkpt>
      <trkpt lat="46.136" lon="5.86357">
        <ele>1442.925</ele>
      </trkpt>
      <trkpt lat="46.13588" lon="5.8635">
        <ele>1438.933</ele>
      </trkpt>
      <trkpt lat="46.13573" lon="5.86334">
        <ele>1432.962</ele>
      </trkpt>
      <trkpt lat="46.13558" lon="5.86318">
        <ele>1425.886</ele>
      </trkpt>
      <trkpt lat="46.13542" lon="5.86304">
        <ele>1418.326</ele>
      </trkpt>
      <trkpt lat="46.1353" lon="5.86302">
        <ele>1415.272</ele>
      </trkpt>
      <trkpt lat="46.13507" lon="5.86312">
        <ele>1411.556</ele>
      </trkpt>
      <trkpt lat="46.13485" lon="5.86325">
        <ele>1405.909</ele>
      </trkpt>
      <trkpt lat="46.13459" lon="5.86336">
        <ele>1399.169</ele>
      </trkpt>
      <trkpt lat="46.13446" lon="5.8635">
        <ele>1398.359</ele>
      </trkpt>
      <trkpt lat="46.13426" lon="5.8636">
        <ele>1395.9</ele>
      </trkpt>
      <trkpt lat="46.13408" lon="5.86365">
        <ele>1392.437</ele>
      </trkpt>
      <trkpt lat="46.13383" lon="5.86372">
        <ele>1386.856</ele>
      </trkpt>
      <trkpt lat="46.13369" lon="5.86382">
        <ele>1385.625</ele>
      </trkpt>
      <trkpt lat="46.13348" lon="5.86387">
        <ele>1381.752</ele>
      </trkpt>
      <trkpt lat="46.13325" lon="5.86397">
        <ele>1378.672</ele>
      </trkpt>
      <trkpt lat="46.13309" lon="5.86401">
        <ele>1375.498</ele>
      </trkpt>
      <trkpt lat="46.13293" lon="5.86413">
        <ele>1373.946</ele>
      </trkpt>
      <trkpt lat="46.13269" lon="5.86433">
        <ele>1372.154</ele>
      </trkpt>
      <trkpt lat="46.13237" lon="5.86447">
        <ele>1365.619</ele>
      </trkpt>
      <trkpt lat="46.1322" lon="5.86455">
        <ele>1362.637</ele>
      </trkpt>
      <trkpt lat="46.13197" lon="5.86462">
        <ele>1358.343</ele>
      </trkpt>
      <trkpt lat="46.13173" lon="5.8647">
        <ele>1352.409</ele>
      </trkpt>
      <trkpt lat="46.13154" lon="5.86474">
        <ele>1347.621</ele>
      </trkpt>
      <trkpt lat="46.1313" lon="5.86479">
        <ele>1342.797</ele>
      </trkpt>
      <trkpt lat="46.13117" lon="5.86484">
        <ele>1341.453</ele>
      </trkpt>
      <trkpt lat="46.131" lon="5.86485">
        <ele>1338.227</ele>
      </trkpt>
      <trkpt lat="46.13089" lon="5.86482">
        <ele>1335.624</ele>
      </trkpt>
      <trkpt lat="46.13079" lon="5.86475">
        <ele>1332.047</ele>
      </trkpt>
      <trkpt lat="46.13067" lon="5.86468">
        <ele>1328.029</ele>
      </trkpt>
      <trkpt lat="46.13048" lon="5.86473">
        <ele>1325.872</ele>
      </trkpt>
      <trkpt lat="46.13041" lon="5.86483">
        <ele>1326.938</ele>
      </trkpt>
      <trkpt lat="46.13028" lon="5.86493">
        <ele>1327.299</ele>
      </trkpt>
      <trkpt lat="46.13016" lon="5.86494">
        <ele>1325.175</ele>
      </trkpt>
      <trkpt lat="46.13005" lon="5.86488">
        <ele>1321.52</ele>
      </trkpt>
      <trkpt lat="46.12991" lon="5.86484">
        <ele>1317.724</ele>
      </trkpt>
      <trkpt lat="46.12974" lon="5.86493">
        <ele>1316.558</ele>
      </trkpt>
      <trkpt lat="46.12958" lon="5.86503">
        <ele>1315.177</ele>
      </trkpt>
      <trkpt lat="46.12945" lon="5.8651">
        <ele>1313.486</ele>
      </trkpt>
      <trkpt lat="46.12929" lon="5.86521">
        <ele>1310.947</ele>
      </trkpt>
      <trkpt lat="46.1291" lon="5.86529">
        <ele>1307.918</ele>
      </trkpt>
      <trkpt lat="46.12894" lon="5.86531">
        <ele>1305.137</ele>
      </trkpt>
      <trkpt lat="46.12877" lon="5.86532">
        <ele>1301.999</ele>
      </trkpt>
      <trkpt lat="46.12864" lon="5.86531">
        <ele>1299.278</ele>
      </trkpt>
      <trkpt lat="46.12848" lon="5.8653">
        <ele>1296.657</ele>
      </trkpt>
      <trkpt lat="46.12833" lon="5.86526">
        <ele>1293.516</ele>
      </trkpt>
      <trkpt lat="46.12823" lon="5.86522">
        <ele>1291.738</ele>
      </trkpt>
      <trkpt lat="46.12843" lon="5.86512">
        <ele>1291.162</ele>
      </trkpt>
      <trkpt lat="46.12853" lon="5.86501">
        <ele>1289.492</ele>
      </trkpt>
      <trkpt lat="46.12865" lon="5.86489">
        <ele>1287.808</ele>
      </trkpt>
      <trkpt lat="46.12871" lon="5.86476">
        <ele>1285.234</ele>
      </trkpt>
      <trkpt lat="46.12875" lon="5.86456">
        <ele>1280.024</ele>
      </trkpt>
      <trkpt lat="46.12877" lon="5.86441">
        <ele>1276.428</ele>
      </trkpt>
      <trkpt lat="46.12867" lon="5.86437">
        <ele>1273.668</ele>
      </trkpt>
      <trkpt lat="46.12856" lon="5.86446">
        <ele>1274.829</ele>
      </trkpt>
      <trkpt lat="46.12844" lon="5.86446">
        <ele>1272.82</ele>
      </trkpt>
      <trkpt lat="46.12828" lon="5.86445">
        <ele>1270.453</ele>
      </trkpt>
      <trkpt lat="46.12807" lon="5.86435">
        <ele>1265.417</ele>
      </trkpt>
      <trkpt lat="46.12783" lon="5.86424">
        <ele>1262.049</ele>
      </trkpt>
      <trkpt lat="46.12769" lon="5.86418">
        <ele>1260.712</ele>
      </trkpt>
      <trkpt lat="46.12749" lon="5.86402">
        <ele>1256.87</ele>
      </trkpt>
      <trkpt lat="46.12734" lon="5.86395">
        <ele>1255.721</ele>
      </trkpt>
      <trkpt lat="46.12723" lon="5.86394">
        <ele>1256.262</ele>
      </trkpt>
      <trkpt lat="46.12701" lon="5.86394">
        <ele>1253.188</ele>
      </trkpt>
      <trkpt lat="46.12684" lon="5.86401">
        <ele>1251.817</ele>
      </trkpt>
      <trkpt lat="46.12666" lon="5.86411">
        <ele>1250.656</ele>
      </trkpt>
      <trkpt lat="46.12652" lon="5.86417">
        <ele>1248.439</ele>
      </trkpt>
      <trkpt lat="46.12643" lon="5.86421">
        <ele>1247.499</ele>
      </trkpt>
      <trkpt lat="46.12633" lon="5.86427">
        <ele>1247.003</ele>
      </trkpt>
      <trkpt lat="46.12619" lon="5.86433">
        <ele>1245.367</ele>
      </trkpt>
      <trkpt lat="46.12605" lon="5.86438">
        <ele>1242.673</ele>
      </trkpt>
      <trkpt lat="46.12594" lon="5.86446">
        <ele>1240.033</ele>
      </trkpt>
      <trkpt lat="46.12582" lon="5.86461">
        <ele>1239.273</ele>
      </trkpt>
      <trkpt lat="46.12573" lon="5.8647">
        <ele>1238.9</ele>
      </trkpt>
      <trkpt lat="46.12562" lon="5.86482">
        <ele>1238.901</ele>
      </trkpt>
      <trkpt lat="46.12554" lon="5.86492">
        <ele>1238.894</ele>
      </trkpt>
      <trkpt lat="46.12543" lon="5.86499">
        <ele>1238.003</ele>
      </trkpt>
      <trkpt lat="46.12533" lon="5.865">
        <ele>1236.001</ele>
      </trkpt>
      <trkpt lat="46.12526" lon="5.86487">
        <ele>1232.433</ele>
      </trkpt>
      <trkpt lat="46.1252" lon="5.86483">
        <ele>1231.21</ele>
      </trkpt>
      <trkpt lat="46.12509" lon="5.86476">
        <ele>1229.149</ele>
      </trkpt>
      <trkpt lat="46.12495" lon="5.86468">
        <ele>1227.089</ele>
      </trkpt>
      <trkpt lat="46.12482" lon="5.86476">
        <ele>1226.4</ele>
      </trkpt>
      <trkpt lat="46.12463" lon="5.86489">
        <ele>1226.476</ele>
      </trkpt>
      <trkpt lat="46.12449" lon="5.86499">
        <ele>1227.106</ele>
      </trkpt>
      <trkpt lat="46.12435" lon="5.86508">
        <ele>1227.348</ele>
      </trkpt>
      <trkpt lat="46.12421" lon="5.86519">
        <ele>1225.728</ele>
      </trkpt>
      <trkpt lat="46.12407" lon="5.86523">
        <ele>1222.739</ele>
      </trkpt>
      <trkpt lat="46.12391" lon="5.86522">
        <ele>1219.062</ele>
      </trkpt>
      <trkpt lat="46.1238" lon="5.86521">
        <ele>1216.873</ele>
      </trkpt>
      <trkpt lat="46.1237" lon="5.8652">
        <ele>1215.006</ele>
      </trkpt>
      <trkpt lat="46.12353" lon="5.86519">
        <ele>1211.099</ele>
      </trkpt>
      <trkpt lat="46.12339" lon="5.86525">
        <ele>1207.556</ele>
      </trkpt>
      <trkpt lat="46.12328" lon="5.86529">
        <ele>1205.037</ele>
      </trkpt>
      <trkpt lat="46.12313" lon="5.86533">
        <ele>1202.399</ele>
      </trkpt>
      <trkpt lat="46.12293" lon="5.86549">
        <ele>1198.277</ele>
      </trkpt>
      <trkpt lat="46.12281" lon="5.86557">
        <ele>1195.733</ele>
      </trkpt>
      <trkpt lat="46.12269" lon="5.86562">
        <ele>1194.04</ele>
      </trkpt>
      <trkpt lat="46.12257" lon="5.86562">
        <ele>1191.844</ele>
      </trkpt>
      <trkpt lat="46.12243" lon="5.86549">
        <ele>1188.347</ele>
      </trkpt>
      <trkpt lat="46.12224" lon="5.86537">
        <ele>1183.367</ele>
      </trkpt>
      <trkpt lat="46.12202" lon="5.86522">
        <ele>1177.915</ele>
      </trkpt>
      <trkpt lat="46.12174" lon="5.86511">
        <ele>1171.064</ele>
      </trkpt>
      <trkpt lat="46.12153" lon="5.86505">
        <ele>1166.349</ele>
      </trkpt>
      <trkpt lat="46.12134" lon="5.86497">
        <ele>1161.597</ele>
      </trkpt>
      <trkpt lat="46.12115" lon="5.86496">
        <ele>1157.223</ele>
      </trkpt>
      <trkpt lat="46.12094" lon="5.86509">
        <ele>1153.487</ele>
      </trkpt>
      <trkpt lat="46.12075" lon="5.86521">
        <ele>1149.118</ele>
      </trkpt>
      <trkpt lat="46.12049" lon="5.8653">
        <ele>1144.934</ele>
      </trkpt>
      <trkpt lat="46.12026" lon="5.8654">
        <ele>1139.996</ele>
      </trkpt>
      <trkpt lat="46.1201" lon="5.86549">
        <ele>1136.168</ele>
      </trkpt>
      <trkpt lat="46.11996" lon="5.86559">
        <ele>1132.95</ele>
      </trkpt>
      <trkpt lat="46.11983" lon="5.86571">
        <ele>1129.384</ele>
      </trkpt>
      <trkpt lat="46.11975" lon="5.86584">
        <ele>1127.534</ele>
      </trkpt>
      <trkpt lat="46.11965" lon="5.86591">
        <ele>1124.788</ele>
      </trkpt>
      <trkpt lat="46.11951" lon="5.86595">
        <ele>1120.048</ele>
      </trkpt>
      <trkpt lat="46.11936" lon="5.86596">
        <ele>1114.384</ele>
      </trkpt>
      <trkpt lat="46.11923" lon="5.86595">
        <ele>1109.024</ele>
      </trkpt>
      <trkpt lat="46.1191" lon="5.86601">
        <ele>1106.424</ele>
      </trkpt>
      <trkpt lat="46.11902" lon="5.866">
        <ele>1103.662</ele>
      </trkpt>
      <trkpt lat="46.11892" lon="5.86601">
        <ele>1100.545</ele>
      </trkpt>
      <trkpt lat="46.11878" lon="5.866">
        <ele>1095.543</ele>
      </trkpt>
      <trkpt lat="46.11852" lon="5.86595">
        <ele>1086.161</ele>
      </trkpt>
      <trkpt lat="46.11843" lon="5.86598">
        <ele>1084.008</ele>
      </trkpt>
      <trkpt lat="46.11834" lon="5.86605">
        <ele>1082.794</ele>
      </trkpt>
      <trkpt lat="46.11829" lon="5.86612">
        <ele>1082.117</ele>
      </trkpt>
      <trkpt lat="46.11819" lon="5.86622">
        <ele>1080.597</ele>
      </trkpt>
      <trkpt lat="46.11813" lon="5.86635">
        <ele>1081.12</ele>
      </trkpt>
      <trkpt lat="46.11804" lon="5.86636">
        <ele>1077.633</ele>
      </trkpt>
      <trkpt lat="46.118" lon="5.86623">
        <ele>1072.241</ele>
      </trkpt>
      <trkpt lat="46.11797" lon="5.86592">
        <ele>1063.131</ele>
      </trkpt>
      <trkpt lat="46.118" lon="5.86564">
        <ele>1057.037</ele>
      </trkpt>
      <trkpt lat="46.11804" lon="5.86542">
        <ele>1051.817</ele>
      </trkpt>
      <trkpt lat="46.11811" lon="5.86507">
        <ele>1042.163</ele>
      </trkpt>
      <trkpt lat="46.1182" lon="5.86475">
        <ele>1031.246</ele>
      </trkpt>
      <trkpt lat="46.11831" lon="5.86455">
        <ele>1026.718</ele>
      </trkpt>
      <trkpt lat="46.11842" lon="5.86434">
        <ele>1020.831</ele>
      </trkpt>
      <trkpt lat="46.11852" lon="5.8642">
        <ele>1018.043</ele>
      </trkpt>
      <trkpt lat="46.1186" lon="5.86392">
        <ele>1008.964</ele>
      </trkpt>
      <trkpt lat="46.1187" lon="5.86368">
        <ele>1004.083</ele>
      </trkpt>
      <trkpt lat="46.11876" lon="5.86349">
        <ele>998.904</ele>
      </trkpt>
      <trkpt lat="46.1188" lon="5.86336">
        <ele>994.894</ele>
      </trkpt>
      <trkpt lat="46.11883" lon="5.8633">
        <ele>992.949</ele>
      </trkpt>
      <trkpt lat="46.11891" lon="5.86311">
        <ele>987.73</ele>
      </trkpt>
      <trkpt lat="46.11894" lon="5.86302">
        <ele>984.828</ele>
      </trkpt>
      <trkpt lat="46.11895" lon="5.86289">
        <ele>980.509</ele>
      </trkpt>
      <trkpt lat="46.11889" lon="5.86284">
        <ele>975.129</ele>
      </trkpt>
      <trkpt lat="46.11883" lon="5.8629">
        <ele>975.149</ele>
      </trkpt>
      <trkpt lat="46.11875" lon="5.86294">
        <ele>973.49</ele>
      </trkpt>
      <trkpt lat="46.11862" lon="5.86295">
        <ele>968.612</ele>
      </trkpt>
      <trkpt lat="46.11847" lon="5.86289">
        <ele>960.825</ele>
      </trkpt>
      <trkpt lat="46.11839" lon="5.86285">
        <ele>956.684</ele>
      </trkpt>
      <trkpt lat="46.11829" lon="5.86278">
        <ele>950.86</ele>
      </trkpt>
      <trkpt lat="46.11823" lon="5.86261">
        <ele>945.001</ele>
      </trkpt>
      <trkpt lat="46.11821" lon="5.86245">
        <ele>940.268</ele>
      </trkpt>
      <trkpt lat="46.11814" lon="5.86227">
        <ele>932.882</ele>
      </trkpt>
      <trkpt lat="46.11803" lon="5.8622">
        <ele>927.455</ele>
      </trkpt>
      <trkpt lat="46.1179" lon="5.86212">
        <ele>921.502</ele>
      </trkpt>
      <trkpt lat="46.11784" lon="5.86194">
        <ele>915.862</ele>
      </trkpt>
      <trkpt lat="46.11779" lon="5.86168">
        <ele>909.4</ele>
      </trkpt>
      <trkpt lat="46.11777" lon="5.86155">
        <ele>906.642</ele>
      </trkpt>
      <trkpt lat="46.11773" lon="5.86132">
        <ele>901.861</ele>
      </trkpt>
      <trkpt lat="46.11774" lon="5.86111">
        <ele>898.204</ele>
      </trkpt>
      <trkpt lat="46.1177" lon="5.86083">
        <ele>893.553</ele>
      </trkpt>
      <trkpt lat="46.11768" lon="5.86065">
        <ele>890.668</ele>
      </trkpt>
      <trkpt lat="46.11768" lon="5.86043">
        <ele>887.494</ele>
      </trkpt>
      <trkpt lat="46.11769" lon="5.86015">
        <ele>884.006</ele>
      </trkpt>
      <trkpt lat="46.11771" lon="5.86004">
        <ele>882.826</ele>
      </trkpt>
      <trkpt lat="46.1177" lon="5.85983">
        <ele>879.46</ele>
      </trkpt>
      <trkpt lat="46.11765" lon="5.85962">
        <ele>875.557</ele>
      </trkpt>
      <trkpt lat="46.11764" lon="5.85949">
        <ele>873.581</ele>
      </trkpt>
      <trkpt lat="46.11765" lon="5.85929">
        <ele>869.216</ele>
      </trkpt>
      <trkpt lat="46.11772" lon="5.85917">
        <ele>867.101</ele>
      </trkpt>
      <trkpt lat="46.11781" lon="5.85898">
        <ele>864.294</ele>
      </trkpt>
      <trkpt lat="46.11791" lon="5.85879">
        <ele>861.436</ele>
      </trkpt>
      <trkpt lat="46.11802" lon="5.85864">
        <ele>859.846</ele>
      </trkpt>
      <trkpt lat="46.1181" lon="5.85851">
        <ele>858.639</ele>
      </trkpt>
      <trkpt lat="46.11821" lon="5.85829">
        <ele>856.006</ele>
      </trkpt>
      <trkpt lat="46.11829" lon="5.85809">
        <ele>853.975</ele>
      </trkpt>
      <trkpt lat="46.11837" lon="5.85786">
        <ele>851.01</ele>
      </trkpt>
      <trkpt lat="46.11839" lon="5.85772">
        <ele>848.763</ele>
      </trkpt>
      <trkpt lat="46.11845" lon="5.85759">
        <ele>847.13</ele>
      </trkpt>
      <trkpt lat="46.11854" lon="5.85749">
        <ele>845.843</ele>
      </trkpt>
      <trkpt lat="46.1186" lon="5.85735">
        <ele>842.944</ele>
      </trkpt>
      <trkpt lat="46.11867" lon="5.85722">
        <ele>840.543</ele>
      </trkpt>
      <trkpt lat="46.11872" lon="5.85705">
        <ele>837.071</ele>
      </trkpt>
      <trkpt lat="46.11874" lon="5.85682">
        <ele>831.744</ele>
      </trkpt>
      <trkpt lat="46.11859" lon="5.85647">
        <ele>823.047</ele>
      </trkpt>
      <trkpt lat="46.11849" lon="5.85635">
        <ele>818.378</ele>
      </trkpt>
      <trkpt lat="46.11844" lon="5.85612">
        <ele>810.998</ele>
      </trkpt>
      <trkpt lat="46.11845" lon="5.85599">
        <ele>808.509</ele>
      </trkpt>
      <trkpt lat="46.11837" lon="5.85581">
        <ele>803.498</ele>
      </trkpt>
      <trkpt lat="46.11814" lon="5.85576">
        <ele>798.443</ele>
      </trkpt>
      <trkpt lat="46.11787" lon="5.85581">
        <ele>794.976</ele>
      </trkpt>
      <trkpt lat="46.11762" lon="5.85579">
        <ele>791.845</ele>
      </trkpt>
      <trkpt lat="46.11742" lon="5.85578">
        <ele>789.578</ele>
      </trkpt>
      <trkpt lat="46.11722" lon="5.85573">
        <ele>787.185</ele>
      </trkpt>
      <trkpt lat="46.11705" lon="5.85564">
        <ele>784.374</ele>
      </trkpt>
      <trkpt lat="46.11691" lon="5.85555">
        <ele>782.325</ele>
      </trkpt>
      <trkpt lat="46.11673" lon="5.85546">
        <ele>779.732</ele>
      </trkpt>
      <trkpt lat="46.11655" lon="5.85535">
        <ele>777.931</ele>
      </trkpt>
      <trkpt lat="46.11631" lon="5.8554">
        <ele>774.751</ele>
      </trkpt>
      <trkpt lat="46.11613" lon="5.8555">
        <ele>772.406</ele>
      </trkpt>
      <trkpt lat="46.11585" lon="5.8556">
        <ele>769.143</ele>
      </trkpt>
      <trkpt lat="46.11572" lon="5.85562">
        <ele>768.408</ele>
      </trkpt>
      <trkpt lat="46.11564" lon="5.85568">
        <ele>767.683</ele>
      </trkpt>
      <trkpt lat="46.11554" lon="5.85569">
        <ele>766.941</ele>
      </trkpt>
      <trkpt lat="46.11545" lon="5.85567">
        <ele>766.651</ele>
      </trkpt>
      <trkpt lat="46.11535" lon="5.85563">
        <ele>766.526</ele>
      </trkpt>
      <trkpt lat="46.11525" lon="5.85562">
        <ele>765.798</ele>
      </trkpt>
      <trkpt lat="46.11518" lon="5.85559">
        <ele>764.839</ele>
      </trkpt>
      <trkpt lat="46.11514" lon="5.85547">
        <ele>763.298</ele>
      </trkpt>
      <trkpt lat="46.11526" lon="5.85524">
        <ele>764.583</ele>
      </trkpt>
      <trkpt lat="46.11537" lon="5.85498">
        <ele>761.825</ele>
      </trkpt>
      <trkpt lat="46.11558" lon="5.85463">
        <ele>762.642</ele>
      </trkpt>
      <trkpt lat="46.11575" lon="5.85426">
        <ele>758.608</ele>
      </trkpt>
      <trkpt lat="46.11583" lon="5.85399">
        <ele>755.429</ele>
      </trkpt>
      <trkpt lat="46.11591" lon="5.85371">
        <ele>753.954</ele>
      </trkpt>
      <trkpt lat="46.11599" lon="5.85339">
        <ele>752.559</ele>
      </trkpt>
      <trkpt lat="46.11611" lon="5.85319">
        <ele>751.942</ele>
      </trkpt>
      <trkpt lat="46.11631" lon="5.85297">
        <ele>749.839</ele>
      </trkpt>
      <trkpt lat="46.11653" lon="5.85287">
        <ele>747.544</ele>
      </trkpt>
      <trkpt lat="46.11683" lon="5.85273">
        <ele>745.317</ele>
      </trkpt>
      <trkpt lat="46.11704" lon="5.85268">
        <ele>744.584</ele>
      </trkpt>
      <trkpt lat="46.11727" lon="5.8526">
        <ele>743.239</ele>
      </trkpt>
      <trkpt lat="46.11751" lon="5.85256">
        <ele>741.638</ele>
      </trkpt>
      <trkpt lat="46.11768" lon="5.85251">
        <ele>741.475</ele>
      </trkpt>
      <trkpt lat="46.11772" lon="5.85246">
        <ele>740.603</ele>
      </trkpt>
      <trkpt lat="46.11793" lon="5.85232">
        <ele>736.696</ele>
      </trkpt>
      <trkpt lat="46.11819" lon="5.85217">
        <ele>732.893</ele>
      </trkpt>
      <trkpt lat="46.11846" lon="5.85199">
        <ele>728.847</ele>
      </trkpt>
      <trkpt lat="46.11874" lon="5.85185">
        <ele>725.648</ele>
      </trkpt>
      <trkpt lat="46.11896" lon="5.85175">
        <ele>723.671</ele>
      </trkpt>
      <trkpt lat="46.11918" lon="5.8517">
        <ele>722.985</ele>
      </trkpt>
      <trkpt lat="46.11943" lon="5.85144">
        <ele>720.95</ele>
      </trkpt>
      <trkpt lat="46.1196" lon="5.85137">
        <ele>718.866</ele>
      </trkpt>
      <trkpt lat="46.11988" lon="5.85126">
        <ele>716.64</ele>
      </trkpt>
      <trkpt lat="46.12009" lon="5.85118">
        <ele>715.638</ele>
      </trkpt>
      <trkpt lat="46.12032" lon="5.85106">
        <ele>713.234</ele>
      </trkpt>
      <trkpt lat="46.1204" lon="5.85105">
        <ele>713.251</ele>
      </trkpt>
      <trkpt lat="46.12065" lon="5.85102">
        <ele>713.659</ele>
      </trkpt>
      <trkpt lat="46.12089" lon="5.85089">
        <ele>712.049</ele>
      </trkpt>
      <trkpt lat="46.12102" lon="5.8508">
        <ele>710.666</ele>
      </trkpt>
      <trkpt lat="46.1211" lon="5.85069">
        <ele>709.479</ele>
      </trkpt>
      <trkpt lat="46.1211" lon="5.85059">
        <ele>708.438</ele>
      </trkpt>
      <trkpt lat="46.12106" lon="5.85048">
        <ele>707.441</ele>
      </trkpt>
      <trkpt lat="46.12105" lon="5.85038">
        <ele>706.582</ele>
      </trkpt>
      <trkpt lat="46.12106" lon="5.8502">
        <ele>705.083</ele>
      </trkpt>
      <trkpt lat="46.12108" lon="5.85007">
        <ele>703.895</ele>
      </trkpt>
      <trkpt lat="46.12111" lon="5.85001">
        <ele>703.113</ele>
      </trkpt>
      <trkpt lat="46.12132" lon="5.84996">
        <ele>696.168</ele>
      </trkpt>
      <trkpt lat="46.12142" lon="5.84995">
        <ele>693.123</ele>
      </trkpt>
      <trkpt lat="46.1216" lon="5.84986">
        <ele>687.495</ele>
      </trkpt>
      <trkpt lat="46.12178" lon="5.84991">
        <ele>682.502</ele>
      </trkpt>
      <trkpt lat="46.12194" lon="5.84985">
        <ele>678.871</ele>
      </trkpt>
      <trkpt lat="46.1221" lon="5.84972">
        <ele>671.637</ele>
      </trkpt>
      <trkpt lat="46.12217" lon="5.84958">
        <ele>668.011</ele>
      </trkpt>
      <trkpt lat="46.12229" lon="5.84944">
        <ele>664.224</ele>
      </trkpt>
      <trkpt lat="46.12239" lon="5.84937">
        <ele>660.054</ele>
      </trkpt>
      <trkpt lat="46.12258" lon="5.84936">
        <ele>652.333</ele>
      </trkpt>
      <trkpt lat="46.1227" lon="5.84932">
        <ele>647.36</ele>
      </trkpt>
      <trkpt lat="46.1228" lon="5.84923">
        <ele>642.447</ele>
      </trkpt>
      <trkpt lat="46.12291" lon="5.84906">
        <ele>636.186</ele>
      </trkpt>
      <trkpt lat="46.12307" lon="5.84878">
        <ele>626.245</ele>
      </trkpt>
      <trkpt lat="46.12323" lon="5.84856">
        <ele>623.653</ele>
      </trkpt>
      <trkpt lat="46.12333" lon="5.84836">
        <ele>618.522</ele>
      </trkpt>
      <trkpt lat="46.12342" lon="5.84827">
        <ele>618.046</ele>
      </trkpt>
      <trkpt lat="46.12345" lon="5.84814">
        <ele>616.3</ele>
      </trkpt>
      <trkpt lat="46.12339" lon="5.84799">
        <ele>613.629</ele>
      </trkpt>
      <trkpt lat="46.12335" lon="5.84779">
        <ele>611.214</ele>
      </trkpt>
      <trkpt lat="46.12332" lon="5.84748">
        <ele>606.779</ele>
      </trkpt>
      <trkpt lat="46.12331" lon="5.84726">
        <ele>604.421</ele>
      </trkpt>
      <trkpt lat="46.12334" lon="5.84695">
        <ele>599.138</ele>
      </trkpt>
      <trkpt lat="46.12341" lon="5.84668">
        <ele>596.213</ele>
      </trkpt>
      <trkpt lat="46.12351" lon="5.8463">
        <ele>592.536</ele>
      </trkpt>
      <trkpt lat="46.12357" lon="5.84607">
        <ele>590.926</ele>
      </trkpt>
      <trkpt lat="46.12362" lon="5.84588">
        <ele>589.171</ele>
      </trkpt>
      <trkpt lat="46.12369" lon="5.8456">
        <ele>586.654</ele>
      </trkpt>
      <trkpt lat="46.12376" lon="5.84523">
        <ele>579.045</ele>
      </trkpt>
      <trkpt lat="46.12384" lon="5.84494">
        <ele>573.713</ele>
      </trkpt>
      <trkpt lat="46.1239" lon="5.84475">
        <ele>569.633</ele>
      </trkpt>
      <trkpt lat="46.12392" lon="5.84461">
        <ele>567.771</ele>
      </trkpt>
      <trkpt lat="46.12398" lon="5.84443">
        <ele>565.699</ele>
      </trkpt>
      <trkpt lat="46.12426" lon="5.84418">
        <ele>562.112</ele>
      </trkpt>
      <trkpt lat="46.12451" lon="5.84398">
        <ele>560.636</ele>
      </trkpt>
      <trkpt lat="46.12454" lon="5.84381">
        <ele>558.968</ele>
      </trkpt>
      <trkpt lat="46.12461" lon="5.84345">
        <ele>555.688</ele>
      </trkpt>
      <trkpt lat="46.12469" lon="5.84313">
        <ele>553.448</ele>
      </trkpt>
      <trkpt lat="46.12476" lon="5.84275">
        <ele>550.418</ele>
      </trkpt>
      <trkpt lat="46.12472" lon="5.84239">
        <ele>546.838</ele>
      </trkpt>
      <trkpt lat="46.12468" lon="5.84213">
        <ele>543.882</ele>
      </trkpt>
      <trkpt lat="46.12456" lon="5.84173">
        <ele>538.418</ele>
      </trkpt>
      <trkpt lat="46.12445" lon="5.84145">
        <ele>532.952</ele>
      </trkpt>
      <trkpt lat="46.12431" lon="5.84117">
        <ele>533.064</ele>
      </trkpt>
      <trkpt lat="46.12409" lon="5.84083">
        <ele>527.739</ele>
      </trkpt>
      <trkpt lat="46.12398" lon="5.84064">
        <ele>526.831</ele>
      </trkpt>
      <trkpt lat="46.12384" lon="5.84047">
        <ele>524.846</ele>
      </trkpt>
      <trkpt lat="46.12371" lon="5.84019">
        <ele>521.578</ele>
      </trkpt>
      <trkpt lat="46.12352" lon="5.83993">
        <ele>518.173</ele>
      </trkpt>
      <trkpt lat="46.12333" lon="5.83965">
        <ele>513.197</ele>
      </trkpt>
      <trkpt lat="46.12326" lon="5.8395">
        <ele>513.088</ele>
      </trkpt>
      <trkpt lat="46.12316" lon="5.83936">
        <ele>512.541</ele>
      </trkpt>
      <trkpt lat="46.12309" lon="5.83918">
        <ele>510.302</ele>
      </trkpt>
      <trkpt lat="46.12304" lon="5.83903">
        <ele>509.248</ele>
      </trkpt>
      <trkpt lat="46.123" lon="5.83885">
        <ele>508.202</ele>
      </trkpt>
      <trkpt lat="46.12292" lon="5.83878">
        <ele>509.495</ele>
      </trkpt>
      <trkpt lat="46.12285" lon="5.83869">
        <ele>510.418</ele>
      </trkpt>
      <trkpt lat="46.12284" lon="5.8385">
        <ele>508.63</ele>
      </trkpt>
      <trkpt lat="46.1228" lon="5.83827">
        <ele>508.166</ele>
      </trkpt>
      <trkpt lat="46.12275" lon="5.83804">
        <ele>509.308</ele>
      </trkpt>
      <trkpt lat="46.12269" lon="5.83783">
        <ele>512.141</ele>
      </trkpt>
      <trkpt lat="46.12262" lon="5.83761">
        <ele>515.125</ele>
      </trkpt>
      <trkpt lat="46.12255" lon="5.83738">
        <ele>516.865</ele>
      </trkpt>
      <trkpt lat="46.12249" lon="5.83712">
        <ele>515.611</ele>
      </trkpt>
      <trkpt lat="46.12239" lon="5.83693">
        <ele>514.361</ele>
      </trkpt>
      <trkpt lat="46.12239" lon="5.83682">
        <ele>512.834</ele>
      </trkpt>
      <trkpt lat="46.12259" lon="5.83667">
        <ele>505.701</ele>
      </trkpt>
      <trkpt lat="46.12279" lon="5.83654">
        <ele>497.84</ele>
      </trkpt>
      <trkpt lat="46.12284" lon="5.83646">
        <ele>496.361</ele>
      </trkpt>
      <trkpt lat="46.12307" lon="5.83626">
        <ele>490.915</ele>
      </trkpt>
      <trkpt lat="46.12317" lon="5.83612">
        <ele>488.011</ele>
      </trkpt>
      <trkpt lat="46.12331" lon="5.83605">
        <ele>485.178</ele>
      </trkpt>
      <trkpt lat="46.12338" lon="5.83596">
        <ele>484.36</ele>
      </trkpt>
      <trkpt lat="46.12366" lon="5.83596">
        <ele>483.654</ele>
      </trkpt>
      <trkpt lat="46.12373" lon="5.83597">
        <ele>483.325</ele>
      </trkpt>
      <trkpt lat="46.12394" lon="5.83593">
        <ele>482.349</ele>
      </trkpt>
      <trkpt lat="46.12425" lon="5.83579">
        <ele>482.095</ele>
      </trkpt>
      <trkpt lat="46.12452" lon="5.8356">
        <ele>481.84</ele>
      </trkpt>
      <trkpt lat="46.12464" lon="5.83547">
        <ele>481.718</ele>
      </trkpt>
      <trkpt lat="46.12476" lon="5.83529">
        <ele>480.388</ele>
      </trkpt>
      <trkpt lat="46.12479" lon="5.83518">
        <ele>479.739</ele>
      </trkpt>
      <trkpt lat="46.12477" lon="5.83495">
        <ele>478.403</ele>
      </trkpt>
      <trkpt lat="46.12478" lon="5.83477">
        <ele>478.577</ele>
      </trkpt>
      <trkpt lat="46.12481" lon="5.83448">
        <ele>479.228</ele>
      </trkpt>
      <trkpt lat="46.12483" lon="5.83429">
        <ele>478.95</ele>
      </trkpt>
      <trkpt lat="46.12496" lon="5.83405">
        <ele>479.767</ele>
      </trkpt>
      <trkpt lat="46.12511" lon="5.83388">
        <ele>481.344</ele>
      </trkpt>
      <trkpt lat="46.12534" lon="5.83369">
        <ele>484.049</ele>
      </trkpt>
      <trkpt lat="46.12553" lon="5.83354">
        <ele>487.617</ele>
      </trkpt>
      <trkpt lat="46.1258" lon="5.83333">
        <ele>490.168</ele>
      </trkpt>
      <trkpt lat="46.12593" lon="5.83327">
        <ele>491.13</ele>
      </trkpt>
      <trkpt lat="46.12625" lon="5.83318">
        <ele>491.131</ele>
      </trkpt>
      <trkpt lat="46.12648" lon="5.83307">
        <ele>488.194</ele>
      </trkpt>
      <trkpt lat="46.12671" lon="5.83289">
        <ele>487.144</ele>
      </trkpt>
      <trkpt lat="46.12687" lon="5.83275">
        <ele>488.126</ele>
      </trkpt>
      <trkpt lat="46.12702" lon="5.8326">
        <ele>489.328</ele>
      </trkpt>
      <trkpt lat="46.12711" lon="5.83247">
        <ele>490.607</ele>
      </trkpt>
      <trkpt lat="46.12719" lon="5.83224">
        <ele>493.4</ele>
      </trkpt>
      <trkpt lat="46.12717" lon="5.83185">
        <ele>496.53</ele>
      </trkpt>
      <trkpt lat="46.12711" lon="5.83162">
        <ele>498.708</ele>
      </trkpt>
      <trkpt lat="46.12707" lon="5.83131">
        <ele>502.811</ele>
      </trkpt>
      <trkpt lat="46.12706" lon="5.83097">
        <ele>506.439</ele>
      </trkpt>
      <trkpt lat="46.12707" lon="5.83072">
        <ele>508.898</ele>
      </trkpt>
      <trkpt lat="46.12704" lon="5.83056">
        <ele>509.634</ele>
      </trkpt>
      <trkpt lat="46.12688" lon="5.83032">
        <ele>510.328</ele>
      </trkpt>
      <trkpt lat="46.1267" lon="5.83026">
        <ele>508.652</ele>
      </trkpt>
      <trkpt lat="46.12654" lon="5.8302">
        <ele>506.602</ele>
      </trkpt>
      <trkpt lat="46.1264" lon="5.83">
        <ele>508.172</ele>
      </trkpt>
      <trkpt lat="46.12624" lon="5.82978">
        <ele>505.337</ele>
      </trkpt>
      <trkpt lat="46.12603" lon="5.82941">
        <ele>501.879</ele>
      </trkpt>
      <trkpt lat="46.1259" lon="5.82918">
        <ele>499.365</ele>
      </trkpt>
      <trkpt lat="46.1258" lon="5.82901">
        <ele>497.656</ele>
      </trkpt>
      <trkpt lat="46.12582" lon="5.82888">
        <ele>497.742</ele>
      </trkpt>
      <trkpt lat="46.12589" lon="5.82874">
        <ele>497.195</ele>
      </trkpt>
      <trkpt lat="46.12585" lon="5.82852">
        <ele>495.434</ele>
      </trkpt>
      <trkpt lat="46.12573" lon="5.8285">
        <ele>494.358</ele>
      </trkpt>
      <trkpt lat="46.12566" lon="5.82856">
        <ele>493.968</ele>
      </trkpt>
      <trkpt lat="46.12558" lon="5.82856">
        <ele>493.219</ele>
      </trkpt>
      <trkpt lat="46.12552" lon="5.82824">
        <ele>491.363</ele>
      </trkpt>
      <trkpt lat="46.12552" lon="5.828">
        <ele>489.532</ele>
      </trkpt>
      <trkpt lat="46.12546" lon="5.82782">
        <ele>486.719</ele>
      </trkpt>
      <trkpt lat="46.12537" lon="5.82757">
        <ele>484.357</ele>
      </trkpt>
      <trkpt lat="46.1253" lon="5.82742">
        <ele>484.341</ele>
      </trkpt>
      <trkpt lat="46.12519" lon="5.82717">
        <ele>482.264</ele>
      </trkpt>
      <trkpt lat="46.12508" lon="5.82692">
        <ele>481.416</ele>
      </trkpt>
      <trkpt lat="46.12501" lon="5.82667">
        <ele>481.027</ele>
      </trkpt>
      <trkpt lat="46.125" lon="5.82664">
        <ele>480.863</ele>
      </trkpt>
      <trkpt lat="46.12496" lon="5.82643">
        <ele>479.469</ele>
      </trkpt>
      <trkpt lat="46.12489" lon="5.8262">
        <ele>476.499</ele>
      </trkpt>
      <trkpt lat="46.12485" lon="5.82606">
        <ele>474.349</ele>
      </trkpt>
      <trkpt lat="46.12485" lon="5.82585">
        <ele>471.618</ele>
      </trkpt>
      <trkpt lat="46.12488" lon="5.82574">
        <ele>467.593</ele>
      </trkpt>
      <trkpt lat="46.12504" lon="5.82562">
        <ele>462.416</ele>
      </trkpt>
      <trkpt lat="46.12525" lon="5.82562">
        <ele>461.096</ele>
      </trkpt>
      <trkpt lat="46.12539" lon="5.82558">
        <ele>458.376</ele>
      </trkpt>
      <trkpt lat="46.12551" lon="5.82557">
        <ele>457.812</ele>
      </trkpt>
      <trkpt lat="46.12561" lon="5.82551">
        <ele>456.75</ele>
      </trkpt>
      <trkpt lat="46.12565" lon="5.82544">
        <ele>455.969</ele>
      </trkpt>
      <trkpt lat="46.12559" lon="5.8253">
        <ele>453.589</ele>
      </trkpt>
      <trkpt lat="46.12548" lon="5.82523">
        <ele>451.98</ele>
      </trkpt>
      <trkpt lat="46.12533" lon="5.82519">
        <ele>450.695</ele>
      </trkpt>
      <trkpt lat="46.12516" lon="5.82516">
        <ele>449.901</ele>
      </trkpt>
      <trkpt lat="46.12498" lon="5.82512">
        <ele>449.393</ele>
      </trkpt>
      <trkpt lat="46.12484" lon="5.82514">
        <ele>449.52</ele>
      </trkpt>
      <trkpt lat="46.12469" lon="5.82516">
        <ele>449.587</ele>
      </trkpt>
      <trkpt lat="46.12459" lon="5.82524">
        <ele>449.78</ele>
      </trkpt>
      <trkpt lat="46.1245" lon="5.82525">
        <ele>448.975</ele>
      </trkpt>
      <trkpt lat="46.1244" lon="5.82524">
        <ele>449.663</ele>
      </trkpt>
      <trkpt lat="46.1243" lon="5.8252">
        <ele>451.709</ele>
      </trkpt>
      <trkpt lat="46.12418" lon="5.82513">
        <ele>452.973</ele>
      </trkpt>
      <trkpt lat="46.12402" lon="5.82504">
        <ele>453.87</ele>
      </trkpt>
      <trkpt lat="46.12389" lon="5.82493">
        <ele>454.606</ele>
      </trkpt>
      <trkpt lat="46.12381" lon="5.82483">
        <ele>449.628</ele>
      </trkpt>
      <trkpt lat="46.12375" lon="5.8247">
        <ele>446.902</ele>
      </trkpt>
      <trkpt lat="46.12377" lon="5.82457">
        <ele>443.422</ele>
      </trkpt>
      <trkpt lat="46.1238" lon="5.82433">
        <ele>436.163</ele>
      </trkpt>
      <trkpt lat="46.12377" lon="5.82425">
        <ele>434.498</ele>
      </trkpt>
      <trkpt lat="46.12371" lon="5.82415">
        <ele>432.693</ele>
      </trkpt>
      <trkpt lat="46.12361" lon="5.82409">
        <ele>433.076</ele>
      </trkpt>
      <trkpt lat="46.12354" lon="5.82402">
        <ele>434.628</ele>
      </trkpt>
      <trkpt lat="46.12348" lon="5.82392">
        <ele>434.737</ele>
      </trkpt>
      <trkpt lat="46.12343" lon="5.8238">
        <ele>435.075</ele>
      </trkpt>
      <trkpt lat="46.12334" lon="5.82373">
        <ele>438.354</ele>
      </trkpt>
      <trkpt lat="46.12324" lon="5.82374">
        <ele>438.052</ele>
      </trkpt>
      <trkpt lat="46.12312" lon="5.82374">
        <ele>436.793</ele>
      </trkpt>
      <trkpt lat="46.12304" lon="5.82371">
        <ele>435.303</ele>
      </trkpt>
      <trkpt lat="46.12294" lon="5.82363">
        <ele>430.891</ele>
      </trkpt>
      <trkpt lat="46.12282" lon="5.82351">
        <ele>426.269</ele>
      </trkpt>
      <trkpt lat="46.12278" lon="5.82331">
        <ele>423.869</ele>
      </trkpt>
      <trkpt lat="46.12276" lon="5.82313">
        <ele>422.065</ele>
      </trkpt>
      <trkpt lat="46.12274" lon="5.82305">
        <ele>420.995</ele>
      </trkpt>
      <trkpt lat="46.12268" lon="5.82295">
        <ele>419.32</ele>
      </trkpt>
      <trkpt lat="46.12261" lon="5.82276">
        <ele>418.56</ele>
      </trkpt>
      <trkpt lat="46.12249" lon="5.82259">
        <ele>418.751</ele>
      </trkpt>
      <trkpt lat="46.12234" lon="5.82242">
        <ele>416.795</ele>
      </trkpt>
      <trkpt lat="46.12225" lon="5.82227">
        <ele>416.57</ele>
      </trkpt>
      <trkpt lat="46.12223" lon="5.82219">
        <ele>416.465</ele>
      </trkpt>
      <trkpt lat="46.12223" lon="5.82206">
        <ele>414.513</ele>
      </trkpt>
      <trkpt lat="46.12237" lon="5.82207">
        <ele>412.865</ele>
      </trkpt>
      <trkpt lat="46.12251" lon="5.82216">
        <ele>413.221</ele>
      </trkpt>
      <trkpt lat="46.12261" lon="5.82221">
        <ele>413.168</ele>
      </trkpt>
      <trkpt lat="46.12271" lon="5.8223">
        <ele>413.82</ele>
      </trkpt>
      <trkpt lat="46.12287" lon="5.82238">
        <ele>411.361</ele>
      </trkpt>
      <trkpt lat="46.12302" lon="5.8224">
        <ele>405.587</ele>
      </trkpt>
      <trkpt lat="46.12315" lon="5.82244">
        <ele>403.858</ele>
      </trkpt>
      <trkpt lat="46.12328" lon="5.82243">
        <ele>402.013</ele>
      </trkpt>
      <trkpt lat="46.12334" lon="5.82223">
        <ele>395.839</ele>
      </trkpt>
      <trkpt lat="46.12337" lon="5.82207">
        <ele>389.468</ele>
      </trkpt>
      <trkpt lat="46.1234" lon="5.82186">
        <ele>381.203</ele>
      </trkpt>
      <trkpt lat="46.12336" lon="5.8217">
        <ele>375.554</ele>
      </trkpt>
      <trkpt lat="46.12327" lon="5.82154">
        <ele>370.555</ele>
      </trkpt>
      <trkpt lat="46.12317" lon="5.82149">
        <ele>368.937</ele>
      </trkpt>
      <trkpt lat="46.12294" lon="5.82144">
        <ele>365.855</ele>
      </trkpt>
      <trkpt lat="46.12275" lon="5.82145">
        <ele>365.195</ele>
      </trkpt>
      <trkpt lat="46.12251" lon="5.82141">
        <ele>362.015</ele>
      </trkpt>
      <trkpt lat="46.12231" lon="5.82134">
        <ele>360.751</ele>
      </trkpt>
      <trkpt lat="46.12211" lon="5.82132">
        <ele>363.136</ele>
      </trkpt>
      <trkpt lat="46.1219" lon="5.82128">
        <ele>365.096</ele>
      </trkpt>
      <trkpt lat="46.12172" lon="5.82125">
        <ele>369.66</ele>
      </trkpt>
      <trkpt lat="46.12155" lon="5.82124">
        <ele>367.02</ele>
      </trkpt>
      <trkpt lat="46.12141" lon="5.82126">
        <ele>364.572</ele>
      </trkpt>
      <trkpt lat="46.12131" lon="5.82129">
        <ele>361.086</ele>
      </trkpt>
      <trkpt lat="46.12123" lon="5.82141">
        <ele>359.877</ele>
      </trkpt>
      <trkpt lat="46.12115" lon="5.82165">
        <ele>356.216</ele>
      </trkpt>
      <trkpt lat="46.12115" lon="5.82196">
        <ele>354.996</ele>
      </trkpt>
      <trkpt lat="46.12112" lon="5.82251">
        <ele>353.637</ele>
      </trkpt>
      <trkpt lat="46.12112" lon="5.82285">
        <ele>352.782</ele>
      </trkpt>
      <trkpt lat="46.12111" lon="5.82354">
        <ele>350.215</ele>
      </trkpt>
      <trkpt lat="46.12106" lon="5.82406">
        <ele>351.886</ele>
      </trkpt>
      <trkpt lat="46.121" lon="5.82449">
        <ele>352.945</ele>
      </trkpt>
      <trkpt lat="46.12098" lon="5.82483">
        <ele>351.555</ele>
      </trkpt>
      <trkpt lat="46.12089" lon="5.82505">
        <ele>350.668</ele>
      </trkpt>
      <trkpt lat="46.12067" lon="5.82544">
        <ele>347.94</ele>
      </trkpt>
      <trkpt lat="46.12044" lon="5.82577">
        <ele>348.107</ele>
      </trkpt>
      <trkpt lat="46.12026" lon="5.82587">
        <ele>347.911</ele>
      </trkpt>
      <trkpt lat="46.11999" lon="5.82617">
        <ele>346.771</ele>
      </trkpt>
      <trkpt lat="46.11978" lon="5.82637">
        <ele>346.603</ele>
      </trkpt>
      <trkpt lat="46.1196" lon="5.82664">
        <ele>346.919</ele>
      </trkpt>
      <trkpt lat="46.11946" lon="5.82672">
        <ele>350.595</ele>
      </trkpt>
      <trkpt lat="46.11929" lon="5.82675">
        <ele>353.061</ele>
      </trkpt>
      <trkpt lat="46.11915" lon="5.82675">
        <ele>355.038</ele>
      </trkpt>
      <trkpt lat="46.11902" lon="5.82668">
        <ele>356.115</ele>
      </trkpt>
      <trkpt lat="46.11881" lon="5.82659">
        <ele>359.5</ele>
      </trkpt>
      <trkpt lat="46.11866" lon="5.82646">
        <ele>355.347</ele>
      </trkpt>
      <trkpt lat="46.11858" lon="5.82634">
        <ele>353.195</ele>
      </trkpt>
      <trkpt lat="46.11851" lon="5.82616">
        <ele>347.022</ele>
      </trkpt>
      <trkpt lat="46.11843" lon="5.82593">
        <ele>342.119</ele>
      </trkpt>
      <trkpt lat="46.11825" lon="5.82558">
        <ele>340.712</ele>
      </trkpt>
      <trkpt lat="46.11808" lon="5.82529">
        <ele>340.046</ele>
      </trkpt>
      <trkpt lat="46.1179" lon="5.82497">
        <ele>339.901</ele>
      </trkpt>
      <trkpt lat="46.11777" lon="5.82477">
        <ele>339.501</ele>
      </trkpt>
      <trkpt lat="46.11762" lon="5.82458">
        <ele>342.41</ele>
      </trkpt>
      <trkpt lat="46.11745" lon="5.82438">
        <ele>340.405</ele>
      </trkpt>
      <trkpt lat="46.11719" lon="5.82428">
        <ele>343.181</ele>
      </trkpt>
      <trkpt lat="46.11693" lon="5.8242">
        <ele>343.55</ele>
      </trkpt>
      <trkpt lat="46.11681" lon="5.82421">
        <ele>344.582</ele>
      </trkpt>
      <trkpt lat="46.11658" lon="5.82421">
        <ele>345.256</ele>
      </trkpt>
      <trkpt lat="46.11639" lon="5.82425">
        <ele>347.356</ele>
      </trkpt>
      <trkpt lat="46.11621" lon="5.82425">
        <ele>347.417</ele>
      </trkpt>
      <trkpt lat="46.11602" lon="5.82429">
        <ele>349.68</ele>
      </trkpt>
      <trkpt lat="46.11589" lon="5.82431">
        <ele>351.078</ele>
      </trkpt>
      <trkpt lat="46.11578" lon="5.82435">
        <ele>352.637</ele>
      </trkpt>
      <trkpt lat="46.11568" lon="5.82436">
        <ele>350.695</ele>
      </trkpt>
      <trkpt lat="46.11563" lon="5.82425">
        <ele>342.392</ele>
      </trkpt>
      <trkpt lat="46.1156" lon="5.82407">
        <ele>337.598</ele>
      </trkpt>
      <trkpt lat="46.11555" lon="5.8239">
        <ele>337.961</ele>
      </trkpt>
      <trkpt lat="46.11545" lon="5.82381">
        <ele>340.248</ele>
      </trkpt>
      <trkpt lat="46.11525" lon="5.82388">
        <ele>338.886</ele>
      </trkpt>
      <trkpt lat="46.11507" lon="5.82403">
        <ele>340.052</ele>
      </trkpt>
      <trkpt lat="46.11487" lon="5.82423">
        <ele>342.274</ele>
      </trkpt>
      <trkpt lat="46.11478" lon="5.82443">
        <ele>342.079</ele>
      </trkpt>
      <trkpt lat="46.1147" lon="5.82469">
        <ele>339.734</ele>
      </trkpt>
      <trkpt lat="46.11465" lon="5.82485">
        <ele>341.288</ele>
      </trkpt>
      <trkpt lat="46.11455" lon="5.82513">
        <ele>339.058</ele>
      </trkpt>
      <trkpt lat="46.11448" lon="5.82537">
        <ele>337.479</ele>
      </trkpt>
      <trkpt lat="46.1144" lon="5.82564">
        <ele>338.736</ele>
      </trkpt>
      <trkpt lat="46.11431" lon="5.82593">
        <ele>338.849</ele>
      </trkpt>
      <trkpt lat="46.11419" lon="5.82618">
        <ele>337.283</ele>
      </trkpt>
      <trkpt lat="46.1141" lon="5.82637">
        <ele>336.446</ele>
      </trkpt>
      <trkpt lat="46.11393" lon="5.82655">
        <ele>337.004</ele>
      </trkpt>
      <trkpt lat="46.11378" lon="5.82667">
        <ele>335.998</ele>
      </trkpt>
      <trkpt lat="46.11365" lon="5.82676">
        <ele>335.716</ele>
      </trkpt>
      <trkpt lat="46.11344" lon="5.82683">
        <ele>336.226</ele>
      </trkpt>
      <trkpt lat="46.11319" lon="5.82689">
        <ele>335.786</ele>
      </trkpt>
      <trkpt lat="46.11301" lon="5.82689">
        <ele>336.052</ele>
      </trkpt>
      <trkpt lat="46.11277" lon="5.82701">
        <ele>338.586</ele>
      </trkpt>
      <trkpt lat="46.11255" lon="5.82716">
        <ele>338.855</ele>
      </trkpt>
      <trkpt lat="46.11239" lon="5.82724">
        <ele>336.547</ele>
      </trkpt>
      <trkpt lat="46.11214" lon="5.82749">
        <ele>337.741</ele>
      </trkpt>
      <trkpt lat="46.11186" lon="5.82782">
        <ele>338.839</ele>
      </trkpt>
      <trkpt lat="46.11171" lon="5.82809">
        <ele>334.232</ele>
      </trkpt>
      <trkpt lat="46.11145" lon="5.82835">
        <ele>338.544</ele>
      </trkpt>
      <trkpt lat="46.11123" lon="5.82864">
        <ele>334.73</ele>
      </trkpt>
      <trkpt lat="46.1111" lon="5.8288">
        <ele>333.32</ele>
      </trkpt>
      <trkpt lat="46.11099" lon="5.82887">
        <ele>332.359</ele>
      </trkpt>
      <trkpt lat="46.11101" lon="5.82871">
        <ele>334.116</ele>
      </trkpt>
      <trkpt lat="46.11102" lon="5.82865">
        <ele>334.662</ele>
      </trkpt>
      <trkpt lat="46.11087" lon="5.82873">
        <ele>334.273</ele>
      </trkpt>
      <trkpt lat="46.11071" lon="5.8288">
        <ele>334.819</ele>
      </trkpt>
      <trkpt lat="46.11062" lon="5.82886">
        <ele>333.725</ele>
      </trkpt>
      <trkpt lat="46.11053" lon="5.82894">
        <ele>334.515</ele>
      </trkpt>
      <trkpt lat="46.11041" lon="5.8289">
        <ele>337.344</ele>
      </trkpt>
      <trkpt lat="46.11029" lon="5.82883">
        <ele>344.619</ele>
      </trkpt>
      <trkpt lat="46.11023" lon="5.82869">
        <ele>353.883</ele>
      </trkpt>
      <trkpt lat="46.11031" lon="5.82855">
        <ele>357.796</ele>
      </trkpt>
      <trkpt lat="46.11035" lon="5.82847">
        <ele>357.562</ele>
      </trkpt>
      <trkpt lat="46.11019" lon="5.8283">
        <ele>359.32</ele>
      </trkpt>
      <trkpt lat="46.11011" lon="5.82825">
        <ele>359.383</ele>
      </trkpt>
      <trkpt lat="46.11006" lon="5.82811">
        <ele>359.518</ele>
      </trkpt>
      <trkpt lat="46.11004" lon="5.82798">
        <ele>359.674</ele>
      </trkpt>
      <trkpt lat="46.11007" lon="5.82781">
        <ele>361.933</ele>
      </trkpt>
      <trkpt lat="46.11012" lon="5.82766">
        <ele>364.688</ele>
      </trkpt>
      <trkpt lat="46.11016" lon="5.82726">
        <ele>366.88</ele>
      </trkpt>
      <trkpt lat="46.11017" lon="5.82709">
        <ele>367.249</ele>
      </trkpt>
      <trkpt lat="46.1102" lon="5.82694">
        <ele>368.316</ele>
      </trkpt>
      <trkpt lat="46.1102" lon="5.82678">
        <ele>368.221</ele>
      </trkpt>
      <trkpt lat="46.11014" lon="5.8266">
        <ele>366.608</ele>
      </trkpt>
    </trkseg>
  </trk>
</gpx>